<?xml version="1.0" encoding="UTF-8" standalone="no" ?>
<gpx xmlns="http://www.topografix.com/GPX/1/1" xmlns:xsi="http://www.w3.org/2001/XMLSchema-instance" xsi:schemaLocation="http://www.topografix.com/GPX/1/1 http://www.topografix.com/GPX/1/1/gpx.xsd" version="1.1" creator="VisuGPX - https://www.visugpx.com">
  <metadata>
    <name>2017-06-07 Bike ride-Amberieux-Rance O 35km</name>
    <desc><![CDATA[2017-06-07 Bike ride-Amberieux-Rance O 35km]]></desc>
  </metadata>
  <wpt lat="45.92474" lon="4.73706">
    <ele>174</ele>
    <name><![CDATA[2017-06-07 10:43 (Start)]]></name>
  </wpt>
  <wpt lat="45.92465" lon="4.73709">
    <ele>174</ele>
    <name><![CDATA[2017-06-07 10:43 (End)]]></name>
    <desc><![CDATA[Created by Google My Tracks on Android  Name: 2017-06-07 10:43 Activity type: biking Description: - Total distance: 35.22 km (21.9 mi) Total time: 1:54:14 Moving time: 1:53:03 Average speed: 18.50 km/h (11.5 mi/h) Average moving speed: 18.69 km/h (11.6 mi/h) Max speed: 46.93 km/h (29.2 mi/h) Average pace: 3:15 min/km (5:13 min/mi) Average moving pace: 3:13 min/km (5:10 min/mi) Fastest pace: 1:17 min/km (2:03 min/mi) Max elevation: 295 m (968 ft) Min elevation: 159 m (521 ft) Elevation gain: 540 m (1771 ft) Max grade: 51 % Min grade: -11 % Recorded: 07/06/2017 10:43]]></desc>
  </wpt>
  <trk>
    <name><![CDATA[2017-06-07 10:43]]></name>
    <trkseg>
      <trkpt lat="45.92474" lon="4.73706">
        <ele>174</ele>
        <time>2017-06-07T08:43:00.462Z</time>
      </trkpt>
      <trkpt lat="45.92474" lon="4.73704">
        <ele>174</ele>
        <time>2017-06-07T08:43:29Z</time>
      </trkpt>
      <trkpt lat="45.92473" lon="4.73707">
        <ele>174</ele>
        <time>2017-06-07T08:43:30Z</time>
      </trkpt>
      <trkpt lat="45.92472" lon="4.7371">
        <ele>174</ele>
        <time>2017-06-07T08:43:32Z</time>
      </trkpt>
      <trkpt lat="45.92462" lon="4.73716">
        <ele>174</ele>
        <time>2017-06-07T08:43:33Z</time>
      </trkpt>
      <trkpt lat="45.92463" lon="4.73704">
        <ele>174</ele>
        <time>2017-06-07T08:43:57Z</time>
      </trkpt>
      <trkpt lat="45.92463" lon="4.73701">
        <ele>174</ele>
        <time>2017-06-07T08:43:58Z</time>
      </trkpt>
      <trkpt lat="45.92463" lon="4.7369">
        <ele>174</ele>
        <time>2017-06-07T08:44:01Z</time>
      </trkpt>
      <trkpt lat="45.92463" lon="4.73686">
        <ele>174</ele>
        <time>2017-06-07T08:44:02Z</time>
      </trkpt>
      <trkpt lat="45.92464" lon="4.73677">
        <ele>174</ele>
        <time>2017-06-07T08:44:04Z</time>
      </trkpt>
      <trkpt lat="45.92465" lon="4.73673">
        <ele>174</ele>
        <time>2017-06-07T08:44:05Z</time>
      </trkpt>
      <trkpt lat="45.92466" lon="4.73663">
        <ele>174</ele>
        <time>2017-06-07T08:44:07Z</time>
      </trkpt>
      <trkpt lat="45.92466" lon="4.73658">
        <ele>174</ele>
        <time>2017-06-07T08:44:08Z</time>
      </trkpt>
      <trkpt lat="45.92471" lon="4.7365">
        <ele>174</ele>
        <time>2017-06-07T08:44:10Z</time>
      </trkpt>
      <trkpt lat="45.92475" lon="4.7365">
        <ele>174</ele>
        <time>2017-06-07T08:44:11Z</time>
      </trkpt>
      <trkpt lat="45.92484" lon="4.7365">
        <ele>174</ele>
        <time>2017-06-07T08:44:13Z</time>
      </trkpt>
      <trkpt lat="45.92488" lon="4.7365">
        <ele>174</ele>
        <time>2017-06-07T08:44:14Z</time>
      </trkpt>
      <trkpt lat="45.92493" lon="4.7365">
        <ele>174</ele>
        <time>2017-06-07T08:44:15Z</time>
      </trkpt>
      <trkpt lat="45.92497" lon="4.7365">
        <ele>174</ele>
        <time>2017-06-07T08:44:16Z</time>
      </trkpt>
      <trkpt lat="45.92502" lon="4.7365">
        <ele>174</ele>
        <time>2017-06-07T08:44:17Z</time>
      </trkpt>
      <trkpt lat="45.92507" lon="4.7365">
        <ele>174</ele>
        <time>2017-06-07T08:44:18Z</time>
      </trkpt>
      <trkpt lat="45.92512" lon="4.7365">
        <ele>174</ele>
        <time>2017-06-07T08:44:19Z</time>
      </trkpt>
      <trkpt lat="45.92517" lon="4.7365">
        <ele>174</ele>
        <time>2017-06-07T08:44:20Z</time>
      </trkpt>
      <trkpt lat="45.92523" lon="4.7365">
        <ele>173</ele>
        <time>2017-06-07T08:44:21Z</time>
      </trkpt>
      <trkpt lat="45.92529" lon="4.73649">
        <ele>173</ele>
        <time>2017-06-07T08:44:22Z</time>
      </trkpt>
      <trkpt lat="45.92534" lon="4.73649">
        <ele>173</ele>
        <time>2017-06-07T08:44:23Z</time>
      </trkpt>
      <trkpt lat="45.9254" lon="4.73648">
        <ele>173</ele>
        <time>2017-06-07T08:44:24Z</time>
      </trkpt>
      <trkpt lat="45.92544" lon="4.73647">
        <ele>173</ele>
        <time>2017-06-07T08:44:25Z</time>
      </trkpt>
      <trkpt lat="45.9255" lon="4.73646">
        <ele>173</ele>
        <time>2017-06-07T08:44:26Z</time>
      </trkpt>
      <trkpt lat="45.92554" lon="4.73644">
        <ele>173</ele>
        <time>2017-06-07T08:44:27Z</time>
      </trkpt>
      <trkpt lat="45.92559" lon="4.73643">
        <ele>173</ele>
        <time>2017-06-07T08:44:28Z</time>
      </trkpt>
      <trkpt lat="45.92564" lon="4.7364">
        <ele>173</ele>
        <time>2017-06-07T08:44:29Z</time>
      </trkpt>
      <trkpt lat="45.92569" lon="4.73637">
        <ele>173</ele>
        <time>2017-06-07T08:44:30Z</time>
      </trkpt>
      <trkpt lat="45.92574" lon="4.73636">
        <ele>172</ele>
        <time>2017-06-07T08:44:31Z</time>
      </trkpt>
      <trkpt lat="45.92579" lon="4.73635">
        <ele>172</ele>
        <time>2017-06-07T08:44:32Z</time>
      </trkpt>
      <trkpt lat="45.92584" lon="4.73634">
        <ele>172</ele>
        <time>2017-06-07T08:44:33Z</time>
      </trkpt>
      <trkpt lat="45.92588" lon="4.73633">
        <ele>172</ele>
        <time>2017-06-07T08:44:34Z</time>
      </trkpt>
      <trkpt lat="45.92593" lon="4.73633">
        <ele>172</ele>
        <time>2017-06-07T08:44:35Z</time>
      </trkpt>
      <trkpt lat="45.92598" lon="4.73633">
        <ele>172</ele>
        <time>2017-06-07T08:44:36Z</time>
      </trkpt>
      <trkpt lat="45.92603" lon="4.73633">
        <ele>172</ele>
        <time>2017-06-07T08:44:37Z</time>
      </trkpt>
      <trkpt lat="45.92609" lon="4.73636">
        <ele>172</ele>
        <time>2017-06-07T08:44:38Z</time>
      </trkpt>
      <trkpt lat="45.92613" lon="4.7364">
        <ele>173</ele>
        <time>2017-06-07T08:44:39Z</time>
      </trkpt>
      <trkpt lat="45.92616" lon="4.73644">
        <ele>173</ele>
        <time>2017-06-07T08:44:40Z</time>
      </trkpt>
      <trkpt lat="45.92621" lon="4.73655">
        <ele>173</ele>
        <time>2017-06-07T08:44:42Z</time>
      </trkpt>
      <trkpt lat="45.92623" lon="4.7366">
        <ele>173</ele>
        <time>2017-06-07T08:44:43Z</time>
      </trkpt>
      <trkpt lat="45.92628" lon="4.7367">
        <ele>173</ele>
        <time>2017-06-07T08:44:45Z</time>
      </trkpt>
      <trkpt lat="45.9263" lon="4.73675">
        <ele>173</ele>
        <time>2017-06-07T08:44:46Z</time>
      </trkpt>
      <trkpt lat="45.92635" lon="4.73684">
        <ele>173</ele>
        <time>2017-06-07T08:44:48Z</time>
      </trkpt>
      <trkpt lat="45.92638" lon="4.73688">
        <ele>173</ele>
        <time>2017-06-07T08:44:49Z</time>
      </trkpt>
      <trkpt lat="45.92642" lon="4.73693">
        <ele>173</ele>
        <time>2017-06-07T08:44:50Z</time>
      </trkpt>
      <trkpt lat="45.92645" lon="4.73696">
        <ele>173</ele>
        <time>2017-06-07T08:44:51Z</time>
      </trkpt>
      <trkpt lat="45.92649" lon="4.737">
        <ele>173</ele>
        <time>2017-06-07T08:44:52Z</time>
      </trkpt>
      <trkpt lat="45.92654" lon="4.73703">
        <ele>173</ele>
        <time>2017-06-07T08:44:53Z</time>
      </trkpt>
      <trkpt lat="45.92659" lon="4.73707">
        <ele>173</ele>
        <time>2017-06-07T08:44:54Z</time>
      </trkpt>
      <trkpt lat="45.92664" lon="4.7371">
        <ele>173</ele>
        <time>2017-06-07T08:44:55Z</time>
      </trkpt>
      <trkpt lat="45.92668" lon="4.73713">
        <ele>174</ele>
        <time>2017-06-07T08:44:56Z</time>
      </trkpt>
      <trkpt lat="45.92674" lon="4.73716">
        <ele>174</ele>
        <time>2017-06-07T08:44:57Z</time>
      </trkpt>
      <trkpt lat="45.92679" lon="4.73718">
        <ele>174</ele>
        <time>2017-06-07T08:44:58Z</time>
      </trkpt>
      <trkpt lat="45.92685" lon="4.7372">
        <ele>173</ele>
        <time>2017-06-07T08:44:59Z</time>
      </trkpt>
      <trkpt lat="45.92691" lon="4.73722">
        <ele>173</ele>
        <time>2017-06-07T08:45:00Z</time>
      </trkpt>
      <trkpt lat="45.92696" lon="4.73725">
        <ele>173</ele>
        <time>2017-06-07T08:45:01Z</time>
      </trkpt>
      <trkpt lat="45.92702" lon="4.73727">
        <ele>173</ele>
        <time>2017-06-07T08:45:02Z</time>
      </trkpt>
      <trkpt lat="45.92707" lon="4.73728">
        <ele>173</ele>
        <time>2017-06-07T08:45:03Z</time>
      </trkpt>
      <trkpt lat="45.92713" lon="4.73728">
        <ele>173</ele>
        <time>2017-06-07T08:45:04Z</time>
      </trkpt>
      <trkpt lat="45.92718" lon="4.73728">
        <ele>173</ele>
        <time>2017-06-07T08:45:05Z</time>
      </trkpt>
      <trkpt lat="45.92723" lon="4.73729">
        <ele>173</ele>
        <time>2017-06-07T08:45:06Z</time>
      </trkpt>
      <trkpt lat="45.92728" lon="4.7373">
        <ele>173</ele>
        <time>2017-06-07T08:45:07Z</time>
      </trkpt>
      <trkpt lat="45.92733" lon="4.73731">
        <ele>173</ele>
        <time>2017-06-07T08:45:08Z</time>
      </trkpt>
      <trkpt lat="45.92738" lon="4.73731">
        <ele>173</ele>
        <time>2017-06-07T08:45:09Z</time>
      </trkpt>
      <trkpt lat="45.92744" lon="4.73732">
        <ele>173</ele>
        <time>2017-06-07T08:45:10Z</time>
      </trkpt>
      <trkpt lat="45.92749" lon="4.73733">
        <ele>173</ele>
        <time>2017-06-07T08:45:11Z</time>
      </trkpt>
      <trkpt lat="45.92754" lon="4.73735">
        <ele>173</ele>
        <time>2017-06-07T08:45:12Z</time>
      </trkpt>
      <trkpt lat="45.92759" lon="4.73737">
        <ele>173</ele>
        <time>2017-06-07T08:45:13Z</time>
      </trkpt>
      <trkpt lat="45.92767" lon="4.7374">
        <ele>172</ele>
        <time>2017-06-07T08:45:15Z</time>
      </trkpt>
      <trkpt lat="45.92769" lon="4.73741">
        <ele>172</ele>
        <time>2017-06-07T08:45:16Z</time>
      </trkpt>
      <trkpt lat="45.92774" lon="4.73748">
        <ele>172</ele>
        <time>2017-06-07T08:45:18Z</time>
      </trkpt>
      <trkpt lat="45.92777" lon="4.73753">
        <ele>173</ele>
        <time>2017-06-07T08:45:19Z</time>
      </trkpt>
      <trkpt lat="45.9278" lon="4.73758">
        <ele>173</ele>
        <time>2017-06-07T08:45:20Z</time>
      </trkpt>
      <trkpt lat="45.92785" lon="4.73762">
        <ele>173</ele>
        <time>2017-06-07T08:45:21Z</time>
      </trkpt>
      <trkpt lat="45.9279" lon="4.73766">
        <ele>173</ele>
        <time>2017-06-07T08:45:22Z</time>
      </trkpt>
      <trkpt lat="45.92795" lon="4.73769">
        <ele>173</ele>
        <time>2017-06-07T08:45:23Z</time>
      </trkpt>
      <trkpt lat="45.928" lon="4.73772">
        <ele>173</ele>
        <time>2017-06-07T08:45:24Z</time>
      </trkpt>
      <trkpt lat="45.92806" lon="4.73775">
        <ele>173</ele>
        <time>2017-06-07T08:45:25Z</time>
      </trkpt>
      <trkpt lat="45.92811" lon="4.73778">
        <ele>173</ele>
        <time>2017-06-07T08:45:26Z</time>
      </trkpt>
      <trkpt lat="45.92816" lon="4.73782">
        <ele>173</ele>
        <time>2017-06-07T08:45:27Z</time>
      </trkpt>
      <trkpt lat="45.92821" lon="4.73786">
        <ele>173</ele>
        <time>2017-06-07T08:45:28Z</time>
      </trkpt>
      <trkpt lat="45.92826" lon="4.73789">
        <ele>173</ele>
        <time>2017-06-07T08:45:29Z</time>
      </trkpt>
      <trkpt lat="45.92833" lon="4.73795">
        <ele>173</ele>
        <time>2017-06-07T08:45:31Z</time>
      </trkpt>
      <trkpt lat="45.92837" lon="4.73796">
        <ele>173</ele>
        <time>2017-06-07T08:45:32Z</time>
      </trkpt>
      <trkpt lat="45.92844" lon="4.738">
        <ele>173</ele>
        <time>2017-06-07T08:45:35Z</time>
      </trkpt>
      <trkpt lat="45.92846" lon="4.73803">
        <ele>173</ele>
        <time>2017-06-07T08:45:36Z</time>
      </trkpt>
      <trkpt lat="45.9285" lon="4.73809">
        <ele>173</ele>
        <time>2017-06-07T08:45:38Z</time>
      </trkpt>
      <trkpt lat="45.92851" lon="4.73814">
        <ele>173</ele>
        <time>2017-06-07T08:45:39Z</time>
      </trkpt>
      <trkpt lat="45.92855" lon="4.73825">
        <ele>173</ele>
        <time>2017-06-07T08:45:41Z</time>
      </trkpt>
      <trkpt lat="45.92857" lon="4.73832">
        <ele>173</ele>
        <time>2017-06-07T08:45:42Z</time>
      </trkpt>
      <trkpt lat="45.92859" lon="4.73838">
        <ele>173</ele>
        <time>2017-06-07T08:45:43Z</time>
      </trkpt>
      <trkpt lat="45.92861" lon="4.73845">
        <ele>173</ele>
        <time>2017-06-07T08:45:44Z</time>
      </trkpt>
      <trkpt lat="45.92863" lon="4.73852">
        <ele>173</ele>
        <time>2017-06-07T08:45:45Z</time>
      </trkpt>
      <trkpt lat="45.92865" lon="4.73859">
        <ele>173</ele>
        <time>2017-06-07T08:45:46Z</time>
      </trkpt>
      <trkpt lat="45.92868" lon="4.73866">
        <ele>173</ele>
        <time>2017-06-07T08:45:47Z</time>
      </trkpt>
      <trkpt lat="45.92869" lon="4.73873">
        <ele>173</ele>
        <time>2017-06-07T08:45:48Z</time>
      </trkpt>
      <trkpt lat="45.92872" lon="4.7388">
        <ele>173</ele>
        <time>2017-06-07T08:45:49Z</time>
      </trkpt>
      <trkpt lat="45.92874" lon="4.73889">
        <ele>173</ele>
        <time>2017-06-07T08:45:50Z</time>
      </trkpt>
      <trkpt lat="45.92875" lon="4.73896">
        <ele>173</ele>
        <time>2017-06-07T08:45:51Z</time>
      </trkpt>
      <trkpt lat="45.92876" lon="4.73904">
        <ele>173</ele>
        <time>2017-06-07T08:45:52Z</time>
      </trkpt>
      <trkpt lat="45.92876" lon="4.73912">
        <ele>173</ele>
        <time>2017-06-07T08:45:53Z</time>
      </trkpt>
      <trkpt lat="45.92877" lon="4.7392">
        <ele>172</ele>
        <time>2017-06-07T08:45:54Z</time>
      </trkpt>
      <trkpt lat="45.92877" lon="4.73928">
        <ele>172</ele>
        <time>2017-06-07T08:45:55Z</time>
      </trkpt>
      <trkpt lat="45.92878" lon="4.73936">
        <ele>172</ele>
        <time>2017-06-07T08:45:56Z</time>
      </trkpt>
      <trkpt lat="45.92879" lon="4.73944">
        <ele>172</ele>
        <time>2017-06-07T08:45:57Z</time>
      </trkpt>
      <trkpt lat="45.92879" lon="4.73952">
        <ele>172</ele>
        <time>2017-06-07T08:45:58Z</time>
      </trkpt>
      <trkpt lat="45.92879" lon="4.73959">
        <ele>172</ele>
        <time>2017-06-07T08:45:59Z</time>
      </trkpt>
      <trkpt lat="45.9288" lon="4.73967">
        <ele>172</ele>
        <time>2017-06-07T08:46:00Z</time>
      </trkpt>
      <trkpt lat="45.9288" lon="4.73975">
        <ele>172</ele>
        <time>2017-06-07T08:46:01Z</time>
      </trkpt>
      <trkpt lat="45.92879" lon="4.73982">
        <ele>172</ele>
        <time>2017-06-07T08:46:02Z</time>
      </trkpt>
      <trkpt lat="45.92879" lon="4.73991">
        <ele>172</ele>
        <time>2017-06-07T08:46:03Z</time>
      </trkpt>
      <trkpt lat="45.92877" lon="4.73999">
        <ele>172</ele>
        <time>2017-06-07T08:46:04Z</time>
      </trkpt>
      <trkpt lat="45.92876" lon="4.74006">
        <ele>172</ele>
        <time>2017-06-07T08:46:05Z</time>
      </trkpt>
      <trkpt lat="45.92874" lon="4.74014">
        <ele>172</ele>
        <time>2017-06-07T08:46:06Z</time>
      </trkpt>
      <trkpt lat="45.92873" lon="4.74021">
        <ele>172</ele>
        <time>2017-06-07T08:46:07Z</time>
      </trkpt>
      <trkpt lat="45.92871" lon="4.74028">
        <ele>172</ele>
        <time>2017-06-07T08:46:08Z</time>
      </trkpt>
      <trkpt lat="45.92869" lon="4.74035">
        <ele>172</ele>
        <time>2017-06-07T08:46:09Z</time>
      </trkpt>
      <trkpt lat="45.92866" lon="4.74042">
        <ele>172</ele>
        <time>2017-06-07T08:46:10Z</time>
      </trkpt>
      <trkpt lat="45.92862" lon="4.74047">
        <ele>172</ele>
        <time>2017-06-07T08:46:11Z</time>
      </trkpt>
      <trkpt lat="45.92858" lon="4.74053">
        <ele>172</ele>
        <time>2017-06-07T08:46:12Z</time>
      </trkpt>
      <trkpt lat="45.92854" lon="4.74058">
        <ele>172</ele>
        <time>2017-06-07T08:46:13Z</time>
      </trkpt>
      <trkpt lat="45.9285" lon="4.74063">
        <ele>172</ele>
        <time>2017-06-07T08:46:14Z</time>
      </trkpt>
      <trkpt lat="45.92846" lon="4.74068">
        <ele>172</ele>
        <time>2017-06-07T08:46:15Z</time>
      </trkpt>
      <trkpt lat="45.92841" lon="4.74074">
        <ele>172</ele>
        <time>2017-06-07T08:46:16Z</time>
      </trkpt>
      <trkpt lat="45.92836" lon="4.7408">
        <ele>171</ele>
        <time>2017-06-07T08:46:17Z</time>
      </trkpt>
      <trkpt lat="45.92832" lon="4.74086">
        <ele>171</ele>
        <time>2017-06-07T08:46:18Z</time>
      </trkpt>
      <trkpt lat="45.92827" lon="4.74092">
        <ele>171</ele>
        <time>2017-06-07T08:46:19Z</time>
      </trkpt>
      <trkpt lat="45.92822" lon="4.74097">
        <ele>171</ele>
        <time>2017-06-07T08:46:20Z</time>
      </trkpt>
      <trkpt lat="45.92816" lon="4.74103">
        <ele>172</ele>
        <time>2017-06-07T08:46:21Z</time>
      </trkpt>
      <trkpt lat="45.92811" lon="4.74109">
        <ele>172</ele>
        <time>2017-06-07T08:46:22Z</time>
      </trkpt>
      <trkpt lat="45.92806" lon="4.74115">
        <ele>172</ele>
        <time>2017-06-07T08:46:23Z</time>
      </trkpt>
      <trkpt lat="45.928" lon="4.7412">
        <ele>172</ele>
        <time>2017-06-07T08:46:24Z</time>
      </trkpt>
      <trkpt lat="45.92795" lon="4.74126">
        <ele>172</ele>
        <time>2017-06-07T08:46:25Z</time>
      </trkpt>
      <trkpt lat="45.9279" lon="4.74131">
        <ele>172</ele>
        <time>2017-06-07T08:46:26Z</time>
      </trkpt>
      <trkpt lat="45.92785" lon="4.74135">
        <ele>172</ele>
        <time>2017-06-07T08:46:27Z</time>
      </trkpt>
      <trkpt lat="45.92779" lon="4.74141">
        <ele>172</ele>
        <time>2017-06-07T08:46:28Z</time>
      </trkpt>
      <trkpt lat="45.92775" lon="4.74146">
        <ele>172</ele>
        <time>2017-06-07T08:46:29Z</time>
      </trkpt>
      <trkpt lat="45.9277" lon="4.74152">
        <ele>172</ele>
        <time>2017-06-07T08:46:30Z</time>
      </trkpt>
      <trkpt lat="45.92765" lon="4.74157">
        <ele>172</ele>
        <time>2017-06-07T08:46:31Z</time>
      </trkpt>
      <trkpt lat="45.9276" lon="4.74162">
        <ele>172</ele>
        <time>2017-06-07T08:46:32Z</time>
      </trkpt>
      <trkpt lat="45.92755" lon="4.74168">
        <ele>172</ele>
        <time>2017-06-07T08:46:33Z</time>
      </trkpt>
      <trkpt lat="45.9275" lon="4.74175">
        <ele>172</ele>
        <time>2017-06-07T08:46:34Z</time>
      </trkpt>
      <trkpt lat="45.92745" lon="4.74181">
        <ele>172</ele>
        <time>2017-06-07T08:46:35Z</time>
      </trkpt>
      <trkpt lat="45.9274" lon="4.74187">
        <ele>172</ele>
        <time>2017-06-07T08:46:36Z</time>
      </trkpt>
      <trkpt lat="45.92736" lon="4.74193">
        <ele>171</ele>
        <time>2017-06-07T08:46:37Z</time>
      </trkpt>
      <trkpt lat="45.92731" lon="4.74199">
        <ele>171</ele>
        <time>2017-06-07T08:46:38Z</time>
      </trkpt>
      <trkpt lat="45.92727" lon="4.74205">
        <ele>171</ele>
        <time>2017-06-07T08:46:39Z</time>
      </trkpt>
      <trkpt lat="45.92723" lon="4.74211">
        <ele>171</ele>
        <time>2017-06-07T08:46:40Z</time>
      </trkpt>
      <trkpt lat="45.92719" lon="4.74217">
        <ele>171</ele>
        <time>2017-06-07T08:46:41Z</time>
      </trkpt>
      <trkpt lat="45.92715" lon="4.74222">
        <ele>171</ele>
        <time>2017-06-07T08:46:42Z</time>
      </trkpt>
      <trkpt lat="45.92711" lon="4.74228">
        <ele>171</ele>
        <time>2017-06-07T08:46:43Z</time>
      </trkpt>
      <trkpt lat="45.92707" lon="4.74235">
        <ele>171</ele>
        <time>2017-06-07T08:46:44Z</time>
      </trkpt>
      <trkpt lat="45.92704" lon="4.74241">
        <ele>171</ele>
        <time>2017-06-07T08:46:45Z</time>
      </trkpt>
      <trkpt lat="45.927" lon="4.74248">
        <ele>171</ele>
        <time>2017-06-07T08:46:46Z</time>
      </trkpt>
      <trkpt lat="45.92696" lon="4.74254">
        <ele>171</ele>
        <time>2017-06-07T08:46:47Z</time>
      </trkpt>
      <trkpt lat="45.92692" lon="4.74261">
        <ele>171</ele>
        <time>2017-06-07T08:46:48Z</time>
      </trkpt>
      <trkpt lat="45.92688" lon="4.74267">
        <ele>171</ele>
        <time>2017-06-07T08:46:49Z</time>
      </trkpt>
      <trkpt lat="45.92684" lon="4.74274">
        <ele>171</ele>
        <time>2017-06-07T08:46:50Z</time>
      </trkpt>
      <trkpt lat="45.9268" lon="4.74281">
        <ele>171</ele>
        <time>2017-06-07T08:46:51Z</time>
      </trkpt>
      <trkpt lat="45.92676" lon="4.74288">
        <ele>171</ele>
        <time>2017-06-07T08:46:52Z</time>
      </trkpt>
      <trkpt lat="45.92672" lon="4.74296">
        <ele>171</ele>
        <time>2017-06-07T08:46:53Z</time>
      </trkpt>
      <trkpt lat="45.92669" lon="4.74303">
        <ele>171</ele>
        <time>2017-06-07T08:46:54Z</time>
      </trkpt>
      <trkpt lat="45.92665" lon="4.74311">
        <ele>171</ele>
        <time>2017-06-07T08:46:55Z</time>
      </trkpt>
      <trkpt lat="45.92661" lon="4.74318">
        <ele>171</ele>
        <time>2017-06-07T08:46:56Z</time>
      </trkpt>
      <trkpt lat="45.92657" lon="4.74325">
        <ele>171</ele>
        <time>2017-06-07T08:46:57Z</time>
      </trkpt>
      <trkpt lat="45.92654" lon="4.74332">
        <ele>171</ele>
        <time>2017-06-07T08:46:58Z</time>
      </trkpt>
      <trkpt lat="45.9265" lon="4.74339">
        <ele>171</ele>
        <time>2017-06-07T08:46:59Z</time>
      </trkpt>
      <trkpt lat="45.92646" lon="4.74346">
        <ele>171</ele>
        <time>2017-06-07T08:47:00Z</time>
      </trkpt>
      <trkpt lat="45.92642" lon="4.74353">
        <ele>171</ele>
        <time>2017-06-07T08:47:01Z</time>
      </trkpt>
      <trkpt lat="45.92638" lon="4.7436">
        <ele>171</ele>
        <time>2017-06-07T08:47:02Z</time>
      </trkpt>
      <trkpt lat="45.92634" lon="4.74368">
        <ele>171</ele>
        <time>2017-06-07T08:47:03Z</time>
      </trkpt>
      <trkpt lat="45.92631" lon="4.74375">
        <ele>170</ele>
        <time>2017-06-07T08:47:04Z</time>
      </trkpt>
      <trkpt lat="45.92626" lon="4.74384">
        <ele>170</ele>
        <time>2017-06-07T08:47:05Z</time>
      </trkpt>
      <trkpt lat="45.92622" lon="4.74391">
        <ele>170</ele>
        <time>2017-06-07T08:47:06Z</time>
      </trkpt>
      <trkpt lat="45.92617" lon="4.74399">
        <ele>170</ele>
        <time>2017-06-07T08:47:07Z</time>
      </trkpt>
      <trkpt lat="45.92613" lon="4.74407">
        <ele>170</ele>
        <time>2017-06-07T08:47:08Z</time>
      </trkpt>
      <trkpt lat="45.92609" lon="4.74415">
        <ele>170</ele>
        <time>2017-06-07T08:47:09Z</time>
      </trkpt>
      <trkpt lat="45.92605" lon="4.74423">
        <ele>170</ele>
        <time>2017-06-07T08:47:10Z</time>
      </trkpt>
      <trkpt lat="45.92601" lon="4.7443">
        <ele>170</ele>
        <time>2017-06-07T08:47:11Z</time>
      </trkpt>
      <trkpt lat="45.92597" lon="4.74438">
        <ele>170</ele>
        <time>2017-06-07T08:47:12Z</time>
      </trkpt>
      <trkpt lat="45.92593" lon="4.74445">
        <ele>170</ele>
        <time>2017-06-07T08:47:13Z</time>
      </trkpt>
      <trkpt lat="45.92589" lon="4.74452">
        <ele>170</ele>
        <time>2017-06-07T08:47:14Z</time>
      </trkpt>
      <trkpt lat="45.92585" lon="4.74459">
        <ele>170</ele>
        <time>2017-06-07T08:47:15Z</time>
      </trkpt>
      <trkpt lat="45.92581" lon="4.74466">
        <ele>170</ele>
        <time>2017-06-07T08:47:16Z</time>
      </trkpt>
      <trkpt lat="45.92577" lon="4.74473">
        <ele>170</ele>
        <time>2017-06-07T08:47:17Z</time>
      </trkpt>
      <trkpt lat="45.92573" lon="4.7448">
        <ele>170</ele>
        <time>2017-06-07T08:47:18Z</time>
      </trkpt>
      <trkpt lat="45.92569" lon="4.74488">
        <ele>170</ele>
        <time>2017-06-07T08:47:19Z</time>
      </trkpt>
      <trkpt lat="45.92565" lon="4.74496">
        <ele>170</ele>
        <time>2017-06-07T08:47:20Z</time>
      </trkpt>
      <trkpt lat="45.92561" lon="4.74504">
        <ele>170</ele>
        <time>2017-06-07T08:47:21Z</time>
      </trkpt>
      <trkpt lat="45.92556" lon="4.74512">
        <ele>170</ele>
        <time>2017-06-07T08:47:22Z</time>
      </trkpt>
      <trkpt lat="45.92552" lon="4.7452">
        <ele>170</ele>
        <time>2017-06-07T08:47:23Z</time>
      </trkpt>
      <trkpt lat="45.92547" lon="4.74528">
        <ele>170</ele>
        <time>2017-06-07T08:47:24Z</time>
      </trkpt>
      <trkpt lat="45.92543" lon="4.74535">
        <ele>170</ele>
        <time>2017-06-07T08:47:25Z</time>
      </trkpt>
      <trkpt lat="45.92538" lon="4.74542">
        <ele>171</ele>
        <time>2017-06-07T08:47:26Z</time>
      </trkpt>
      <trkpt lat="45.92534" lon="4.74549">
        <ele>171</ele>
        <time>2017-06-07T08:47:27Z</time>
      </trkpt>
      <trkpt lat="45.92529" lon="4.74556">
        <ele>171</ele>
        <time>2017-06-07T08:47:28Z</time>
      </trkpt>
      <trkpt lat="45.92524" lon="4.74563">
        <ele>171</ele>
        <time>2017-06-07T08:47:29Z</time>
      </trkpt>
      <trkpt lat="45.92519" lon="4.74569">
        <ele>171</ele>
        <time>2017-06-07T08:47:30Z</time>
      </trkpt>
      <trkpt lat="45.92514" lon="4.74575">
        <ele>171</ele>
        <time>2017-06-07T08:47:31Z</time>
      </trkpt>
      <trkpt lat="45.92509" lon="4.7458">
        <ele>171</ele>
        <time>2017-06-07T08:47:32Z</time>
      </trkpt>
      <trkpt lat="45.92504" lon="4.74586">
        <ele>171</ele>
        <time>2017-06-07T08:47:33Z</time>
      </trkpt>
      <trkpt lat="45.92499" lon="4.74592">
        <ele>171</ele>
        <time>2017-06-07T08:47:34Z</time>
      </trkpt>
      <trkpt lat="45.92494" lon="4.74599">
        <ele>171</ele>
        <time>2017-06-07T08:47:35Z</time>
      </trkpt>
      <trkpt lat="45.92489" lon="4.74606">
        <ele>171</ele>
        <time>2017-06-07T08:47:36Z</time>
      </trkpt>
      <trkpt lat="45.92484" lon="4.74612">
        <ele>171</ele>
        <time>2017-06-07T08:47:37Z</time>
      </trkpt>
      <trkpt lat="45.92479" lon="4.74619">
        <ele>171</ele>
        <time>2017-06-07T08:47:38Z</time>
      </trkpt>
      <trkpt lat="45.92474" lon="4.74626">
        <ele>171</ele>
        <time>2017-06-07T08:47:39Z</time>
      </trkpt>
      <trkpt lat="45.92469" lon="4.74633">
        <ele>171</ele>
        <time>2017-06-07T08:47:40Z</time>
      </trkpt>
      <trkpt lat="45.92464" lon="4.7464">
        <ele>171</ele>
        <time>2017-06-07T08:47:41Z</time>
      </trkpt>
      <trkpt lat="45.9246" lon="4.74647">
        <ele>171</ele>
        <time>2017-06-07T08:47:42Z</time>
      </trkpt>
      <trkpt lat="45.92456" lon="4.74654">
        <ele>171</ele>
        <time>2017-06-07T08:47:43Z</time>
      </trkpt>
      <trkpt lat="45.92452" lon="4.74661">
        <ele>171</ele>
        <time>2017-06-07T08:47:44Z</time>
      </trkpt>
      <trkpt lat="45.92448" lon="4.74669">
        <ele>171</ele>
        <time>2017-06-07T08:47:45Z</time>
      </trkpt>
      <trkpt lat="45.92444" lon="4.74677">
        <ele>171</ele>
        <time>2017-06-07T08:47:46Z</time>
      </trkpt>
      <trkpt lat="45.9244" lon="4.74686">
        <ele>171</ele>
        <time>2017-06-07T08:47:47Z</time>
      </trkpt>
      <trkpt lat="45.92436" lon="4.74694">
        <ele>171</ele>
        <time>2017-06-07T08:47:48Z</time>
      </trkpt>
      <trkpt lat="45.92433" lon="4.74704">
        <ele>171</ele>
        <time>2017-06-07T08:47:49Z</time>
      </trkpt>
      <trkpt lat="45.92429" lon="4.74713">
        <ele>171</ele>
        <time>2017-06-07T08:47:50Z</time>
      </trkpt>
      <trkpt lat="45.92426" lon="4.74722">
        <ele>171</ele>
        <time>2017-06-07T08:47:51Z</time>
      </trkpt>
      <trkpt lat="45.92423" lon="4.74731">
        <ele>171</ele>
        <time>2017-06-07T08:47:52Z</time>
      </trkpt>
      <trkpt lat="45.9242" lon="4.7474">
        <ele>172</ele>
        <time>2017-06-07T08:47:53Z</time>
      </trkpt>
      <trkpt lat="45.92417" lon="4.74749">
        <ele>172</ele>
        <time>2017-06-07T08:47:54Z</time>
      </trkpt>
      <trkpt lat="45.92414" lon="4.74758">
        <ele>172</ele>
        <time>2017-06-07T08:47:55Z</time>
      </trkpt>
      <trkpt lat="45.92412" lon="4.74768">
        <ele>172</ele>
        <time>2017-06-07T08:47:56Z</time>
      </trkpt>
      <trkpt lat="45.9241" lon="4.74777">
        <ele>171</ele>
        <time>2017-06-07T08:47:57Z</time>
      </trkpt>
      <trkpt lat="45.92408" lon="4.74786">
        <ele>171</ele>
        <time>2017-06-07T08:47:58Z</time>
      </trkpt>
      <trkpt lat="45.92406" lon="4.74796">
        <ele>171</ele>
        <time>2017-06-07T08:47:59Z</time>
      </trkpt>
      <trkpt lat="45.92404" lon="4.74805">
        <ele>171</ele>
        <time>2017-06-07T08:48:00Z</time>
      </trkpt>
      <trkpt lat="45.92402" lon="4.74815">
        <ele>171</ele>
        <time>2017-06-07T08:48:01Z</time>
      </trkpt>
      <trkpt lat="45.924" lon="4.74825">
        <ele>171</ele>
        <time>2017-06-07T08:48:02Z</time>
      </trkpt>
      <trkpt lat="45.92398" lon="4.74834">
        <ele>171</ele>
        <time>2017-06-07T08:48:03Z</time>
      </trkpt>
      <trkpt lat="45.92395" lon="4.74844">
        <ele>171</ele>
        <time>2017-06-07T08:48:04Z</time>
      </trkpt>
      <trkpt lat="45.92392" lon="4.74853">
        <ele>171</ele>
        <time>2017-06-07T08:48:05Z</time>
      </trkpt>
      <trkpt lat="45.92388" lon="4.74863">
        <ele>171</ele>
        <time>2017-06-07T08:48:06Z</time>
      </trkpt>
      <trkpt lat="45.92384" lon="4.74872">
        <ele>171</ele>
        <time>2017-06-07T08:48:07Z</time>
      </trkpt>
      <trkpt lat="45.92381" lon="4.74882">
        <ele>171</ele>
        <time>2017-06-07T08:48:08Z</time>
      </trkpt>
      <trkpt lat="45.92376" lon="4.74892">
        <ele>171</ele>
        <time>2017-06-07T08:48:09Z</time>
      </trkpt>
      <trkpt lat="45.92372" lon="4.74902">
        <ele>171</ele>
        <time>2017-06-07T08:48:10Z</time>
      </trkpt>
      <trkpt lat="45.92369" lon="4.74911">
        <ele>171</ele>
        <time>2017-06-07T08:48:11Z</time>
      </trkpt>
      <trkpt lat="45.92365" lon="4.74921">
        <ele>170</ele>
        <time>2017-06-07T08:48:12Z</time>
      </trkpt>
      <trkpt lat="45.92361" lon="4.7493">
        <ele>170</ele>
        <time>2017-06-07T08:48:13Z</time>
      </trkpt>
      <trkpt lat="45.92357" lon="4.74939">
        <ele>170</ele>
        <time>2017-06-07T08:48:14Z</time>
      </trkpt>
      <trkpt lat="45.92354" lon="4.74949">
        <ele>170</ele>
        <time>2017-06-07T08:48:15Z</time>
      </trkpt>
      <trkpt lat="45.9235" lon="4.74959">
        <ele>170</ele>
        <time>2017-06-07T08:48:16Z</time>
      </trkpt>
      <trkpt lat="45.92347" lon="4.74969">
        <ele>170</ele>
        <time>2017-06-07T08:48:17Z</time>
      </trkpt>
      <trkpt lat="45.92343" lon="4.74978">
        <ele>170</ele>
        <time>2017-06-07T08:48:18Z</time>
      </trkpt>
      <trkpt lat="45.92339" lon="4.74988">
        <ele>170</ele>
        <time>2017-06-07T08:48:19Z</time>
      </trkpt>
      <trkpt lat="45.92336" lon="4.74997">
        <ele>170</ele>
        <time>2017-06-07T08:48:20Z</time>
      </trkpt>
      <trkpt lat="45.92332" lon="4.75006">
        <ele>170</ele>
        <time>2017-06-07T08:48:21Z</time>
      </trkpt>
      <trkpt lat="45.92328" lon="4.75014">
        <ele>171</ele>
        <time>2017-06-07T08:48:22Z</time>
      </trkpt>
      <trkpt lat="45.92324" lon="4.75023">
        <ele>171</ele>
        <time>2017-06-07T08:48:23Z</time>
      </trkpt>
      <trkpt lat="45.92319" lon="4.75031">
        <ele>171</ele>
        <time>2017-06-07T08:48:24Z</time>
      </trkpt>
      <trkpt lat="45.92315" lon="4.75038">
        <ele>172</ele>
        <time>2017-06-07T08:48:25Z</time>
      </trkpt>
      <trkpt lat="45.9231" lon="4.75045">
        <ele>172</ele>
        <time>2017-06-07T08:48:26Z</time>
      </trkpt>
      <trkpt lat="45.92305" lon="4.75052">
        <ele>172</ele>
        <time>2017-06-07T08:48:27Z</time>
      </trkpt>
      <trkpt lat="45.92301" lon="4.75058">
        <ele>172</ele>
        <time>2017-06-07T08:48:28Z</time>
      </trkpt>
      <trkpt lat="45.92296" lon="4.75064">
        <ele>172</ele>
        <time>2017-06-07T08:48:29Z</time>
      </trkpt>
      <trkpt lat="45.92291" lon="4.7507">
        <ele>172</ele>
        <time>2017-06-07T08:48:30Z</time>
      </trkpt>
      <trkpt lat="45.92287" lon="4.75076">
        <ele>172</ele>
        <time>2017-06-07T08:48:31Z</time>
      </trkpt>
      <trkpt lat="45.92282" lon="4.75081">
        <ele>172</ele>
        <time>2017-06-07T08:48:32Z</time>
      </trkpt>
      <trkpt lat="45.92277" lon="4.75087">
        <ele>173</ele>
        <time>2017-06-07T08:48:33Z</time>
      </trkpt>
      <trkpt lat="45.92271" lon="4.75092">
        <ele>173</ele>
        <time>2017-06-07T08:48:34Z</time>
      </trkpt>
      <trkpt lat="45.92266" lon="4.75098">
        <ele>173</ele>
        <time>2017-06-07T08:48:35Z</time>
      </trkpt>
      <trkpt lat="45.9226" lon="4.75104">
        <ele>173</ele>
        <time>2017-06-07T08:48:36Z</time>
      </trkpt>
      <trkpt lat="45.92255" lon="4.7511">
        <ele>174</ele>
        <time>2017-06-07T08:48:37Z</time>
      </trkpt>
      <trkpt lat="45.9225" lon="4.75116">
        <ele>174</ele>
        <time>2017-06-07T08:48:38Z</time>
      </trkpt>
      <trkpt lat="45.92245" lon="4.75121">
        <ele>174</ele>
        <time>2017-06-07T08:48:39Z</time>
      </trkpt>
      <trkpt lat="45.92241" lon="4.75128">
        <ele>174</ele>
        <time>2017-06-07T08:48:40Z</time>
      </trkpt>
      <trkpt lat="45.92236" lon="4.75134">
        <ele>174</ele>
        <time>2017-06-07T08:48:41Z</time>
      </trkpt>
      <trkpt lat="45.92232" lon="4.75141">
        <ele>174</ele>
        <time>2017-06-07T08:48:42Z</time>
      </trkpt>
      <trkpt lat="45.92228" lon="4.75147">
        <ele>174</ele>
        <time>2017-06-07T08:48:43Z</time>
      </trkpt>
      <trkpt lat="45.92225" lon="4.75154">
        <ele>174</ele>
        <time>2017-06-07T08:48:44Z</time>
      </trkpt>
      <trkpt lat="45.92221" lon="4.75162">
        <ele>174</ele>
        <time>2017-06-07T08:48:45Z</time>
      </trkpt>
      <trkpt lat="45.92218" lon="4.7517">
        <ele>175</ele>
        <time>2017-06-07T08:48:46Z</time>
      </trkpt>
      <trkpt lat="45.92216" lon="4.75179">
        <ele>175</ele>
        <time>2017-06-07T08:48:47Z</time>
      </trkpt>
      <trkpt lat="45.92214" lon="4.75188">
        <ele>175</ele>
        <time>2017-06-07T08:48:48Z</time>
      </trkpt>
      <trkpt lat="45.92212" lon="4.75196">
        <ele>175</ele>
        <time>2017-06-07T08:48:49Z</time>
      </trkpt>
      <trkpt lat="45.9221" lon="4.75205">
        <ele>175</ele>
        <time>2017-06-07T08:48:50Z</time>
      </trkpt>
      <trkpt lat="45.92208" lon="4.75214">
        <ele>175</ele>
        <time>2017-06-07T08:48:51Z</time>
      </trkpt>
      <trkpt lat="45.92208" lon="4.75223">
        <ele>175</ele>
        <time>2017-06-07T08:48:52Z</time>
      </trkpt>
      <trkpt lat="45.92207" lon="4.75232">
        <ele>175</ele>
        <time>2017-06-07T08:48:53Z</time>
      </trkpt>
      <trkpt lat="45.92207" lon="4.7524">
        <ele>175</ele>
        <time>2017-06-07T08:48:54Z</time>
      </trkpt>
      <trkpt lat="45.92207" lon="4.75248">
        <ele>175</ele>
        <time>2017-06-07T08:48:55Z</time>
      </trkpt>
      <trkpt lat="45.92207" lon="4.75255">
        <ele>175</ele>
        <time>2017-06-07T08:48:56Z</time>
      </trkpt>
      <trkpt lat="45.92207" lon="4.75263">
        <ele>176</ele>
        <time>2017-06-07T08:48:57Z</time>
      </trkpt>
      <trkpt lat="45.92207" lon="4.75271">
        <ele>176</ele>
        <time>2017-06-07T08:48:58Z</time>
      </trkpt>
      <trkpt lat="45.92206" lon="4.75279">
        <ele>176</ele>
        <time>2017-06-07T08:48:59Z</time>
      </trkpt>
      <trkpt lat="45.92206" lon="4.75287">
        <ele>176</ele>
        <time>2017-06-07T08:49:00Z</time>
      </trkpt>
      <trkpt lat="45.92206" lon="4.75296">
        <ele>176</ele>
        <time>2017-06-07T08:49:01Z</time>
      </trkpt>
      <trkpt lat="45.92206" lon="4.75305">
        <ele>176</ele>
        <time>2017-06-07T08:49:02Z</time>
      </trkpt>
      <trkpt lat="45.92205" lon="4.75313">
        <ele>176</ele>
        <time>2017-06-07T08:49:03Z</time>
      </trkpt>
      <trkpt lat="45.92205" lon="4.75321">
        <ele>176</ele>
        <time>2017-06-07T08:49:04Z</time>
      </trkpt>
      <trkpt lat="45.92204" lon="4.7533">
        <ele>176</ele>
        <time>2017-06-07T08:49:05Z</time>
      </trkpt>
      <trkpt lat="45.92203" lon="4.75339">
        <ele>177</ele>
        <time>2017-06-07T08:49:06Z</time>
      </trkpt>
      <trkpt lat="45.92202" lon="4.75347">
        <ele>177</ele>
        <time>2017-06-07T08:49:07Z</time>
      </trkpt>
      <trkpt lat="45.922" lon="4.75355">
        <ele>177</ele>
        <time>2017-06-07T08:49:08Z</time>
      </trkpt>
      <trkpt lat="45.92196" lon="4.75363">
        <ele>177</ele>
        <time>2017-06-07T08:49:09Z</time>
      </trkpt>
      <trkpt lat="45.92193" lon="4.75372">
        <ele>177</ele>
        <time>2017-06-07T08:49:10Z</time>
      </trkpt>
      <trkpt lat="45.92189" lon="4.7538">
        <ele>177</ele>
        <time>2017-06-07T08:49:11Z</time>
      </trkpt>
      <trkpt lat="45.92185" lon="4.75387">
        <ele>177</ele>
        <time>2017-06-07T08:49:12Z</time>
      </trkpt>
      <trkpt lat="45.92182" lon="4.75394">
        <ele>177</ele>
        <time>2017-06-07T08:49:13Z</time>
      </trkpt>
      <trkpt lat="45.92178" lon="4.75402">
        <ele>177</ele>
        <time>2017-06-07T08:49:14Z</time>
      </trkpt>
      <trkpt lat="45.92175" lon="4.7541">
        <ele>178</ele>
        <time>2017-06-07T08:49:15Z</time>
      </trkpt>
      <trkpt lat="45.92172" lon="4.75418">
        <ele>178</ele>
        <time>2017-06-07T08:49:16Z</time>
      </trkpt>
      <trkpt lat="45.92168" lon="4.75427">
        <ele>177</ele>
        <time>2017-06-07T08:49:17Z</time>
      </trkpt>
      <trkpt lat="45.92165" lon="4.75435">
        <ele>177</ele>
        <time>2017-06-07T08:49:18Z</time>
      </trkpt>
      <trkpt lat="45.92162" lon="4.75443">
        <ele>177</ele>
        <time>2017-06-07T08:49:19Z</time>
      </trkpt>
      <trkpt lat="45.92159" lon="4.75451">
        <ele>176</ele>
        <time>2017-06-07T08:49:20Z</time>
      </trkpt>
      <trkpt lat="45.92156" lon="4.75462">
        <ele>176</ele>
        <time>2017-06-07T08:49:21Z</time>
      </trkpt>
      <trkpt lat="45.92153" lon="4.75473">
        <ele>176</ele>
        <time>2017-06-07T08:49:22Z</time>
      </trkpt>
      <trkpt lat="45.92149" lon="4.75482">
        <ele>176</ele>
        <time>2017-06-07T08:49:23Z</time>
      </trkpt>
      <trkpt lat="45.92146" lon="4.75491">
        <ele>176</ele>
        <time>2017-06-07T08:49:24Z</time>
      </trkpt>
      <trkpt lat="45.92142" lon="4.75499">
        <ele>175</ele>
        <time>2017-06-07T08:49:25Z</time>
      </trkpt>
      <trkpt lat="45.92138" lon="4.75508">
        <ele>174</ele>
        <time>2017-06-07T08:49:26Z</time>
      </trkpt>
      <trkpt lat="45.92133" lon="4.75516">
        <ele>174</ele>
        <time>2017-06-07T08:49:27Z</time>
      </trkpt>
      <trkpt lat="45.92129" lon="4.75524">
        <ele>174</ele>
        <time>2017-06-07T08:49:28Z</time>
      </trkpt>
      <trkpt lat="45.92125" lon="4.75532">
        <ele>174</ele>
        <time>2017-06-07T08:49:29Z</time>
      </trkpt>
      <trkpt lat="45.92121" lon="4.75539">
        <ele>174</ele>
        <time>2017-06-07T08:49:30Z</time>
      </trkpt>
      <trkpt lat="45.92117" lon="4.75547">
        <ele>174</ele>
        <time>2017-06-07T08:49:31Z</time>
      </trkpt>
      <trkpt lat="45.92114" lon="4.75555">
        <ele>174</ele>
        <time>2017-06-07T08:49:32Z</time>
      </trkpt>
      <trkpt lat="45.9211" lon="4.75562">
        <ele>174</ele>
        <time>2017-06-07T08:49:33Z</time>
      </trkpt>
      <trkpt lat="45.92108" lon="4.7557">
        <ele>174</ele>
        <time>2017-06-07T08:49:34Z</time>
      </trkpt>
      <trkpt lat="45.92107" lon="4.75579">
        <ele>174</ele>
        <time>2017-06-07T08:49:35Z</time>
      </trkpt>
      <trkpt lat="45.9211" lon="4.75587">
        <ele>174</ele>
        <time>2017-06-07T08:49:36Z</time>
      </trkpt>
      <trkpt lat="45.92115" lon="4.75595">
        <ele>174</ele>
        <time>2017-06-07T08:49:37Z</time>
      </trkpt>
      <trkpt lat="45.9212" lon="4.756">
        <ele>174</ele>
        <time>2017-06-07T08:49:38Z</time>
      </trkpt>
      <trkpt lat="45.92126" lon="4.75606">
        <ele>174</ele>
        <time>2017-06-07T08:49:39Z</time>
      </trkpt>
      <trkpt lat="45.92131" lon="4.75611">
        <ele>174</ele>
        <time>2017-06-07T08:49:40Z</time>
      </trkpt>
      <trkpt lat="45.92136" lon="4.75616">
        <ele>174</ele>
        <time>2017-06-07T08:49:41Z</time>
      </trkpt>
      <trkpt lat="45.92141" lon="4.75621">
        <ele>174</ele>
        <time>2017-06-07T08:49:42Z</time>
      </trkpt>
      <trkpt lat="45.92146" lon="4.75626">
        <ele>174</ele>
        <time>2017-06-07T08:49:43Z</time>
      </trkpt>
      <trkpt lat="45.92151" lon="4.75631">
        <ele>174</ele>
        <time>2017-06-07T08:49:44Z</time>
      </trkpt>
      <trkpt lat="45.92156" lon="4.75636">
        <ele>174</ele>
        <time>2017-06-07T08:49:45Z</time>
      </trkpt>
      <trkpt lat="45.92161" lon="4.75641">
        <ele>174</ele>
        <time>2017-06-07T08:49:46Z</time>
      </trkpt>
      <trkpt lat="45.92166" lon="4.75646">
        <ele>174</ele>
        <time>2017-06-07T08:49:47Z</time>
      </trkpt>
      <trkpt lat="45.9217" lon="4.75651">
        <ele>174</ele>
        <time>2017-06-07T08:49:48Z</time>
      </trkpt>
      <trkpt lat="45.92175" lon="4.75655">
        <ele>174</ele>
        <time>2017-06-07T08:49:49Z</time>
      </trkpt>
      <trkpt lat="45.9218" lon="4.7566">
        <ele>174</ele>
        <time>2017-06-07T08:49:50Z</time>
      </trkpt>
      <trkpt lat="45.92184" lon="4.75664">
        <ele>174</ele>
        <time>2017-06-07T08:49:51Z</time>
      </trkpt>
      <trkpt lat="45.92189" lon="4.75669">
        <ele>174</ele>
        <time>2017-06-07T08:49:52Z</time>
      </trkpt>
      <trkpt lat="45.92194" lon="4.75674">
        <ele>174</ele>
        <time>2017-06-07T08:49:53Z</time>
      </trkpt>
      <trkpt lat="45.92199" lon="4.7568">
        <ele>174</ele>
        <time>2017-06-07T08:49:54Z</time>
      </trkpt>
      <trkpt lat="45.92204" lon="4.75685">
        <ele>174</ele>
        <time>2017-06-07T08:49:55Z</time>
      </trkpt>
      <trkpt lat="45.92209" lon="4.7569">
        <ele>174</ele>
        <time>2017-06-07T08:49:56Z</time>
      </trkpt>
      <trkpt lat="45.92214" lon="4.75696">
        <ele>174</ele>
        <time>2017-06-07T08:49:57Z</time>
      </trkpt>
      <trkpt lat="45.92219" lon="4.75701">
        <ele>174</ele>
        <time>2017-06-07T08:49:58Z</time>
      </trkpt>
      <trkpt lat="45.92223" lon="4.75706">
        <ele>174</ele>
        <time>2017-06-07T08:49:59Z</time>
      </trkpt>
      <trkpt lat="45.92228" lon="4.75711">
        <ele>174</ele>
        <time>2017-06-07T08:50:00Z</time>
      </trkpt>
      <trkpt lat="45.92232" lon="4.75717">
        <ele>174</ele>
        <time>2017-06-07T08:50:01Z</time>
      </trkpt>
      <trkpt lat="45.92235" lon="4.75724">
        <ele>174</ele>
        <time>2017-06-07T08:50:02Z</time>
      </trkpt>
      <trkpt lat="45.92238" lon="4.75732">
        <ele>174</ele>
        <time>2017-06-07T08:50:03Z</time>
      </trkpt>
      <trkpt lat="45.9224" lon="4.7574">
        <ele>174</ele>
        <time>2017-06-07T08:50:04Z</time>
      </trkpt>
      <trkpt lat="45.92242" lon="4.75747">
        <ele>174</ele>
        <time>2017-06-07T08:50:05Z</time>
      </trkpt>
      <trkpt lat="45.92244" lon="4.75755">
        <ele>174</ele>
        <time>2017-06-07T08:50:06Z</time>
      </trkpt>
      <trkpt lat="45.92246" lon="4.75763">
        <ele>174</ele>
        <time>2017-06-07T08:50:07Z</time>
      </trkpt>
      <trkpt lat="45.92247" lon="4.7577">
        <ele>174</ele>
        <time>2017-06-07T08:50:08Z</time>
      </trkpt>
      <trkpt lat="45.92249" lon="4.75778">
        <ele>173</ele>
        <time>2017-06-07T08:50:09Z</time>
      </trkpt>
      <trkpt lat="45.9225" lon="4.75786">
        <ele>174</ele>
        <time>2017-06-07T08:50:10Z</time>
      </trkpt>
      <trkpt lat="45.92252" lon="4.75794">
        <ele>174</ele>
        <time>2017-06-07T08:50:11Z</time>
      </trkpt>
      <trkpt lat="45.92253" lon="4.75801">
        <ele>174</ele>
        <time>2017-06-07T08:50:12Z</time>
      </trkpt>
      <trkpt lat="45.92255" lon="4.75809">
        <ele>174</ele>
        <time>2017-06-07T08:50:13Z</time>
      </trkpt>
      <trkpt lat="45.92258" lon="4.75816">
        <ele>174</ele>
        <time>2017-06-07T08:50:14Z</time>
      </trkpt>
      <trkpt lat="45.92262" lon="4.75823">
        <ele>174</ele>
        <time>2017-06-07T08:50:15Z</time>
      </trkpt>
      <trkpt lat="45.92266" lon="4.75829">
        <ele>174</ele>
        <time>2017-06-07T08:50:16Z</time>
      </trkpt>
      <trkpt lat="45.92271" lon="4.75835">
        <ele>173</ele>
        <time>2017-06-07T08:50:17Z</time>
      </trkpt>
      <trkpt lat="45.92276" lon="4.75839">
        <ele>173</ele>
        <time>2017-06-07T08:50:18Z</time>
      </trkpt>
      <trkpt lat="45.92282" lon="4.75843">
        <ele>173</ele>
        <time>2017-06-07T08:50:19Z</time>
      </trkpt>
      <trkpt lat="45.92288" lon="4.75847">
        <ele>173</ele>
        <time>2017-06-07T08:50:20Z</time>
      </trkpt>
      <trkpt lat="45.92295" lon="4.75851">
        <ele>173</ele>
        <time>2017-06-07T08:50:21Z</time>
      </trkpt>
      <trkpt lat="45.92301" lon="4.75854">
        <ele>173</ele>
        <time>2017-06-07T08:50:22Z</time>
      </trkpt>
      <trkpt lat="45.92307" lon="4.75857">
        <ele>173</ele>
        <time>2017-06-07T08:50:23Z</time>
      </trkpt>
      <trkpt lat="45.92313" lon="4.75861">
        <ele>173</ele>
        <time>2017-06-07T08:50:24Z</time>
      </trkpt>
      <trkpt lat="45.92319" lon="4.75865">
        <ele>173</ele>
        <time>2017-06-07T08:50:25Z</time>
      </trkpt>
      <trkpt lat="45.92325" lon="4.75869">
        <ele>173</ele>
        <time>2017-06-07T08:50:26Z</time>
      </trkpt>
      <trkpt lat="45.9233" lon="4.75872">
        <ele>173</ele>
        <time>2017-06-07T08:50:27Z</time>
      </trkpt>
      <trkpt lat="45.92336" lon="4.75876">
        <ele>173</ele>
        <time>2017-06-07T08:50:28Z</time>
      </trkpt>
      <trkpt lat="45.92342" lon="4.7588">
        <ele>173</ele>
        <time>2017-06-07T08:50:29Z</time>
      </trkpt>
      <trkpt lat="45.92348" lon="4.75883">
        <ele>173</ele>
        <time>2017-06-07T08:50:30Z</time>
      </trkpt>
      <trkpt lat="45.92353" lon="4.75887">
        <ele>173</ele>
        <time>2017-06-07T08:50:31Z</time>
      </trkpt>
      <trkpt lat="45.92359" lon="4.7589">
        <ele>173</ele>
        <time>2017-06-07T08:50:32Z</time>
      </trkpt>
      <trkpt lat="45.92364" lon="4.75893">
        <ele>173</ele>
        <time>2017-06-07T08:50:33Z</time>
      </trkpt>
      <trkpt lat="45.9237" lon="4.75897">
        <ele>173</ele>
        <time>2017-06-07T08:50:34Z</time>
      </trkpt>
      <trkpt lat="45.92375" lon="4.759">
        <ele>173</ele>
        <time>2017-06-07T08:50:35Z</time>
      </trkpt>
      <trkpt lat="45.9238" lon="4.75904">
        <ele>173</ele>
        <time>2017-06-07T08:50:36Z</time>
      </trkpt>
      <trkpt lat="45.92385" lon="4.75907">
        <ele>173</ele>
        <time>2017-06-07T08:50:37Z</time>
      </trkpt>
      <trkpt lat="45.9239" lon="4.75911">
        <ele>173</ele>
        <time>2017-06-07T08:50:38Z</time>
      </trkpt>
      <trkpt lat="45.92395" lon="4.75914">
        <ele>173</ele>
        <time>2017-06-07T08:50:39Z</time>
      </trkpt>
      <trkpt lat="45.924" lon="4.75918">
        <ele>172</ele>
        <time>2017-06-07T08:50:40Z</time>
      </trkpt>
      <trkpt lat="45.92405" lon="4.75921">
        <ele>172</ele>
        <time>2017-06-07T08:50:41Z</time>
      </trkpt>
      <trkpt lat="45.9241" lon="4.75925">
        <ele>172</ele>
        <time>2017-06-07T08:50:42Z</time>
      </trkpt>
      <trkpt lat="45.92415" lon="4.7593">
        <ele>172</ele>
        <time>2017-06-07T08:50:43Z</time>
      </trkpt>
      <trkpt lat="45.9242" lon="4.75934">
        <ele>172</ele>
        <time>2017-06-07T08:50:44Z</time>
      </trkpt>
      <trkpt lat="45.92426" lon="4.75938">
        <ele>172</ele>
        <time>2017-06-07T08:50:45Z</time>
      </trkpt>
      <trkpt lat="45.92431" lon="4.75942">
        <ele>172</ele>
        <time>2017-06-07T08:50:46Z</time>
      </trkpt>
      <trkpt lat="45.92436" lon="4.75946">
        <ele>172</ele>
        <time>2017-06-07T08:50:47Z</time>
      </trkpt>
      <trkpt lat="45.92442" lon="4.7595">
        <ele>172</ele>
        <time>2017-06-07T08:50:48Z</time>
      </trkpt>
      <trkpt lat="45.92447" lon="4.75954">
        <ele>172</ele>
        <time>2017-06-07T08:50:49Z</time>
      </trkpt>
      <trkpt lat="45.92452" lon="4.75957">
        <ele>172</ele>
        <time>2017-06-07T08:50:50Z</time>
      </trkpt>
      <trkpt lat="45.92457" lon="4.75961">
        <ele>172</ele>
        <time>2017-06-07T08:50:51Z</time>
      </trkpt>
      <trkpt lat="45.92463" lon="4.75966">
        <ele>172</ele>
        <time>2017-06-07T08:50:52Z</time>
      </trkpt>
      <trkpt lat="45.92468" lon="4.75971">
        <ele>172</ele>
        <time>2017-06-07T08:50:53Z</time>
      </trkpt>
      <trkpt lat="45.92473" lon="4.75975">
        <ele>172</ele>
        <time>2017-06-07T08:50:54Z</time>
      </trkpt>
      <trkpt lat="45.92479" lon="4.75979">
        <ele>172</ele>
        <time>2017-06-07T08:50:55Z</time>
      </trkpt>
      <trkpt lat="45.92484" lon="4.75983">
        <ele>172</ele>
        <time>2017-06-07T08:50:56Z</time>
      </trkpt>
      <trkpt lat="45.92488" lon="4.75987">
        <ele>172</ele>
        <time>2017-06-07T08:50:57Z</time>
      </trkpt>
      <trkpt lat="45.92493" lon="4.75991">
        <ele>172</ele>
        <time>2017-06-07T08:50:58Z</time>
      </trkpt>
      <trkpt lat="45.92497" lon="4.75994">
        <ele>172</ele>
        <time>2017-06-07T08:50:59Z</time>
      </trkpt>
      <trkpt lat="45.92502" lon="4.75998">
        <ele>172</ele>
        <time>2017-06-07T08:51:00Z</time>
      </trkpt>
      <trkpt lat="45.92507" lon="4.76001">
        <ele>172</ele>
        <time>2017-06-07T08:51:01Z</time>
      </trkpt>
      <trkpt lat="45.92511" lon="4.76005">
        <ele>172</ele>
        <time>2017-06-07T08:51:02Z</time>
      </trkpt>
      <trkpt lat="45.92516" lon="4.76008">
        <ele>172</ele>
        <time>2017-06-07T08:51:03Z</time>
      </trkpt>
      <trkpt lat="45.92521" lon="4.76011">
        <ele>172</ele>
        <time>2017-06-07T08:51:04Z</time>
      </trkpt>
      <trkpt lat="45.92525" lon="4.76014">
        <ele>172</ele>
        <time>2017-06-07T08:51:05Z</time>
      </trkpt>
      <trkpt lat="45.9253" lon="4.76017">
        <ele>172</ele>
        <time>2017-06-07T08:51:06Z</time>
      </trkpt>
      <trkpt lat="45.92534" lon="4.76021">
        <ele>172</ele>
        <time>2017-06-07T08:51:07Z</time>
      </trkpt>
      <trkpt lat="45.92539" lon="4.76024">
        <ele>172</ele>
        <time>2017-06-07T08:51:08Z</time>
      </trkpt>
      <trkpt lat="45.92543" lon="4.76027">
        <ele>172</ele>
        <time>2017-06-07T08:51:09Z</time>
      </trkpt>
      <trkpt lat="45.92548" lon="4.7603">
        <ele>172</ele>
        <time>2017-06-07T08:51:10Z</time>
      </trkpt>
      <trkpt lat="45.92552" lon="4.76033">
        <ele>172</ele>
        <time>2017-06-07T08:51:11Z</time>
      </trkpt>
      <trkpt lat="45.92557" lon="4.76036">
        <ele>172</ele>
        <time>2017-06-07T08:51:12Z</time>
      </trkpt>
      <trkpt lat="45.92561" lon="4.7604">
        <ele>172</ele>
        <time>2017-06-07T08:51:13Z</time>
      </trkpt>
      <trkpt lat="45.92565" lon="4.76042">
        <ele>171</ele>
        <time>2017-06-07T08:51:14Z</time>
      </trkpt>
      <trkpt lat="45.9257" lon="4.76046">
        <ele>171</ele>
        <time>2017-06-07T08:51:15Z</time>
      </trkpt>
      <trkpt lat="45.92574" lon="4.76049">
        <ele>171</ele>
        <time>2017-06-07T08:51:16Z</time>
      </trkpt>
      <trkpt lat="45.92579" lon="4.76053">
        <ele>171</ele>
        <time>2017-06-07T08:51:17Z</time>
      </trkpt>
      <trkpt lat="45.92583" lon="4.76056">
        <ele>171</ele>
        <time>2017-06-07T08:51:18Z</time>
      </trkpt>
      <trkpt lat="45.92588" lon="4.76059">
        <ele>171</ele>
        <time>2017-06-07T08:51:19Z</time>
      </trkpt>
      <trkpt lat="45.92593" lon="4.76062">
        <ele>171</ele>
        <time>2017-06-07T08:51:20Z</time>
      </trkpt>
      <trkpt lat="45.92598" lon="4.76066">
        <ele>171</ele>
        <time>2017-06-07T08:51:21Z</time>
      </trkpt>
      <trkpt lat="45.92603" lon="4.76069">
        <ele>171</ele>
        <time>2017-06-07T08:51:22Z</time>
      </trkpt>
      <trkpt lat="45.92609" lon="4.76073">
        <ele>171</ele>
        <time>2017-06-07T08:51:23Z</time>
      </trkpt>
      <trkpt lat="45.92614" lon="4.76077">
        <ele>171</ele>
        <time>2017-06-07T08:51:24Z</time>
      </trkpt>
      <trkpt lat="45.9262" lon="4.76081">
        <ele>171</ele>
        <time>2017-06-07T08:51:25Z</time>
      </trkpt>
      <trkpt lat="45.92625" lon="4.76085">
        <ele>170</ele>
        <time>2017-06-07T08:51:26Z</time>
      </trkpt>
      <trkpt lat="45.9263" lon="4.7609">
        <ele>170</ele>
        <time>2017-06-07T08:51:27Z</time>
      </trkpt>
      <trkpt lat="45.92636" lon="4.76094">
        <ele>170</ele>
        <time>2017-06-07T08:51:28Z</time>
      </trkpt>
      <trkpt lat="45.92642" lon="4.76098">
        <ele>170</ele>
        <time>2017-06-07T08:51:29Z</time>
      </trkpt>
      <trkpt lat="45.92648" lon="4.76102">
        <ele>170</ele>
        <time>2017-06-07T08:51:30Z</time>
      </trkpt>
      <trkpt lat="45.92655" lon="4.76106">
        <ele>170</ele>
        <time>2017-06-07T08:51:31Z</time>
      </trkpt>
      <trkpt lat="45.92661" lon="4.7611">
        <ele>170</ele>
        <time>2017-06-07T08:51:32Z</time>
      </trkpt>
      <trkpt lat="45.92668" lon="4.76114">
        <ele>169</ele>
        <time>2017-06-07T08:51:33Z</time>
      </trkpt>
      <trkpt lat="45.92674" lon="4.76119">
        <ele>169</ele>
        <time>2017-06-07T08:51:34Z</time>
      </trkpt>
      <trkpt lat="45.92681" lon="4.76123">
        <ele>169</ele>
        <time>2017-06-07T08:51:35Z</time>
      </trkpt>
      <trkpt lat="45.92688" lon="4.76127">
        <ele>169</ele>
        <time>2017-06-07T08:51:36Z</time>
      </trkpt>
      <trkpt lat="45.92695" lon="4.76131">
        <ele>169</ele>
        <time>2017-06-07T08:51:37Z</time>
      </trkpt>
      <trkpt lat="45.92701" lon="4.76136">
        <ele>169</ele>
        <time>2017-06-07T08:51:38Z</time>
      </trkpt>
      <trkpt lat="45.92708" lon="4.76141">
        <ele>169</ele>
        <time>2017-06-07T08:51:39Z</time>
      </trkpt>
      <trkpt lat="45.92715" lon="4.76146">
        <ele>168</ele>
        <time>2017-06-07T08:51:40Z</time>
      </trkpt>
      <trkpt lat="45.92722" lon="4.76151">
        <ele>168</ele>
        <time>2017-06-07T08:51:41Z</time>
      </trkpt>
      <trkpt lat="45.92728" lon="4.76155">
        <ele>168</ele>
        <time>2017-06-07T08:51:42Z</time>
      </trkpt>
      <trkpt lat="45.92735" lon="4.7616">
        <ele>168</ele>
        <time>2017-06-07T08:51:43Z</time>
      </trkpt>
      <trkpt lat="45.92741" lon="4.76164">
        <ele>167</ele>
        <time>2017-06-07T08:51:44Z</time>
      </trkpt>
      <trkpt lat="45.92747" lon="4.76169">
        <ele>167</ele>
        <time>2017-06-07T08:51:45Z</time>
      </trkpt>
      <trkpt lat="45.92753" lon="4.76174">
        <ele>167</ele>
        <time>2017-06-07T08:51:46Z</time>
      </trkpt>
      <trkpt lat="45.92758" lon="4.76179">
        <ele>167</ele>
        <time>2017-06-07T08:51:47Z</time>
      </trkpt>
      <trkpt lat="45.92764" lon="4.76183">
        <ele>167</ele>
        <time>2017-06-07T08:51:48Z</time>
      </trkpt>
      <trkpt lat="45.92769" lon="4.76188">
        <ele>167</ele>
        <time>2017-06-07T08:51:49Z</time>
      </trkpt>
      <trkpt lat="45.92774" lon="4.76192">
        <ele>168</ele>
        <time>2017-06-07T08:51:50Z</time>
      </trkpt>
      <trkpt lat="45.92779" lon="4.76197">
        <ele>168</ele>
        <time>2017-06-07T08:51:51Z</time>
      </trkpt>
      <trkpt lat="45.92784" lon="4.76201">
        <ele>168</ele>
        <time>2017-06-07T08:51:52Z</time>
      </trkpt>
      <trkpt lat="45.92789" lon="4.76205">
        <ele>168</ele>
        <time>2017-06-07T08:51:53Z</time>
      </trkpt>
      <trkpt lat="45.92794" lon="4.7621">
        <ele>168</ele>
        <time>2017-06-07T08:51:54Z</time>
      </trkpt>
      <trkpt lat="45.92799" lon="4.76214">
        <ele>168</ele>
        <time>2017-06-07T08:51:55Z</time>
      </trkpt>
      <trkpt lat="45.92804" lon="4.7622">
        <ele>168</ele>
        <time>2017-06-07T08:51:56Z</time>
      </trkpt>
      <trkpt lat="45.92808" lon="4.76226">
        <ele>168</ele>
        <time>2017-06-07T08:51:57Z</time>
      </trkpt>
      <trkpt lat="45.92813" lon="4.76231">
        <ele>168</ele>
        <time>2017-06-07T08:51:58Z</time>
      </trkpt>
      <trkpt lat="45.92818" lon="4.76236">
        <ele>168</ele>
        <time>2017-06-07T08:51:59Z</time>
      </trkpt>
      <trkpt lat="45.92823" lon="4.76241">
        <ele>168</ele>
        <time>2017-06-07T08:52:00Z</time>
      </trkpt>
      <trkpt lat="45.92828" lon="4.76246">
        <ele>169</ele>
        <time>2017-06-07T08:52:01Z</time>
      </trkpt>
      <trkpt lat="45.92833" lon="4.7625">
        <ele>169</ele>
        <time>2017-06-07T08:52:02Z</time>
      </trkpt>
      <trkpt lat="45.92837" lon="4.76254">
        <ele>169</ele>
        <time>2017-06-07T08:52:03Z</time>
      </trkpt>
      <trkpt lat="45.92842" lon="4.76258">
        <ele>169</ele>
        <time>2017-06-07T08:52:04Z</time>
      </trkpt>
      <trkpt lat="45.92846" lon="4.76262">
        <ele>169</ele>
        <time>2017-06-07T08:52:05Z</time>
      </trkpt>
      <trkpt lat="45.9285" lon="4.76266">
        <ele>169</ele>
        <time>2017-06-07T08:52:06Z</time>
      </trkpt>
      <trkpt lat="45.92855" lon="4.76271">
        <ele>169</ele>
        <time>2017-06-07T08:52:07Z</time>
      </trkpt>
      <trkpt lat="45.92859" lon="4.76276">
        <ele>169</ele>
        <time>2017-06-07T08:52:08Z</time>
      </trkpt>
      <trkpt lat="45.92863" lon="4.76281">
        <ele>169</ele>
        <time>2017-06-07T08:52:09Z</time>
      </trkpt>
      <trkpt lat="45.92868" lon="4.76287">
        <ele>169</ele>
        <time>2017-06-07T08:52:10Z</time>
      </trkpt>
      <trkpt lat="45.92873" lon="4.76292">
        <ele>169</ele>
        <time>2017-06-07T08:52:11Z</time>
      </trkpt>
      <trkpt lat="45.92878" lon="4.76297">
        <ele>169</ele>
        <time>2017-06-07T08:52:12Z</time>
      </trkpt>
      <trkpt lat="45.92883" lon="4.76301">
        <ele>169</ele>
        <time>2017-06-07T08:52:13Z</time>
      </trkpt>
      <trkpt lat="45.92887" lon="4.76306">
        <ele>169</ele>
        <time>2017-06-07T08:52:14Z</time>
      </trkpt>
      <trkpt lat="45.92892" lon="4.76311">
        <ele>169</ele>
        <time>2017-06-07T08:52:15Z</time>
      </trkpt>
      <trkpt lat="45.92897" lon="4.76315">
        <ele>169</ele>
        <time>2017-06-07T08:52:16Z</time>
      </trkpt>
      <trkpt lat="45.92901" lon="4.76318">
        <ele>169</ele>
        <time>2017-06-07T08:52:17Z</time>
      </trkpt>
      <trkpt lat="45.92906" lon="4.76323">
        <ele>169</ele>
        <time>2017-06-07T08:52:18Z</time>
      </trkpt>
      <trkpt lat="45.92911" lon="4.76327">
        <ele>169</ele>
        <time>2017-06-07T08:52:19Z</time>
      </trkpt>
      <trkpt lat="45.92915" lon="4.7633">
        <ele>169</ele>
        <time>2017-06-07T08:52:20Z</time>
      </trkpt>
      <trkpt lat="45.9292" lon="4.76335">
        <ele>169</ele>
        <time>2017-06-07T08:52:21Z</time>
      </trkpt>
      <trkpt lat="45.92924" lon="4.7634">
        <ele>169</ele>
        <time>2017-06-07T08:52:22Z</time>
      </trkpt>
      <trkpt lat="45.92929" lon="4.76345">
        <ele>169</ele>
        <time>2017-06-07T08:52:23Z</time>
      </trkpt>
      <trkpt lat="45.92934" lon="4.7635">
        <ele>169</ele>
        <time>2017-06-07T08:52:24Z</time>
      </trkpt>
      <trkpt lat="45.92939" lon="4.76355">
        <ele>169</ele>
        <time>2017-06-07T08:52:25Z</time>
      </trkpt>
      <trkpt lat="45.92944" lon="4.76361">
        <ele>169</ele>
        <time>2017-06-07T08:52:26Z</time>
      </trkpt>
      <trkpt lat="45.92949" lon="4.76366">
        <ele>169</ele>
        <time>2017-06-07T08:52:27Z</time>
      </trkpt>
      <trkpt lat="45.92954" lon="4.76371">
        <ele>169</ele>
        <time>2017-06-07T08:52:28Z</time>
      </trkpt>
      <trkpt lat="45.92959" lon="4.76376">
        <ele>169</ele>
        <time>2017-06-07T08:52:29Z</time>
      </trkpt>
      <trkpt lat="45.92964" lon="4.7638">
        <ele>169</ele>
        <time>2017-06-07T08:52:30Z</time>
      </trkpt>
      <trkpt lat="45.92968" lon="4.76385">
        <ele>169</ele>
        <time>2017-06-07T08:52:31Z</time>
      </trkpt>
      <trkpt lat="45.92973" lon="4.76389">
        <ele>169</ele>
        <time>2017-06-07T08:52:32Z</time>
      </trkpt>
      <trkpt lat="45.92978" lon="4.76394">
        <ele>169</ele>
        <time>2017-06-07T08:52:33Z</time>
      </trkpt>
      <trkpt lat="45.92982" lon="4.76398">
        <ele>169</ele>
        <time>2017-06-07T08:52:34Z</time>
      </trkpt>
      <trkpt lat="45.92987" lon="4.76402">
        <ele>169</ele>
        <time>2017-06-07T08:52:35Z</time>
      </trkpt>
      <trkpt lat="45.92991" lon="4.76407">
        <ele>169</ele>
        <time>2017-06-07T08:52:36Z</time>
      </trkpt>
      <trkpt lat="45.92996" lon="4.76411">
        <ele>169</ele>
        <time>2017-06-07T08:52:37Z</time>
      </trkpt>
      <trkpt lat="45.93001" lon="4.76416">
        <ele>169</ele>
        <time>2017-06-07T08:52:38Z</time>
      </trkpt>
      <trkpt lat="45.93006" lon="4.7642">
        <ele>169</ele>
        <time>2017-06-07T08:52:39Z</time>
      </trkpt>
      <trkpt lat="45.93011" lon="4.76424">
        <ele>169</ele>
        <time>2017-06-07T08:52:40Z</time>
      </trkpt>
      <trkpt lat="45.93016" lon="4.76429">
        <ele>169</ele>
        <time>2017-06-07T08:52:41Z</time>
      </trkpt>
      <trkpt lat="45.93022" lon="4.76435">
        <ele>169</ele>
        <time>2017-06-07T08:52:42Z</time>
      </trkpt>
      <trkpt lat="45.93027" lon="4.7644">
        <ele>169</ele>
        <time>2017-06-07T08:52:43Z</time>
      </trkpt>
      <trkpt lat="45.93033" lon="4.76445">
        <ele>169</ele>
        <time>2017-06-07T08:52:44Z</time>
      </trkpt>
      <trkpt lat="45.93039" lon="4.7645">
        <ele>169</ele>
        <time>2017-06-07T08:52:45Z</time>
      </trkpt>
      <trkpt lat="45.93045" lon="4.76455">
        <ele>169</ele>
        <time>2017-06-07T08:52:46Z</time>
      </trkpt>
      <trkpt lat="45.93049" lon="4.76461">
        <ele>169</ele>
        <time>2017-06-07T08:52:47Z</time>
      </trkpt>
      <trkpt lat="45.93054" lon="4.76466">
        <ele>169</ele>
        <time>2017-06-07T08:52:48Z</time>
      </trkpt>
      <trkpt lat="45.93058" lon="4.7647">
        <ele>169</ele>
        <time>2017-06-07T08:52:49Z</time>
      </trkpt>
      <trkpt lat="45.93063" lon="4.76474">
        <ele>169</ele>
        <time>2017-06-07T08:52:50Z</time>
      </trkpt>
      <trkpt lat="45.93068" lon="4.7648">
        <ele>169</ele>
        <time>2017-06-07T08:52:51Z</time>
      </trkpt>
      <trkpt lat="45.93072" lon="4.76484">
        <ele>169</ele>
        <time>2017-06-07T08:52:52Z</time>
      </trkpt>
      <trkpt lat="45.93076" lon="4.76489">
        <ele>170</ele>
        <time>2017-06-07T08:52:53Z</time>
      </trkpt>
      <trkpt lat="45.93081" lon="4.76493">
        <ele>170</ele>
        <time>2017-06-07T08:52:54Z</time>
      </trkpt>
      <trkpt lat="45.93085" lon="4.76497">
        <ele>170</ele>
        <time>2017-06-07T08:52:55Z</time>
      </trkpt>
      <trkpt lat="45.9309" lon="4.76502">
        <ele>170</ele>
        <time>2017-06-07T08:52:56Z</time>
      </trkpt>
      <trkpt lat="45.93095" lon="4.76507">
        <ele>170</ele>
        <time>2017-06-07T08:52:57Z</time>
      </trkpt>
      <trkpt lat="45.93101" lon="4.76513">
        <ele>170</ele>
        <time>2017-06-07T08:52:58Z</time>
      </trkpt>
      <trkpt lat="45.93106" lon="4.76518">
        <ele>170</ele>
        <time>2017-06-07T08:52:59Z</time>
      </trkpt>
      <trkpt lat="45.93112" lon="4.76523">
        <ele>170</ele>
        <time>2017-06-07T08:53:00Z</time>
      </trkpt>
      <trkpt lat="45.93117" lon="4.76528">
        <ele>170</ele>
        <time>2017-06-07T08:53:01Z</time>
      </trkpt>
      <trkpt lat="45.93122" lon="4.76533">
        <ele>170</ele>
        <time>2017-06-07T08:53:02Z</time>
      </trkpt>
      <trkpt lat="45.93128" lon="4.76537">
        <ele>170</ele>
        <time>2017-06-07T08:53:03Z</time>
      </trkpt>
      <trkpt lat="45.93132" lon="4.76542">
        <ele>170</ele>
        <time>2017-06-07T08:53:04Z</time>
      </trkpt>
      <trkpt lat="45.93136" lon="4.76547">
        <ele>170</ele>
        <time>2017-06-07T08:53:05Z</time>
      </trkpt>
      <trkpt lat="45.93141" lon="4.76551">
        <ele>170</ele>
        <time>2017-06-07T08:53:06Z</time>
      </trkpt>
      <trkpt lat="45.93145" lon="4.76555">
        <ele>170</ele>
        <time>2017-06-07T08:53:07Z</time>
      </trkpt>
      <trkpt lat="45.93149" lon="4.7656">
        <ele>170</ele>
        <time>2017-06-07T08:53:08Z</time>
      </trkpt>
      <trkpt lat="45.93154" lon="4.76565">
        <ele>170</ele>
        <time>2017-06-07T08:53:09Z</time>
      </trkpt>
      <trkpt lat="45.93158" lon="4.7657">
        <ele>170</ele>
        <time>2017-06-07T08:53:10Z</time>
      </trkpt>
      <trkpt lat="45.93162" lon="4.76574">
        <ele>171</ele>
        <time>2017-06-07T08:53:11Z</time>
      </trkpt>
      <trkpt lat="45.93166" lon="4.76578">
        <ele>171</ele>
        <time>2017-06-07T08:53:12Z</time>
      </trkpt>
      <trkpt lat="45.9317" lon="4.76582">
        <ele>171</ele>
        <time>2017-06-07T08:53:13Z</time>
      </trkpt>
      <trkpt lat="45.93173" lon="4.76586">
        <ele>171</ele>
        <time>2017-06-07T08:53:14Z</time>
      </trkpt>
      <trkpt lat="45.93177" lon="4.76591">
        <ele>171</ele>
        <time>2017-06-07T08:53:15Z</time>
      </trkpt>
      <trkpt lat="45.93182" lon="4.76598">
        <ele>171</ele>
        <time>2017-06-07T08:53:16Z</time>
      </trkpt>
      <trkpt lat="45.93187" lon="4.76603">
        <ele>171</ele>
        <time>2017-06-07T08:53:17Z</time>
      </trkpt>
      <trkpt lat="45.93192" lon="4.76608">
        <ele>171</ele>
        <time>2017-06-07T08:53:18Z</time>
      </trkpt>
      <trkpt lat="45.93196" lon="4.76613">
        <ele>170</ele>
        <time>2017-06-07T08:53:19Z</time>
      </trkpt>
      <trkpt lat="45.93201" lon="4.76618">
        <ele>170</ele>
        <time>2017-06-07T08:53:20Z</time>
      </trkpt>
      <trkpt lat="45.93206" lon="4.76623">
        <ele>170</ele>
        <time>2017-06-07T08:53:21Z</time>
      </trkpt>
      <trkpt lat="45.9321" lon="4.76627">
        <ele>171</ele>
        <time>2017-06-07T08:53:22Z</time>
      </trkpt>
      <trkpt lat="45.93215" lon="4.76632">
        <ele>171</ele>
        <time>2017-06-07T08:53:23Z</time>
      </trkpt>
      <trkpt lat="45.9322" lon="4.76637">
        <ele>171</ele>
        <time>2017-06-07T08:53:24Z</time>
      </trkpt>
      <trkpt lat="45.93225" lon="4.76641">
        <ele>171</ele>
        <time>2017-06-07T08:53:25Z</time>
      </trkpt>
      <trkpt lat="45.9323" lon="4.76645">
        <ele>171</ele>
        <time>2017-06-07T08:53:26Z</time>
      </trkpt>
      <trkpt lat="45.93234" lon="4.76649">
        <ele>171</ele>
        <time>2017-06-07T08:53:27Z</time>
      </trkpt>
      <trkpt lat="45.93239" lon="4.76653">
        <ele>171</ele>
        <time>2017-06-07T08:53:28Z</time>
      </trkpt>
      <trkpt lat="45.93244" lon="4.76657">
        <ele>171</ele>
        <time>2017-06-07T08:53:29Z</time>
      </trkpt>
      <trkpt lat="45.93249" lon="4.76661">
        <ele>172</ele>
        <time>2017-06-07T08:53:30Z</time>
      </trkpt>
      <trkpt lat="45.93253" lon="4.76665">
        <ele>172</ele>
        <time>2017-06-07T08:53:31Z</time>
      </trkpt>
      <trkpt lat="45.93258" lon="4.76669">
        <ele>172</ele>
        <time>2017-06-07T08:53:32Z</time>
      </trkpt>
      <trkpt lat="45.93263" lon="4.76673">
        <ele>172</ele>
        <time>2017-06-07T08:53:33Z</time>
      </trkpt>
      <trkpt lat="45.93267" lon="4.76678">
        <ele>172</ele>
        <time>2017-06-07T08:53:34Z</time>
      </trkpt>
      <trkpt lat="45.93272" lon="4.76683">
        <ele>172</ele>
        <time>2017-06-07T08:53:35Z</time>
      </trkpt>
      <trkpt lat="45.93277" lon="4.76688">
        <ele>172</ele>
        <time>2017-06-07T08:53:36Z</time>
      </trkpt>
      <trkpt lat="45.93282" lon="4.76694">
        <ele>172</ele>
        <time>2017-06-07T08:53:37Z</time>
      </trkpt>
      <trkpt lat="45.93287" lon="4.76699">
        <ele>172</ele>
        <time>2017-06-07T08:53:38Z</time>
      </trkpt>
      <trkpt lat="45.93291" lon="4.76704">
        <ele>172</ele>
        <time>2017-06-07T08:53:39Z</time>
      </trkpt>
      <trkpt lat="45.93296" lon="4.76709">
        <ele>172</ele>
        <time>2017-06-07T08:53:40Z</time>
      </trkpt>
      <trkpt lat="45.933" lon="4.76714">
        <ele>172</ele>
        <time>2017-06-07T08:53:41Z</time>
      </trkpt>
      <trkpt lat="45.93304" lon="4.76718">
        <ele>172</ele>
        <time>2017-06-07T08:53:42Z</time>
      </trkpt>
      <trkpt lat="45.93308" lon="4.76722">
        <ele>172</ele>
        <time>2017-06-07T08:53:43Z</time>
      </trkpt>
      <trkpt lat="45.93312" lon="4.76726">
        <ele>172</ele>
        <time>2017-06-07T08:53:44Z</time>
      </trkpt>
      <trkpt lat="45.93316" lon="4.76729">
        <ele>172</ele>
        <time>2017-06-07T08:53:45Z</time>
      </trkpt>
      <trkpt lat="45.9332" lon="4.76733">
        <ele>172</ele>
        <time>2017-06-07T08:53:46Z</time>
      </trkpt>
      <trkpt lat="45.93325" lon="4.76736">
        <ele>172</ele>
        <time>2017-06-07T08:53:47Z</time>
      </trkpt>
      <trkpt lat="45.9333" lon="4.76741">
        <ele>173</ele>
        <time>2017-06-07T08:53:48Z</time>
      </trkpt>
      <trkpt lat="45.93334" lon="4.76745">
        <ele>173</ele>
        <time>2017-06-07T08:53:49Z</time>
      </trkpt>
      <trkpt lat="45.93339" lon="4.7675">
        <ele>173</ele>
        <time>2017-06-07T08:53:50Z</time>
      </trkpt>
      <trkpt lat="45.93344" lon="4.76755">
        <ele>172</ele>
        <time>2017-06-07T08:53:51Z</time>
      </trkpt>
      <trkpt lat="45.93349" lon="4.7676">
        <ele>172</ele>
        <time>2017-06-07T08:53:52Z</time>
      </trkpt>
      <trkpt lat="45.93354" lon="4.76765">
        <ele>172</ele>
        <time>2017-06-07T08:53:53Z</time>
      </trkpt>
      <trkpt lat="45.93358" lon="4.76769">
        <ele>172</ele>
        <time>2017-06-07T08:53:54Z</time>
      </trkpt>
      <trkpt lat="45.93362" lon="4.76774">
        <ele>172</ele>
        <time>2017-06-07T08:53:55Z</time>
      </trkpt>
      <trkpt lat="45.93367" lon="4.76779">
        <ele>172</ele>
        <time>2017-06-07T08:53:56Z</time>
      </trkpt>
      <trkpt lat="45.93371" lon="4.76783">
        <ele>172</ele>
        <time>2017-06-07T08:53:57Z</time>
      </trkpt>
      <trkpt lat="45.93375" lon="4.76787">
        <ele>172</ele>
        <time>2017-06-07T08:53:58Z</time>
      </trkpt>
      <trkpt lat="45.9338" lon="4.76792">
        <ele>172</ele>
        <time>2017-06-07T08:53:59Z</time>
      </trkpt>
      <trkpt lat="45.93384" lon="4.76797">
        <ele>172</ele>
        <time>2017-06-07T08:54:00Z</time>
      </trkpt>
      <trkpt lat="45.93388" lon="4.76802">
        <ele>172</ele>
        <time>2017-06-07T08:54:01Z</time>
      </trkpt>
      <trkpt lat="45.93392" lon="4.76808">
        <ele>172</ele>
        <time>2017-06-07T08:54:02Z</time>
      </trkpt>
      <trkpt lat="45.93396" lon="4.76814">
        <ele>172</ele>
        <time>2017-06-07T08:54:03Z</time>
      </trkpt>
      <trkpt lat="45.93401" lon="4.7682">
        <ele>172</ele>
        <time>2017-06-07T08:54:04Z</time>
      </trkpt>
      <trkpt lat="45.93405" lon="4.76827">
        <ele>172</ele>
        <time>2017-06-07T08:54:05Z</time>
      </trkpt>
      <trkpt lat="45.93409" lon="4.76833">
        <ele>172</ele>
        <time>2017-06-07T08:54:06Z</time>
      </trkpt>
      <trkpt lat="45.93413" lon="4.7684">
        <ele>172</ele>
        <time>2017-06-07T08:54:07Z</time>
      </trkpt>
      <trkpt lat="45.93416" lon="4.76848">
        <ele>172</ele>
        <time>2017-06-07T08:54:08Z</time>
      </trkpt>
      <trkpt lat="45.9342" lon="4.76856">
        <ele>171</ele>
        <time>2017-06-07T08:54:09Z</time>
      </trkpt>
      <trkpt lat="45.93424" lon="4.76864">
        <ele>171</ele>
        <time>2017-06-07T08:54:10Z</time>
      </trkpt>
      <trkpt lat="45.93427" lon="4.76872">
        <ele>171</ele>
        <time>2017-06-07T08:54:11Z</time>
      </trkpt>
      <trkpt lat="45.93431" lon="4.7688">
        <ele>171</ele>
        <time>2017-06-07T08:54:12Z</time>
      </trkpt>
      <trkpt lat="45.93433" lon="4.76887">
        <ele>171</ele>
        <time>2017-06-07T08:54:13Z</time>
      </trkpt>
      <trkpt lat="45.93436" lon="4.76895">
        <ele>171</ele>
        <time>2017-06-07T08:54:14Z</time>
      </trkpt>
      <trkpt lat="45.93438" lon="4.76903">
        <ele>171</ele>
        <time>2017-06-07T08:54:15Z</time>
      </trkpt>
      <trkpt lat="45.9344" lon="4.7691">
        <ele>170</ele>
        <time>2017-06-07T08:54:16Z</time>
      </trkpt>
      <trkpt lat="45.93442" lon="4.76918">
        <ele>170</ele>
        <time>2017-06-07T08:54:17Z</time>
      </trkpt>
      <trkpt lat="45.93444" lon="4.76924">
        <ele>170</ele>
        <time>2017-06-07T08:54:18Z</time>
      </trkpt>
      <trkpt lat="45.93445" lon="4.76932">
        <ele>170</ele>
        <time>2017-06-07T08:54:19Z</time>
      </trkpt>
      <trkpt lat="45.93446" lon="4.76939">
        <ele>170</ele>
        <time>2017-06-07T08:54:20Z</time>
      </trkpt>
      <trkpt lat="45.93448" lon="4.76948">
        <ele>170</ele>
        <time>2017-06-07T08:54:21Z</time>
      </trkpt>
      <trkpt lat="45.93449" lon="4.76956">
        <ele>170</ele>
        <time>2017-06-07T08:54:22Z</time>
      </trkpt>
      <trkpt lat="45.93451" lon="4.76964">
        <ele>170</ele>
        <time>2017-06-07T08:54:23Z</time>
      </trkpt>
      <trkpt lat="45.93452" lon="4.76972">
        <ele>170</ele>
        <time>2017-06-07T08:54:24Z</time>
      </trkpt>
      <trkpt lat="45.93453" lon="4.76981">
        <ele>170</ele>
        <time>2017-06-07T08:54:25Z</time>
      </trkpt>
      <trkpt lat="45.93455" lon="4.76989">
        <ele>170</ele>
        <time>2017-06-07T08:54:26Z</time>
      </trkpt>
      <trkpt lat="45.93456" lon="4.76998">
        <ele>170</ele>
        <time>2017-06-07T08:54:27Z</time>
      </trkpt>
      <trkpt lat="45.93457" lon="4.77006">
        <ele>170</ele>
        <time>2017-06-07T08:54:28Z</time>
      </trkpt>
      <trkpt lat="45.93458" lon="4.77015">
        <ele>170</ele>
        <time>2017-06-07T08:54:29Z</time>
      </trkpt>
      <trkpt lat="45.9346" lon="4.77023">
        <ele>170</ele>
        <time>2017-06-07T08:54:30Z</time>
      </trkpt>
      <trkpt lat="45.93461" lon="4.77031">
        <ele>170</ele>
        <time>2017-06-07T08:54:31Z</time>
      </trkpt>
      <trkpt lat="45.93462" lon="4.77038">
        <ele>170</ele>
        <time>2017-06-07T08:54:32Z</time>
      </trkpt>
      <trkpt lat="45.93463" lon="4.77046">
        <ele>170</ele>
        <time>2017-06-07T08:54:33Z</time>
      </trkpt>
      <trkpt lat="45.93464" lon="4.77053">
        <ele>170</ele>
        <time>2017-06-07T08:54:34Z</time>
      </trkpt>
      <trkpt lat="45.93466" lon="4.77061">
        <ele>170</ele>
        <time>2017-06-07T08:54:35Z</time>
      </trkpt>
      <trkpt lat="45.93467" lon="4.77068">
        <ele>170</ele>
        <time>2017-06-07T08:54:36Z</time>
      </trkpt>
      <trkpt lat="45.93468" lon="4.77074">
        <ele>170</ele>
        <time>2017-06-07T08:54:37Z</time>
      </trkpt>
      <trkpt lat="45.93469" lon="4.77081">
        <ele>170</ele>
        <time>2017-06-07T08:54:38Z</time>
      </trkpt>
      <trkpt lat="45.93471" lon="4.77088">
        <ele>169</ele>
        <time>2017-06-07T08:54:39Z</time>
      </trkpt>
      <trkpt lat="45.93472" lon="4.77095">
        <ele>169</ele>
        <time>2017-06-07T08:54:40Z</time>
      </trkpt>
      <trkpt lat="45.93474" lon="4.77102">
        <ele>169</ele>
        <time>2017-06-07T08:54:41Z</time>
      </trkpt>
      <trkpt lat="45.93475" lon="4.77109">
        <ele>169</ele>
        <time>2017-06-07T08:54:42Z</time>
      </trkpt>
      <trkpt lat="45.93477" lon="4.77116">
        <ele>169</ele>
        <time>2017-06-07T08:54:43Z</time>
      </trkpt>
      <trkpt lat="45.93478" lon="4.77123">
        <ele>169</ele>
        <time>2017-06-07T08:54:44Z</time>
      </trkpt>
      <trkpt lat="45.93479" lon="4.77131">
        <ele>169</ele>
        <time>2017-06-07T08:54:45Z</time>
      </trkpt>
      <trkpt lat="45.93481" lon="4.77139">
        <ele>169</ele>
        <time>2017-06-07T08:54:46Z</time>
      </trkpt>
      <trkpt lat="45.93482" lon="4.77147">
        <ele>169</ele>
        <time>2017-06-07T08:54:47Z</time>
      </trkpt>
      <trkpt lat="45.93484" lon="4.77155">
        <ele>169</ele>
        <time>2017-06-07T08:54:48Z</time>
      </trkpt>
      <trkpt lat="45.93486" lon="4.77163">
        <ele>169</ele>
        <time>2017-06-07T08:54:49Z</time>
      </trkpt>
      <trkpt lat="45.93487" lon="4.77171">
        <ele>169</ele>
        <time>2017-06-07T08:54:50Z</time>
      </trkpt>
      <trkpt lat="45.93488" lon="4.77178">
        <ele>169</ele>
        <time>2017-06-07T08:54:51Z</time>
      </trkpt>
      <trkpt lat="45.93489" lon="4.77185">
        <ele>169</ele>
        <time>2017-06-07T08:54:52Z</time>
      </trkpt>
      <trkpt lat="45.93491" lon="4.77192">
        <ele>169</ele>
        <time>2017-06-07T08:54:53Z</time>
      </trkpt>
      <trkpt lat="45.93492" lon="4.77199">
        <ele>169</ele>
        <time>2017-06-07T08:54:54Z</time>
      </trkpt>
      <trkpt lat="45.93493" lon="4.77206">
        <ele>169</ele>
        <time>2017-06-07T08:54:55Z</time>
      </trkpt>
      <trkpt lat="45.93494" lon="4.77212">
        <ele>169</ele>
        <time>2017-06-07T08:54:56Z</time>
      </trkpt>
      <trkpt lat="45.93496" lon="4.77218">
        <ele>169</ele>
        <time>2017-06-07T08:54:57Z</time>
      </trkpt>
      <trkpt lat="45.93497" lon="4.77224">
        <ele>169</ele>
        <time>2017-06-07T08:54:58Z</time>
      </trkpt>
      <trkpt lat="45.93499" lon="4.77232">
        <ele>170</ele>
        <time>2017-06-07T08:54:59Z</time>
      </trkpt>
      <trkpt lat="45.93501" lon="4.7724">
        <ele>170</ele>
        <time>2017-06-07T08:55:00Z</time>
      </trkpt>
      <trkpt lat="45.93502" lon="4.77247">
        <ele>170</ele>
        <time>2017-06-07T08:55:01Z</time>
      </trkpt>
      <trkpt lat="45.93505" lon="4.77256">
        <ele>170</ele>
        <time>2017-06-07T08:55:02Z</time>
      </trkpt>
      <trkpt lat="45.93507" lon="4.77264">
        <ele>170</ele>
        <time>2017-06-07T08:55:03Z</time>
      </trkpt>
      <trkpt lat="45.93508" lon="4.77272">
        <ele>170</ele>
        <time>2017-06-07T08:55:04Z</time>
      </trkpt>
      <trkpt lat="45.9351" lon="4.7728">
        <ele>170</ele>
        <time>2017-06-07T08:55:05Z</time>
      </trkpt>
      <trkpt lat="45.93512" lon="4.77288">
        <ele>170</ele>
        <time>2017-06-07T08:55:06Z</time>
      </trkpt>
      <trkpt lat="45.93513" lon="4.77295">
        <ele>170</ele>
        <time>2017-06-07T08:55:07Z</time>
      </trkpt>
      <trkpt lat="45.93515" lon="4.77303">
        <ele>170</ele>
        <time>2017-06-07T08:55:08Z</time>
      </trkpt>
      <trkpt lat="45.93517" lon="4.77311">
        <ele>170</ele>
        <time>2017-06-07T08:55:09Z</time>
      </trkpt>
      <trkpt lat="45.93518" lon="4.77318">
        <ele>170</ele>
        <time>2017-06-07T08:55:10Z</time>
      </trkpt>
      <trkpt lat="45.93519" lon="4.77325">
        <ele>170</ele>
        <time>2017-06-07T08:55:11Z</time>
      </trkpt>
      <trkpt lat="45.93521" lon="4.77332">
        <ele>170</ele>
        <time>2017-06-07T08:55:12Z</time>
      </trkpt>
      <trkpt lat="45.93523" lon="4.77339">
        <ele>170</ele>
        <time>2017-06-07T08:55:13Z</time>
      </trkpt>
      <trkpt lat="45.93524" lon="4.77346">
        <ele>170</ele>
        <time>2017-06-07T08:55:14Z</time>
      </trkpt>
      <trkpt lat="45.93526" lon="4.77354">
        <ele>170</ele>
        <time>2017-06-07T08:55:15Z</time>
      </trkpt>
      <trkpt lat="45.93528" lon="4.77362">
        <ele>170</ele>
        <time>2017-06-07T08:55:16Z</time>
      </trkpt>
      <trkpt lat="45.9353" lon="4.77371">
        <ele>170</ele>
        <time>2017-06-07T08:55:17Z</time>
      </trkpt>
      <trkpt lat="45.93532" lon="4.77379">
        <ele>170</ele>
        <time>2017-06-07T08:55:18Z</time>
      </trkpt>
      <trkpt lat="45.93533" lon="4.77387">
        <ele>170</ele>
        <time>2017-06-07T08:55:19Z</time>
      </trkpt>
      <trkpt lat="45.93535" lon="4.77394">
        <ele>170</ele>
        <time>2017-06-07T08:55:20Z</time>
      </trkpt>
      <trkpt lat="45.93536" lon="4.77401">
        <ele>170</ele>
        <time>2017-06-07T08:55:21Z</time>
      </trkpt>
      <trkpt lat="45.93538" lon="4.77408">
        <ele>170</ele>
        <time>2017-06-07T08:55:22Z</time>
      </trkpt>
      <trkpt lat="45.9354" lon="4.77415">
        <ele>170</ele>
        <time>2017-06-07T08:55:23Z</time>
      </trkpt>
      <trkpt lat="45.93541" lon="4.77421">
        <ele>170</ele>
        <time>2017-06-07T08:55:24Z</time>
      </trkpt>
      <trkpt lat="45.93543" lon="4.77428">
        <ele>169</ele>
        <time>2017-06-07T08:55:25Z</time>
      </trkpt>
      <trkpt lat="45.93545" lon="4.77435">
        <ele>169</ele>
        <time>2017-06-07T08:55:26Z</time>
      </trkpt>
      <trkpt lat="45.93546" lon="4.77442">
        <ele>169</ele>
        <time>2017-06-07T08:55:27Z</time>
      </trkpt>
      <trkpt lat="45.93548" lon="4.77449">
        <ele>169</ele>
        <time>2017-06-07T08:55:28Z</time>
      </trkpt>
      <trkpt lat="45.93549" lon="4.77456">
        <ele>169</ele>
        <time>2017-06-07T08:55:29Z</time>
      </trkpt>
      <trkpt lat="45.93551" lon="4.77464">
        <ele>169</ele>
        <time>2017-06-07T08:55:30Z</time>
      </trkpt>
      <trkpt lat="45.93553" lon="4.77471">
        <ele>169</ele>
        <time>2017-06-07T08:55:31Z</time>
      </trkpt>
      <trkpt lat="45.93555" lon="4.77479">
        <ele>169</ele>
        <time>2017-06-07T08:55:32Z</time>
      </trkpt>
      <trkpt lat="45.93556" lon="4.77487">
        <ele>169</ele>
        <time>2017-06-07T08:55:33Z</time>
      </trkpt>
      <trkpt lat="45.93558" lon="4.77494">
        <ele>169</ele>
        <time>2017-06-07T08:55:34Z</time>
      </trkpt>
      <trkpt lat="45.9356" lon="4.77503">
        <ele>169</ele>
        <time>2017-06-07T08:55:35Z</time>
      </trkpt>
      <trkpt lat="45.93562" lon="4.77511">
        <ele>169</ele>
        <time>2017-06-07T08:55:36Z</time>
      </trkpt>
      <trkpt lat="45.93564" lon="4.77519">
        <ele>169</ele>
        <time>2017-06-07T08:55:37Z</time>
      </trkpt>
      <trkpt lat="45.93566" lon="4.77528">
        <ele>169</ele>
        <time>2017-06-07T08:55:38Z</time>
      </trkpt>
      <trkpt lat="45.93568" lon="4.77536">
        <ele>169</ele>
        <time>2017-06-07T08:55:39Z</time>
      </trkpt>
      <trkpt lat="45.9357" lon="4.77545">
        <ele>169</ele>
        <time>2017-06-07T08:55:40Z</time>
      </trkpt>
      <trkpt lat="45.93572" lon="4.77553">
        <ele>169</ele>
        <time>2017-06-07T08:55:41Z</time>
      </trkpt>
      <trkpt lat="45.93574" lon="4.77561">
        <ele>169</ele>
        <time>2017-06-07T08:55:42Z</time>
      </trkpt>
      <trkpt lat="45.93576" lon="4.77569">
        <ele>170</ele>
        <time>2017-06-07T08:55:43Z</time>
      </trkpt>
      <trkpt lat="45.93579" lon="4.77576">
        <ele>170</ele>
        <time>2017-06-07T08:55:44Z</time>
      </trkpt>
      <trkpt lat="45.93581" lon="4.77583">
        <ele>170</ele>
        <time>2017-06-07T08:55:45Z</time>
      </trkpt>
      <trkpt lat="45.93583" lon="4.7759">
        <ele>170</ele>
        <time>2017-06-07T08:55:46Z</time>
      </trkpt>
      <trkpt lat="45.93585" lon="4.77596">
        <ele>170</ele>
        <time>2017-06-07T08:55:47Z</time>
      </trkpt>
      <trkpt lat="45.93587" lon="4.77603">
        <ele>170</ele>
        <time>2017-06-07T08:55:48Z</time>
      </trkpt>
      <trkpt lat="45.93589" lon="4.77609">
        <ele>170</ele>
        <time>2017-06-07T08:55:49Z</time>
      </trkpt>
      <trkpt lat="45.93592" lon="4.77616">
        <ele>170</ele>
        <time>2017-06-07T08:55:50Z</time>
      </trkpt>
      <trkpt lat="45.93594" lon="4.77624">
        <ele>170</ele>
        <time>2017-06-07T08:55:51Z</time>
      </trkpt>
      <trkpt lat="45.93596" lon="4.77632">
        <ele>169</ele>
        <time>2017-06-07T08:55:52Z</time>
      </trkpt>
      <trkpt lat="45.93599" lon="4.77639">
        <ele>169</ele>
        <time>2017-06-07T08:55:53Z</time>
      </trkpt>
      <trkpt lat="45.93602" lon="4.77646">
        <ele>169</ele>
        <time>2017-06-07T08:55:54Z</time>
      </trkpt>
      <trkpt lat="45.93605" lon="4.77654">
        <ele>169</ele>
        <time>2017-06-07T08:55:55Z</time>
      </trkpt>
      <trkpt lat="45.93608" lon="4.77661">
        <ele>169</ele>
        <time>2017-06-07T08:55:56Z</time>
      </trkpt>
      <trkpt lat="45.93611" lon="4.77668">
        <ele>169</ele>
        <time>2017-06-07T08:55:57Z</time>
      </trkpt>
      <trkpt lat="45.93615" lon="4.77676">
        <ele>169</ele>
        <time>2017-06-07T08:55:58Z</time>
      </trkpt>
      <trkpt lat="45.93618" lon="4.77683">
        <ele>169</ele>
        <time>2017-06-07T08:55:59Z</time>
      </trkpt>
      <trkpt lat="45.93621" lon="4.7769">
        <ele>169</ele>
        <time>2017-06-07T08:56:00Z</time>
      </trkpt>
      <trkpt lat="45.93625" lon="4.77696">
        <ele>169</ele>
        <time>2017-06-07T08:56:01Z</time>
      </trkpt>
      <trkpt lat="45.93628" lon="4.77703">
        <ele>169</ele>
        <time>2017-06-07T08:56:02Z</time>
      </trkpt>
      <trkpt lat="45.93633" lon="4.77713">
        <ele>170</ele>
        <time>2017-06-07T08:56:04Z</time>
      </trkpt>
      <trkpt lat="45.93636" lon="4.77718">
        <ele>170</ele>
        <time>2017-06-07T08:56:05Z</time>
      </trkpt>
      <trkpt lat="45.9364" lon="4.77724">
        <ele>170</ele>
        <time>2017-06-07T08:56:06Z</time>
      </trkpt>
      <trkpt lat="45.93643" lon="4.77729">
        <ele>170</ele>
        <time>2017-06-07T08:56:07Z</time>
      </trkpt>
      <trkpt lat="45.93647" lon="4.77735">
        <ele>170</ele>
        <time>2017-06-07T08:56:08Z</time>
      </trkpt>
      <trkpt lat="45.93651" lon="4.77741">
        <ele>170</ele>
        <time>2017-06-07T08:56:09Z</time>
      </trkpt>
      <trkpt lat="45.93654" lon="4.77746">
        <ele>170</ele>
        <time>2017-06-07T08:56:10Z</time>
      </trkpt>
      <trkpt lat="45.93658" lon="4.77752">
        <ele>171</ele>
        <time>2017-06-07T08:56:11Z</time>
      </trkpt>
      <trkpt lat="45.93662" lon="4.77757">
        <ele>171</ele>
        <time>2017-06-07T08:56:12Z</time>
      </trkpt>
      <trkpt lat="45.93665" lon="4.77763">
        <ele>171</ele>
        <time>2017-06-07T08:56:13Z</time>
      </trkpt>
      <trkpt lat="45.93669" lon="4.77768">
        <ele>170</ele>
        <time>2017-06-07T08:56:14Z</time>
      </trkpt>
      <trkpt lat="45.93673" lon="4.77773">
        <ele>170</ele>
        <time>2017-06-07T08:56:15Z</time>
      </trkpt>
      <trkpt lat="45.93677" lon="4.77779">
        <ele>170</ele>
        <time>2017-06-07T08:56:16Z</time>
      </trkpt>
      <trkpt lat="45.93681" lon="4.77785">
        <ele>170</ele>
        <time>2017-06-07T08:56:17Z</time>
      </trkpt>
      <trkpt lat="45.93685" lon="4.77791">
        <ele>170</ele>
        <time>2017-06-07T08:56:18Z</time>
      </trkpt>
      <trkpt lat="45.93689" lon="4.77796">
        <ele>169</ele>
        <time>2017-06-07T08:56:19Z</time>
      </trkpt>
      <trkpt lat="45.93693" lon="4.77801">
        <ele>169</ele>
        <time>2017-06-07T08:56:20Z</time>
      </trkpt>
      <trkpt lat="45.93696" lon="4.77805">
        <ele>169</ele>
        <time>2017-06-07T08:56:21Z</time>
      </trkpt>
      <trkpt lat="45.93703" lon="4.77814">
        <ele>169</ele>
        <time>2017-06-07T08:56:23Z</time>
      </trkpt>
      <trkpt lat="45.93706" lon="4.77818">
        <ele>169</ele>
        <time>2017-06-07T08:56:24Z</time>
      </trkpt>
      <trkpt lat="45.93712" lon="4.77826">
        <ele>169</ele>
        <time>2017-06-07T08:56:26Z</time>
      </trkpt>
      <trkpt lat="45.93715" lon="4.77829">
        <ele>169</ele>
        <time>2017-06-07T08:56:27Z</time>
      </trkpt>
      <trkpt lat="45.93721" lon="4.77837">
        <ele>167</ele>
        <time>2017-06-07T08:56:29Z</time>
      </trkpt>
      <trkpt lat="45.93724" lon="4.77841">
        <ele>167</ele>
        <time>2017-06-07T08:56:30Z</time>
      </trkpt>
      <trkpt lat="45.9373" lon="4.77849">
        <ele>167</ele>
        <time>2017-06-07T08:56:32Z</time>
      </trkpt>
      <trkpt lat="45.93733" lon="4.77853">
        <ele>167</ele>
        <time>2017-06-07T08:56:33Z</time>
      </trkpt>
      <trkpt lat="45.9374" lon="4.77862">
        <ele>167</ele>
        <time>2017-06-07T08:56:35Z</time>
      </trkpt>
      <trkpt lat="45.93743" lon="4.77866">
        <ele>167</ele>
        <time>2017-06-07T08:56:36Z</time>
      </trkpt>
      <trkpt lat="45.93747" lon="4.7787">
        <ele>167</ele>
        <time>2017-06-07T08:56:37Z</time>
      </trkpt>
      <trkpt lat="45.9375" lon="4.77875">
        <ele>166</ele>
        <time>2017-06-07T08:56:38Z</time>
      </trkpt>
      <trkpt lat="45.93754" lon="4.7788">
        <ele>166</ele>
        <time>2017-06-07T08:56:39Z</time>
      </trkpt>
      <trkpt lat="45.93757" lon="4.77884">
        <ele>166</ele>
        <time>2017-06-07T08:56:40Z</time>
      </trkpt>
      <trkpt lat="45.93764" lon="4.77893">
        <ele>166</ele>
        <time>2017-06-07T08:56:42Z</time>
      </trkpt>
      <trkpt lat="45.93767" lon="4.77897">
        <ele>166</ele>
        <time>2017-06-07T08:56:43Z</time>
      </trkpt>
      <trkpt lat="45.93774" lon="4.77905">
        <ele>166</ele>
        <time>2017-06-07T08:56:45Z</time>
      </trkpt>
      <trkpt lat="45.93777" lon="4.7791">
        <ele>166</ele>
        <time>2017-06-07T08:56:46Z</time>
      </trkpt>
      <trkpt lat="45.93781" lon="4.77915">
        <ele>166</ele>
        <time>2017-06-07T08:56:47Z</time>
      </trkpt>
      <trkpt lat="45.93785" lon="4.77919">
        <ele>168</ele>
        <time>2017-06-07T08:56:48Z</time>
      </trkpt>
      <trkpt lat="45.93789" lon="4.77925">
        <ele>168</ele>
        <time>2017-06-07T08:56:49Z</time>
      </trkpt>
      <trkpt lat="45.93793" lon="4.7793">
        <ele>168</ele>
        <time>2017-06-07T08:56:50Z</time>
      </trkpt>
      <trkpt lat="45.93797" lon="4.77935">
        <ele>168</ele>
        <time>2017-06-07T08:56:51Z</time>
      </trkpt>
      <trkpt lat="45.93802" lon="4.77941">
        <ele>169</ele>
        <time>2017-06-07T08:56:52Z</time>
      </trkpt>
      <trkpt lat="45.93806" lon="4.77947">
        <ele>169</ele>
        <time>2017-06-07T08:56:53Z</time>
      </trkpt>
      <trkpt lat="45.9381" lon="4.77952">
        <ele>169</ele>
        <time>2017-06-07T08:56:54Z</time>
      </trkpt>
      <trkpt lat="45.93814" lon="4.77958">
        <ele>170</ele>
        <time>2017-06-07T08:56:55Z</time>
      </trkpt>
      <trkpt lat="45.93819" lon="4.77964">
        <ele>171</ele>
        <time>2017-06-07T08:56:56Z</time>
      </trkpt>
      <trkpt lat="45.93824" lon="4.7797">
        <ele>172</ele>
        <time>2017-06-07T08:56:57Z</time>
      </trkpt>
      <trkpt lat="45.93829" lon="4.77977">
        <ele>173</ele>
        <time>2017-06-07T08:56:58Z</time>
      </trkpt>
      <trkpt lat="45.93834" lon="4.77983">
        <ele>178</ele>
        <time>2017-06-07T08:56:59Z</time>
      </trkpt>
      <trkpt lat="45.93838" lon="4.77991">
        <ele>179</ele>
        <time>2017-06-07T08:57:00Z</time>
      </trkpt>
      <trkpt lat="45.93841" lon="4.78">
        <ele>179</ele>
        <time>2017-06-07T08:57:01Z</time>
      </trkpt>
      <trkpt lat="45.93843" lon="4.78009">
        <ele>181</ele>
        <time>2017-06-07T08:57:02Z</time>
      </trkpt>
      <trkpt lat="45.93844" lon="4.78018">
        <ele>182</ele>
        <time>2017-06-07T08:57:03Z</time>
      </trkpt>
      <trkpt lat="45.93845" lon="4.78027">
        <ele>182</ele>
        <time>2017-06-07T08:57:04Z</time>
      </trkpt>
      <trkpt lat="45.93846" lon="4.78036">
        <ele>182</ele>
        <time>2017-06-07T08:57:05Z</time>
      </trkpt>
      <trkpt lat="45.93847" lon="4.78044">
        <ele>183</ele>
        <time>2017-06-07T08:57:06Z</time>
      </trkpt>
      <trkpt lat="45.93848" lon="4.78052">
        <ele>183</ele>
        <time>2017-06-07T08:57:07Z</time>
      </trkpt>
      <trkpt lat="45.93847" lon="4.78059">
        <ele>182</ele>
        <time>2017-06-07T08:57:08Z</time>
      </trkpt>
      <trkpt lat="45.93846" lon="4.78065">
        <ele>182</ele>
        <time>2017-06-07T08:57:09Z</time>
      </trkpt>
      <trkpt lat="45.93844" lon="4.78072">
        <ele>182</ele>
        <time>2017-06-07T08:57:10Z</time>
      </trkpt>
      <trkpt lat="45.93842" lon="4.78078">
        <ele>181</ele>
        <time>2017-06-07T08:57:11Z</time>
      </trkpt>
      <trkpt lat="45.9384" lon="4.78084">
        <ele>181</ele>
        <time>2017-06-07T08:57:12Z</time>
      </trkpt>
      <trkpt lat="45.93839" lon="4.7809">
        <ele>182</ele>
        <time>2017-06-07T08:57:13Z</time>
      </trkpt>
      <trkpt lat="45.93837" lon="4.78097">
        <ele>183</ele>
        <time>2017-06-07T08:57:14Z</time>
      </trkpt>
      <trkpt lat="45.93836" lon="4.78104">
        <ele>183</ele>
        <time>2017-06-07T08:57:15Z</time>
      </trkpt>
      <trkpt lat="45.93834" lon="4.78111">
        <ele>184</ele>
        <time>2017-06-07T08:57:16Z</time>
      </trkpt>
      <trkpt lat="45.93833" lon="4.78118">
        <ele>179</ele>
        <time>2017-06-07T08:57:17Z</time>
      </trkpt>
      <trkpt lat="45.93831" lon="4.78125">
        <ele>180</ele>
        <time>2017-06-07T08:57:18Z</time>
      </trkpt>
      <trkpt lat="45.93829" lon="4.78132">
        <ele>180</ele>
        <time>2017-06-07T08:57:19Z</time>
      </trkpt>
      <trkpt lat="45.93826" lon="4.78139">
        <ele>180</ele>
        <time>2017-06-07T08:57:20Z</time>
      </trkpt>
      <trkpt lat="45.93824" lon="4.78146">
        <ele>180</ele>
        <time>2017-06-07T08:57:21Z</time>
      </trkpt>
      <trkpt lat="45.93822" lon="4.78153">
        <ele>180</ele>
        <time>2017-06-07T08:57:22Z</time>
      </trkpt>
      <trkpt lat="45.9382" lon="4.78161">
        <ele>181</ele>
        <time>2017-06-07T08:57:23Z</time>
      </trkpt>
      <trkpt lat="45.93818" lon="4.7817">
        <ele>182</ele>
        <time>2017-06-07T08:57:24Z</time>
      </trkpt>
      <trkpt lat="45.93817" lon="4.78176">
        <ele>182</ele>
        <time>2017-06-07T08:57:25Z</time>
      </trkpt>
      <trkpt lat="45.93815" lon="4.78182">
        <ele>182</ele>
        <time>2017-06-07T08:57:26Z</time>
      </trkpt>
      <trkpt lat="45.93813" lon="4.78189">
        <ele>182</ele>
        <time>2017-06-07T08:57:27Z</time>
      </trkpt>
      <trkpt lat="45.93812" lon="4.78195">
        <ele>182</ele>
        <time>2017-06-07T08:57:28Z</time>
      </trkpt>
      <trkpt lat="45.93811" lon="4.78202">
        <ele>182</ele>
        <time>2017-06-07T08:57:29Z</time>
      </trkpt>
      <trkpt lat="45.93808" lon="4.78209">
        <ele>182</ele>
        <time>2017-06-07T08:57:30Z</time>
      </trkpt>
      <trkpt lat="45.93805" lon="4.78214">
        <ele>182</ele>
        <time>2017-06-07T08:57:31Z</time>
      </trkpt>
      <trkpt lat="45.93803" lon="4.7822">
        <ele>182</ele>
        <time>2017-06-07T08:57:32Z</time>
      </trkpt>
      <trkpt lat="45.93799" lon="4.7823">
        <ele>182</ele>
        <time>2017-06-07T08:57:34Z</time>
      </trkpt>
      <trkpt lat="45.93796" lon="4.78234">
        <ele>182</ele>
        <time>2017-06-07T08:57:35Z</time>
      </trkpt>
      <trkpt lat="45.9379" lon="4.78242">
        <ele>182</ele>
        <time>2017-06-07T08:57:37Z</time>
      </trkpt>
      <trkpt lat="45.93788" lon="4.78247">
        <ele>182</ele>
        <time>2017-06-07T08:57:38Z</time>
      </trkpt>
      <trkpt lat="45.93787" lon="4.78253">
        <ele>183</ele>
        <time>2017-06-07T08:57:39Z</time>
      </trkpt>
      <trkpt lat="45.93787" lon="4.7826">
        <ele>183</ele>
        <time>2017-06-07T08:57:40Z</time>
      </trkpt>
      <trkpt lat="45.93786" lon="4.78268">
        <ele>183</ele>
        <time>2017-06-07T08:57:41Z</time>
      </trkpt>
      <trkpt lat="45.93785" lon="4.78275">
        <ele>183</ele>
        <time>2017-06-07T08:57:42Z</time>
      </trkpt>
      <trkpt lat="45.93783" lon="4.78283">
        <ele>183</ele>
        <time>2017-06-07T08:57:43Z</time>
      </trkpt>
      <trkpt lat="45.93781" lon="4.7829">
        <ele>183</ele>
        <time>2017-06-07T08:57:44Z</time>
      </trkpt>
      <trkpt lat="45.93778" lon="4.78298">
        <ele>183</ele>
        <time>2017-06-07T08:57:45Z</time>
      </trkpt>
      <trkpt lat="45.93776" lon="4.78304">
        <ele>183</ele>
        <time>2017-06-07T08:57:46Z</time>
      </trkpt>
      <trkpt lat="45.93774" lon="4.78312">
        <ele>183</ele>
        <time>2017-06-07T08:57:47Z</time>
      </trkpt>
      <trkpt lat="45.93772" lon="4.78319">
        <ele>183</ele>
        <time>2017-06-07T08:57:48Z</time>
      </trkpt>
      <trkpt lat="45.9377" lon="4.78326">
        <ele>183</ele>
        <time>2017-06-07T08:57:49Z</time>
      </trkpt>
      <trkpt lat="45.93768" lon="4.78334">
        <ele>183</ele>
        <time>2017-06-07T08:57:50Z</time>
      </trkpt>
      <trkpt lat="45.93766" lon="4.78341">
        <ele>183</ele>
        <time>2017-06-07T08:57:51Z</time>
      </trkpt>
      <trkpt lat="45.93765" lon="4.78348">
        <ele>183</ele>
        <time>2017-06-07T08:57:52Z</time>
      </trkpt>
      <trkpt lat="45.93763" lon="4.78355">
        <ele>183</ele>
        <time>2017-06-07T08:57:53Z</time>
      </trkpt>
      <trkpt lat="45.93761" lon="4.78361">
        <ele>183</ele>
        <time>2017-06-07T08:57:54Z</time>
      </trkpt>
      <trkpt lat="45.93758" lon="4.78372">
        <ele>183</ele>
        <time>2017-06-07T08:57:56Z</time>
      </trkpt>
      <trkpt lat="45.93756" lon="4.7838">
        <ele>183</ele>
        <time>2017-06-07T08:57:57Z</time>
      </trkpt>
      <trkpt lat="45.93754" lon="4.78387">
        <ele>183</ele>
        <time>2017-06-07T08:57:58Z</time>
      </trkpt>
      <trkpt lat="45.93752" lon="4.78395">
        <ele>183</ele>
        <time>2017-06-07T08:57:59Z</time>
      </trkpt>
      <trkpt lat="45.9375" lon="4.78404">
        <ele>181</ele>
        <time>2017-06-07T08:58:00Z</time>
      </trkpt>
      <trkpt lat="45.93748" lon="4.78412">
        <ele>181</ele>
        <time>2017-06-07T08:58:01Z</time>
      </trkpt>
      <trkpt lat="45.93746" lon="4.7842">
        <ele>181</ele>
        <time>2017-06-07T08:58:02Z</time>
      </trkpt>
      <trkpt lat="45.93743" lon="4.78427">
        <ele>180</ele>
        <time>2017-06-07T08:58:03Z</time>
      </trkpt>
      <trkpt lat="45.93741" lon="4.78435">
        <ele>180</ele>
        <time>2017-06-07T08:58:04Z</time>
      </trkpt>
      <trkpt lat="45.93739" lon="4.78443">
        <ele>180</ele>
        <time>2017-06-07T08:58:05Z</time>
      </trkpt>
      <trkpt lat="45.93737" lon="4.78451">
        <ele>180</ele>
        <time>2017-06-07T08:58:06Z</time>
      </trkpt>
      <trkpt lat="45.93735" lon="4.78459">
        <ele>180</ele>
        <time>2017-06-07T08:58:07Z</time>
      </trkpt>
      <trkpt lat="45.93733" lon="4.78467">
        <ele>180</ele>
        <time>2017-06-07T08:58:08Z</time>
      </trkpt>
      <trkpt lat="45.9373" lon="4.78474">
        <ele>180</ele>
        <time>2017-06-07T08:58:09Z</time>
      </trkpt>
      <trkpt lat="45.93729" lon="4.78483">
        <ele>180</ele>
        <time>2017-06-07T08:58:10Z</time>
      </trkpt>
      <trkpt lat="45.93726" lon="4.78491">
        <ele>180</ele>
        <time>2017-06-07T08:58:11Z</time>
      </trkpt>
      <trkpt lat="45.93724" lon="4.785">
        <ele>180</ele>
        <time>2017-06-07T08:58:12Z</time>
      </trkpt>
      <trkpt lat="45.93722" lon="4.78509">
        <ele>179</ele>
        <time>2017-06-07T08:58:13Z</time>
      </trkpt>
      <trkpt lat="45.9372" lon="4.78517">
        <ele>178</ele>
        <time>2017-06-07T08:58:14Z</time>
      </trkpt>
      <trkpt lat="45.93717" lon="4.78526">
        <ele>178</ele>
        <time>2017-06-07T08:58:15Z</time>
      </trkpt>
      <trkpt lat="45.93716" lon="4.78535">
        <ele>178</ele>
        <time>2017-06-07T08:58:16Z</time>
      </trkpt>
      <trkpt lat="45.93714" lon="4.78544">
        <ele>178</ele>
        <time>2017-06-07T08:58:17Z</time>
      </trkpt>
      <trkpt lat="45.93712" lon="4.78553">
        <ele>178</ele>
        <time>2017-06-07T08:58:18Z</time>
      </trkpt>
      <trkpt lat="45.9371" lon="4.78562">
        <ele>178</ele>
        <time>2017-06-07T08:58:19Z</time>
      </trkpt>
      <trkpt lat="45.93709" lon="4.78572">
        <ele>177</ele>
        <time>2017-06-07T08:58:20Z</time>
      </trkpt>
      <trkpt lat="45.93707" lon="4.78581">
        <ele>177</ele>
        <time>2017-06-07T08:58:21Z</time>
      </trkpt>
      <trkpt lat="45.93705" lon="4.7859">
        <ele>176</ele>
        <time>2017-06-07T08:58:22Z</time>
      </trkpt>
      <trkpt lat="45.93703" lon="4.78598">
        <ele>176</ele>
        <time>2017-06-07T08:58:23Z</time>
      </trkpt>
      <trkpt lat="45.93701" lon="4.78606">
        <ele>176</ele>
        <time>2017-06-07T08:58:24Z</time>
      </trkpt>
      <trkpt lat="45.93699" lon="4.78613">
        <ele>176</ele>
        <time>2017-06-07T08:58:25Z</time>
      </trkpt>
      <trkpt lat="45.93697" lon="4.78621">
        <ele>176</ele>
        <time>2017-06-07T08:58:26Z</time>
      </trkpt>
      <trkpt lat="45.93697" lon="4.78628">
        <ele>176</ele>
        <time>2017-06-07T08:58:27Z</time>
      </trkpt>
      <trkpt lat="45.93702" lon="4.78634">
        <ele>176</ele>
        <time>2017-06-07T08:58:28Z</time>
      </trkpt>
      <trkpt lat="45.93707" lon="4.78635">
        <ele>176</ele>
        <time>2017-06-07T08:58:29Z</time>
      </trkpt>
      <trkpt lat="45.93712" lon="4.78635">
        <ele>176</ele>
        <time>2017-06-07T08:58:30Z</time>
      </trkpt>
      <trkpt lat="45.93716" lon="4.78633">
        <ele>176</ele>
        <time>2017-06-07T08:58:31Z</time>
      </trkpt>
      <trkpt lat="45.93724" lon="4.78632">
        <ele>177</ele>
        <time>2017-06-07T08:58:33Z</time>
      </trkpt>
      <trkpt lat="45.93727" lon="4.78631">
        <ele>177</ele>
        <time>2017-06-07T08:58:34Z</time>
      </trkpt>
      <trkpt lat="45.93735" lon="4.78631">
        <ele>177</ele>
        <time>2017-06-07T08:58:36Z</time>
      </trkpt>
      <trkpt lat="45.93738" lon="4.78631">
        <ele>177</ele>
        <time>2017-06-07T08:58:37Z</time>
      </trkpt>
      <trkpt lat="45.93745" lon="4.78631">
        <ele>177</ele>
        <time>2017-06-07T08:58:39Z</time>
      </trkpt>
      <trkpt lat="45.93748" lon="4.78631">
        <ele>177</ele>
        <time>2017-06-07T08:58:40Z</time>
      </trkpt>
      <trkpt lat="45.93754" lon="4.78631">
        <ele>180</ele>
        <time>2017-06-07T08:58:42Z</time>
      </trkpt>
      <trkpt lat="45.93757" lon="4.78631">
        <ele>181</ele>
        <time>2017-06-07T08:58:43Z</time>
      </trkpt>
      <trkpt lat="45.93763" lon="4.7863">
        <ele>181</ele>
        <time>2017-06-07T08:58:45Z</time>
      </trkpt>
      <trkpt lat="45.93766" lon="4.7863">
        <ele>181</ele>
        <time>2017-06-07T08:58:46Z</time>
      </trkpt>
      <trkpt lat="45.93773" lon="4.78629">
        <ele>181</ele>
        <time>2017-06-07T08:58:48Z</time>
      </trkpt>
      <trkpt lat="45.93776" lon="4.78628">
        <ele>181</ele>
        <time>2017-06-07T08:58:49Z</time>
      </trkpt>
      <trkpt lat="45.93782" lon="4.78627">
        <ele>181</ele>
        <time>2017-06-07T08:58:51Z</time>
      </trkpt>
      <trkpt lat="45.93785" lon="4.78627">
        <ele>181</ele>
        <time>2017-06-07T08:58:52Z</time>
      </trkpt>
      <trkpt lat="45.93792" lon="4.78626">
        <ele>182</ele>
        <time>2017-06-07T08:58:54Z</time>
      </trkpt>
      <trkpt lat="45.93795" lon="4.78625">
        <ele>182</ele>
        <time>2017-06-07T08:58:55Z</time>
      </trkpt>
      <trkpt lat="45.93803" lon="4.78621">
        <ele>182</ele>
        <time>2017-06-07T08:58:57Z</time>
      </trkpt>
      <trkpt lat="45.93807" lon="4.7862">
        <ele>182</ele>
        <time>2017-06-07T08:58:58Z</time>
      </trkpt>
      <trkpt lat="45.93814" lon="4.78619">
        <ele>183</ele>
        <time>2017-06-07T08:59:00Z</time>
      </trkpt>
      <trkpt lat="45.93817" lon="4.78619">
        <ele>183</ele>
        <time>2017-06-07T08:59:01Z</time>
      </trkpt>
      <trkpt lat="45.93823" lon="4.78617">
        <ele>183</ele>
        <time>2017-06-07T08:59:03Z</time>
      </trkpt>
      <trkpt lat="45.93826" lon="4.78617">
        <ele>183</ele>
        <time>2017-06-07T08:59:04Z</time>
      </trkpt>
      <trkpt lat="45.93833" lon="4.78616">
        <ele>183</ele>
        <time>2017-06-07T08:59:06Z</time>
      </trkpt>
      <trkpt lat="45.93837" lon="4.78615">
        <ele>187</ele>
        <time>2017-06-07T08:59:07Z</time>
      </trkpt>
      <trkpt lat="45.93844" lon="4.78614">
        <ele>187</ele>
        <time>2017-06-07T08:59:09Z</time>
      </trkpt>
      <trkpt lat="45.93847" lon="4.78614">
        <ele>188</ele>
        <time>2017-06-07T08:59:10Z</time>
      </trkpt>
      <trkpt lat="45.93853" lon="4.78612">
        <ele>188</ele>
        <time>2017-06-07T08:59:12Z</time>
      </trkpt>
      <trkpt lat="45.93856" lon="4.78612">
        <ele>188</ele>
        <time>2017-06-07T08:59:13Z</time>
      </trkpt>
      <trkpt lat="45.93863" lon="4.78611">
        <ele>188</ele>
        <time>2017-06-07T08:59:15Z</time>
      </trkpt>
      <trkpt lat="45.93866" lon="4.78611">
        <ele>188</ele>
        <time>2017-06-07T08:59:16Z</time>
      </trkpt>
      <trkpt lat="45.93874" lon="4.78609">
        <ele>189</ele>
        <time>2017-06-07T08:59:18Z</time>
      </trkpt>
      <trkpt lat="45.93877" lon="4.78607">
        <ele>189</ele>
        <time>2017-06-07T08:59:19Z</time>
      </trkpt>
      <trkpt lat="45.93883" lon="4.78605">
        <ele>189</ele>
        <time>2017-06-07T08:59:21Z</time>
      </trkpt>
      <trkpt lat="45.93887" lon="4.78604">
        <ele>189</ele>
        <time>2017-06-07T08:59:22Z</time>
      </trkpt>
      <trkpt lat="45.93893" lon="4.78603">
        <ele>190</ele>
        <time>2017-06-07T08:59:24Z</time>
      </trkpt>
      <trkpt lat="45.93896" lon="4.78601">
        <ele>190</ele>
        <time>2017-06-07T08:59:25Z</time>
      </trkpt>
      <trkpt lat="45.93903" lon="4.78599">
        <ele>190</ele>
        <time>2017-06-07T08:59:27Z</time>
      </trkpt>
      <trkpt lat="45.93906" lon="4.78596">
        <ele>191</ele>
        <time>2017-06-07T08:59:28Z</time>
      </trkpt>
      <trkpt lat="45.9391" lon="4.78593">
        <ele>191</ele>
        <time>2017-06-07T08:59:29Z</time>
      </trkpt>
      <trkpt lat="45.93914" lon="4.78589">
        <ele>192</ele>
        <time>2017-06-07T08:59:30Z</time>
      </trkpt>
      <trkpt lat="45.93921" lon="4.78586">
        <ele>194</ele>
        <time>2017-06-07T08:59:32Z</time>
      </trkpt>
      <trkpt lat="45.93924" lon="4.78586">
        <ele>194</ele>
        <time>2017-06-07T08:59:33Z</time>
      </trkpt>
      <trkpt lat="45.93931" lon="4.78592">
        <ele>195</ele>
        <time>2017-06-07T08:59:37Z</time>
      </trkpt>
      <trkpt lat="45.93932" lon="4.78595">
        <ele>195</ele>
        <time>2017-06-07T08:59:38Z</time>
      </trkpt>
      <trkpt lat="45.93933" lon="4.78607">
        <ele>195</ele>
        <time>2017-06-07T08:59:41Z</time>
      </trkpt>
      <trkpt lat="45.93935" lon="4.7861">
        <ele>195</ele>
        <time>2017-06-07T08:59:42Z</time>
      </trkpt>
      <trkpt lat="45.93935" lon="4.78618">
        <ele>196</ele>
        <time>2017-06-07T08:59:44Z</time>
      </trkpt>
      <trkpt lat="45.93936" lon="4.78624">
        <ele>195</ele>
        <time>2017-06-07T08:59:45Z</time>
      </trkpt>
      <trkpt lat="45.93936" lon="4.78636">
        <ele>195</ele>
        <time>2017-06-07T08:59:47Z</time>
      </trkpt>
      <trkpt lat="45.93936" lon="4.78643">
        <ele>195</ele>
        <time>2017-06-07T08:59:48Z</time>
      </trkpt>
      <trkpt lat="45.93936" lon="4.78655">
        <ele>194</ele>
        <time>2017-06-07T08:59:50Z</time>
      </trkpt>
      <trkpt lat="45.93936" lon="4.78661">
        <ele>194</ele>
        <time>2017-06-07T08:59:51Z</time>
      </trkpt>
      <trkpt lat="45.93937" lon="4.7867">
        <ele>193</ele>
        <time>2017-06-07T08:59:53Z</time>
      </trkpt>
      <trkpt lat="45.93937" lon="4.78676">
        <ele>193</ele>
        <time>2017-06-07T08:59:54Z</time>
      </trkpt>
      <trkpt lat="45.93938" lon="4.78687">
        <ele>194</ele>
        <time>2017-06-07T08:59:56Z</time>
      </trkpt>
      <trkpt lat="45.93937" lon="4.78694">
        <ele>194</ele>
        <time>2017-06-07T08:59:57Z</time>
      </trkpt>
      <trkpt lat="45.93937" lon="4.78701">
        <ele>194</ele>
        <time>2017-06-07T08:59:58Z</time>
      </trkpt>
      <trkpt lat="45.93935" lon="4.78708">
        <ele>194</ele>
        <time>2017-06-07T08:59:59Z</time>
      </trkpt>
      <trkpt lat="45.93935" lon="4.78715">
        <ele>194</ele>
        <time>2017-06-07T09:00:00Z</time>
      </trkpt>
      <trkpt lat="45.93937" lon="4.78722">
        <ele>194</ele>
        <time>2017-06-07T09:00:01Z</time>
      </trkpt>
      <trkpt lat="45.93938" lon="4.78734">
        <ele>194</ele>
        <time>2017-06-07T09:00:03Z</time>
      </trkpt>
      <trkpt lat="45.93938" lon="4.78741">
        <ele>193</ele>
        <time>2017-06-07T09:00:04Z</time>
      </trkpt>
      <trkpt lat="45.93936" lon="4.78747">
        <ele>193</ele>
        <time>2017-06-07T09:00:05Z</time>
      </trkpt>
      <trkpt lat="45.93935" lon="4.78753">
        <ele>193</ele>
        <time>2017-06-07T09:00:06Z</time>
      </trkpt>
      <trkpt lat="45.93935" lon="4.78761">
        <ele>193</ele>
        <time>2017-06-07T09:00:07Z</time>
      </trkpt>
      <trkpt lat="45.93935" lon="4.78768">
        <ele>193</ele>
        <time>2017-06-07T09:00:08Z</time>
      </trkpt>
      <trkpt lat="45.93936" lon="4.78775">
        <ele>194</ele>
        <time>2017-06-07T09:00:09Z</time>
      </trkpt>
      <trkpt lat="45.93936" lon="4.78782">
        <ele>194</ele>
        <time>2017-06-07T09:00:10Z</time>
      </trkpt>
      <trkpt lat="45.93935" lon="4.78789">
        <ele>194</ele>
        <time>2017-06-07T09:00:11Z</time>
      </trkpt>
      <trkpt lat="45.93936" lon="4.78797">
        <ele>194</ele>
        <time>2017-06-07T09:00:12Z</time>
      </trkpt>
      <trkpt lat="45.93935" lon="4.78805">
        <ele>194</ele>
        <time>2017-06-07T09:00:13Z</time>
      </trkpt>
      <trkpt lat="45.93934" lon="4.78813">
        <ele>194</ele>
        <time>2017-06-07T09:00:14Z</time>
      </trkpt>
      <trkpt lat="45.93934" lon="4.7882">
        <ele>193</ele>
        <time>2017-06-07T09:00:15Z</time>
      </trkpt>
      <trkpt lat="45.93934" lon="4.78827">
        <ele>193</ele>
        <time>2017-06-07T09:00:16Z</time>
      </trkpt>
      <trkpt lat="45.93934" lon="4.78839">
        <ele>193</ele>
        <time>2017-06-07T09:00:18Z</time>
      </trkpt>
      <trkpt lat="45.93934" lon="4.78845">
        <ele>193</ele>
        <time>2017-06-07T09:00:19Z</time>
      </trkpt>
      <trkpt lat="45.93936" lon="4.78857">
        <ele>193</ele>
        <time>2017-06-07T09:00:21Z</time>
      </trkpt>
      <trkpt lat="45.93936" lon="4.78863">
        <ele>194</ele>
        <time>2017-06-07T09:00:22Z</time>
      </trkpt>
      <trkpt lat="45.93936" lon="4.7887">
        <ele>194</ele>
        <time>2017-06-07T09:00:23Z</time>
      </trkpt>
      <trkpt lat="45.93937" lon="4.78878">
        <ele>194</ele>
        <time>2017-06-07T09:00:24Z</time>
      </trkpt>
      <trkpt lat="45.93937" lon="4.78884">
        <ele>193</ele>
        <time>2017-06-07T09:00:25Z</time>
      </trkpt>
      <trkpt lat="45.93938" lon="4.78891">
        <ele>193</ele>
        <time>2017-06-07T09:00:26Z</time>
      </trkpt>
      <trkpt lat="45.93938" lon="4.78898">
        <ele>193</ele>
        <time>2017-06-07T09:00:27Z</time>
      </trkpt>
      <trkpt lat="45.93938" lon="4.78906">
        <ele>193</ele>
        <time>2017-06-07T09:00:28Z</time>
      </trkpt>
      <trkpt lat="45.93939" lon="4.78913">
        <ele>193</ele>
        <time>2017-06-07T09:00:29Z</time>
      </trkpt>
      <trkpt lat="45.93939" lon="4.78919">
        <ele>193</ele>
        <time>2017-06-07T09:00:30Z</time>
      </trkpt>
      <trkpt lat="45.9394" lon="4.78927">
        <ele>193</ele>
        <time>2017-06-07T09:00:31Z</time>
      </trkpt>
      <trkpt lat="45.93941" lon="4.78934">
        <ele>193</ele>
        <time>2017-06-07T09:00:32Z</time>
      </trkpt>
      <trkpt lat="45.93939" lon="4.78941">
        <ele>193</ele>
        <time>2017-06-07T09:00:33Z</time>
      </trkpt>
      <trkpt lat="45.93938" lon="4.78947">
        <ele>194</ele>
        <time>2017-06-07T09:00:34Z</time>
      </trkpt>
      <trkpt lat="45.93939" lon="4.78954">
        <ele>194</ele>
        <time>2017-06-07T09:00:35Z</time>
      </trkpt>
      <trkpt lat="45.9394" lon="4.7896">
        <ele>194</ele>
        <time>2017-06-07T09:00:36Z</time>
      </trkpt>
      <trkpt lat="45.9394" lon="4.78972">
        <ele>194</ele>
        <time>2017-06-07T09:00:38Z</time>
      </trkpt>
      <trkpt lat="45.9394" lon="4.78977">
        <ele>194</ele>
        <time>2017-06-07T09:00:39Z</time>
      </trkpt>
      <trkpt lat="45.93941" lon="4.78989">
        <ele>193</ele>
        <time>2017-06-07T09:00:41Z</time>
      </trkpt>
      <trkpt lat="45.93942" lon="4.78995">
        <ele>193</ele>
        <time>2017-06-07T09:00:42Z</time>
      </trkpt>
      <trkpt lat="45.93943" lon="4.79002">
        <ele>194</ele>
        <time>2017-06-07T09:00:43Z</time>
      </trkpt>
      <trkpt lat="45.93943" lon="4.79009">
        <ele>195</ele>
        <time>2017-06-07T09:00:44Z</time>
      </trkpt>
      <trkpt lat="45.93944" lon="4.79016">
        <ele>195</ele>
        <time>2017-06-07T09:00:45Z</time>
      </trkpt>
      <trkpt lat="45.93944" lon="4.79022">
        <ele>195</ele>
        <time>2017-06-07T09:00:46Z</time>
      </trkpt>
      <trkpt lat="45.93944" lon="4.79028">
        <ele>195</ele>
        <time>2017-06-07T09:00:47Z</time>
      </trkpt>
      <trkpt lat="45.93945" lon="4.79035">
        <ele>195</ele>
        <time>2017-06-07T09:00:48Z</time>
      </trkpt>
      <trkpt lat="45.93944" lon="4.79042">
        <ele>195</ele>
        <time>2017-06-07T09:00:49Z</time>
      </trkpt>
      <trkpt lat="45.93944" lon="4.79048">
        <ele>195</ele>
        <time>2017-06-07T09:00:50Z</time>
      </trkpt>
      <trkpt lat="45.93944" lon="4.79055">
        <ele>195</ele>
        <time>2017-06-07T09:00:51Z</time>
      </trkpt>
      <trkpt lat="45.93944" lon="4.79062">
        <ele>195</ele>
        <time>2017-06-07T09:00:52Z</time>
      </trkpt>
      <trkpt lat="45.93945" lon="4.79074">
        <ele>195</ele>
        <time>2017-06-07T09:00:54Z</time>
      </trkpt>
      <trkpt lat="45.93946" lon="4.7908">
        <ele>195</ele>
        <time>2017-06-07T09:00:55Z</time>
      </trkpt>
      <trkpt lat="45.93947" lon="4.79092">
        <ele>196</ele>
        <time>2017-06-07T09:00:57Z</time>
      </trkpt>
      <trkpt lat="45.93948" lon="4.79099">
        <ele>196</ele>
        <time>2017-06-07T09:00:58Z</time>
      </trkpt>
      <trkpt lat="45.93949" lon="4.79111">
        <ele>197</ele>
        <time>2017-06-07T09:01:00Z</time>
      </trkpt>
      <trkpt lat="45.93949" lon="4.79117">
        <ele>197</ele>
        <time>2017-06-07T09:01:01Z</time>
      </trkpt>
      <trkpt lat="45.93951" lon="4.79123">
        <ele>197</ele>
        <time>2017-06-07T09:01:02Z</time>
      </trkpt>
      <trkpt lat="45.93944" lon="4.79129">
        <ele>196</ele>
        <time>2017-06-07T09:01:03Z</time>
      </trkpt>
      <trkpt lat="45.93943" lon="4.79141">
        <ele>196</ele>
        <time>2017-06-07T09:01:05Z</time>
      </trkpt>
      <trkpt lat="45.93943" lon="4.79147">
        <ele>196</ele>
        <time>2017-06-07T09:01:06Z</time>
      </trkpt>
      <trkpt lat="45.93942" lon="4.79159">
        <ele>196</ele>
        <time>2017-06-07T09:01:08Z</time>
      </trkpt>
      <trkpt lat="45.93942" lon="4.79166">
        <ele>196</ele>
        <time>2017-06-07T09:01:09Z</time>
      </trkpt>
      <trkpt lat="45.93942" lon="4.79177">
        <ele>196</ele>
        <time>2017-06-07T09:01:11Z</time>
      </trkpt>
      <trkpt lat="45.93943" lon="4.79184">
        <ele>196</ele>
        <time>2017-06-07T09:01:12Z</time>
      </trkpt>
      <trkpt lat="45.93943" lon="4.79195">
        <ele>196</ele>
        <time>2017-06-07T09:01:14Z</time>
      </trkpt>
      <trkpt lat="45.93944" lon="4.792">
        <ele>197</ele>
        <time>2017-06-07T09:01:15Z</time>
      </trkpt>
      <trkpt lat="45.93945" lon="4.7921">
        <ele>197</ele>
        <time>2017-06-07T09:01:17Z</time>
      </trkpt>
      <trkpt lat="45.93945" lon="4.79216">
        <ele>197</ele>
        <time>2017-06-07T09:01:18Z</time>
      </trkpt>
      <trkpt lat="45.93945" lon="4.79228">
        <ele>196</ele>
        <time>2017-06-07T09:01:20Z</time>
      </trkpt>
      <trkpt lat="45.93945" lon="4.79234">
        <ele>196</ele>
        <time>2017-06-07T09:01:21Z</time>
      </trkpt>
      <trkpt lat="45.93946" lon="4.79246">
        <ele>196</ele>
        <time>2017-06-07T09:01:23Z</time>
      </trkpt>
      <trkpt lat="45.93946" lon="4.79252">
        <ele>197</ele>
        <time>2017-06-07T09:01:24Z</time>
      </trkpt>
      <trkpt lat="45.93947" lon="4.79263">
        <ele>197</ele>
        <time>2017-06-07T09:01:26Z</time>
      </trkpt>
      <trkpt lat="45.93947" lon="4.79268">
        <ele>197</ele>
        <time>2017-06-07T09:01:27Z</time>
      </trkpt>
      <trkpt lat="45.93947" lon="4.79279">
        <ele>198</ele>
        <time>2017-06-07T09:01:29Z</time>
      </trkpt>
      <trkpt lat="45.93948" lon="4.79284">
        <ele>198</ele>
        <time>2017-06-07T09:01:30Z</time>
      </trkpt>
      <trkpt lat="45.93947" lon="4.79295">
        <ele>198</ele>
        <time>2017-06-07T09:01:32Z</time>
      </trkpt>
      <trkpt lat="45.93946" lon="4.79301">
        <ele>198</ele>
        <time>2017-06-07T09:01:33Z</time>
      </trkpt>
      <trkpt lat="45.93947" lon="4.79307">
        <ele>198</ele>
        <time>2017-06-07T09:01:34Z</time>
      </trkpt>
      <trkpt lat="45.9395" lon="4.79316">
        <ele>198</ele>
        <time>2017-06-07T09:01:35Z</time>
      </trkpt>
      <trkpt lat="45.9395" lon="4.79323">
        <ele>198</ele>
        <time>2017-06-07T09:01:36Z</time>
      </trkpt>
      <trkpt lat="45.9395" lon="4.79329">
        <ele>198</ele>
        <time>2017-06-07T09:01:37Z</time>
      </trkpt>
      <trkpt lat="45.93951" lon="4.79339">
        <ele>200</ele>
        <time>2017-06-07T09:01:39Z</time>
      </trkpt>
      <trkpt lat="45.93951" lon="4.79344">
        <ele>200</ele>
        <time>2017-06-07T09:01:40Z</time>
      </trkpt>
      <trkpt lat="45.9395" lon="4.79354">
        <ele>200</ele>
        <time>2017-06-07T09:01:42Z</time>
      </trkpt>
      <trkpt lat="45.9395" lon="4.79359">
        <ele>200</ele>
        <time>2017-06-07T09:01:43Z</time>
      </trkpt>
      <trkpt lat="45.9395" lon="4.7937">
        <ele>201</ele>
        <time>2017-06-07T09:01:45Z</time>
      </trkpt>
      <trkpt lat="45.9395" lon="4.79375">
        <ele>201</ele>
        <time>2017-06-07T09:01:46Z</time>
      </trkpt>
      <trkpt lat="45.93951" lon="4.79385">
        <ele>201</ele>
        <time>2017-06-07T09:01:48Z</time>
      </trkpt>
      <trkpt lat="45.93949" lon="4.7939">
        <ele>201</ele>
        <time>2017-06-07T09:01:49Z</time>
      </trkpt>
      <trkpt lat="45.93948" lon="4.794">
        <ele>201</ele>
        <time>2017-06-07T09:01:51Z</time>
      </trkpt>
      <trkpt lat="45.93948" lon="4.79405">
        <ele>201</ele>
        <time>2017-06-07T09:01:52Z</time>
      </trkpt>
      <trkpt lat="45.93947" lon="4.79414">
        <ele>200</ele>
        <time>2017-06-07T09:01:54Z</time>
      </trkpt>
      <trkpt lat="45.93947" lon="4.79419">
        <ele>201</ele>
        <time>2017-06-07T09:01:55Z</time>
      </trkpt>
      <trkpt lat="45.93946" lon="4.7943">
        <ele>201</ele>
        <time>2017-06-07T09:01:58Z</time>
      </trkpt>
      <trkpt lat="45.93945" lon="4.79434">
        <ele>202</ele>
        <time>2017-06-07T09:01:59Z</time>
      </trkpt>
      <trkpt lat="45.93943" lon="4.79446">
        <ele>202</ele>
        <time>2017-06-07T09:02:02Z</time>
      </trkpt>
      <trkpt lat="45.93943" lon="4.7945">
        <ele>202</ele>
        <time>2017-06-07T09:02:03Z</time>
      </trkpt>
      <trkpt lat="45.93942" lon="4.79462">
        <ele>202</ele>
        <time>2017-06-07T09:02:05Z</time>
      </trkpt>
      <trkpt lat="45.93942" lon="4.79469">
        <ele>202</ele>
        <time>2017-06-07T09:02:06Z</time>
      </trkpt>
      <trkpt lat="45.93943" lon="4.79481">
        <ele>202</ele>
        <time>2017-06-07T09:02:08Z</time>
      </trkpt>
      <trkpt lat="45.93944" lon="4.79487">
        <ele>202</ele>
        <time>2017-06-07T09:02:09Z</time>
      </trkpt>
      <trkpt lat="45.93945" lon="4.79498">
        <ele>202</ele>
        <time>2017-06-07T09:02:11Z</time>
      </trkpt>
      <trkpt lat="45.93946" lon="4.79504">
        <ele>203</ele>
        <time>2017-06-07T09:02:12Z</time>
      </trkpt>
      <trkpt lat="45.93947" lon="4.79515">
        <ele>203</ele>
        <time>2017-06-07T09:02:14Z</time>
      </trkpt>
      <trkpt lat="45.93947" lon="4.7952">
        <ele>204</ele>
        <time>2017-06-07T09:02:15Z</time>
      </trkpt>
      <trkpt lat="45.93948" lon="4.7953">
        <ele>204</ele>
        <time>2017-06-07T09:02:17Z</time>
      </trkpt>
      <trkpt lat="45.93949" lon="4.79535">
        <ele>204</ele>
        <time>2017-06-07T09:02:18Z</time>
      </trkpt>
      <trkpt lat="45.93949" lon="4.79544">
        <ele>204</ele>
        <time>2017-06-07T09:02:20Z</time>
      </trkpt>
      <trkpt lat="45.9395" lon="4.79548">
        <ele>204</ele>
        <time>2017-06-07T09:02:21Z</time>
      </trkpt>
      <trkpt lat="45.93951" lon="4.79561">
        <ele>205</ele>
        <time>2017-06-07T09:02:24Z</time>
      </trkpt>
      <trkpt lat="45.93952" lon="4.79565">
        <ele>205</ele>
        <time>2017-06-07T09:02:25Z</time>
      </trkpt>
      <trkpt lat="45.93951" lon="4.79574">
        <ele>205</ele>
        <time>2017-06-07T09:02:27Z</time>
      </trkpt>
      <trkpt lat="45.93952" lon="4.79579">
        <ele>205</ele>
        <time>2017-06-07T09:02:28Z</time>
      </trkpt>
      <trkpt lat="45.93952" lon="4.79588">
        <ele>206</ele>
        <time>2017-06-07T09:02:30Z</time>
      </trkpt>
      <trkpt lat="45.93953" lon="4.79593">
        <ele>206</ele>
        <time>2017-06-07T09:02:31Z</time>
      </trkpt>
      <trkpt lat="45.93954" lon="4.79602">
        <ele>206</ele>
        <time>2017-06-07T09:02:33Z</time>
      </trkpt>
      <trkpt lat="45.93955" lon="4.79607">
        <ele>206</ele>
        <time>2017-06-07T09:02:34Z</time>
      </trkpt>
      <trkpt lat="45.93957" lon="4.79616">
        <ele>207</ele>
        <time>2017-06-07T09:02:36Z</time>
      </trkpt>
      <trkpt lat="45.93958" lon="4.7962">
        <ele>207</ele>
        <time>2017-06-07T09:02:37Z</time>
      </trkpt>
      <trkpt lat="45.93963" lon="4.7963">
        <ele>207</ele>
        <time>2017-06-07T09:02:39Z</time>
      </trkpt>
      <trkpt lat="45.93964" lon="4.79636">
        <ele>207</ele>
        <time>2017-06-07T09:02:40Z</time>
      </trkpt>
      <trkpt lat="45.93967" lon="4.79645">
        <ele>207</ele>
        <time>2017-06-07T09:02:42Z</time>
      </trkpt>
      <trkpt lat="45.93967" lon="4.7965">
        <ele>208</ele>
        <time>2017-06-07T09:02:43Z</time>
      </trkpt>
      <trkpt lat="45.93968" lon="4.79663">
        <ele>208</ele>
        <time>2017-06-07T09:02:46Z</time>
      </trkpt>
      <trkpt lat="45.93968" lon="4.79667">
        <ele>208</ele>
        <time>2017-06-07T09:02:47Z</time>
      </trkpt>
      <trkpt lat="45.93967" lon="4.79677">
        <ele>207</ele>
        <time>2017-06-07T09:02:49Z</time>
      </trkpt>
      <trkpt lat="45.93968" lon="4.79683">
        <ele>207</ele>
        <time>2017-06-07T09:02:50Z</time>
      </trkpt>
      <trkpt lat="45.93968" lon="4.79693">
        <ele>207</ele>
        <time>2017-06-07T09:02:52Z</time>
      </trkpt>
      <trkpt lat="45.93969" lon="4.79698">
        <ele>207</ele>
        <time>2017-06-07T09:02:53Z</time>
      </trkpt>
      <trkpt lat="45.93971" lon="4.79707">
        <ele>207</ele>
        <time>2017-06-07T09:02:55Z</time>
      </trkpt>
      <trkpt lat="45.93972" lon="4.79712">
        <ele>207</ele>
        <time>2017-06-07T09:02:56Z</time>
      </trkpt>
      <trkpt lat="45.93973" lon="4.79723">
        <ele>207</ele>
        <time>2017-06-07T09:02:58Z</time>
      </trkpt>
      <trkpt lat="45.93974" lon="4.79729">
        <ele>207</ele>
        <time>2017-06-07T09:02:59Z</time>
      </trkpt>
      <trkpt lat="45.93974" lon="4.79741">
        <ele>207</ele>
        <time>2017-06-07T09:03:01Z</time>
      </trkpt>
      <trkpt lat="45.93974" lon="4.79748">
        <ele>207</ele>
        <time>2017-06-07T09:03:02Z</time>
      </trkpt>
      <trkpt lat="45.93975" lon="4.7976">
        <ele>207</ele>
        <time>2017-06-07T09:03:04Z</time>
      </trkpt>
      <trkpt lat="45.93974" lon="4.79767">
        <ele>206</ele>
        <time>2017-06-07T09:03:05Z</time>
      </trkpt>
      <trkpt lat="45.93972" lon="4.79775">
        <ele>206</ele>
        <time>2017-06-07T09:03:06Z</time>
      </trkpt>
      <trkpt lat="45.93972" lon="4.79781">
        <ele>206</ele>
        <time>2017-06-07T09:03:07Z</time>
      </trkpt>
      <trkpt lat="45.93971" lon="4.79793">
        <ele>206</ele>
        <time>2017-06-07T09:03:09Z</time>
      </trkpt>
      <trkpt lat="45.9397" lon="4.79798">
        <ele>206</ele>
        <time>2017-06-07T09:03:10Z</time>
      </trkpt>
      <trkpt lat="45.93968" lon="4.7981">
        <ele>206</ele>
        <time>2017-06-07T09:03:12Z</time>
      </trkpt>
      <trkpt lat="45.93967" lon="4.79816">
        <ele>206</ele>
        <time>2017-06-07T09:03:13Z</time>
      </trkpt>
      <trkpt lat="45.93966" lon="4.79823">
        <ele>206</ele>
        <time>2017-06-07T09:03:14Z</time>
      </trkpt>
      <trkpt lat="45.93965" lon="4.79829">
        <ele>206</ele>
        <time>2017-06-07T09:03:15Z</time>
      </trkpt>
      <trkpt lat="45.93964" lon="4.79836">
        <ele>206</ele>
        <time>2017-06-07T09:03:16Z</time>
      </trkpt>
      <trkpt lat="45.93963" lon="4.79842">
        <ele>206</ele>
        <time>2017-06-07T09:03:17Z</time>
      </trkpt>
      <trkpt lat="45.93962" lon="4.79849">
        <ele>206</ele>
        <time>2017-06-07T09:03:18Z</time>
      </trkpt>
      <trkpt lat="45.9396" lon="4.79855">
        <ele>206</ele>
        <time>2017-06-07T09:03:19Z</time>
      </trkpt>
      <trkpt lat="45.93959" lon="4.79862">
        <ele>206</ele>
        <time>2017-06-07T09:03:20Z</time>
      </trkpt>
      <trkpt lat="45.93958" lon="4.79868">
        <ele>206</ele>
        <time>2017-06-07T09:03:21Z</time>
      </trkpt>
      <trkpt lat="45.93955" lon="4.7988">
        <ele>206</ele>
        <time>2017-06-07T09:03:23Z</time>
      </trkpt>
      <trkpt lat="45.93954" lon="4.79886">
        <ele>206</ele>
        <time>2017-06-07T09:03:24Z</time>
      </trkpt>
      <trkpt lat="45.93952" lon="4.79896">
        <ele>205</ele>
        <time>2017-06-07T09:03:26Z</time>
      </trkpt>
      <trkpt lat="45.93951" lon="4.79902">
        <ele>205</ele>
        <time>2017-06-07T09:03:27Z</time>
      </trkpt>
      <trkpt lat="45.93948" lon="4.79913">
        <ele>205</ele>
        <time>2017-06-07T09:03:29Z</time>
      </trkpt>
      <trkpt lat="45.93946" lon="4.79919">
        <ele>205</ele>
        <time>2017-06-07T09:03:30Z</time>
      </trkpt>
      <trkpt lat="45.93945" lon="4.79931">
        <ele>205</ele>
        <time>2017-06-07T09:03:32Z</time>
      </trkpt>
      <trkpt lat="45.93944" lon="4.79938">
        <ele>205</ele>
        <time>2017-06-07T09:03:33Z</time>
      </trkpt>
      <trkpt lat="45.93942" lon="4.79945">
        <ele>205</ele>
        <time>2017-06-07T09:03:34Z</time>
      </trkpt>
      <trkpt lat="45.93941" lon="4.79951">
        <ele>205</ele>
        <time>2017-06-07T09:03:35Z</time>
      </trkpt>
      <trkpt lat="45.93941" lon="4.79959">
        <ele>205</ele>
        <time>2017-06-07T09:03:36Z</time>
      </trkpt>
      <trkpt lat="45.9394" lon="4.79965">
        <ele>205</ele>
        <time>2017-06-07T09:03:37Z</time>
      </trkpt>
      <trkpt lat="45.93939" lon="4.79972">
        <ele>204</ele>
        <time>2017-06-07T09:03:38Z</time>
      </trkpt>
      <trkpt lat="45.93938" lon="4.7998">
        <ele>204</ele>
        <time>2017-06-07T09:03:39Z</time>
      </trkpt>
      <trkpt lat="45.93936" lon="4.79992">
        <ele>204</ele>
        <time>2017-06-07T09:03:41Z</time>
      </trkpt>
      <trkpt lat="45.93936" lon="4.8">
        <ele>205</ele>
        <time>2017-06-07T09:03:42Z</time>
      </trkpt>
      <trkpt lat="45.93935" lon="4.80008">
        <ele>205</ele>
        <time>2017-06-07T09:03:43Z</time>
      </trkpt>
      <trkpt lat="45.93934" lon="4.80015">
        <ele>205</ele>
        <time>2017-06-07T09:03:44Z</time>
      </trkpt>
      <trkpt lat="45.93934" lon="4.80022">
        <ele>206</ele>
        <time>2017-06-07T09:03:45Z</time>
      </trkpt>
      <trkpt lat="45.93933" lon="4.8003">
        <ele>206</ele>
        <time>2017-06-07T09:03:46Z</time>
      </trkpt>
      <trkpt lat="45.93933" lon="4.80037">
        <ele>207</ele>
        <time>2017-06-07T09:03:47Z</time>
      </trkpt>
      <trkpt lat="45.93933" lon="4.80043">
        <ele>207</ele>
        <time>2017-06-07T09:03:48Z</time>
      </trkpt>
      <trkpt lat="45.93932" lon="4.8005">
        <ele>207</ele>
        <time>2017-06-07T09:03:49Z</time>
      </trkpt>
      <trkpt lat="45.93932" lon="4.80057">
        <ele>207</ele>
        <time>2017-06-07T09:03:50Z</time>
      </trkpt>
      <trkpt lat="45.93932" lon="4.80063">
        <ele>207</ele>
        <time>2017-06-07T09:03:51Z</time>
      </trkpt>
      <trkpt lat="45.93932" lon="4.8007">
        <ele>207</ele>
        <time>2017-06-07T09:03:52Z</time>
      </trkpt>
      <trkpt lat="45.93932" lon="4.80076">
        <ele>207</ele>
        <time>2017-06-07T09:03:53Z</time>
      </trkpt>
      <trkpt lat="45.93932" lon="4.80083">
        <ele>207</ele>
        <time>2017-06-07T09:03:54Z</time>
      </trkpt>
      <trkpt lat="45.93933" lon="4.80095">
        <ele>208</ele>
        <time>2017-06-07T09:03:56Z</time>
      </trkpt>
      <trkpt lat="45.93933" lon="4.80101">
        <ele>208</ele>
        <time>2017-06-07T09:03:57Z</time>
      </trkpt>
      <trkpt lat="45.93934" lon="4.80113">
        <ele>208</ele>
        <time>2017-06-07T09:03:59Z</time>
      </trkpt>
      <trkpt lat="45.93935" lon="4.80119">
        <ele>208</ele>
        <time>2017-06-07T09:04:00Z</time>
      </trkpt>
      <trkpt lat="45.93936" lon="4.80131">
        <ele>208</ele>
        <time>2017-06-07T09:04:02Z</time>
      </trkpt>
      <trkpt lat="45.93936" lon="4.80137">
        <ele>208</ele>
        <time>2017-06-07T09:04:03Z</time>
      </trkpt>
      <trkpt lat="45.93938" lon="4.80149">
        <ele>208</ele>
        <time>2017-06-07T09:04:05Z</time>
      </trkpt>
      <trkpt lat="45.93939" lon="4.80155">
        <ele>208</ele>
        <time>2017-06-07T09:04:06Z</time>
      </trkpt>
      <trkpt lat="45.9394" lon="4.80161">
        <ele>207</ele>
        <time>2017-06-07T09:04:07Z</time>
      </trkpt>
      <trkpt lat="45.93942" lon="4.80169">
        <ele>205</ele>
        <time>2017-06-07T09:04:08Z</time>
      </trkpt>
      <trkpt lat="45.93942" lon="4.80176">
        <ele>205</ele>
        <time>2017-06-07T09:04:09Z</time>
      </trkpt>
      <trkpt lat="45.93944" lon="4.80184">
        <ele>205</ele>
        <time>2017-06-07T09:04:10Z</time>
      </trkpt>
      <trkpt lat="45.93945" lon="4.80192">
        <ele>205</ele>
        <time>2017-06-07T09:04:11Z</time>
      </trkpt>
      <trkpt lat="45.93947" lon="4.802">
        <ele>205</ele>
        <time>2017-06-07T09:04:12Z</time>
      </trkpt>
      <trkpt lat="45.93949" lon="4.80207">
        <ele>205</ele>
        <time>2017-06-07T09:04:13Z</time>
      </trkpt>
      <trkpt lat="45.93951" lon="4.80214">
        <ele>205</ele>
        <time>2017-06-07T09:04:14Z</time>
      </trkpt>
      <trkpt lat="45.93953" lon="4.80221">
        <ele>205</ele>
        <time>2017-06-07T09:04:15Z</time>
      </trkpt>
      <trkpt lat="45.93954" lon="4.80227">
        <ele>204</ele>
        <time>2017-06-07T09:04:16Z</time>
      </trkpt>
      <trkpt lat="45.93957" lon="4.80239">
        <ele>204</ele>
        <time>2017-06-07T09:04:18Z</time>
      </trkpt>
      <trkpt lat="45.93959" lon="4.80245">
        <ele>204</ele>
        <time>2017-06-07T09:04:19Z</time>
      </trkpt>
      <trkpt lat="45.93962" lon="4.80255">
        <ele>202</ele>
        <time>2017-06-07T09:04:21Z</time>
      </trkpt>
      <trkpt lat="45.93963" lon="4.8026">
        <ele>202</ele>
        <time>2017-06-07T09:04:22Z</time>
      </trkpt>
      <trkpt lat="45.93967" lon="4.80271">
        <ele>202</ele>
        <time>2017-06-07T09:04:24Z</time>
      </trkpt>
      <trkpt lat="45.93968" lon="4.80276">
        <ele>202</ele>
        <time>2017-06-07T09:04:25Z</time>
      </trkpt>
      <trkpt lat="45.93971" lon="4.80286">
        <ele>202</ele>
        <time>2017-06-07T09:04:27Z</time>
      </trkpt>
      <trkpt lat="45.93973" lon="4.80291">
        <ele>202</ele>
        <time>2017-06-07T09:04:28Z</time>
      </trkpt>
      <trkpt lat="45.93976" lon="4.803">
        <ele>203</ele>
        <time>2017-06-07T09:04:30Z</time>
      </trkpt>
      <trkpt lat="45.93977" lon="4.80304">
        <ele>203</ele>
        <time>2017-06-07T09:04:31Z</time>
      </trkpt>
      <trkpt lat="45.93981" lon="4.80316">
        <ele>203</ele>
        <time>2017-06-07T09:04:34Z</time>
      </trkpt>
      <trkpt lat="45.93982" lon="4.8032">
        <ele>203</ele>
        <time>2017-06-07T09:04:35Z</time>
      </trkpt>
      <trkpt lat="45.93986" lon="4.8033">
        <ele>204</ele>
        <time>2017-06-07T09:04:38Z</time>
      </trkpt>
      <trkpt lat="45.93987" lon="4.80334">
        <ele>206</ele>
        <time>2017-06-07T09:04:39Z</time>
      </trkpt>
      <trkpt lat="45.93988" lon="4.80342">
        <ele>206</ele>
        <time>2017-06-07T09:04:41Z</time>
      </trkpt>
      <trkpt lat="45.93989" lon="4.80347">
        <ele>206</ele>
        <time>2017-06-07T09:04:42Z</time>
      </trkpt>
      <trkpt lat="45.93992" lon="4.80357">
        <ele>206</ele>
        <time>2017-06-07T09:04:45Z</time>
      </trkpt>
      <trkpt lat="45.93993" lon="4.8036">
        <ele>207</ele>
        <time>2017-06-07T09:04:46Z</time>
      </trkpt>
      <trkpt lat="45.93997" lon="4.80372">
        <ele>207</ele>
        <time>2017-06-07T09:04:49Z</time>
      </trkpt>
      <trkpt lat="45.93998" lon="4.80376">
        <ele>208</ele>
        <time>2017-06-07T09:04:50Z</time>
      </trkpt>
      <trkpt lat="45.94002" lon="4.80387">
        <ele>217</ele>
        <time>2017-06-07T09:04:53Z</time>
      </trkpt>
      <trkpt lat="45.94003" lon="4.80391">
        <ele>217</ele>
        <time>2017-06-07T09:04:54Z</time>
      </trkpt>
      <trkpt lat="45.94005" lon="4.80401">
        <ele>217</ele>
        <time>2017-06-07T09:04:56Z</time>
      </trkpt>
      <trkpt lat="45.94006" lon="4.80406">
        <ele>217</ele>
        <time>2017-06-07T09:04:57Z</time>
      </trkpt>
      <trkpt lat="45.94008" lon="4.80416">
        <ele>217</ele>
        <time>2017-06-07T09:04:59Z</time>
      </trkpt>
      <trkpt lat="45.94009" lon="4.8042">
        <ele>219</ele>
        <time>2017-06-07T09:05:00Z</time>
      </trkpt>
      <trkpt lat="45.94011" lon="4.8043">
        <ele>220</ele>
        <time>2017-06-07T09:05:03Z</time>
      </trkpt>
      <trkpt lat="45.94011" lon="4.80434">
        <ele>221</ele>
        <time>2017-06-07T09:05:04Z</time>
      </trkpt>
      <trkpt lat="45.94012" lon="4.80443">
        <ele>222</ele>
        <time>2017-06-07T09:05:06Z</time>
      </trkpt>
      <trkpt lat="45.94012" lon="4.80448">
        <ele>222</ele>
        <time>2017-06-07T09:05:07Z</time>
      </trkpt>
      <trkpt lat="45.94013" lon="4.80457">
        <ele>223</ele>
        <time>2017-06-07T09:05:09Z</time>
      </trkpt>
      <trkpt lat="45.94013" lon="4.80462">
        <ele>223</ele>
        <time>2017-06-07T09:05:10Z</time>
      </trkpt>
      <trkpt lat="45.94012" lon="4.80472">
        <ele>223</ele>
        <time>2017-06-07T09:05:12Z</time>
      </trkpt>
      <trkpt lat="45.94012" lon="4.80476">
        <ele>222</ele>
        <time>2017-06-07T09:05:13Z</time>
      </trkpt>
      <trkpt lat="45.94013" lon="4.80487">
        <ele>222</ele>
        <time>2017-06-07T09:05:15Z</time>
      </trkpt>
      <trkpt lat="45.94013" lon="4.80492">
        <ele>221</ele>
        <time>2017-06-07T09:05:16Z</time>
      </trkpt>
      <trkpt lat="45.94012" lon="4.80502">
        <ele>222</ele>
        <time>2017-06-07T09:05:19Z</time>
      </trkpt>
      <trkpt lat="45.94012" lon="4.80506">
        <ele>222</ele>
        <time>2017-06-07T09:05:20Z</time>
      </trkpt>
      <trkpt lat="45.94012" lon="4.80516">
        <ele>223</ele>
        <time>2017-06-07T09:05:23Z</time>
      </trkpt>
      <trkpt lat="45.94012" lon="4.80521">
        <ele>223</ele>
        <time>2017-06-07T09:05:24Z</time>
      </trkpt>
      <trkpt lat="45.94012" lon="4.80533">
        <ele>224</ele>
        <time>2017-06-07T09:05:27Z</time>
      </trkpt>
      <trkpt lat="45.94012" lon="4.80536">
        <ele>224</ele>
        <time>2017-06-07T09:05:28Z</time>
      </trkpt>
      <trkpt lat="45.9401" lon="4.80547">
        <ele>224</ele>
        <time>2017-06-07T09:05:31Z</time>
      </trkpt>
      <trkpt lat="45.9401" lon="4.80552">
        <ele>224</ele>
        <time>2017-06-07T09:05:32Z</time>
      </trkpt>
      <trkpt lat="45.94011" lon="4.80562">
        <ele>223</ele>
        <time>2017-06-07T09:05:34Z</time>
      </trkpt>
      <trkpt lat="45.94011" lon="4.80568">
        <ele>222</ele>
        <time>2017-06-07T09:05:35Z</time>
      </trkpt>
      <trkpt lat="45.94012" lon="4.80578">
        <ele>221</ele>
        <time>2017-06-07T09:05:37Z</time>
      </trkpt>
      <trkpt lat="45.94012" lon="4.80582">
        <ele>221</ele>
        <time>2017-06-07T09:05:38Z</time>
      </trkpt>
      <trkpt lat="45.9401" lon="4.80593">
        <ele>221</ele>
        <time>2017-06-07T09:05:41Z</time>
      </trkpt>
      <trkpt lat="45.94011" lon="4.80596">
        <ele>222</ele>
        <time>2017-06-07T09:05:42Z</time>
      </trkpt>
      <trkpt lat="45.94012" lon="4.80604">
        <ele>223</ele>
        <time>2017-06-07T09:05:44Z</time>
      </trkpt>
      <trkpt lat="45.94013" lon="4.80608">
        <ele>223</ele>
        <time>2017-06-07T09:05:45Z</time>
      </trkpt>
      <trkpt lat="45.94015" lon="4.80618">
        <ele>224</ele>
        <time>2017-06-07T09:05:47Z</time>
      </trkpt>
      <trkpt lat="45.94016" lon="4.80623">
        <ele>224</ele>
        <time>2017-06-07T09:05:48Z</time>
      </trkpt>
      <trkpt lat="45.94019" lon="4.80633">
        <ele>224</ele>
        <time>2017-06-07T09:05:50Z</time>
      </trkpt>
      <trkpt lat="45.9402" lon="4.80637">
        <ele>224</ele>
        <time>2017-06-07T09:05:51Z</time>
      </trkpt>
      <trkpt lat="45.94022" lon="4.80647">
        <ele>224</ele>
        <time>2017-06-07T09:05:54Z</time>
      </trkpt>
      <trkpt lat="45.94022" lon="4.8065">
        <ele>223</ele>
        <time>2017-06-07T09:05:55Z</time>
      </trkpt>
      <trkpt lat="45.94024" lon="4.80662">
        <ele>223</ele>
        <time>2017-06-07T09:05:59Z</time>
      </trkpt>
      <trkpt lat="45.94024" lon="4.80666">
        <ele>223</ele>
        <time>2017-06-07T09:06:00Z</time>
      </trkpt>
      <trkpt lat="45.94024" lon="4.80675">
        <ele>223</ele>
        <time>2017-06-07T09:06:02Z</time>
      </trkpt>
      <trkpt lat="45.94025" lon="4.80684">
        <ele>224</ele>
        <time>2017-06-07T09:06:03Z</time>
      </trkpt>
      <trkpt lat="45.94026" lon="4.80696">
        <ele>225</ele>
        <time>2017-06-07T09:06:05Z</time>
      </trkpt>
      <trkpt lat="45.94026" lon="4.80699">
        <ele>225</ele>
        <time>2017-06-07T09:06:06Z</time>
      </trkpt>
      <trkpt lat="45.94027" lon="4.80711">
        <ele>225</ele>
        <time>2017-06-07T09:06:09Z</time>
      </trkpt>
      <trkpt lat="45.94028" lon="4.80715">
        <ele>225</ele>
        <time>2017-06-07T09:06:10Z</time>
      </trkpt>
      <trkpt lat="45.94029" lon="4.80724">
        <ele>225</ele>
        <time>2017-06-07T09:06:12Z</time>
      </trkpt>
      <trkpt lat="45.9403" lon="4.80731">
        <ele>225</ele>
        <time>2017-06-07T09:06:13Z</time>
      </trkpt>
      <trkpt lat="45.94031" lon="4.80741">
        <ele>225</ele>
        <time>2017-06-07T09:06:15Z</time>
      </trkpt>
      <trkpt lat="45.94032" lon="4.80746">
        <ele>225</ele>
        <time>2017-06-07T09:06:16Z</time>
      </trkpt>
      <trkpt lat="45.94033" lon="4.80756">
        <ele>226</ele>
        <time>2017-06-07T09:06:19Z</time>
      </trkpt>
      <trkpt lat="45.94034" lon="4.8076">
        <ele>226</ele>
        <time>2017-06-07T09:06:20Z</time>
      </trkpt>
      <trkpt lat="45.94035" lon="4.80771">
        <ele>227</ele>
        <time>2017-06-07T09:06:23Z</time>
      </trkpt>
      <trkpt lat="45.94035" lon="4.80774">
        <ele>227</ele>
        <time>2017-06-07T09:06:24Z</time>
      </trkpt>
      <trkpt lat="45.94036" lon="4.80785">
        <ele>227</ele>
        <time>2017-06-07T09:06:28Z</time>
      </trkpt>
      <trkpt lat="45.94036" lon="4.80788">
        <ele>227</ele>
        <time>2017-06-07T09:06:29Z</time>
      </trkpt>
      <trkpt lat="45.94037" lon="4.80798">
        <ele>227</ele>
        <time>2017-06-07T09:06:32Z</time>
      </trkpt>
      <trkpt lat="45.94037" lon="4.80801">
        <ele>227</ele>
        <time>2017-06-07T09:06:33Z</time>
      </trkpt>
      <trkpt lat="45.94038" lon="4.80813">
        <ele>227</ele>
        <time>2017-06-07T09:06:37Z</time>
      </trkpt>
      <trkpt lat="45.94038" lon="4.80816">
        <ele>228</ele>
        <time>2017-06-07T09:06:38Z</time>
      </trkpt>
      <trkpt lat="45.9404" lon="4.80825">
        <ele>228</ele>
        <time>2017-06-07T09:06:41Z</time>
      </trkpt>
      <trkpt lat="45.9404" lon="4.80829">
        <ele>228</ele>
        <time>2017-06-07T09:06:42Z</time>
      </trkpt>
      <trkpt lat="45.94043" lon="4.80841">
        <ele>229</ele>
        <time>2017-06-07T09:06:46Z</time>
      </trkpt>
      <trkpt lat="45.94043" lon="4.80843">
        <ele>229</ele>
        <time>2017-06-07T09:06:47Z</time>
      </trkpt>
      <trkpt lat="45.94044" lon="4.80853">
        <ele>229</ele>
        <time>2017-06-07T09:06:51Z</time>
      </trkpt>
      <trkpt lat="45.94045" lon="4.80856">
        <ele>229</ele>
        <time>2017-06-07T09:06:52Z</time>
      </trkpt>
      <trkpt lat="45.94046" lon="4.80866">
        <ele>229</ele>
        <time>2017-06-07T09:06:55Z</time>
      </trkpt>
      <trkpt lat="45.94047" lon="4.80869">
        <ele>229</ele>
        <time>2017-06-07T09:06:56Z</time>
      </trkpt>
      <trkpt lat="45.94048" lon="4.80881">
        <ele>229</ele>
        <time>2017-06-07T09:07:00Z</time>
      </trkpt>
      <trkpt lat="45.94049" lon="4.80884">
        <ele>229</ele>
        <time>2017-06-07T09:07:01Z</time>
      </trkpt>
      <trkpt lat="45.9405" lon="4.80896">
        <ele>230</ele>
        <time>2017-06-07T09:07:05Z</time>
      </trkpt>
      <trkpt lat="45.94051" lon="4.80899">
        <ele>230</ele>
        <time>2017-06-07T09:07:06Z</time>
      </trkpt>
      <trkpt lat="45.94052" lon="4.80911">
        <ele>230</ele>
        <time>2017-06-07T09:07:10Z</time>
      </trkpt>
      <trkpt lat="45.94053" lon="4.80914">
        <ele>231</ele>
        <time>2017-06-07T09:07:11Z</time>
      </trkpt>
      <trkpt lat="45.94055" lon="4.80926">
        <ele>232</ele>
        <time>2017-06-07T09:07:15Z</time>
      </trkpt>
      <trkpt lat="45.94055" lon="4.80929">
        <ele>231</ele>
        <time>2017-06-07T09:07:16Z</time>
      </trkpt>
      <trkpt lat="45.94056" lon="4.80939">
        <ele>231</ele>
        <time>2017-06-07T09:07:19Z</time>
      </trkpt>
      <trkpt lat="45.94057" lon="4.80942">
        <ele>231</ele>
        <time>2017-06-07T09:07:20Z</time>
      </trkpt>
      <trkpt lat="45.94058" lon="4.80953">
        <ele>231</ele>
        <time>2017-06-07T09:07:24Z</time>
      </trkpt>
      <trkpt lat="45.94059" lon="4.80956">
        <ele>231</ele>
        <time>2017-06-07T09:07:25Z</time>
      </trkpt>
      <trkpt lat="45.9406" lon="4.80966">
        <ele>232</ele>
        <time>2017-06-07T09:07:28Z</time>
      </trkpt>
      <trkpt lat="45.9406" lon="4.80969">
        <ele>232</ele>
        <time>2017-06-07T09:07:29Z</time>
      </trkpt>
      <trkpt lat="45.94062" lon="4.8098">
        <ele>233</ele>
        <time>2017-06-07T09:07:32Z</time>
      </trkpt>
      <trkpt lat="45.94062" lon="4.80983">
        <ele>233</ele>
        <time>2017-06-07T09:07:33Z</time>
      </trkpt>
      <trkpt lat="45.94063" lon="4.80994">
        <ele>234</ele>
        <time>2017-06-07T09:07:36Z</time>
      </trkpt>
      <trkpt lat="45.94064" lon="4.80997">
        <ele>234</ele>
        <time>2017-06-07T09:07:37Z</time>
      </trkpt>
      <trkpt lat="45.94066" lon="4.81007">
        <ele>235</ele>
        <time>2017-06-07T09:07:40Z</time>
      </trkpt>
      <trkpt lat="45.94067" lon="4.8101">
        <ele>235</ele>
        <time>2017-06-07T09:07:41Z</time>
      </trkpt>
      <trkpt lat="45.9407" lon="4.81019">
        <ele>234</ele>
        <time>2017-06-07T09:07:44Z</time>
      </trkpt>
      <trkpt lat="45.9407" lon="4.81023">
        <ele>234</ele>
        <time>2017-06-07T09:07:45Z</time>
      </trkpt>
      <trkpt lat="45.94073" lon="4.81035">
        <ele>233</ele>
        <time>2017-06-07T09:07:48Z</time>
      </trkpt>
      <trkpt lat="45.94074" lon="4.81039">
        <ele>233</ele>
        <time>2017-06-07T09:07:49Z</time>
      </trkpt>
      <trkpt lat="45.94077" lon="4.81049">
        <ele>233</ele>
        <time>2017-06-07T09:07:52Z</time>
      </trkpt>
      <trkpt lat="45.94079" lon="4.81052">
        <ele>233</ele>
        <time>2017-06-07T09:07:53Z</time>
      </trkpt>
      <trkpt lat="45.94082" lon="4.81061">
        <ele>234</ele>
        <time>2017-06-07T09:07:56Z</time>
      </trkpt>
      <trkpt lat="45.94083" lon="4.81064">
        <ele>234</ele>
        <time>2017-06-07T09:07:57Z</time>
      </trkpt>
      <trkpt lat="45.94087" lon="4.81073">
        <ele>240</ele>
        <time>2017-06-07T09:08:00Z</time>
      </trkpt>
      <trkpt lat="45.94089" lon="4.81075">
        <ele>240</ele>
        <time>2017-06-07T09:08:01Z</time>
      </trkpt>
      <trkpt lat="45.94094" lon="4.81084">
        <ele>239</ele>
        <time>2017-06-07T09:08:05Z</time>
      </trkpt>
      <trkpt lat="45.94096" lon="4.81086">
        <ele>240</ele>
        <time>2017-06-07T09:08:06Z</time>
      </trkpt>
      <trkpt lat="45.94101" lon="4.81095">
        <ele>241</ele>
        <time>2017-06-07T09:08:10Z</time>
      </trkpt>
      <trkpt lat="45.94102" lon="4.81096">
        <ele>241</ele>
        <time>2017-06-07T09:08:11Z</time>
      </trkpt>
      <trkpt lat="45.94107" lon="4.81103">
        <ele>242</ele>
        <time>2017-06-07T09:08:14Z</time>
      </trkpt>
      <trkpt lat="45.94108" lon="4.81106">
        <ele>242</ele>
        <time>2017-06-07T09:08:15Z</time>
      </trkpt>
      <trkpt lat="45.94113" lon="4.81117">
        <ele>242</ele>
        <time>2017-06-07T09:08:18Z</time>
      </trkpt>
      <trkpt lat="45.94114" lon="4.81119">
        <ele>242</ele>
        <time>2017-06-07T09:08:19Z</time>
      </trkpt>
      <trkpt lat="45.9412" lon="4.81128">
        <ele>243</ele>
        <time>2017-06-07T09:08:24Z</time>
      </trkpt>
      <trkpt lat="45.94121" lon="4.81129">
        <ele>243</ele>
        <time>2017-06-07T09:08:25Z</time>
      </trkpt>
      <trkpt lat="45.94126" lon="4.8114">
        <ele>243</ele>
        <time>2017-06-07T09:08:29Z</time>
      </trkpt>
      <trkpt lat="45.94127" lon="4.81143">
        <ele>243</ele>
        <time>2017-06-07T09:08:30Z</time>
      </trkpt>
      <trkpt lat="45.94129" lon="4.81154">
        <ele>243</ele>
        <time>2017-06-07T09:08:33Z</time>
      </trkpt>
      <trkpt lat="45.9413" lon="4.81159">
        <ele>243</ele>
        <time>2017-06-07T09:08:34Z</time>
      </trkpt>
      <trkpt lat="45.94133" lon="4.81168">
        <ele>243</ele>
        <time>2017-06-07T09:08:37Z</time>
      </trkpt>
      <trkpt lat="45.94134" lon="4.8117">
        <ele>243</ele>
        <time>2017-06-07T09:08:38Z</time>
      </trkpt>
      <trkpt lat="45.9414" lon="4.81179">
        <ele>244</ele>
        <time>2017-06-07T09:08:42Z</time>
      </trkpt>
      <trkpt lat="45.94142" lon="4.81182">
        <ele>244</ele>
        <time>2017-06-07T09:08:43Z</time>
      </trkpt>
      <trkpt lat="45.94146" lon="4.81193">
        <ele>244</ele>
        <time>2017-06-07T09:08:46Z</time>
      </trkpt>
      <trkpt lat="45.94146" lon="4.81195">
        <ele>244</ele>
        <time>2017-06-07T09:08:47Z</time>
      </trkpt>
      <trkpt lat="45.94149" lon="4.81207">
        <ele>244</ele>
        <time>2017-06-07T09:08:51Z</time>
      </trkpt>
      <trkpt lat="45.94149" lon="4.81209">
        <ele>244</ele>
        <time>2017-06-07T09:08:52Z</time>
      </trkpt>
      <trkpt lat="45.94152" lon="4.81221">
        <ele>245</ele>
        <time>2017-06-07T09:08:56Z</time>
      </trkpt>
      <trkpt lat="45.94153" lon="4.81223">
        <ele>245</ele>
        <time>2017-06-07T09:08:57Z</time>
      </trkpt>
      <trkpt lat="45.94155" lon="4.81235">
        <ele>246</ele>
        <time>2017-06-07T09:09:00Z</time>
      </trkpt>
      <trkpt lat="45.94156" lon="4.81239">
        <ele>247</ele>
        <time>2017-06-07T09:09:01Z</time>
      </trkpt>
      <trkpt lat="45.94158" lon="4.81252">
        <ele>248</ele>
        <time>2017-06-07T09:09:06Z</time>
      </trkpt>
      <trkpt lat="45.94158" lon="4.81254">
        <ele>248</ele>
        <time>2017-06-07T09:09:07Z</time>
      </trkpt>
      <trkpt lat="45.94159" lon="4.81266">
        <ele>248</ele>
        <time>2017-06-07T09:09:11Z</time>
      </trkpt>
      <trkpt lat="45.9416" lon="4.8127">
        <ele>247</ele>
        <time>2017-06-07T09:09:12Z</time>
      </trkpt>
      <trkpt lat="45.9416" lon="4.81281">
        <ele>247</ele>
        <time>2017-06-07T09:09:15Z</time>
      </trkpt>
      <trkpt lat="45.94161" lon="4.81285">
        <ele>247</ele>
        <time>2017-06-07T09:09:16Z</time>
      </trkpt>
      <trkpt lat="45.9416" lon="4.81297">
        <ele>247</ele>
        <time>2017-06-07T09:09:19Z</time>
      </trkpt>
      <trkpt lat="45.9416" lon="4.813">
        <ele>247</ele>
        <time>2017-06-07T09:09:20Z</time>
      </trkpt>
      <trkpt lat="45.94161" lon="4.81313">
        <ele>248</ele>
        <time>2017-06-07T09:09:25Z</time>
      </trkpt>
      <trkpt lat="45.94161" lon="4.81315">
        <ele>248</ele>
        <time>2017-06-07T09:09:26Z</time>
      </trkpt>
      <trkpt lat="45.9416" lon="4.81327">
        <ele>250</ele>
        <time>2017-06-07T09:09:31Z</time>
      </trkpt>
      <trkpt lat="45.94159" lon="4.8133">
        <ele>250</ele>
        <time>2017-06-07T09:09:32Z</time>
      </trkpt>
      <trkpt lat="45.94159" lon="4.81339">
        <ele>251</ele>
        <time>2017-06-07T09:09:35Z</time>
      </trkpt>
      <trkpt lat="45.94159" lon="4.81343">
        <ele>251</ele>
        <time>2017-06-07T09:09:36Z</time>
      </trkpt>
      <trkpt lat="45.94158" lon="4.81353">
        <ele>250</ele>
        <time>2017-06-07T09:09:39Z</time>
      </trkpt>
      <trkpt lat="45.94158" lon="4.81356">
        <ele>250</ele>
        <time>2017-06-07T09:09:40Z</time>
      </trkpt>
      <trkpt lat="45.94157" lon="4.81368">
        <ele>250</ele>
        <time>2017-06-07T09:09:44Z</time>
      </trkpt>
      <trkpt lat="45.94157" lon="4.81371">
        <ele>250</ele>
        <time>2017-06-07T09:09:45Z</time>
      </trkpt>
      <trkpt lat="45.94155" lon="4.81382">
        <ele>251</ele>
        <time>2017-06-07T09:09:48Z</time>
      </trkpt>
      <trkpt lat="45.94154" lon="4.81386">
        <ele>251</ele>
        <time>2017-06-07T09:09:49Z</time>
      </trkpt>
      <trkpt lat="45.94153" lon="4.81399">
        <ele>252</ele>
        <time>2017-06-07T09:09:53Z</time>
      </trkpt>
      <trkpt lat="45.94152" lon="4.81403">
        <ele>252</ele>
        <time>2017-06-07T09:09:54Z</time>
      </trkpt>
      <trkpt lat="45.9415" lon="4.81414">
        <ele>253</ele>
        <time>2017-06-07T09:09:56Z</time>
      </trkpt>
      <trkpt lat="45.9415" lon="4.81419">
        <ele>256</ele>
        <time>2017-06-07T09:09:57Z</time>
      </trkpt>
      <trkpt lat="45.94149" lon="4.8143">
        <ele>256</ele>
        <time>2017-06-07T09:10:00Z</time>
      </trkpt>
      <trkpt lat="45.94148" lon="4.81433">
        <ele>256</ele>
        <time>2017-06-07T09:10:01Z</time>
      </trkpt>
      <trkpt lat="45.94147" lon="4.81445">
        <ele>256</ele>
        <time>2017-06-07T09:10:05Z</time>
      </trkpt>
      <trkpt lat="45.94147" lon="4.81449">
        <ele>256</ele>
        <time>2017-06-07T09:10:06Z</time>
      </trkpt>
      <trkpt lat="45.94147" lon="4.8146">
        <ele>257</ele>
        <time>2017-06-07T09:10:09Z</time>
      </trkpt>
      <trkpt lat="45.94147" lon="4.81463">
        <ele>257</ele>
        <time>2017-06-07T09:10:10Z</time>
      </trkpt>
      <trkpt lat="45.94145" lon="4.81475">
        <ele>258</ele>
        <time>2017-06-07T09:10:14Z</time>
      </trkpt>
      <trkpt lat="45.94145" lon="4.81479">
        <ele>258</ele>
        <time>2017-06-07T09:10:15Z</time>
      </trkpt>
      <trkpt lat="45.94144" lon="4.8149">
        <ele>259</ele>
        <time>2017-06-07T09:10:17Z</time>
      </trkpt>
      <trkpt lat="45.94144" lon="4.81494">
        <ele>259</ele>
        <time>2017-06-07T09:10:18Z</time>
      </trkpt>
      <trkpt lat="45.94144" lon="4.81504">
        <ele>263</ele>
        <time>2017-06-07T09:10:21Z</time>
      </trkpt>
      <trkpt lat="45.94145" lon="4.81509">
        <ele>263</ele>
        <time>2017-06-07T09:10:22Z</time>
      </trkpt>
      <trkpt lat="45.94146" lon="4.81517">
        <ele>263</ele>
        <time>2017-06-07T09:10:24Z</time>
      </trkpt>
      <trkpt lat="45.94146" lon="4.81523">
        <ele>263</ele>
        <time>2017-06-07T09:10:25Z</time>
      </trkpt>
      <trkpt lat="45.94146" lon="4.81535">
        <ele>264</ele>
        <time>2017-06-07T09:10:28Z</time>
      </trkpt>
      <trkpt lat="45.94146" lon="4.81538">
        <ele>264</ele>
        <time>2017-06-07T09:10:29Z</time>
      </trkpt>
      <trkpt lat="45.94147" lon="4.81549">
        <ele>264</ele>
        <time>2017-06-07T09:10:33Z</time>
      </trkpt>
      <trkpt lat="45.94147" lon="4.81552">
        <ele>264</ele>
        <time>2017-06-07T09:10:34Z</time>
      </trkpt>
      <trkpt lat="45.94148" lon="4.81564">
        <ele>265</ele>
        <time>2017-06-07T09:10:37Z</time>
      </trkpt>
      <trkpt lat="45.94148" lon="4.81568">
        <ele>265</ele>
        <time>2017-06-07T09:10:38Z</time>
      </trkpt>
      <trkpt lat="45.9415" lon="4.81578">
        <ele>265</ele>
        <time>2017-06-07T09:10:41Z</time>
      </trkpt>
      <trkpt lat="45.94151" lon="4.81581">
        <ele>265</ele>
        <time>2017-06-07T09:10:42Z</time>
      </trkpt>
      <trkpt lat="45.94153" lon="4.81592">
        <ele>267</ele>
        <time>2017-06-07T09:10:45Z</time>
      </trkpt>
      <trkpt lat="45.94153" lon="4.81597">
        <ele>267</ele>
        <time>2017-06-07T09:10:46Z</time>
      </trkpt>
      <trkpt lat="45.94155" lon="4.81609">
        <ele>267</ele>
        <time>2017-06-07T09:10:49Z</time>
      </trkpt>
      <trkpt lat="45.94156" lon="4.81612">
        <ele>267</ele>
        <time>2017-06-07T09:10:50Z</time>
      </trkpt>
      <trkpt lat="45.94156" lon="4.81623">
        <ele>268</ele>
        <time>2017-06-07T09:10:52Z</time>
      </trkpt>
      <trkpt lat="45.94157" lon="4.81627">
        <ele>268</ele>
        <time>2017-06-07T09:10:53Z</time>
      </trkpt>
      <trkpt lat="45.94159" lon="4.81637">
        <ele>268</ele>
        <time>2017-06-07T09:10:56Z</time>
      </trkpt>
      <trkpt lat="45.9416" lon="4.8164">
        <ele>268</ele>
        <time>2017-06-07T09:10:57Z</time>
      </trkpt>
      <trkpt lat="45.94164" lon="4.8165">
        <ele>268</ele>
        <time>2017-06-07T09:11:00Z</time>
      </trkpt>
      <trkpt lat="45.94165" lon="4.81653">
        <ele>268</ele>
        <time>2017-06-07T09:11:01Z</time>
      </trkpt>
      <trkpt lat="45.94167" lon="4.81661">
        <ele>269</ele>
        <time>2017-06-07T09:11:03Z</time>
      </trkpt>
      <trkpt lat="45.94168" lon="4.81667">
        <ele>269</ele>
        <time>2017-06-07T09:11:04Z</time>
      </trkpt>
      <trkpt lat="45.94172" lon="4.81678">
        <ele>268</ele>
        <time>2017-06-07T09:11:07Z</time>
      </trkpt>
      <trkpt lat="45.94173" lon="4.81682">
        <ele>268</ele>
        <time>2017-06-07T09:11:08Z</time>
      </trkpt>
      <trkpt lat="45.94174" lon="4.81691">
        <ele>267</ele>
        <time>2017-06-07T09:11:10Z</time>
      </trkpt>
      <trkpt lat="45.94175" lon="4.81696">
        <ele>267</ele>
        <time>2017-06-07T09:11:11Z</time>
      </trkpt>
      <trkpt lat="45.94178" lon="4.81707">
        <ele>267</ele>
        <time>2017-06-07T09:11:14Z</time>
      </trkpt>
      <trkpt lat="45.94179" lon="4.81711">
        <ele>267</ele>
        <time>2017-06-07T09:11:15Z</time>
      </trkpt>
      <trkpt lat="45.94179" lon="4.81724">
        <ele>267</ele>
        <time>2017-06-07T09:11:18Z</time>
      </trkpt>
      <trkpt lat="45.94179" lon="4.81728">
        <ele>267</ele>
        <time>2017-06-07T09:11:19Z</time>
      </trkpt>
      <trkpt lat="45.9418" lon="4.81736">
        <ele>267</ele>
        <time>2017-06-07T09:11:21Z</time>
      </trkpt>
      <trkpt lat="45.94181" lon="4.8174">
        <ele>267</ele>
        <time>2017-06-07T09:11:22Z</time>
      </trkpt>
      <trkpt lat="45.94185" lon="4.81751">
        <ele>267</ele>
        <time>2017-06-07T09:11:25Z</time>
      </trkpt>
      <trkpt lat="45.94186" lon="4.81754">
        <ele>267</ele>
        <time>2017-06-07T09:11:26Z</time>
      </trkpt>
      <trkpt lat="45.94189" lon="4.81762">
        <ele>266</ele>
        <time>2017-06-07T09:11:29Z</time>
      </trkpt>
      <trkpt lat="45.94191" lon="4.81765">
        <ele>266</ele>
        <time>2017-06-07T09:11:30Z</time>
      </trkpt>
      <trkpt lat="45.94193" lon="4.81777">
        <ele>266</ele>
        <time>2017-06-07T09:11:33Z</time>
      </trkpt>
      <trkpt lat="45.94194" lon="4.81782">
        <ele>266</ele>
        <time>2017-06-07T09:11:34Z</time>
      </trkpt>
      <trkpt lat="45.94194" lon="4.81791">
        <ele>266</ele>
        <time>2017-06-07T09:11:36Z</time>
      </trkpt>
      <trkpt lat="45.94194" lon="4.81795">
        <ele>266</ele>
        <time>2017-06-07T09:11:37Z</time>
      </trkpt>
      <trkpt lat="45.94195" lon="4.81808">
        <ele>266</ele>
        <time>2017-06-07T09:11:40Z</time>
      </trkpt>
      <trkpt lat="45.94196" lon="4.81812">
        <ele>266</ele>
        <time>2017-06-07T09:11:41Z</time>
      </trkpt>
      <trkpt lat="45.94197" lon="4.81821">
        <ele>266</ele>
        <time>2017-06-07T09:11:43Z</time>
      </trkpt>
      <trkpt lat="45.94198" lon="4.81826">
        <ele>266</ele>
        <time>2017-06-07T09:11:44Z</time>
      </trkpt>
      <trkpt lat="45.94199" lon="4.81835">
        <ele>266</ele>
        <time>2017-06-07T09:11:46Z</time>
      </trkpt>
      <trkpt lat="45.942" lon="4.81839">
        <ele>266</ele>
        <time>2017-06-07T09:11:47Z</time>
      </trkpt>
      <trkpt lat="45.94203" lon="4.81851">
        <ele>266</ele>
        <time>2017-06-07T09:11:50Z</time>
      </trkpt>
      <trkpt lat="45.94203" lon="4.81856">
        <ele>266</ele>
        <time>2017-06-07T09:11:51Z</time>
      </trkpt>
      <trkpt lat="45.94205" lon="4.81865">
        <ele>265</ele>
        <time>2017-06-07T09:11:53Z</time>
      </trkpt>
      <trkpt lat="45.94206" lon="4.81871">
        <ele>265</ele>
        <time>2017-06-07T09:11:54Z</time>
      </trkpt>
      <trkpt lat="45.94208" lon="4.81882">
        <ele>265</ele>
        <time>2017-06-07T09:11:56Z</time>
      </trkpt>
      <trkpt lat="45.94209" lon="4.81887">
        <ele>265</ele>
        <time>2017-06-07T09:11:57Z</time>
      </trkpt>
      <trkpt lat="45.94212" lon="4.81896">
        <ele>265</ele>
        <time>2017-06-07T09:11:59Z</time>
      </trkpt>
      <trkpt lat="45.94213" lon="4.81901">
        <ele>265</ele>
        <time>2017-06-07T09:12:00Z</time>
      </trkpt>
      <trkpt lat="45.94214" lon="4.81912">
        <ele>265</ele>
        <time>2017-06-07T09:12:02Z</time>
      </trkpt>
      <trkpt lat="45.94215" lon="4.81917">
        <ele>265</ele>
        <time>2017-06-07T09:12:03Z</time>
      </trkpt>
      <trkpt lat="45.94218" lon="4.81927">
        <ele>264</ele>
        <time>2017-06-07T09:12:05Z</time>
      </trkpt>
      <trkpt lat="45.94219" lon="4.81932">
        <ele>264</ele>
        <time>2017-06-07T09:12:06Z</time>
      </trkpt>
      <trkpt lat="45.9422" lon="4.81945">
        <ele>264</ele>
        <time>2017-06-07T09:12:08Z</time>
      </trkpt>
      <trkpt lat="45.94222" lon="4.81951">
        <ele>264</ele>
        <time>2017-06-07T09:12:09Z</time>
      </trkpt>
      <trkpt lat="45.94224" lon="4.81963">
        <ele>264</ele>
        <time>2017-06-07T09:12:11Z</time>
      </trkpt>
      <trkpt lat="45.94225" lon="4.81969">
        <ele>264</ele>
        <time>2017-06-07T09:12:12Z</time>
      </trkpt>
      <trkpt lat="45.94226" lon="4.81976">
        <ele>264</ele>
        <time>2017-06-07T09:12:13Z</time>
      </trkpt>
      <trkpt lat="45.94228" lon="4.81982">
        <ele>264</ele>
        <time>2017-06-07T09:12:14Z</time>
      </trkpt>
      <trkpt lat="45.94229" lon="4.81988">
        <ele>263</ele>
        <time>2017-06-07T09:12:15Z</time>
      </trkpt>
      <trkpt lat="45.94231" lon="4.81995">
        <ele>263</ele>
        <time>2017-06-07T09:12:16Z</time>
      </trkpt>
      <trkpt lat="45.94233" lon="4.82007">
        <ele>263</ele>
        <time>2017-06-07T09:12:18Z</time>
      </trkpt>
      <trkpt lat="45.94234" lon="4.82013">
        <ele>263</ele>
        <time>2017-06-07T09:12:19Z</time>
      </trkpt>
      <trkpt lat="45.94237" lon="4.82024">
        <ele>263</ele>
        <time>2017-06-07T09:12:21Z</time>
      </trkpt>
      <trkpt lat="45.94238" lon="4.82029">
        <ele>263</ele>
        <time>2017-06-07T09:12:22Z</time>
      </trkpt>
      <trkpt lat="45.9424" lon="4.82041">
        <ele>263</ele>
        <time>2017-06-07T09:12:24Z</time>
      </trkpt>
      <trkpt lat="45.94241" lon="4.82047">
        <ele>263</ele>
        <time>2017-06-07T09:12:25Z</time>
      </trkpt>
      <trkpt lat="45.94243" lon="4.82059">
        <ele>263</ele>
        <time>2017-06-07T09:12:27Z</time>
      </trkpt>
      <trkpt lat="45.94243" lon="4.82066">
        <ele>263</ele>
        <time>2017-06-07T09:12:28Z</time>
      </trkpt>
      <trkpt lat="45.94244" lon="4.82073">
        <ele>263</ele>
        <time>2017-06-07T09:12:29Z</time>
      </trkpt>
      <trkpt lat="45.94245" lon="4.8208">
        <ele>262</ele>
        <time>2017-06-07T09:12:30Z</time>
      </trkpt>
      <trkpt lat="45.94248" lon="4.82092">
        <ele>263</ele>
        <time>2017-06-07T09:12:32Z</time>
      </trkpt>
      <trkpt lat="45.94249" lon="4.82098">
        <ele>263</ele>
        <time>2017-06-07T09:12:33Z</time>
      </trkpt>
      <trkpt lat="45.94252" lon="4.8211">
        <ele>263</ele>
        <time>2017-06-07T09:12:35Z</time>
      </trkpt>
      <trkpt lat="45.94253" lon="4.82116">
        <ele>263</ele>
        <time>2017-06-07T09:12:36Z</time>
      </trkpt>
      <trkpt lat="45.94255" lon="4.82128">
        <ele>263</ele>
        <time>2017-06-07T09:12:38Z</time>
      </trkpt>
      <trkpt lat="45.94256" lon="4.82133">
        <ele>263</ele>
        <time>2017-06-07T09:12:39Z</time>
      </trkpt>
      <trkpt lat="45.94258" lon="4.82144">
        <ele>263</ele>
        <time>2017-06-07T09:12:41Z</time>
      </trkpt>
      <trkpt lat="45.9426" lon="4.8215">
        <ele>263</ele>
        <time>2017-06-07T09:12:42Z</time>
      </trkpt>
      <trkpt lat="45.94262" lon="4.82156">
        <ele>263</ele>
        <time>2017-06-07T09:12:43Z</time>
      </trkpt>
      <trkpt lat="45.94263" lon="4.82162">
        <ele>263</ele>
        <time>2017-06-07T09:12:44Z</time>
      </trkpt>
      <trkpt lat="45.94265" lon="4.82169">
        <ele>263</ele>
        <time>2017-06-07T09:12:45Z</time>
      </trkpt>
      <trkpt lat="45.94266" lon="4.82175">
        <ele>263</ele>
        <time>2017-06-07T09:12:46Z</time>
      </trkpt>
      <trkpt lat="45.94267" lon="4.82182">
        <ele>264</ele>
        <time>2017-06-07T09:12:47Z</time>
      </trkpt>
      <trkpt lat="45.94269" lon="4.82189">
        <ele>264</ele>
        <time>2017-06-07T09:12:48Z</time>
      </trkpt>
      <trkpt lat="45.9427" lon="4.82195">
        <ele>264</ele>
        <time>2017-06-07T09:12:49Z</time>
      </trkpt>
      <trkpt lat="45.94272" lon="4.82202">
        <ele>264</ele>
        <time>2017-06-07T09:12:50Z</time>
      </trkpt>
      <trkpt lat="45.94273" lon="4.82208">
        <ele>264</ele>
        <time>2017-06-07T09:12:51Z</time>
      </trkpt>
      <trkpt lat="45.94273" lon="4.82214">
        <ele>264</ele>
        <time>2017-06-07T09:12:52Z</time>
      </trkpt>
      <trkpt lat="45.94274" lon="4.82227">
        <ele>264</ele>
        <time>2017-06-07T09:12:54Z</time>
      </trkpt>
      <trkpt lat="45.94275" lon="4.82233">
        <ele>264</ele>
        <time>2017-06-07T09:12:55Z</time>
      </trkpt>
      <trkpt lat="45.94275" lon="4.82244">
        <ele>264</ele>
        <time>2017-06-07T09:12:57Z</time>
      </trkpt>
      <trkpt lat="45.94276" lon="4.8225">
        <ele>264</ele>
        <time>2017-06-07T09:12:58Z</time>
      </trkpt>
      <trkpt lat="45.94276" lon="4.82263">
        <ele>265</ele>
        <time>2017-06-07T09:13:00Z</time>
      </trkpt>
      <trkpt lat="45.94277" lon="4.82269">
        <ele>265</ele>
        <time>2017-06-07T09:13:01Z</time>
      </trkpt>
      <trkpt lat="45.94278" lon="4.82276">
        <ele>265</ele>
        <time>2017-06-07T09:13:02Z</time>
      </trkpt>
      <trkpt lat="45.94278" lon="4.82283">
        <ele>265</ele>
        <time>2017-06-07T09:13:03Z</time>
      </trkpt>
      <trkpt lat="45.94279" lon="4.8229">
        <ele>265</ele>
        <time>2017-06-07T09:13:04Z</time>
      </trkpt>
      <trkpt lat="45.94279" lon="4.82297">
        <ele>265</ele>
        <time>2017-06-07T09:13:05Z</time>
      </trkpt>
      <trkpt lat="45.9428" lon="4.82309">
        <ele>265</ele>
        <time>2017-06-07T09:13:07Z</time>
      </trkpt>
      <trkpt lat="45.9428" lon="4.82315">
        <ele>265</ele>
        <time>2017-06-07T09:13:08Z</time>
      </trkpt>
      <trkpt lat="45.9428" lon="4.82322">
        <ele>265</ele>
        <time>2017-06-07T09:13:09Z</time>
      </trkpt>
      <trkpt lat="45.9428" lon="4.82329">
        <ele>265</ele>
        <time>2017-06-07T09:13:10Z</time>
      </trkpt>
      <trkpt lat="45.94281" lon="4.82337">
        <ele>264</ele>
        <time>2017-06-07T09:13:11Z</time>
      </trkpt>
      <trkpt lat="45.94281" lon="4.82344">
        <ele>264</ele>
        <time>2017-06-07T09:13:12Z</time>
      </trkpt>
      <trkpt lat="45.94282" lon="4.82351">
        <ele>264</ele>
        <time>2017-06-07T09:13:13Z</time>
      </trkpt>
      <trkpt lat="45.94283" lon="4.82359">
        <ele>264</ele>
        <time>2017-06-07T09:13:14Z</time>
      </trkpt>
      <trkpt lat="45.94283" lon="4.82368">
        <ele>264</ele>
        <time>2017-06-07T09:13:15Z</time>
      </trkpt>
      <trkpt lat="45.94284" lon="4.82376">
        <ele>264</ele>
        <time>2017-06-07T09:13:16Z</time>
      </trkpt>
      <trkpt lat="45.94285" lon="4.82385">
        <ele>264</ele>
        <time>2017-06-07T09:13:17Z</time>
      </trkpt>
      <trkpt lat="45.94285" lon="4.82393">
        <ele>264</ele>
        <time>2017-06-07T09:13:18Z</time>
      </trkpt>
      <trkpt lat="45.94286" lon="4.82401">
        <ele>264</ele>
        <time>2017-06-07T09:13:19Z</time>
      </trkpt>
      <trkpt lat="45.94286" lon="4.82408">
        <ele>264</ele>
        <time>2017-06-07T09:13:20Z</time>
      </trkpt>
      <trkpt lat="45.94287" lon="4.82415">
        <ele>264</ele>
        <time>2017-06-07T09:13:21Z</time>
      </trkpt>
      <trkpt lat="45.94287" lon="4.82421">
        <ele>264</ele>
        <time>2017-06-07T09:13:22Z</time>
      </trkpt>
      <trkpt lat="45.94288" lon="4.82433">
        <ele>264</ele>
        <time>2017-06-07T09:13:24Z</time>
      </trkpt>
      <trkpt lat="45.94288" lon="4.82439">
        <ele>264</ele>
        <time>2017-06-07T09:13:25Z</time>
      </trkpt>
      <trkpt lat="45.94289" lon="4.82451">
        <ele>264</ele>
        <time>2017-06-07T09:13:27Z</time>
      </trkpt>
      <trkpt lat="45.94289" lon="4.82458">
        <ele>264</ele>
        <time>2017-06-07T09:13:28Z</time>
      </trkpt>
      <trkpt lat="45.94289" lon="4.82466">
        <ele>264</ele>
        <time>2017-06-07T09:13:29Z</time>
      </trkpt>
      <trkpt lat="45.9429" lon="4.82474">
        <ele>264</ele>
        <time>2017-06-07T09:13:30Z</time>
      </trkpt>
      <trkpt lat="45.9429" lon="4.82483">
        <ele>264</ele>
        <time>2017-06-07T09:13:31Z</time>
      </trkpt>
      <trkpt lat="45.9429" lon="4.82492">
        <ele>264</ele>
        <time>2017-06-07T09:13:32Z</time>
      </trkpt>
      <trkpt lat="45.9429" lon="4.82501">
        <ele>264</ele>
        <time>2017-06-07T09:13:33Z</time>
      </trkpt>
      <trkpt lat="45.9429" lon="4.82509">
        <ele>264</ele>
        <time>2017-06-07T09:13:34Z</time>
      </trkpt>
      <trkpt lat="45.9429" lon="4.82517">
        <ele>264</ele>
        <time>2017-06-07T09:13:35Z</time>
      </trkpt>
      <trkpt lat="45.9429" lon="4.82525">
        <ele>264</ele>
        <time>2017-06-07T09:13:36Z</time>
      </trkpt>
      <trkpt lat="45.9429" lon="4.82532">
        <ele>264</ele>
        <time>2017-06-07T09:13:37Z</time>
      </trkpt>
      <trkpt lat="45.9429" lon="4.8254">
        <ele>264</ele>
        <time>2017-06-07T09:13:38Z</time>
      </trkpt>
      <trkpt lat="45.9429" lon="4.82546">
        <ele>264</ele>
        <time>2017-06-07T09:13:39Z</time>
      </trkpt>
      <trkpt lat="45.9429" lon="4.82553">
        <ele>264</ele>
        <time>2017-06-07T09:13:40Z</time>
      </trkpt>
      <trkpt lat="45.9429" lon="4.82565">
        <ele>264</ele>
        <time>2017-06-07T09:13:42Z</time>
      </trkpt>
      <trkpt lat="45.9429" lon="4.82571">
        <ele>265</ele>
        <time>2017-06-07T09:13:43Z</time>
      </trkpt>
      <trkpt lat="45.9429" lon="4.82583">
        <ele>265</ele>
        <time>2017-06-07T09:13:45Z</time>
      </trkpt>
      <trkpt lat="45.9429" lon="4.82589">
        <ele>265</ele>
        <time>2017-06-07T09:13:46Z</time>
      </trkpt>
      <trkpt lat="45.9429" lon="4.82599">
        <ele>265</ele>
        <time>2017-06-07T09:13:48Z</time>
      </trkpt>
      <trkpt lat="45.9429" lon="4.82604">
        <ele>265</ele>
        <time>2017-06-07T09:13:49Z</time>
      </trkpt>
      <trkpt lat="45.94289" lon="4.82615">
        <ele>265</ele>
        <time>2017-06-07T09:13:51Z</time>
      </trkpt>
      <trkpt lat="45.9429" lon="4.8262">
        <ele>265</ele>
        <time>2017-06-07T09:13:52Z</time>
      </trkpt>
      <trkpt lat="45.9429" lon="4.8263">
        <ele>265</ele>
        <time>2017-06-07T09:13:54Z</time>
      </trkpt>
      <trkpt lat="45.9429" lon="4.82635">
        <ele>265</ele>
        <time>2017-06-07T09:13:55Z</time>
      </trkpt>
      <trkpt lat="45.94289" lon="4.82647">
        <ele>265</ele>
        <time>2017-06-07T09:13:57Z</time>
      </trkpt>
      <trkpt lat="45.94289" lon="4.82654">
        <ele>265</ele>
        <time>2017-06-07T09:13:58Z</time>
      </trkpt>
      <trkpt lat="45.94288" lon="4.82661">
        <ele>265</ele>
        <time>2017-06-07T09:13:59Z</time>
      </trkpt>
      <trkpt lat="45.94288" lon="4.82669">
        <ele>265</ele>
        <time>2017-06-07T09:14:00Z</time>
      </trkpt>
      <trkpt lat="45.94288" lon="4.82678">
        <ele>265</ele>
        <time>2017-06-07T09:14:01Z</time>
      </trkpt>
      <trkpt lat="45.94288" lon="4.82687">
        <ele>265</ele>
        <time>2017-06-07T09:14:02Z</time>
      </trkpt>
      <trkpt lat="45.94288" lon="4.82696">
        <ele>265</ele>
        <time>2017-06-07T09:14:03Z</time>
      </trkpt>
      <trkpt lat="45.94288" lon="4.82706">
        <ele>265</ele>
        <time>2017-06-07T09:14:04Z</time>
      </trkpt>
      <trkpt lat="45.94287" lon="4.82715">
        <ele>265</ele>
        <time>2017-06-07T09:14:05Z</time>
      </trkpt>
      <trkpt lat="45.94287" lon="4.82723">
        <ele>265</ele>
        <time>2017-06-07T09:14:06Z</time>
      </trkpt>
      <trkpt lat="45.94287" lon="4.82732">
        <ele>265</ele>
        <time>2017-06-07T09:14:07Z</time>
      </trkpt>
      <trkpt lat="45.94286" lon="4.8274">
        <ele>265</ele>
        <time>2017-06-07T09:14:08Z</time>
      </trkpt>
      <trkpt lat="45.94286" lon="4.82747">
        <ele>265</ele>
        <time>2017-06-07T09:14:09Z</time>
      </trkpt>
      <trkpt lat="45.94286" lon="4.82755">
        <ele>265</ele>
        <time>2017-06-07T09:14:10Z</time>
      </trkpt>
      <trkpt lat="45.94286" lon="4.82763">
        <ele>265</ele>
        <time>2017-06-07T09:14:11Z</time>
      </trkpt>
      <trkpt lat="45.94286" lon="4.82772">
        <ele>265</ele>
        <time>2017-06-07T09:14:12Z</time>
      </trkpt>
      <trkpt lat="45.94286" lon="4.82779">
        <ele>265</ele>
        <time>2017-06-07T09:14:13Z</time>
      </trkpt>
      <trkpt lat="45.94286" lon="4.82786">
        <ele>265</ele>
        <time>2017-06-07T09:14:14Z</time>
      </trkpt>
      <trkpt lat="45.94286" lon="4.82793">
        <ele>265</ele>
        <time>2017-06-07T09:14:15Z</time>
      </trkpt>
      <trkpt lat="45.94286" lon="4.828">
        <ele>265</ele>
        <time>2017-06-07T09:14:16Z</time>
      </trkpt>
      <trkpt lat="45.94286" lon="4.82807">
        <ele>265</ele>
        <time>2017-06-07T09:14:17Z</time>
      </trkpt>
      <trkpt lat="45.94286" lon="4.82814">
        <ele>265</ele>
        <time>2017-06-07T09:14:18Z</time>
      </trkpt>
      <trkpt lat="45.94286" lon="4.82821">
        <ele>265</ele>
        <time>2017-06-07T09:14:19Z</time>
      </trkpt>
      <trkpt lat="45.94286" lon="4.82828">
        <ele>265</ele>
        <time>2017-06-07T09:14:20Z</time>
      </trkpt>
      <trkpt lat="45.94286" lon="4.82837">
        <ele>265</ele>
        <time>2017-06-07T09:14:21Z</time>
      </trkpt>
      <trkpt lat="45.94286" lon="4.82846">
        <ele>265</ele>
        <time>2017-06-07T09:14:22Z</time>
      </trkpt>
      <trkpt lat="45.94286" lon="4.82855">
        <ele>265</ele>
        <time>2017-06-07T09:14:23Z</time>
      </trkpt>
      <trkpt lat="45.94285" lon="4.82863">
        <ele>265</ele>
        <time>2017-06-07T09:14:24Z</time>
      </trkpt>
      <trkpt lat="45.94285" lon="4.82872">
        <ele>265</ele>
        <time>2017-06-07T09:14:25Z</time>
      </trkpt>
      <trkpt lat="45.94285" lon="4.8288">
        <ele>265</ele>
        <time>2017-06-07T09:14:26Z</time>
      </trkpt>
      <trkpt lat="45.94286" lon="4.82888">
        <ele>265</ele>
        <time>2017-06-07T09:14:27Z</time>
      </trkpt>
      <trkpt lat="45.94286" lon="4.82896">
        <ele>265</ele>
        <time>2017-06-07T09:14:28Z</time>
      </trkpt>
      <trkpt lat="45.94285" lon="4.82903">
        <ele>265</ele>
        <time>2017-06-07T09:14:29Z</time>
      </trkpt>
      <trkpt lat="45.94284" lon="4.82911">
        <ele>265</ele>
        <time>2017-06-07T09:14:30Z</time>
      </trkpt>
      <trkpt lat="45.94283" lon="4.82918">
        <ele>265</ele>
        <time>2017-06-07T09:14:31Z</time>
      </trkpt>
      <trkpt lat="45.94281" lon="4.82925">
        <ele>265</ele>
        <time>2017-06-07T09:14:32Z</time>
      </trkpt>
      <trkpt lat="45.9428" lon="4.82931">
        <ele>265</ele>
        <time>2017-06-07T09:14:33Z</time>
      </trkpt>
      <trkpt lat="45.94278" lon="4.82938">
        <ele>265</ele>
        <time>2017-06-07T09:14:34Z</time>
      </trkpt>
      <trkpt lat="45.94276" lon="4.82944">
        <ele>265</ele>
        <time>2017-06-07T09:14:35Z</time>
      </trkpt>
      <trkpt lat="45.94275" lon="4.82951">
        <ele>265</ele>
        <time>2017-06-07T09:14:36Z</time>
      </trkpt>
      <trkpt lat="45.94275" lon="4.82957">
        <ele>265</ele>
        <time>2017-06-07T09:14:37Z</time>
      </trkpt>
      <trkpt lat="45.94276" lon="4.82964">
        <ele>265</ele>
        <time>2017-06-07T09:14:38Z</time>
      </trkpt>
      <trkpt lat="45.9428" lon="4.82974">
        <ele>265</ele>
        <time>2017-06-07T09:14:40Z</time>
      </trkpt>
      <trkpt lat="45.94282" lon="4.8298">
        <ele>265</ele>
        <time>2017-06-07T09:14:41Z</time>
      </trkpt>
      <trkpt lat="45.94285" lon="4.82991">
        <ele>265</ele>
        <time>2017-06-07T09:14:43Z</time>
      </trkpt>
      <trkpt lat="45.94287" lon="4.82998">
        <ele>265</ele>
        <time>2017-06-07T09:14:44Z</time>
      </trkpt>
      <trkpt lat="45.94288" lon="4.83004">
        <ele>266</ele>
        <time>2017-06-07T09:14:45Z</time>
      </trkpt>
      <trkpt lat="45.94289" lon="4.8301">
        <ele>266</ele>
        <time>2017-06-07T09:14:46Z</time>
      </trkpt>
      <trkpt lat="45.94291" lon="4.83017">
        <ele>266</ele>
        <time>2017-06-07T09:14:47Z</time>
      </trkpt>
      <trkpt lat="45.94292" lon="4.83024">
        <ele>266</ele>
        <time>2017-06-07T09:14:48Z</time>
      </trkpt>
      <trkpt lat="45.94293" lon="4.8303">
        <ele>266</ele>
        <time>2017-06-07T09:14:49Z</time>
      </trkpt>
      <trkpt lat="45.94294" lon="4.83037">
        <ele>266</ele>
        <time>2017-06-07T09:14:50Z</time>
      </trkpt>
      <trkpt lat="45.94296" lon="4.83044">
        <ele>266</ele>
        <time>2017-06-07T09:14:51Z</time>
      </trkpt>
      <trkpt lat="45.94297" lon="4.8305">
        <ele>266</ele>
        <time>2017-06-07T09:14:52Z</time>
      </trkpt>
      <trkpt lat="45.94299" lon="4.83057">
        <ele>266</ele>
        <time>2017-06-07T09:14:53Z</time>
      </trkpt>
      <trkpt lat="45.94301" lon="4.83063">
        <ele>266</ele>
        <time>2017-06-07T09:14:54Z</time>
      </trkpt>
      <trkpt lat="45.94303" lon="4.83069">
        <ele>266</ele>
        <time>2017-06-07T09:14:55Z</time>
      </trkpt>
      <trkpt lat="45.94304" lon="4.83075">
        <ele>266</ele>
        <time>2017-06-07T09:14:56Z</time>
      </trkpt>
      <trkpt lat="45.94305" lon="4.83081">
        <ele>266</ele>
        <time>2017-06-07T09:14:57Z</time>
      </trkpt>
      <trkpt lat="45.94307" lon="4.83088">
        <ele>266</ele>
        <time>2017-06-07T09:14:58Z</time>
      </trkpt>
      <trkpt lat="45.9431" lon="4.83098">
        <ele>266</ele>
        <time>2017-06-07T09:15:00Z</time>
      </trkpt>
      <trkpt lat="45.94312" lon="4.83104">
        <ele>266</ele>
        <time>2017-06-07T09:15:01Z</time>
      </trkpt>
      <trkpt lat="45.94314" lon="4.83111">
        <ele>266</ele>
        <time>2017-06-07T09:15:02Z</time>
      </trkpt>
      <trkpt lat="45.94317" lon="4.83117">
        <ele>266</ele>
        <time>2017-06-07T09:15:03Z</time>
      </trkpt>
      <trkpt lat="45.94319" lon="4.83124">
        <ele>266</ele>
        <time>2017-06-07T09:15:04Z</time>
      </trkpt>
      <trkpt lat="45.94322" lon="4.83131">
        <ele>266</ele>
        <time>2017-06-07T09:15:05Z</time>
      </trkpt>
      <trkpt lat="45.94324" lon="4.83137">
        <ele>266</ele>
        <time>2017-06-07T09:15:06Z</time>
      </trkpt>
      <trkpt lat="45.94327" lon="4.83144">
        <ele>266</ele>
        <time>2017-06-07T09:15:07Z</time>
      </trkpt>
      <trkpt lat="45.94329" lon="4.8315">
        <ele>266</ele>
        <time>2017-06-07T09:15:08Z</time>
      </trkpt>
      <trkpt lat="45.94332" lon="4.83156">
        <ele>266</ele>
        <time>2017-06-07T09:15:09Z</time>
      </trkpt>
      <trkpt lat="45.94334" lon="4.83162">
        <ele>266</ele>
        <time>2017-06-07T09:15:10Z</time>
      </trkpt>
      <trkpt lat="45.94336" lon="4.83169">
        <ele>266</ele>
        <time>2017-06-07T09:15:11Z</time>
      </trkpt>
      <trkpt lat="45.94339" lon="4.83175">
        <ele>266</ele>
        <time>2017-06-07T09:15:12Z</time>
      </trkpt>
      <trkpt lat="45.94341" lon="4.83181">
        <ele>266</ele>
        <time>2017-06-07T09:15:13Z</time>
      </trkpt>
      <trkpt lat="45.94343" lon="4.83188">
        <ele>266</ele>
        <time>2017-06-07T09:15:14Z</time>
      </trkpt>
      <trkpt lat="45.94345" lon="4.83195">
        <ele>266</ele>
        <time>2017-06-07T09:15:15Z</time>
      </trkpt>
      <trkpt lat="45.94347" lon="4.83202">
        <ele>266</ele>
        <time>2017-06-07T09:15:16Z</time>
      </trkpt>
      <trkpt lat="45.9435" lon="4.83209">
        <ele>266</ele>
        <time>2017-06-07T09:15:17Z</time>
      </trkpt>
      <trkpt lat="45.94352" lon="4.83216">
        <ele>266</ele>
        <time>2017-06-07T09:15:18Z</time>
      </trkpt>
      <trkpt lat="45.94354" lon="4.83222">
        <ele>266</ele>
        <time>2017-06-07T09:15:19Z</time>
      </trkpt>
      <trkpt lat="45.94357" lon="4.83229">
        <ele>266</ele>
        <time>2017-06-07T09:15:20Z</time>
      </trkpt>
      <trkpt lat="45.94359" lon="4.83235">
        <ele>265</ele>
        <time>2017-06-07T09:15:21Z</time>
      </trkpt>
      <trkpt lat="45.94361" lon="4.83242">
        <ele>265</ele>
        <time>2017-06-07T09:15:22Z</time>
      </trkpt>
      <trkpt lat="45.94363" lon="4.83248">
        <ele>265</ele>
        <time>2017-06-07T09:15:23Z</time>
      </trkpt>
      <trkpt lat="45.94366" lon="4.83255">
        <ele>265</ele>
        <time>2017-06-07T09:15:24Z</time>
      </trkpt>
      <trkpt lat="45.94368" lon="4.83262">
        <ele>264</ele>
        <time>2017-06-07T09:15:25Z</time>
      </trkpt>
      <trkpt lat="45.94371" lon="4.83269">
        <ele>264</ele>
        <time>2017-06-07T09:15:26Z</time>
      </trkpt>
      <trkpt lat="45.94373" lon="4.83276">
        <ele>264</ele>
        <time>2017-06-07T09:15:27Z</time>
      </trkpt>
      <trkpt lat="45.94375" lon="4.83283">
        <ele>264</ele>
        <time>2017-06-07T09:15:28Z</time>
      </trkpt>
      <trkpt lat="45.94378" lon="4.8329">
        <ele>264</ele>
        <time>2017-06-07T09:15:29Z</time>
      </trkpt>
      <trkpt lat="45.9438" lon="4.83298">
        <ele>264</ele>
        <time>2017-06-07T09:15:30Z</time>
      </trkpt>
      <trkpt lat="45.94383" lon="4.83307">
        <ele>264</ele>
        <time>2017-06-07T09:15:31Z</time>
      </trkpt>
      <trkpt lat="45.94386" lon="4.83315">
        <ele>264</ele>
        <time>2017-06-07T09:15:32Z</time>
      </trkpt>
      <trkpt lat="45.94389" lon="4.83323">
        <ele>264</ele>
        <time>2017-06-07T09:15:33Z</time>
      </trkpt>
      <trkpt lat="45.94392" lon="4.83331">
        <ele>264</ele>
        <time>2017-06-07T09:15:34Z</time>
      </trkpt>
      <trkpt lat="45.94395" lon="4.83338">
        <ele>263</ele>
        <time>2017-06-07T09:15:35Z</time>
      </trkpt>
      <trkpt lat="45.94397" lon="4.83345">
        <ele>263</ele>
        <time>2017-06-07T09:15:36Z</time>
      </trkpt>
      <trkpt lat="45.944" lon="4.83353">
        <ele>264</ele>
        <time>2017-06-07T09:15:37Z</time>
      </trkpt>
      <trkpt lat="45.94403" lon="4.8336">
        <ele>264</ele>
        <time>2017-06-07T09:15:38Z</time>
      </trkpt>
      <trkpt lat="45.94406" lon="4.83367">
        <ele>264</ele>
        <time>2017-06-07T09:15:39Z</time>
      </trkpt>
      <trkpt lat="45.94409" lon="4.83373">
        <ele>264</ele>
        <time>2017-06-07T09:15:40Z</time>
      </trkpt>
      <trkpt lat="45.94412" lon="4.8338">
        <ele>264</ele>
        <time>2017-06-07T09:15:41Z</time>
      </trkpt>
      <trkpt lat="45.94415" lon="4.83386">
        <ele>264</ele>
        <time>2017-06-07T09:15:42Z</time>
      </trkpt>
      <trkpt lat="45.94418" lon="4.83393">
        <ele>264</ele>
        <time>2017-06-07T09:15:43Z</time>
      </trkpt>
      <trkpt lat="45.94421" lon="4.834">
        <ele>264</ele>
        <time>2017-06-07T09:15:44Z</time>
      </trkpt>
      <trkpt lat="45.94424" lon="4.83406">
        <ele>264</ele>
        <time>2017-06-07T09:15:45Z</time>
      </trkpt>
      <trkpt lat="45.94427" lon="4.83412">
        <ele>264</ele>
        <time>2017-06-07T09:15:46Z</time>
      </trkpt>
      <trkpt lat="45.9443" lon="4.83418">
        <ele>264</ele>
        <time>2017-06-07T09:15:47Z</time>
      </trkpt>
      <trkpt lat="45.94433" lon="4.83424">
        <ele>264</ele>
        <time>2017-06-07T09:15:48Z</time>
      </trkpt>
      <trkpt lat="45.94436" lon="4.83431">
        <ele>264</ele>
        <time>2017-06-07T09:15:49Z</time>
      </trkpt>
      <trkpt lat="45.9444" lon="4.83438">
        <ele>263</ele>
        <time>2017-06-07T09:15:50Z</time>
      </trkpt>
      <trkpt lat="45.94444" lon="4.83444">
        <ele>263</ele>
        <time>2017-06-07T09:15:51Z</time>
      </trkpt>
      <trkpt lat="45.94448" lon="4.83451">
        <ele>263</ele>
        <time>2017-06-07T09:15:52Z</time>
      </trkpt>
      <trkpt lat="45.94451" lon="4.83458">
        <ele>263</ele>
        <time>2017-06-07T09:15:53Z</time>
      </trkpt>
      <trkpt lat="45.94455" lon="4.83464">
        <ele>263</ele>
        <time>2017-06-07T09:15:54Z</time>
      </trkpt>
      <trkpt lat="45.94459" lon="4.83471">
        <ele>263</ele>
        <time>2017-06-07T09:15:55Z</time>
      </trkpt>
      <trkpt lat="45.94463" lon="4.83477">
        <ele>263</ele>
        <time>2017-06-07T09:15:56Z</time>
      </trkpt>
      <trkpt lat="45.94467" lon="4.83484">
        <ele>263</ele>
        <time>2017-06-07T09:15:57Z</time>
      </trkpt>
      <trkpt lat="45.94471" lon="4.83491">
        <ele>263</ele>
        <time>2017-06-07T09:15:58Z</time>
      </trkpt>
      <trkpt lat="45.94475" lon="4.83497">
        <ele>263</ele>
        <time>2017-06-07T09:15:59Z</time>
      </trkpt>
      <trkpt lat="45.94479" lon="4.83504">
        <ele>262</ele>
        <time>2017-06-07T09:16:00Z</time>
      </trkpt>
      <trkpt lat="45.94483" lon="4.83511">
        <ele>262</ele>
        <time>2017-06-07T09:16:01Z</time>
      </trkpt>
      <trkpt lat="45.94487" lon="4.83517">
        <ele>262</ele>
        <time>2017-06-07T09:16:02Z</time>
      </trkpt>
      <trkpt lat="45.94491" lon="4.83523">
        <ele>262</ele>
        <time>2017-06-07T09:16:03Z</time>
      </trkpt>
      <trkpt lat="45.94495" lon="4.83529">
        <ele>262</ele>
        <time>2017-06-07T09:16:04Z</time>
      </trkpt>
      <trkpt lat="45.94498" lon="4.83535">
        <ele>262</ele>
        <time>2017-06-07T09:16:05Z</time>
      </trkpt>
      <trkpt lat="45.94502" lon="4.83542">
        <ele>262</ele>
        <time>2017-06-07T09:16:06Z</time>
      </trkpt>
      <trkpt lat="45.94506" lon="4.83548">
        <ele>261</ele>
        <time>2017-06-07T09:16:07Z</time>
      </trkpt>
      <trkpt lat="45.94509" lon="4.83555">
        <ele>261</ele>
        <time>2017-06-07T09:16:08Z</time>
      </trkpt>
      <trkpt lat="45.94512" lon="4.83561">
        <ele>261</ele>
        <time>2017-06-07T09:16:09Z</time>
      </trkpt>
      <trkpt lat="45.94515" lon="4.83567">
        <ele>261</ele>
        <time>2017-06-07T09:16:10Z</time>
      </trkpt>
      <trkpt lat="45.94518" lon="4.83573">
        <ele>261</ele>
        <time>2017-06-07T09:16:11Z</time>
      </trkpt>
      <trkpt lat="45.9452" lon="4.8358">
        <ele>261</ele>
        <time>2017-06-07T09:16:12Z</time>
      </trkpt>
      <trkpt lat="45.94522" lon="4.83587">
        <ele>261</ele>
        <time>2017-06-07T09:16:13Z</time>
      </trkpt>
      <trkpt lat="45.94523" lon="4.83593">
        <ele>261</ele>
        <time>2017-06-07T09:16:14Z</time>
      </trkpt>
      <trkpt lat="45.94525" lon="4.836">
        <ele>261</ele>
        <time>2017-06-07T09:16:15Z</time>
      </trkpt>
      <trkpt lat="45.94526" lon="4.83607">
        <ele>261</ele>
        <time>2017-06-07T09:16:16Z</time>
      </trkpt>
      <trkpt lat="45.94528" lon="4.83613">
        <ele>261</ele>
        <time>2017-06-07T09:16:17Z</time>
      </trkpt>
      <trkpt lat="45.94529" lon="4.8362">
        <ele>261</ele>
        <time>2017-06-07T09:16:18Z</time>
      </trkpt>
      <trkpt lat="45.9453" lon="4.83626">
        <ele>261</ele>
        <time>2017-06-07T09:16:19Z</time>
      </trkpt>
      <trkpt lat="45.94531" lon="4.83633">
        <ele>261</ele>
        <time>2017-06-07T09:16:20Z</time>
      </trkpt>
      <trkpt lat="45.94532" lon="4.8364">
        <ele>261</ele>
        <time>2017-06-07T09:16:21Z</time>
      </trkpt>
      <trkpt lat="45.94534" lon="4.83652">
        <ele>261</ele>
        <time>2017-06-07T09:16:23Z</time>
      </trkpt>
      <trkpt lat="45.94535" lon="4.83659">
        <ele>261</ele>
        <time>2017-06-07T09:16:24Z</time>
      </trkpt>
      <trkpt lat="45.94536" lon="4.83666">
        <ele>261</ele>
        <time>2017-06-07T09:16:25Z</time>
      </trkpt>
      <trkpt lat="45.94537" lon="4.83674">
        <ele>262</ele>
        <time>2017-06-07T09:16:26Z</time>
      </trkpt>
      <trkpt lat="45.94538" lon="4.83682">
        <ele>262</ele>
        <time>2017-06-07T09:16:27Z</time>
      </trkpt>
      <trkpt lat="45.94539" lon="4.8369">
        <ele>262</ele>
        <time>2017-06-07T09:16:28Z</time>
      </trkpt>
      <trkpt lat="45.9454" lon="4.83698">
        <ele>262</ele>
        <time>2017-06-07T09:16:29Z</time>
      </trkpt>
      <trkpt lat="45.94541" lon="4.83707">
        <ele>262</ele>
        <time>2017-06-07T09:16:30Z</time>
      </trkpt>
      <trkpt lat="45.94542" lon="4.83714">
        <ele>262</ele>
        <time>2017-06-07T09:16:31Z</time>
      </trkpt>
      <trkpt lat="45.94543" lon="4.83722">
        <ele>262</ele>
        <time>2017-06-07T09:16:32Z</time>
      </trkpt>
      <trkpt lat="45.94544" lon="4.83729">
        <ele>262</ele>
        <time>2017-06-07T09:16:33Z</time>
      </trkpt>
      <trkpt lat="45.94545" lon="4.83736">
        <ele>262</ele>
        <time>2017-06-07T09:16:34Z</time>
      </trkpt>
      <trkpt lat="45.94546" lon="4.83743">
        <ele>262</ele>
        <time>2017-06-07T09:16:35Z</time>
      </trkpt>
      <trkpt lat="45.94547" lon="4.8375">
        <ele>262</ele>
        <time>2017-06-07T09:16:36Z</time>
      </trkpt>
      <trkpt lat="45.94548" lon="4.83757">
        <ele>263</ele>
        <time>2017-06-07T09:16:37Z</time>
      </trkpt>
      <trkpt lat="45.94549" lon="4.83764">
        <ele>263</ele>
        <time>2017-06-07T09:16:38Z</time>
      </trkpt>
      <trkpt lat="45.9455" lon="4.83771">
        <ele>264</ele>
        <time>2017-06-07T09:16:39Z</time>
      </trkpt>
      <trkpt lat="45.94551" lon="4.83779">
        <ele>264</ele>
        <time>2017-06-07T09:16:40Z</time>
      </trkpt>
      <trkpt lat="45.94553" lon="4.83787">
        <ele>264</ele>
        <time>2017-06-07T09:16:41Z</time>
      </trkpt>
      <trkpt lat="45.94554" lon="4.83795">
        <ele>264</ele>
        <time>2017-06-07T09:16:42Z</time>
      </trkpt>
      <trkpt lat="45.94556" lon="4.83803">
        <ele>264</ele>
        <time>2017-06-07T09:16:43Z</time>
      </trkpt>
      <trkpt lat="45.94557" lon="4.83812">
        <ele>264</ele>
        <time>2017-06-07T09:16:44Z</time>
      </trkpt>
      <trkpt lat="45.94559" lon="4.8382">
        <ele>264</ele>
        <time>2017-06-07T09:16:45Z</time>
      </trkpt>
      <trkpt lat="45.9456" lon="4.83829">
        <ele>265</ele>
        <time>2017-06-07T09:16:46Z</time>
      </trkpt>
      <trkpt lat="45.94561" lon="4.83837">
        <ele>266</ele>
        <time>2017-06-07T09:16:47Z</time>
      </trkpt>
      <trkpt lat="45.94562" lon="4.83844">
        <ele>266</ele>
        <time>2017-06-07T09:16:48Z</time>
      </trkpt>
      <trkpt lat="45.94563" lon="4.83851">
        <ele>266</ele>
        <time>2017-06-07T09:16:49Z</time>
      </trkpt>
      <trkpt lat="45.94564" lon="4.83858">
        <ele>267</ele>
        <time>2017-06-07T09:16:50Z</time>
      </trkpt>
      <trkpt lat="45.94565" lon="4.83864">
        <ele>267</ele>
        <time>2017-06-07T09:16:51Z</time>
      </trkpt>
      <trkpt lat="45.94566" lon="4.83871">
        <ele>267</ele>
        <time>2017-06-07T09:16:52Z</time>
      </trkpt>
      <trkpt lat="45.94568" lon="4.83878">
        <ele>267</ele>
        <time>2017-06-07T09:16:53Z</time>
      </trkpt>
      <trkpt lat="45.94569" lon="4.83884">
        <ele>267</ele>
        <time>2017-06-07T09:16:54Z</time>
      </trkpt>
      <trkpt lat="45.9457" lon="4.83891">
        <ele>267</ele>
        <time>2017-06-07T09:16:55Z</time>
      </trkpt>
      <trkpt lat="45.94571" lon="4.83899">
        <ele>268</ele>
        <time>2017-06-07T09:16:56Z</time>
      </trkpt>
      <trkpt lat="45.94572" lon="4.83906">
        <ele>268</ele>
        <time>2017-06-07T09:16:57Z</time>
      </trkpt>
      <trkpt lat="45.94574" lon="4.83913">
        <ele>268</ele>
        <time>2017-06-07T09:16:58Z</time>
      </trkpt>
      <trkpt lat="45.94575" lon="4.83921">
        <ele>268</ele>
        <time>2017-06-07T09:16:59Z</time>
      </trkpt>
      <trkpt lat="45.94577" lon="4.83929">
        <ele>268</ele>
        <time>2017-06-07T09:17:00Z</time>
      </trkpt>
      <trkpt lat="45.94578" lon="4.83937">
        <ele>269</ele>
        <time>2017-06-07T09:17:01Z</time>
      </trkpt>
      <trkpt lat="45.94579" lon="4.83945">
        <ele>269</ele>
        <time>2017-06-07T09:17:02Z</time>
      </trkpt>
      <trkpt lat="45.9458" lon="4.83953">
        <ele>269</ele>
        <time>2017-06-07T09:17:03Z</time>
      </trkpt>
      <trkpt lat="45.94581" lon="4.83962">
        <ele>269</ele>
        <time>2017-06-07T09:17:04Z</time>
      </trkpt>
      <trkpt lat="45.94583" lon="4.83969">
        <ele>269</ele>
        <time>2017-06-07T09:17:05Z</time>
      </trkpt>
      <trkpt lat="45.94584" lon="4.83976">
        <ele>268</ele>
        <time>2017-06-07T09:17:06Z</time>
      </trkpt>
      <trkpt lat="45.94585" lon="4.83983">
        <ele>269</ele>
        <time>2017-06-07T09:17:07Z</time>
      </trkpt>
      <trkpt lat="45.94587" lon="4.8399">
        <ele>269</ele>
        <time>2017-06-07T09:17:08Z</time>
      </trkpt>
      <trkpt lat="45.94588" lon="4.83997">
        <ele>269</ele>
        <time>2017-06-07T09:17:09Z</time>
      </trkpt>
      <trkpt lat="45.94589" lon="4.84003">
        <ele>269</ele>
        <time>2017-06-07T09:17:10Z</time>
      </trkpt>
      <trkpt lat="45.9459" lon="4.84015">
        <ele>269</ele>
        <time>2017-06-07T09:17:12Z</time>
      </trkpt>
      <trkpt lat="45.94591" lon="4.84021">
        <ele>269</ele>
        <time>2017-06-07T09:17:13Z</time>
      </trkpt>
      <trkpt lat="45.94593" lon="4.84032">
        <ele>269</ele>
        <time>2017-06-07T09:17:15Z</time>
      </trkpt>
      <trkpt lat="45.94594" lon="4.84038">
        <ele>269</ele>
        <time>2017-06-07T09:17:16Z</time>
      </trkpt>
      <trkpt lat="45.94596" lon="4.84049">
        <ele>269</ele>
        <time>2017-06-07T09:17:18Z</time>
      </trkpt>
      <trkpt lat="45.94597" lon="4.84055">
        <ele>269</ele>
        <time>2017-06-07T09:17:19Z</time>
      </trkpt>
      <trkpt lat="45.94598" lon="4.84065">
        <ele>269</ele>
        <time>2017-06-07T09:17:21Z</time>
      </trkpt>
      <trkpt lat="45.94599" lon="4.84071">
        <ele>269</ele>
        <time>2017-06-07T09:17:22Z</time>
      </trkpt>
      <trkpt lat="45.94601" lon="4.84082">
        <ele>269</ele>
        <time>2017-06-07T09:17:24Z</time>
      </trkpt>
      <trkpt lat="45.94602" lon="4.84088">
        <ele>269</ele>
        <time>2017-06-07T09:17:25Z</time>
      </trkpt>
      <trkpt lat="45.94605" lon="4.841">
        <ele>269</ele>
        <time>2017-06-07T09:17:27Z</time>
      </trkpt>
      <trkpt lat="45.94606" lon="4.84106">
        <ele>269</ele>
        <time>2017-06-07T09:17:28Z</time>
      </trkpt>
      <trkpt lat="45.94607" lon="4.84117">
        <ele>269</ele>
        <time>2017-06-07T09:17:30Z</time>
      </trkpt>
      <trkpt lat="45.94608" lon="4.84122">
        <ele>269</ele>
        <time>2017-06-07T09:17:31Z</time>
      </trkpt>
      <trkpt lat="45.94609" lon="4.84135">
        <ele>269</ele>
        <time>2017-06-07T09:17:33Z</time>
      </trkpt>
      <trkpt lat="45.9461" lon="4.84142">
        <ele>269</ele>
        <time>2017-06-07T09:17:34Z</time>
      </trkpt>
      <trkpt lat="45.94611" lon="4.84149">
        <ele>269</ele>
        <time>2017-06-07T09:17:35Z</time>
      </trkpt>
      <trkpt lat="45.94611" lon="4.84156">
        <ele>269</ele>
        <time>2017-06-07T09:17:36Z</time>
      </trkpt>
      <trkpt lat="45.94613" lon="4.84163">
        <ele>269</ele>
        <time>2017-06-07T09:17:37Z</time>
      </trkpt>
      <trkpt lat="45.94614" lon="4.8417">
        <ele>269</ele>
        <time>2017-06-07T09:17:38Z</time>
      </trkpt>
      <trkpt lat="45.94616" lon="4.84182">
        <ele>269</ele>
        <time>2017-06-07T09:17:40Z</time>
      </trkpt>
      <trkpt lat="45.94617" lon="4.84187">
        <ele>269</ele>
        <time>2017-06-07T09:17:41Z</time>
      </trkpt>
      <trkpt lat="45.94619" lon="4.84199">
        <ele>269</ele>
        <time>2017-06-07T09:17:43Z</time>
      </trkpt>
      <trkpt lat="45.9462" lon="4.84205">
        <ele>269</ele>
        <time>2017-06-07T09:17:44Z</time>
      </trkpt>
      <trkpt lat="45.94621" lon="4.84211">
        <ele>269</ele>
        <time>2017-06-07T09:17:45Z</time>
      </trkpt>
      <trkpt lat="45.94622" lon="4.84218">
        <ele>269</ele>
        <time>2017-06-07T09:17:46Z</time>
      </trkpt>
      <trkpt lat="45.94623" lon="4.84225">
        <ele>269</ele>
        <time>2017-06-07T09:17:47Z</time>
      </trkpt>
      <trkpt lat="45.94624" lon="4.84232">
        <ele>269</ele>
        <time>2017-06-07T09:17:48Z</time>
      </trkpt>
      <trkpt lat="45.94625" lon="4.8424">
        <ele>269</ele>
        <time>2017-06-07T09:17:49Z</time>
      </trkpt>
      <trkpt lat="45.94626" lon="4.84247">
        <ele>269</ele>
        <time>2017-06-07T09:17:50Z</time>
      </trkpt>
      <trkpt lat="45.94627" lon="4.84254">
        <ele>269</ele>
        <time>2017-06-07T09:17:51Z</time>
      </trkpt>
      <trkpt lat="45.94628" lon="4.84261">
        <ele>269</ele>
        <time>2017-06-07T09:17:52Z</time>
      </trkpt>
      <trkpt lat="45.94629" lon="4.84268">
        <ele>269</ele>
        <time>2017-06-07T09:17:53Z</time>
      </trkpt>
      <trkpt lat="45.9463" lon="4.84275">
        <ele>269</ele>
        <time>2017-06-07T09:17:54Z</time>
      </trkpt>
      <trkpt lat="45.94632" lon="4.84287">
        <ele>269</ele>
        <time>2017-06-07T09:17:56Z</time>
      </trkpt>
      <trkpt lat="45.94633" lon="4.84293">
        <ele>269</ele>
        <time>2017-06-07T09:17:57Z</time>
      </trkpt>
      <trkpt lat="45.94634" lon="4.843">
        <ele>269</ele>
        <time>2017-06-07T09:17:58Z</time>
      </trkpt>
      <trkpt lat="45.94635" lon="4.84306">
        <ele>269</ele>
        <time>2017-06-07T09:17:59Z</time>
      </trkpt>
      <trkpt lat="45.94636" lon="4.84313">
        <ele>269</ele>
        <time>2017-06-07T09:18:00Z</time>
      </trkpt>
      <trkpt lat="45.94637" lon="4.8432">
        <ele>269</ele>
        <time>2017-06-07T09:18:01Z</time>
      </trkpt>
      <trkpt lat="45.94638" lon="4.84332">
        <ele>269</ele>
        <time>2017-06-07T09:18:03Z</time>
      </trkpt>
      <trkpt lat="45.94639" lon="4.84338">
        <ele>268</ele>
        <time>2017-06-07T09:18:04Z</time>
      </trkpt>
      <trkpt lat="45.94639" lon="4.84349">
        <ele>268</ele>
        <time>2017-06-07T09:18:06Z</time>
      </trkpt>
      <trkpt lat="45.9464" lon="4.84355">
        <ele>268</ele>
        <time>2017-06-07T09:18:07Z</time>
      </trkpt>
      <trkpt lat="45.94641" lon="4.84362">
        <ele>268</ele>
        <time>2017-06-07T09:18:08Z</time>
      </trkpt>
      <trkpt lat="45.94641" lon="4.84369">
        <ele>268</ele>
        <time>2017-06-07T09:18:09Z</time>
      </trkpt>
      <trkpt lat="45.94642" lon="4.84376">
        <ele>268</ele>
        <time>2017-06-07T09:18:10Z</time>
      </trkpt>
      <trkpt lat="45.94644" lon="4.84384">
        <ele>268</ele>
        <time>2017-06-07T09:18:11Z</time>
      </trkpt>
      <trkpt lat="45.94645" lon="4.84393">
        <ele>268</ele>
        <time>2017-06-07T09:18:12Z</time>
      </trkpt>
      <trkpt lat="45.94646" lon="4.84401">
        <ele>268</ele>
        <time>2017-06-07T09:18:13Z</time>
      </trkpt>
      <trkpt lat="45.94647" lon="4.84409">
        <ele>268</ele>
        <time>2017-06-07T09:18:14Z</time>
      </trkpt>
      <trkpt lat="45.94647" lon="4.84417">
        <ele>268</ele>
        <time>2017-06-07T09:18:15Z</time>
      </trkpt>
      <trkpt lat="45.94648" lon="4.84425">
        <ele>268</ele>
        <time>2017-06-07T09:18:16Z</time>
      </trkpt>
      <trkpt lat="45.94649" lon="4.84432">
        <ele>268</ele>
        <time>2017-06-07T09:18:17Z</time>
      </trkpt>
      <trkpt lat="45.9465" lon="4.8444">
        <ele>268</ele>
        <time>2017-06-07T09:18:18Z</time>
      </trkpt>
      <trkpt lat="45.94651" lon="4.84447">
        <ele>268</ele>
        <time>2017-06-07T09:18:19Z</time>
      </trkpt>
      <trkpt lat="45.94651" lon="4.84454">
        <ele>268</ele>
        <time>2017-06-07T09:18:20Z</time>
      </trkpt>
      <trkpt lat="45.94652" lon="4.84461">
        <ele>268</ele>
        <time>2017-06-07T09:18:21Z</time>
      </trkpt>
      <trkpt lat="45.94653" lon="4.84468">
        <ele>268</ele>
        <time>2017-06-07T09:18:22Z</time>
      </trkpt>
      <trkpt lat="45.94654" lon="4.84476">
        <ele>268</ele>
        <time>2017-06-07T09:18:23Z</time>
      </trkpt>
      <trkpt lat="45.94655" lon="4.84484">
        <ele>268</ele>
        <time>2017-06-07T09:18:24Z</time>
      </trkpt>
      <trkpt lat="45.94655" lon="4.84492">
        <ele>268</ele>
        <time>2017-06-07T09:18:25Z</time>
      </trkpt>
      <trkpt lat="45.94656" lon="4.845">
        <ele>268</ele>
        <time>2017-06-07T09:18:26Z</time>
      </trkpt>
      <trkpt lat="45.94657" lon="4.84509">
        <ele>268</ele>
        <time>2017-06-07T09:18:27Z</time>
      </trkpt>
      <trkpt lat="45.94658" lon="4.84516">
        <ele>268</ele>
        <time>2017-06-07T09:18:28Z</time>
      </trkpt>
      <trkpt lat="45.94659" lon="4.84525">
        <ele>268</ele>
        <time>2017-06-07T09:18:29Z</time>
      </trkpt>
      <trkpt lat="45.94659" lon="4.84533">
        <ele>268</ele>
        <time>2017-06-07T09:18:30Z</time>
      </trkpt>
      <trkpt lat="45.9466" lon="4.84541">
        <ele>268</ele>
        <time>2017-06-07T09:18:31Z</time>
      </trkpt>
      <trkpt lat="45.94661" lon="4.84549">
        <ele>268</ele>
        <time>2017-06-07T09:18:32Z</time>
      </trkpt>
      <trkpt lat="45.94661" lon="4.84557">
        <ele>268</ele>
        <time>2017-06-07T09:18:33Z</time>
      </trkpt>
      <trkpt lat="45.94662" lon="4.84565">
        <ele>268</ele>
        <time>2017-06-07T09:18:34Z</time>
      </trkpt>
      <trkpt lat="45.94662" lon="4.84572">
        <ele>268</ele>
        <time>2017-06-07T09:18:35Z</time>
      </trkpt>
      <trkpt lat="45.94663" lon="4.8458">
        <ele>268</ele>
        <time>2017-06-07T09:18:36Z</time>
      </trkpt>
      <trkpt lat="45.94664" lon="4.84587">
        <ele>268</ele>
        <time>2017-06-07T09:18:37Z</time>
      </trkpt>
      <trkpt lat="45.94664" lon="4.84594">
        <ele>268</ele>
        <time>2017-06-07T09:18:38Z</time>
      </trkpt>
      <trkpt lat="45.94665" lon="4.84602">
        <ele>268</ele>
        <time>2017-06-07T09:18:39Z</time>
      </trkpt>
      <trkpt lat="45.94665" lon="4.84609">
        <ele>268</ele>
        <time>2017-06-07T09:18:40Z</time>
      </trkpt>
      <trkpt lat="45.94666" lon="4.84617">
        <ele>268</ele>
        <time>2017-06-07T09:18:41Z</time>
      </trkpt>
      <trkpt lat="45.94666" lon="4.84624">
        <ele>268</ele>
        <time>2017-06-07T09:18:42Z</time>
      </trkpt>
      <trkpt lat="45.94666" lon="4.84632">
        <ele>268</ele>
        <time>2017-06-07T09:18:43Z</time>
      </trkpt>
      <trkpt lat="45.94666" lon="4.8464">
        <ele>268</ele>
        <time>2017-06-07T09:18:44Z</time>
      </trkpt>
      <trkpt lat="45.94666" lon="4.84648">
        <ele>268</ele>
        <time>2017-06-07T09:18:45Z</time>
      </trkpt>
      <trkpt lat="45.94666" lon="4.84657">
        <ele>269</ele>
        <time>2017-06-07T09:18:46Z</time>
      </trkpt>
      <trkpt lat="45.94667" lon="4.84665">
        <ele>269</ele>
        <time>2017-06-07T09:18:47Z</time>
      </trkpt>
      <trkpt lat="45.94667" lon="4.84672">
        <ele>269</ele>
        <time>2017-06-07T09:18:48Z</time>
      </trkpt>
      <trkpt lat="45.94667" lon="4.8468">
        <ele>269</ele>
        <time>2017-06-07T09:18:49Z</time>
      </trkpt>
      <trkpt lat="45.94667" lon="4.84688">
        <ele>269</ele>
        <time>2017-06-07T09:18:50Z</time>
      </trkpt>
      <trkpt lat="45.94668" lon="4.84695">
        <ele>269</ele>
        <time>2017-06-07T09:18:51Z</time>
      </trkpt>
      <trkpt lat="45.94668" lon="4.84703">
        <ele>269</ele>
        <time>2017-06-07T09:18:52Z</time>
      </trkpt>
      <trkpt lat="45.94668" lon="4.8471">
        <ele>269</ele>
        <time>2017-06-07T09:18:53Z</time>
      </trkpt>
      <trkpt lat="45.94669" lon="4.84717">
        <ele>269</ele>
        <time>2017-06-07T09:18:54Z</time>
      </trkpt>
      <trkpt lat="45.94669" lon="4.84723">
        <ele>269</ele>
        <time>2017-06-07T09:18:55Z</time>
      </trkpt>
      <trkpt lat="45.94669" lon="4.8473">
        <ele>269</ele>
        <time>2017-06-07T09:18:56Z</time>
      </trkpt>
      <trkpt lat="45.9467" lon="4.84737">
        <ele>269</ele>
        <time>2017-06-07T09:18:57Z</time>
      </trkpt>
      <trkpt lat="45.9467" lon="4.84749">
        <ele>269</ele>
        <time>2017-06-07T09:18:59Z</time>
      </trkpt>
      <trkpt lat="45.94671" lon="4.84755">
        <ele>269</ele>
        <time>2017-06-07T09:19:00Z</time>
      </trkpt>
      <trkpt lat="45.94671" lon="4.84762">
        <ele>269</ele>
        <time>2017-06-07T09:19:01Z</time>
      </trkpt>
      <trkpt lat="45.94672" lon="4.84768">
        <ele>269</ele>
        <time>2017-06-07T09:19:02Z</time>
      </trkpt>
      <trkpt lat="45.94672" lon="4.84775">
        <ele>269</ele>
        <time>2017-06-07T09:19:03Z</time>
      </trkpt>
      <trkpt lat="45.94672" lon="4.84782">
        <ele>269</ele>
        <time>2017-06-07T09:19:04Z</time>
      </trkpt>
      <trkpt lat="45.94673" lon="4.84788">
        <ele>269</ele>
        <time>2017-06-07T09:19:05Z</time>
      </trkpt>
      <trkpt lat="45.94673" lon="4.84795">
        <ele>268</ele>
        <time>2017-06-07T09:19:06Z</time>
      </trkpt>
      <trkpt lat="45.94674" lon="4.84807">
        <ele>268</ele>
        <time>2017-06-07T09:19:08Z</time>
      </trkpt>
      <trkpt lat="45.94675" lon="4.84814">
        <ele>268</ele>
        <time>2017-06-07T09:19:09Z</time>
      </trkpt>
      <trkpt lat="45.94675" lon="4.84821">
        <ele>268</ele>
        <time>2017-06-07T09:19:10Z</time>
      </trkpt>
      <trkpt lat="45.94676" lon="4.84829">
        <ele>268</ele>
        <time>2017-06-07T09:19:11Z</time>
      </trkpt>
      <trkpt lat="45.94676" lon="4.84837">
        <ele>268</ele>
        <time>2017-06-07T09:19:12Z</time>
      </trkpt>
      <trkpt lat="45.94677" lon="4.84845">
        <ele>268</ele>
        <time>2017-06-07T09:19:13Z</time>
      </trkpt>
      <trkpt lat="45.94678" lon="4.84854">
        <ele>268</ele>
        <time>2017-06-07T09:19:14Z</time>
      </trkpt>
      <trkpt lat="45.94678" lon="4.84863">
        <ele>268</ele>
        <time>2017-06-07T09:19:15Z</time>
      </trkpt>
      <trkpt lat="45.94679" lon="4.84871">
        <ele>268</ele>
        <time>2017-06-07T09:19:16Z</time>
      </trkpt>
      <trkpt lat="45.9468" lon="4.8488">
        <ele>268</ele>
        <time>2017-06-07T09:19:17Z</time>
      </trkpt>
      <trkpt lat="45.9468" lon="4.84888">
        <ele>268</ele>
        <time>2017-06-07T09:19:18Z</time>
      </trkpt>
      <trkpt lat="45.94681" lon="4.84896">
        <ele>268</ele>
        <time>2017-06-07T09:19:19Z</time>
      </trkpt>
      <trkpt lat="45.94682" lon="4.84904">
        <ele>269</ele>
        <time>2017-06-07T09:19:20Z</time>
      </trkpt>
      <trkpt lat="45.94682" lon="4.84912">
        <ele>269</ele>
        <time>2017-06-07T09:19:21Z</time>
      </trkpt>
      <trkpt lat="45.94683" lon="4.84919">
        <ele>269</ele>
        <time>2017-06-07T09:19:22Z</time>
      </trkpt>
      <trkpt lat="45.94684" lon="4.84926">
        <ele>269</ele>
        <time>2017-06-07T09:19:23Z</time>
      </trkpt>
      <trkpt lat="45.94685" lon="4.84932">
        <ele>269</ele>
        <time>2017-06-07T09:19:24Z</time>
      </trkpt>
      <trkpt lat="45.94686" lon="4.84939">
        <ele>269</ele>
        <time>2017-06-07T09:19:25Z</time>
      </trkpt>
      <trkpt lat="45.94686" lon="4.84946">
        <ele>269</ele>
        <time>2017-06-07T09:19:26Z</time>
      </trkpt>
      <trkpt lat="45.94688" lon="4.84952">
        <ele>269</ele>
        <time>2017-06-07T09:19:27Z</time>
      </trkpt>
      <trkpt lat="45.94689" lon="4.84959">
        <ele>269</ele>
        <time>2017-06-07T09:19:28Z</time>
      </trkpt>
      <trkpt lat="45.9469" lon="4.84966">
        <ele>269</ele>
        <time>2017-06-07T09:19:29Z</time>
      </trkpt>
      <trkpt lat="45.94691" lon="4.84973">
        <ele>269</ele>
        <time>2017-06-07T09:19:30Z</time>
      </trkpt>
      <trkpt lat="45.94691" lon="4.84981">
        <ele>269</ele>
        <time>2017-06-07T09:19:31Z</time>
      </trkpt>
      <trkpt lat="45.94692" lon="4.84989">
        <ele>269</ele>
        <time>2017-06-07T09:19:32Z</time>
      </trkpt>
      <trkpt lat="45.94693" lon="4.84997">
        <ele>269</ele>
        <time>2017-06-07T09:19:33Z</time>
      </trkpt>
      <trkpt lat="45.94694" lon="4.85006">
        <ele>269</ele>
        <time>2017-06-07T09:19:34Z</time>
      </trkpt>
      <trkpt lat="45.94695" lon="4.85015">
        <ele>269</ele>
        <time>2017-06-07T09:19:35Z</time>
      </trkpt>
      <trkpt lat="45.94696" lon="4.85025">
        <ele>269</ele>
        <time>2017-06-07T09:19:36Z</time>
      </trkpt>
      <trkpt lat="45.94697" lon="4.85034">
        <ele>269</ele>
        <time>2017-06-07T09:19:37Z</time>
      </trkpt>
      <trkpt lat="45.94698" lon="4.85043">
        <ele>269</ele>
        <time>2017-06-07T09:19:38Z</time>
      </trkpt>
      <trkpt lat="45.94698" lon="4.85052">
        <ele>269</ele>
        <time>2017-06-07T09:19:39Z</time>
      </trkpt>
      <trkpt lat="45.94699" lon="4.85061">
        <ele>269</ele>
        <time>2017-06-07T09:19:40Z</time>
      </trkpt>
      <trkpt lat="45.947" lon="4.85069">
        <ele>269</ele>
        <time>2017-06-07T09:19:41Z</time>
      </trkpt>
      <trkpt lat="45.94701" lon="4.85077">
        <ele>269</ele>
        <time>2017-06-07T09:19:42Z</time>
      </trkpt>
      <trkpt lat="45.94702" lon="4.85085">
        <ele>269</ele>
        <time>2017-06-07T09:19:43Z</time>
      </trkpt>
      <trkpt lat="45.94702" lon="4.85092">
        <ele>269</ele>
        <time>2017-06-07T09:19:44Z</time>
      </trkpt>
      <trkpt lat="45.94703" lon="4.85098">
        <ele>269</ele>
        <time>2017-06-07T09:19:45Z</time>
      </trkpt>
      <trkpt lat="45.94705" lon="4.8511">
        <ele>269</ele>
        <time>2017-06-07T09:19:47Z</time>
      </trkpt>
      <trkpt lat="45.94706" lon="4.85117">
        <ele>269</ele>
        <time>2017-06-07T09:19:48Z</time>
      </trkpt>
      <trkpt lat="45.94707" lon="4.85129">
        <ele>269</ele>
        <time>2017-06-07T09:19:50Z</time>
      </trkpt>
      <trkpt lat="45.94708" lon="4.85136">
        <ele>269</ele>
        <time>2017-06-07T09:19:51Z</time>
      </trkpt>
      <trkpt lat="45.94709" lon="4.85143">
        <ele>269</ele>
        <time>2017-06-07T09:19:52Z</time>
      </trkpt>
      <trkpt lat="45.9471" lon="4.8515">
        <ele>269</ele>
        <time>2017-06-07T09:19:53Z</time>
      </trkpt>
      <trkpt lat="45.94711" lon="4.85157">
        <ele>269</ele>
        <time>2017-06-07T09:19:54Z</time>
      </trkpt>
      <trkpt lat="45.94711" lon="4.85165">
        <ele>269</ele>
        <time>2017-06-07T09:19:55Z</time>
      </trkpt>
      <trkpt lat="45.94712" lon="4.85173">
        <ele>269</ele>
        <time>2017-06-07T09:19:56Z</time>
      </trkpt>
      <trkpt lat="45.94713" lon="4.85181">
        <ele>269</ele>
        <time>2017-06-07T09:19:57Z</time>
      </trkpt>
      <trkpt lat="45.94714" lon="4.85189">
        <ele>269</ele>
        <time>2017-06-07T09:19:58Z</time>
      </trkpt>
      <trkpt lat="45.94715" lon="4.85198">
        <ele>269</ele>
        <time>2017-06-07T09:19:59Z</time>
      </trkpt>
      <trkpt lat="45.94716" lon="4.85207">
        <ele>269</ele>
        <time>2017-06-07T09:20:00Z</time>
      </trkpt>
      <trkpt lat="45.94717" lon="4.85215">
        <ele>269</ele>
        <time>2017-06-07T09:20:01Z</time>
      </trkpt>
      <trkpt lat="45.94718" lon="4.85223">
        <ele>269</ele>
        <time>2017-06-07T09:20:02Z</time>
      </trkpt>
      <trkpt lat="45.94719" lon="4.85231">
        <ele>269</ele>
        <time>2017-06-07T09:20:03Z</time>
      </trkpt>
      <trkpt lat="45.94719" lon="4.85239">
        <ele>269</ele>
        <time>2017-06-07T09:20:04Z</time>
      </trkpt>
      <trkpt lat="45.9472" lon="4.85246">
        <ele>269</ele>
        <time>2017-06-07T09:20:05Z</time>
      </trkpt>
      <trkpt lat="45.9472" lon="4.85253">
        <ele>269</ele>
        <time>2017-06-07T09:20:06Z</time>
      </trkpt>
      <trkpt lat="45.94721" lon="4.8526">
        <ele>269</ele>
        <time>2017-06-07T09:20:07Z</time>
      </trkpt>
      <trkpt lat="45.94722" lon="4.85267">
        <ele>269</ele>
        <time>2017-06-07T09:20:08Z</time>
      </trkpt>
      <trkpt lat="45.94722" lon="4.85273">
        <ele>269</ele>
        <time>2017-06-07T09:20:09Z</time>
      </trkpt>
      <trkpt lat="45.94723" lon="4.8528">
        <ele>269</ele>
        <time>2017-06-07T09:20:10Z</time>
      </trkpt>
      <trkpt lat="45.94724" lon="4.85288">
        <ele>269</ele>
        <time>2017-06-07T09:20:11Z</time>
      </trkpt>
      <trkpt lat="45.94724" lon="4.85296">
        <ele>270</ele>
        <time>2017-06-07T09:20:12Z</time>
      </trkpt>
      <trkpt lat="45.94725" lon="4.85303">
        <ele>270</ele>
        <time>2017-06-07T09:20:13Z</time>
      </trkpt>
      <trkpt lat="45.94726" lon="4.85311">
        <ele>270</ele>
        <time>2017-06-07T09:20:14Z</time>
      </trkpt>
      <trkpt lat="45.94726" lon="4.85319">
        <ele>270</ele>
        <time>2017-06-07T09:20:15Z</time>
      </trkpt>
      <trkpt lat="45.94727" lon="4.85326">
        <ele>270</ele>
        <time>2017-06-07T09:20:16Z</time>
      </trkpt>
      <trkpt lat="45.94728" lon="4.85332">
        <ele>270</ele>
        <time>2017-06-07T09:20:17Z</time>
      </trkpt>
      <trkpt lat="45.94729" lon="4.85339">
        <ele>271</ele>
        <time>2017-06-07T09:20:18Z</time>
      </trkpt>
      <trkpt lat="45.94729" lon="4.85346">
        <ele>271</ele>
        <time>2017-06-07T09:20:19Z</time>
      </trkpt>
      <trkpt lat="45.94731" lon="4.85358">
        <ele>271</ele>
        <time>2017-06-07T09:20:21Z</time>
      </trkpt>
      <trkpt lat="45.94731" lon="4.85363">
        <ele>271</ele>
        <time>2017-06-07T09:20:22Z</time>
      </trkpt>
      <trkpt lat="45.94732" lon="4.85369">
        <ele>271</ele>
        <time>2017-06-07T09:20:23Z</time>
      </trkpt>
      <trkpt lat="45.94733" lon="4.85376">
        <ele>271</ele>
        <time>2017-06-07T09:20:24Z</time>
      </trkpt>
      <trkpt lat="45.94734" lon="4.85383">
        <ele>272</ele>
        <time>2017-06-07T09:20:25Z</time>
      </trkpt>
      <trkpt lat="45.94735" lon="4.85391">
        <ele>272</ele>
        <time>2017-06-07T09:20:26Z</time>
      </trkpt>
      <trkpt lat="45.94735" lon="4.85399">
        <ele>272</ele>
        <time>2017-06-07T09:20:27Z</time>
      </trkpt>
      <trkpt lat="45.94736" lon="4.85407">
        <ele>272</ele>
        <time>2017-06-07T09:20:28Z</time>
      </trkpt>
      <trkpt lat="45.94737" lon="4.85414">
        <ele>272</ele>
        <time>2017-06-07T09:20:29Z</time>
      </trkpt>
      <trkpt lat="45.94738" lon="4.85421">
        <ele>273</ele>
        <time>2017-06-07T09:20:30Z</time>
      </trkpt>
      <trkpt lat="45.9474" lon="4.85434">
        <ele>273</ele>
        <time>2017-06-07T09:20:32Z</time>
      </trkpt>
      <trkpt lat="45.9474" lon="4.8544">
        <ele>274</ele>
        <time>2017-06-07T09:20:33Z</time>
      </trkpt>
      <trkpt lat="45.94742" lon="4.85452">
        <ele>274</ele>
        <time>2017-06-07T09:20:35Z</time>
      </trkpt>
      <trkpt lat="45.94742" lon="4.85459">
        <ele>274</ele>
        <time>2017-06-07T09:20:36Z</time>
      </trkpt>
      <trkpt lat="45.94743" lon="4.85466">
        <ele>274</ele>
        <time>2017-06-07T09:20:37Z</time>
      </trkpt>
      <trkpt lat="45.94744" lon="4.85473">
        <ele>274</ele>
        <time>2017-06-07T09:20:38Z</time>
      </trkpt>
      <trkpt lat="45.94744" lon="4.8548">
        <ele>275</ele>
        <time>2017-06-07T09:20:39Z</time>
      </trkpt>
      <trkpt lat="45.94746" lon="4.85487">
        <ele>275</ele>
        <time>2017-06-07T09:20:40Z</time>
      </trkpt>
      <trkpt lat="45.94747" lon="4.85495">
        <ele>276</ele>
        <time>2017-06-07T09:20:41Z</time>
      </trkpt>
      <trkpt lat="45.94748" lon="4.85503">
        <ele>276</ele>
        <time>2017-06-07T09:20:42Z</time>
      </trkpt>
      <trkpt lat="45.9475" lon="4.8551">
        <ele>276</ele>
        <time>2017-06-07T09:20:43Z</time>
      </trkpt>
      <trkpt lat="45.94751" lon="4.85517">
        <ele>277</ele>
        <time>2017-06-07T09:20:44Z</time>
      </trkpt>
      <trkpt lat="45.94753" lon="4.85524">
        <ele>277</ele>
        <time>2017-06-07T09:20:45Z</time>
      </trkpt>
      <trkpt lat="45.94754" lon="4.85532">
        <ele>278</ele>
        <time>2017-06-07T09:20:46Z</time>
      </trkpt>
      <trkpt lat="45.94754" lon="4.8554">
        <ele>278</ele>
        <time>2017-06-07T09:20:47Z</time>
      </trkpt>
      <trkpt lat="45.94755" lon="4.85547">
        <ele>278</ele>
        <time>2017-06-07T09:20:48Z</time>
      </trkpt>
      <trkpt lat="45.94758" lon="4.85558">
        <ele>278</ele>
        <time>2017-06-07T09:20:50Z</time>
      </trkpt>
      <trkpt lat="45.94759" lon="4.85564">
        <ele>279</ele>
        <time>2017-06-07T09:20:51Z</time>
      </trkpt>
      <trkpt lat="45.9476" lon="4.8557">
        <ele>279</ele>
        <time>2017-06-07T09:20:52Z</time>
      </trkpt>
      <trkpt lat="45.94761" lon="4.85577">
        <ele>279</ele>
        <time>2017-06-07T09:20:53Z</time>
      </trkpt>
      <trkpt lat="45.94762" lon="4.85583">
        <ele>279</ele>
        <time>2017-06-07T09:20:54Z</time>
      </trkpt>
      <trkpt lat="45.94763" lon="4.8559">
        <ele>280</ele>
        <time>2017-06-07T09:20:55Z</time>
      </trkpt>
      <trkpt lat="45.94764" lon="4.85597">
        <ele>280</ele>
        <time>2017-06-07T09:20:56Z</time>
      </trkpt>
      <trkpt lat="45.94766" lon="4.85604">
        <ele>280</ele>
        <time>2017-06-07T09:20:57Z</time>
      </trkpt>
      <trkpt lat="45.94767" lon="4.85611">
        <ele>280</ele>
        <time>2017-06-07T09:20:58Z</time>
      </trkpt>
      <trkpt lat="45.94769" lon="4.85618">
        <ele>280</ele>
        <time>2017-06-07T09:20:59Z</time>
      </trkpt>
      <trkpt lat="45.9477" lon="4.85625">
        <ele>280</ele>
        <time>2017-06-07T09:21:00Z</time>
      </trkpt>
      <trkpt lat="45.94772" lon="4.85632">
        <ele>280</ele>
        <time>2017-06-07T09:21:01Z</time>
      </trkpt>
      <trkpt lat="45.94775" lon="4.85642">
        <ele>281</ele>
        <time>2017-06-07T09:21:03Z</time>
      </trkpt>
      <trkpt lat="45.94776" lon="4.85648">
        <ele>281</ele>
        <time>2017-06-07T09:21:04Z</time>
      </trkpt>
      <trkpt lat="45.94778" lon="4.85657">
        <ele>281</ele>
        <time>2017-06-07T09:21:06Z</time>
      </trkpt>
      <trkpt lat="45.94779" lon="4.85662">
        <ele>281</ele>
        <time>2017-06-07T09:21:07Z</time>
      </trkpt>
      <trkpt lat="45.94781" lon="4.8567">
        <ele>280</ele>
        <time>2017-06-07T09:21:09Z</time>
      </trkpt>
      <trkpt lat="45.94783" lon="4.85675">
        <ele>280</ele>
        <time>2017-06-07T09:21:10Z</time>
      </trkpt>
      <trkpt lat="45.94786" lon="4.85685">
        <ele>280</ele>
        <time>2017-06-07T09:21:12Z</time>
      </trkpt>
      <trkpt lat="45.94787" lon="4.85691">
        <ele>280</ele>
        <time>2017-06-07T09:21:13Z</time>
      </trkpt>
      <trkpt lat="45.94791" lon="4.85702">
        <ele>280</ele>
        <time>2017-06-07T09:21:15Z</time>
      </trkpt>
      <trkpt lat="45.94792" lon="4.85708">
        <ele>280</ele>
        <time>2017-06-07T09:21:16Z</time>
      </trkpt>
      <trkpt lat="45.94794" lon="4.85715">
        <ele>280</ele>
        <time>2017-06-07T09:21:17Z</time>
      </trkpt>
      <trkpt lat="45.94795" lon="4.85721">
        <ele>280</ele>
        <time>2017-06-07T09:21:18Z</time>
      </trkpt>
      <trkpt lat="45.94796" lon="4.85728">
        <ele>280</ele>
        <time>2017-06-07T09:21:19Z</time>
      </trkpt>
      <trkpt lat="45.94798" lon="4.85734">
        <ele>280</ele>
        <time>2017-06-07T09:21:20Z</time>
      </trkpt>
      <trkpt lat="45.94799" lon="4.85741">
        <ele>280</ele>
        <time>2017-06-07T09:21:21Z</time>
      </trkpt>
      <trkpt lat="45.94801" lon="4.85747">
        <ele>279</ele>
        <time>2017-06-07T09:21:22Z</time>
      </trkpt>
      <trkpt lat="45.94802" lon="4.85754">
        <ele>278</ele>
        <time>2017-06-07T09:21:23Z</time>
      </trkpt>
      <trkpt lat="45.94804" lon="4.85761">
        <ele>278</ele>
        <time>2017-06-07T09:21:24Z</time>
      </trkpt>
      <trkpt lat="45.94806" lon="4.85768">
        <ele>278</ele>
        <time>2017-06-07T09:21:25Z</time>
      </trkpt>
      <trkpt lat="45.94808" lon="4.85774">
        <ele>278</ele>
        <time>2017-06-07T09:21:26Z</time>
      </trkpt>
      <trkpt lat="45.9481" lon="4.85781">
        <ele>278</ele>
        <time>2017-06-07T09:21:27Z</time>
      </trkpt>
      <trkpt lat="45.94812" lon="4.85788">
        <ele>278</ele>
        <time>2017-06-07T09:21:28Z</time>
      </trkpt>
      <trkpt lat="45.94813" lon="4.85795">
        <ele>278</ele>
        <time>2017-06-07T09:21:29Z</time>
      </trkpt>
      <trkpt lat="45.94815" lon="4.85803">
        <ele>278</ele>
        <time>2017-06-07T09:21:30Z</time>
      </trkpt>
      <trkpt lat="45.94817" lon="4.85811">
        <ele>278</ele>
        <time>2017-06-07T09:21:31Z</time>
      </trkpt>
      <trkpt lat="45.94819" lon="4.85818">
        <ele>278</ele>
        <time>2017-06-07T09:21:32Z</time>
      </trkpt>
      <trkpt lat="45.94821" lon="4.85825">
        <ele>278</ele>
        <time>2017-06-07T09:21:33Z</time>
      </trkpt>
      <trkpt lat="45.94823" lon="4.85832">
        <ele>277</ele>
        <time>2017-06-07T09:21:34Z</time>
      </trkpt>
      <trkpt lat="45.94824" lon="4.85839">
        <ele>277</ele>
        <time>2017-06-07T09:21:35Z</time>
      </trkpt>
      <trkpt lat="45.94826" lon="4.85846">
        <ele>277</ele>
        <time>2017-06-07T09:21:36Z</time>
      </trkpt>
      <trkpt lat="45.94828" lon="4.85853">
        <ele>277</ele>
        <time>2017-06-07T09:21:37Z</time>
      </trkpt>
      <trkpt lat="45.9483" lon="4.85859">
        <ele>277</ele>
        <time>2017-06-07T09:21:38Z</time>
      </trkpt>
      <trkpt lat="45.94832" lon="4.85866">
        <ele>277</ele>
        <time>2017-06-07T09:21:39Z</time>
      </trkpt>
      <trkpt lat="45.94833" lon="4.85873">
        <ele>277</ele>
        <time>2017-06-07T09:21:40Z</time>
      </trkpt>
      <trkpt lat="45.94835" lon="4.85879">
        <ele>276</ele>
        <time>2017-06-07T09:21:41Z</time>
      </trkpt>
      <trkpt lat="45.94837" lon="4.85886">
        <ele>276</ele>
        <time>2017-06-07T09:21:42Z</time>
      </trkpt>
      <trkpt lat="45.94839" lon="4.85893">
        <ele>276</ele>
        <time>2017-06-07T09:21:43Z</time>
      </trkpt>
      <trkpt lat="45.94841" lon="4.859">
        <ele>276</ele>
        <time>2017-06-07T09:21:44Z</time>
      </trkpt>
      <trkpt lat="45.94843" lon="4.85907">
        <ele>275</ele>
        <time>2017-06-07T09:21:45Z</time>
      </trkpt>
      <trkpt lat="45.94845" lon="4.85914">
        <ele>275</ele>
        <time>2017-06-07T09:21:46Z</time>
      </trkpt>
      <trkpt lat="45.94846" lon="4.8592">
        <ele>275</ele>
        <time>2017-06-07T09:21:47Z</time>
      </trkpt>
      <trkpt lat="45.94848" lon="4.85927">
        <ele>275</ele>
        <time>2017-06-07T09:21:48Z</time>
      </trkpt>
      <trkpt lat="45.9485" lon="4.85933">
        <ele>275</ele>
        <time>2017-06-07T09:21:49Z</time>
      </trkpt>
      <trkpt lat="45.94852" lon="4.8594">
        <ele>275</ele>
        <time>2017-06-07T09:21:50Z</time>
      </trkpt>
      <trkpt lat="45.94854" lon="4.85946">
        <ele>275</ele>
        <time>2017-06-07T09:21:51Z</time>
      </trkpt>
      <trkpt lat="45.94856" lon="4.85953">
        <ele>275</ele>
        <time>2017-06-07T09:21:52Z</time>
      </trkpt>
      <trkpt lat="45.94858" lon="4.85959">
        <ele>275</ele>
        <time>2017-06-07T09:21:53Z</time>
      </trkpt>
      <trkpt lat="45.94859" lon="4.85966">
        <ele>275</ele>
        <time>2017-06-07T09:21:54Z</time>
      </trkpt>
      <trkpt lat="45.94861" lon="4.85972">
        <ele>275</ele>
        <time>2017-06-07T09:21:55Z</time>
      </trkpt>
      <trkpt lat="45.94863" lon="4.85978">
        <ele>275</ele>
        <time>2017-06-07T09:21:56Z</time>
      </trkpt>
      <trkpt lat="45.94865" lon="4.85985">
        <ele>275</ele>
        <time>2017-06-07T09:21:57Z</time>
      </trkpt>
      <trkpt lat="45.94867" lon="4.85992">
        <ele>275</ele>
        <time>2017-06-07T09:21:58Z</time>
      </trkpt>
      <trkpt lat="45.94869" lon="4.85999">
        <ele>275</ele>
        <time>2017-06-07T09:21:59Z</time>
      </trkpt>
      <trkpt lat="45.94871" lon="4.86006">
        <ele>274</ele>
        <time>2017-06-07T09:22:00Z</time>
      </trkpt>
      <trkpt lat="45.94873" lon="4.86014">
        <ele>274</ele>
        <time>2017-06-07T09:22:01Z</time>
      </trkpt>
      <trkpt lat="45.94875" lon="4.86022">
        <ele>274</ele>
        <time>2017-06-07T09:22:02Z</time>
      </trkpt>
      <trkpt lat="45.94877" lon="4.8603">
        <ele>274</ele>
        <time>2017-06-07T09:22:03Z</time>
      </trkpt>
      <trkpt lat="45.94878" lon="4.86037">
        <ele>274</ele>
        <time>2017-06-07T09:22:04Z</time>
      </trkpt>
      <trkpt lat="45.9488" lon="4.86044">
        <ele>274</ele>
        <time>2017-06-07T09:22:05Z</time>
      </trkpt>
      <trkpt lat="45.94882" lon="4.86051">
        <ele>274</ele>
        <time>2017-06-07T09:22:06Z</time>
      </trkpt>
      <trkpt lat="45.94884" lon="4.86057">
        <ele>274</ele>
        <time>2017-06-07T09:22:07Z</time>
      </trkpt>
      <trkpt lat="45.94886" lon="4.86064">
        <ele>274</ele>
        <time>2017-06-07T09:22:08Z</time>
      </trkpt>
      <trkpt lat="45.94887" lon="4.86071">
        <ele>274</ele>
        <time>2017-06-07T09:22:09Z</time>
      </trkpt>
      <trkpt lat="45.94889" lon="4.86078">
        <ele>274</ele>
        <time>2017-06-07T09:22:10Z</time>
      </trkpt>
      <trkpt lat="45.94891" lon="4.86084">
        <ele>274</ele>
        <time>2017-06-07T09:22:11Z</time>
      </trkpt>
      <trkpt lat="45.94893" lon="4.8609">
        <ele>274</ele>
        <time>2017-06-07T09:22:12Z</time>
      </trkpt>
      <trkpt lat="45.94895" lon="4.86097">
        <ele>274</ele>
        <time>2017-06-07T09:22:13Z</time>
      </trkpt>
      <trkpt lat="45.94897" lon="4.86103">
        <ele>274</ele>
        <time>2017-06-07T09:22:14Z</time>
      </trkpt>
      <trkpt lat="45.949" lon="4.86108">
        <ele>274</ele>
        <time>2017-06-07T09:22:15Z</time>
      </trkpt>
      <trkpt lat="45.94903" lon="4.86114">
        <ele>274</ele>
        <time>2017-06-07T09:22:16Z</time>
      </trkpt>
      <trkpt lat="45.94905" lon="4.8612">
        <ele>274</ele>
        <time>2017-06-07T09:22:17Z</time>
      </trkpt>
      <trkpt lat="45.94908" lon="4.86126">
        <ele>274</ele>
        <time>2017-06-07T09:22:18Z</time>
      </trkpt>
      <trkpt lat="45.94911" lon="4.86131">
        <ele>274</ele>
        <time>2017-06-07T09:22:19Z</time>
      </trkpt>
      <trkpt lat="45.94915" lon="4.86137">
        <ele>274</ele>
        <time>2017-06-07T09:22:20Z</time>
      </trkpt>
      <trkpt lat="45.94918" lon="4.86143">
        <ele>273</ele>
        <time>2017-06-07T09:22:21Z</time>
      </trkpt>
      <trkpt lat="45.94921" lon="4.86148">
        <ele>273</ele>
        <time>2017-06-07T09:22:22Z</time>
      </trkpt>
      <trkpt lat="45.94925" lon="4.86153">
        <ele>273</ele>
        <time>2017-06-07T09:22:23Z</time>
      </trkpt>
      <trkpt lat="45.94928" lon="4.86158">
        <ele>273</ele>
        <time>2017-06-07T09:22:24Z</time>
      </trkpt>
      <trkpt lat="45.94932" lon="4.86162">
        <ele>273</ele>
        <time>2017-06-07T09:22:25Z</time>
      </trkpt>
      <trkpt lat="45.94936" lon="4.86167">
        <ele>273</ele>
        <time>2017-06-07T09:22:26Z</time>
      </trkpt>
      <trkpt lat="45.9494" lon="4.86172">
        <ele>273</ele>
        <time>2017-06-07T09:22:27Z</time>
      </trkpt>
      <trkpt lat="45.94944" lon="4.86177">
        <ele>273</ele>
        <time>2017-06-07T09:22:28Z</time>
      </trkpt>
      <trkpt lat="45.94948" lon="4.86181">
        <ele>273</ele>
        <time>2017-06-07T09:22:29Z</time>
      </trkpt>
      <trkpt lat="45.94952" lon="4.86186">
        <ele>273</ele>
        <time>2017-06-07T09:22:30Z</time>
      </trkpt>
      <trkpt lat="45.94955" lon="4.8619">
        <ele>273</ele>
        <time>2017-06-07T09:22:31Z</time>
      </trkpt>
      <trkpt lat="45.94959" lon="4.86195">
        <ele>272</ele>
        <time>2017-06-07T09:22:32Z</time>
      </trkpt>
      <trkpt lat="45.94963" lon="4.862">
        <ele>272</ele>
        <time>2017-06-07T09:22:33Z</time>
      </trkpt>
      <trkpt lat="45.94967" lon="4.86205">
        <ele>272</ele>
        <time>2017-06-07T09:22:34Z</time>
      </trkpt>
      <trkpt lat="45.94971" lon="4.8621">
        <ele>272</ele>
        <time>2017-06-07T09:22:35Z</time>
      </trkpt>
      <trkpt lat="45.94974" lon="4.86216">
        <ele>272</ele>
        <time>2017-06-07T09:22:36Z</time>
      </trkpt>
      <trkpt lat="45.94978" lon="4.86221">
        <ele>272</ele>
        <time>2017-06-07T09:22:37Z</time>
      </trkpt>
      <trkpt lat="45.94982" lon="4.86226">
        <ele>272</ele>
        <time>2017-06-07T09:22:38Z</time>
      </trkpt>
      <trkpt lat="45.94987" lon="4.8623">
        <ele>272</ele>
        <time>2017-06-07T09:22:39Z</time>
      </trkpt>
      <trkpt lat="45.94991" lon="4.86235">
        <ele>272</ele>
        <time>2017-06-07T09:22:40Z</time>
      </trkpt>
      <trkpt lat="45.94995" lon="4.8624">
        <ele>272</ele>
        <time>2017-06-07T09:22:41Z</time>
      </trkpt>
      <trkpt lat="45.94999" lon="4.86245">
        <ele>272</ele>
        <time>2017-06-07T09:22:42Z</time>
      </trkpt>
      <trkpt lat="45.95004" lon="4.86251">
        <ele>272</ele>
        <time>2017-06-07T09:22:43Z</time>
      </trkpt>
      <trkpt lat="45.95008" lon="4.86256">
        <ele>272</ele>
        <time>2017-06-07T09:22:44Z</time>
      </trkpt>
      <trkpt lat="45.95012" lon="4.86262">
        <ele>272</ele>
        <time>2017-06-07T09:22:45Z</time>
      </trkpt>
      <trkpt lat="45.95016" lon="4.86268">
        <ele>271</ele>
        <time>2017-06-07T09:22:46Z</time>
      </trkpt>
      <trkpt lat="45.9502" lon="4.86273">
        <ele>271</ele>
        <time>2017-06-07T09:22:47Z</time>
      </trkpt>
      <trkpt lat="45.95024" lon="4.86279">
        <ele>271</ele>
        <time>2017-06-07T09:22:48Z</time>
      </trkpt>
      <trkpt lat="45.95029" lon="4.86285">
        <ele>271</ele>
        <time>2017-06-07T09:22:49Z</time>
      </trkpt>
      <trkpt lat="45.95033" lon="4.86291">
        <ele>271</ele>
        <time>2017-06-07T09:22:50Z</time>
      </trkpt>
      <trkpt lat="45.95038" lon="4.86297">
        <ele>271</ele>
        <time>2017-06-07T09:22:51Z</time>
      </trkpt>
      <trkpt lat="45.95043" lon="4.86303">
        <ele>271</ele>
        <time>2017-06-07T09:22:52Z</time>
      </trkpt>
      <trkpt lat="45.95048" lon="4.86308">
        <ele>271</ele>
        <time>2017-06-07T09:22:53Z</time>
      </trkpt>
      <trkpt lat="45.95052" lon="4.86314">
        <ele>271</ele>
        <time>2017-06-07T09:22:54Z</time>
      </trkpt>
      <trkpt lat="45.95057" lon="4.8632">
        <ele>271</ele>
        <time>2017-06-07T09:22:55Z</time>
      </trkpt>
      <trkpt lat="45.95061" lon="4.86325">
        <ele>270</ele>
        <time>2017-06-07T09:22:56Z</time>
      </trkpt>
      <trkpt lat="45.95066" lon="4.86331">
        <ele>270</ele>
        <time>2017-06-07T09:22:57Z</time>
      </trkpt>
      <trkpt lat="45.9507" lon="4.86337">
        <ele>270</ele>
        <time>2017-06-07T09:22:58Z</time>
      </trkpt>
      <trkpt lat="45.95075" lon="4.86342">
        <ele>270</ele>
        <time>2017-06-07T09:22:59Z</time>
      </trkpt>
      <trkpt lat="45.95079" lon="4.86348">
        <ele>270</ele>
        <time>2017-06-07T09:23:00Z</time>
      </trkpt>
      <trkpt lat="45.95084" lon="4.86353">
        <ele>269</ele>
        <time>2017-06-07T09:23:01Z</time>
      </trkpt>
      <trkpt lat="45.95088" lon="4.86358">
        <ele>269</ele>
        <time>2017-06-07T09:23:02Z</time>
      </trkpt>
      <trkpt lat="45.95092" lon="4.86363">
        <ele>269</ele>
        <time>2017-06-07T09:23:03Z</time>
      </trkpt>
      <trkpt lat="45.95096" lon="4.86368">
        <ele>269</ele>
        <time>2017-06-07T09:23:04Z</time>
      </trkpt>
      <trkpt lat="45.95101" lon="4.86373">
        <ele>269</ele>
        <time>2017-06-07T09:23:05Z</time>
      </trkpt>
      <trkpt lat="45.95105" lon="4.86378">
        <ele>269</ele>
        <time>2017-06-07T09:23:06Z</time>
      </trkpt>
      <trkpt lat="45.95109" lon="4.86382">
        <ele>269</ele>
        <time>2017-06-07T09:23:07Z</time>
      </trkpt>
      <trkpt lat="45.95113" lon="4.86387">
        <ele>269</ele>
        <time>2017-06-07T09:23:08Z</time>
      </trkpt>
      <trkpt lat="45.95117" lon="4.86391">
        <ele>269</ele>
        <time>2017-06-07T09:23:09Z</time>
      </trkpt>
      <trkpt lat="45.95121" lon="4.86396">
        <ele>269</ele>
        <time>2017-06-07T09:23:10Z</time>
      </trkpt>
      <trkpt lat="45.95125" lon="4.86401">
        <ele>269</ele>
        <time>2017-06-07T09:23:11Z</time>
      </trkpt>
      <trkpt lat="45.95129" lon="4.86406">
        <ele>268</ele>
        <time>2017-06-07T09:23:12Z</time>
      </trkpt>
      <trkpt lat="45.95134" lon="4.86411">
        <ele>268</ele>
        <time>2017-06-07T09:23:13Z</time>
      </trkpt>
      <trkpt lat="45.95138" lon="4.86416">
        <ele>268</ele>
        <time>2017-06-07T09:23:14Z</time>
      </trkpt>
      <trkpt lat="45.95142" lon="4.86422">
        <ele>268</ele>
        <time>2017-06-07T09:23:15Z</time>
      </trkpt>
      <trkpt lat="45.95146" lon="4.86426">
        <ele>268</ele>
        <time>2017-06-07T09:23:16Z</time>
      </trkpt>
      <trkpt lat="45.9515" lon="4.86431">
        <ele>268</ele>
        <time>2017-06-07T09:23:17Z</time>
      </trkpt>
      <trkpt lat="45.95154" lon="4.86436">
        <ele>268</ele>
        <time>2017-06-07T09:23:18Z</time>
      </trkpt>
      <trkpt lat="45.95157" lon="4.8644">
        <ele>268</ele>
        <time>2017-06-07T09:23:19Z</time>
      </trkpt>
      <trkpt lat="45.95161" lon="4.86445">
        <ele>269</ele>
        <time>2017-06-07T09:23:20Z</time>
      </trkpt>
      <trkpt lat="45.95164" lon="4.86449">
        <ele>269</ele>
        <time>2017-06-07T09:23:21Z</time>
      </trkpt>
      <trkpt lat="45.95168" lon="4.86454">
        <ele>268</ele>
        <time>2017-06-07T09:23:22Z</time>
      </trkpt>
      <trkpt lat="45.95172" lon="4.86458">
        <ele>268</ele>
        <time>2017-06-07T09:23:23Z</time>
      </trkpt>
      <trkpt lat="45.95176" lon="4.86463">
        <ele>268</ele>
        <time>2017-06-07T09:23:24Z</time>
      </trkpt>
      <trkpt lat="45.9518" lon="4.86467">
        <ele>268</ele>
        <time>2017-06-07T09:23:25Z</time>
      </trkpt>
      <trkpt lat="45.95184" lon="4.86473">
        <ele>268</ele>
        <time>2017-06-07T09:23:26Z</time>
      </trkpt>
      <trkpt lat="45.95188" lon="4.86478">
        <ele>268</ele>
        <time>2017-06-07T09:23:27Z</time>
      </trkpt>
      <trkpt lat="45.95192" lon="4.86483">
        <ele>268</ele>
        <time>2017-06-07T09:23:28Z</time>
      </trkpt>
      <trkpt lat="45.95197" lon="4.86489">
        <ele>268</ele>
        <time>2017-06-07T09:23:29Z</time>
      </trkpt>
      <trkpt lat="45.95201" lon="4.86494">
        <ele>268</ele>
        <time>2017-06-07T09:23:30Z</time>
      </trkpt>
      <trkpt lat="45.95206" lon="4.865">
        <ele>268</ele>
        <time>2017-06-07T09:23:31Z</time>
      </trkpt>
      <trkpt lat="45.95211" lon="4.86506">
        <ele>268</ele>
        <time>2017-06-07T09:23:32Z</time>
      </trkpt>
      <trkpt lat="45.95216" lon="4.86511">
        <ele>268</ele>
        <time>2017-06-07T09:23:33Z</time>
      </trkpt>
      <trkpt lat="45.95221" lon="4.86517">
        <ele>268</ele>
        <time>2017-06-07T09:23:34Z</time>
      </trkpt>
      <trkpt lat="45.95226" lon="4.86522">
        <ele>268</ele>
        <time>2017-06-07T09:23:35Z</time>
      </trkpt>
      <trkpt lat="45.95231" lon="4.86527">
        <ele>268</ele>
        <time>2017-06-07T09:23:36Z</time>
      </trkpt>
      <trkpt lat="45.95235" lon="4.86531">
        <ele>268</ele>
        <time>2017-06-07T09:23:37Z</time>
      </trkpt>
      <trkpt lat="45.95239" lon="4.86537">
        <ele>268</ele>
        <time>2017-06-07T09:23:38Z</time>
      </trkpt>
      <trkpt lat="45.95243" lon="4.86543">
        <ele>268</ele>
        <time>2017-06-07T09:23:39Z</time>
      </trkpt>
      <trkpt lat="45.95247" lon="4.86548">
        <ele>268</ele>
        <time>2017-06-07T09:23:40Z</time>
      </trkpt>
      <trkpt lat="45.95251" lon="4.86553">
        <ele>267</ele>
        <time>2017-06-07T09:23:41Z</time>
      </trkpt>
      <trkpt lat="45.95255" lon="4.86558">
        <ele>267</ele>
        <time>2017-06-07T09:23:42Z</time>
      </trkpt>
      <trkpt lat="45.95261" lon="4.86567">
        <ele>267</ele>
        <time>2017-06-07T09:23:44Z</time>
      </trkpt>
      <trkpt lat="45.9526" lon="4.86572">
        <ele>267</ele>
        <time>2017-06-07T09:23:45Z</time>
      </trkpt>
      <trkpt lat="45.95252" lon="4.86579">
        <ele>268</ele>
        <time>2017-06-07T09:23:46Z</time>
      </trkpt>
      <trkpt lat="45.95244" lon="4.86585">
        <ele>268</ele>
        <time>2017-06-07T09:23:48Z</time>
      </trkpt>
      <trkpt lat="45.9524" lon="4.86585">
        <ele>268</ele>
        <time>2017-06-07T09:23:49Z</time>
      </trkpt>
      <trkpt lat="45.95231" lon="4.86584">
        <ele>269</ele>
        <time>2017-06-07T09:23:51Z</time>
      </trkpt>
      <trkpt lat="45.95227" lon="4.86583">
        <ele>268</ele>
        <time>2017-06-07T09:23:52Z</time>
      </trkpt>
      <trkpt lat="45.95222" lon="4.86582">
        <ele>268</ele>
        <time>2017-06-07T09:23:53Z</time>
      </trkpt>
      <trkpt lat="45.95217" lon="4.86581">
        <ele>268</ele>
        <time>2017-06-07T09:23:54Z</time>
      </trkpt>
      <trkpt lat="45.95212" lon="4.8658">
        <ele>268</ele>
        <time>2017-06-07T09:23:55Z</time>
      </trkpt>
      <trkpt lat="45.95207" lon="4.86579">
        <ele>268</ele>
        <time>2017-06-07T09:23:56Z</time>
      </trkpt>
      <trkpt lat="45.95202" lon="4.86579">
        <ele>268</ele>
        <time>2017-06-07T09:23:57Z</time>
      </trkpt>
      <trkpt lat="45.95198" lon="4.86578">
        <ele>268</ele>
        <time>2017-06-07T09:23:58Z</time>
      </trkpt>
      <trkpt lat="45.95193" lon="4.86578">
        <ele>269</ele>
        <time>2017-06-07T09:23:59Z</time>
      </trkpt>
      <trkpt lat="45.95187" lon="4.86577">
        <ele>269</ele>
        <time>2017-06-07T09:24:00Z</time>
      </trkpt>
      <trkpt lat="45.95179" lon="4.86578">
        <ele>269</ele>
        <time>2017-06-07T09:24:02Z</time>
      </trkpt>
      <trkpt lat="45.95174" lon="4.86578">
        <ele>269</ele>
        <time>2017-06-07T09:24:03Z</time>
      </trkpt>
      <trkpt lat="45.95166" lon="4.86579">
        <ele>269</ele>
        <time>2017-06-07T09:24:05Z</time>
      </trkpt>
      <trkpt lat="45.95161" lon="4.86579">
        <ele>269</ele>
        <time>2017-06-07T09:24:06Z</time>
      </trkpt>
      <trkpt lat="45.95157" lon="4.8658">
        <ele>269</ele>
        <time>2017-06-07T09:24:07Z</time>
      </trkpt>
      <trkpt lat="45.95152" lon="4.8658">
        <ele>269</ele>
        <time>2017-06-07T09:24:08Z</time>
      </trkpt>
      <trkpt lat="45.95147" lon="4.86581">
        <ele>270</ele>
        <time>2017-06-07T09:24:09Z</time>
      </trkpt>
      <trkpt lat="45.95143" lon="4.86583">
        <ele>270</ele>
        <time>2017-06-07T09:24:10Z</time>
      </trkpt>
      <trkpt lat="45.95134" lon="4.86583">
        <ele>270</ele>
        <time>2017-06-07T09:24:12Z</time>
      </trkpt>
      <trkpt lat="45.9513" lon="4.86583">
        <ele>270</ele>
        <time>2017-06-07T09:24:13Z</time>
      </trkpt>
      <trkpt lat="45.95121" lon="4.86585">
        <ele>270</ele>
        <time>2017-06-07T09:24:15Z</time>
      </trkpt>
      <trkpt lat="45.95117" lon="4.86585">
        <ele>270</ele>
        <time>2017-06-07T09:24:16Z</time>
      </trkpt>
      <trkpt lat="45.95112" lon="4.86586">
        <ele>271</ele>
        <time>2017-06-07T09:24:17Z</time>
      </trkpt>
      <trkpt lat="45.95107" lon="4.86587">
        <ele>271</ele>
        <time>2017-06-07T09:24:18Z</time>
      </trkpt>
      <trkpt lat="45.95099" lon="4.86588">
        <ele>271</ele>
        <time>2017-06-07T09:24:20Z</time>
      </trkpt>
      <trkpt lat="45.95094" lon="4.86588">
        <ele>271</ele>
        <time>2017-06-07T09:24:21Z</time>
      </trkpt>
      <trkpt lat="45.9509" lon="4.86589">
        <ele>271</ele>
        <time>2017-06-07T09:24:22Z</time>
      </trkpt>
      <trkpt lat="45.95085" lon="4.8659">
        <ele>271</ele>
        <time>2017-06-07T09:24:23Z</time>
      </trkpt>
      <trkpt lat="45.9508" lon="4.86592">
        <ele>271</ele>
        <time>2017-06-07T09:24:24Z</time>
      </trkpt>
      <trkpt lat="45.95076" lon="4.86593">
        <ele>272</ele>
        <time>2017-06-07T09:24:25Z</time>
      </trkpt>
      <trkpt lat="45.95071" lon="4.86595">
        <ele>272</ele>
        <time>2017-06-07T09:24:26Z</time>
      </trkpt>
      <trkpt lat="45.95067" lon="4.86596">
        <ele>272</ele>
        <time>2017-06-07T09:24:27Z</time>
      </trkpt>
      <trkpt lat="45.95062" lon="4.86598">
        <ele>272</ele>
        <time>2017-06-07T09:24:28Z</time>
      </trkpt>
      <trkpt lat="45.95057" lon="4.86599">
        <ele>272</ele>
        <time>2017-06-07T09:24:29Z</time>
      </trkpt>
      <trkpt lat="45.95052" lon="4.86601">
        <ele>272</ele>
        <time>2017-06-07T09:24:30Z</time>
      </trkpt>
      <trkpt lat="45.95048" lon="4.86602">
        <ele>272</ele>
        <time>2017-06-07T09:24:31Z</time>
      </trkpt>
      <trkpt lat="45.9504" lon="4.86605">
        <ele>273</ele>
        <time>2017-06-07T09:24:33Z</time>
      </trkpt>
      <trkpt lat="45.95036" lon="4.86605">
        <ele>273</ele>
        <time>2017-06-07T09:24:34Z</time>
      </trkpt>
      <trkpt lat="45.95027" lon="4.86607">
        <ele>273</ele>
        <time>2017-06-07T09:24:36Z</time>
      </trkpt>
      <trkpt lat="45.95023" lon="4.86607">
        <ele>273</ele>
        <time>2017-06-07T09:24:37Z</time>
      </trkpt>
      <trkpt lat="45.95016" lon="4.86609">
        <ele>273</ele>
        <time>2017-06-07T09:24:39Z</time>
      </trkpt>
      <trkpt lat="45.95012" lon="4.8661">
        <ele>273</ele>
        <time>2017-06-07T09:24:40Z</time>
      </trkpt>
      <trkpt lat="45.95004" lon="4.86611">
        <ele>273</ele>
        <time>2017-06-07T09:24:42Z</time>
      </trkpt>
      <trkpt lat="45.95001" lon="4.86612">
        <ele>273</ele>
        <time>2017-06-07T09:24:43Z</time>
      </trkpt>
      <trkpt lat="45.94993" lon="4.86613">
        <ele>275</ele>
        <time>2017-06-07T09:24:45Z</time>
      </trkpt>
      <trkpt lat="45.94989" lon="4.86614">
        <ele>275</ele>
        <time>2017-06-07T09:24:46Z</time>
      </trkpt>
      <trkpt lat="45.94981" lon="4.86615">
        <ele>275</ele>
        <time>2017-06-07T09:24:48Z</time>
      </trkpt>
      <trkpt lat="45.94977" lon="4.86616">
        <ele>275</ele>
        <time>2017-06-07T09:24:49Z</time>
      </trkpt>
      <trkpt lat="45.94969" lon="4.8662">
        <ele>275</ele>
        <time>2017-06-07T09:24:51Z</time>
      </trkpt>
      <trkpt lat="45.94965" lon="4.86623">
        <ele>275</ele>
        <time>2017-06-07T09:24:52Z</time>
      </trkpt>
      <trkpt lat="45.94958" lon="4.86628">
        <ele>276</ele>
        <time>2017-06-07T09:24:54Z</time>
      </trkpt>
      <trkpt lat="45.94955" lon="4.8663">
        <ele>276</ele>
        <time>2017-06-07T09:24:55Z</time>
      </trkpt>
      <trkpt lat="45.9495" lon="4.86638">
        <ele>276</ele>
        <time>2017-06-07T09:24:57Z</time>
      </trkpt>
      <trkpt lat="45.94948" lon="4.86643">
        <ele>276</ele>
        <time>2017-06-07T09:24:58Z</time>
      </trkpt>
      <trkpt lat="45.94944" lon="4.86654">
        <ele>276</ele>
        <time>2017-06-07T09:25:00Z</time>
      </trkpt>
      <trkpt lat="45.94943" lon="4.8666">
        <ele>276</ele>
        <time>2017-06-07T09:25:01Z</time>
      </trkpt>
      <trkpt lat="45.94941" lon="4.86666">
        <ele>276</ele>
        <time>2017-06-07T09:25:02Z</time>
      </trkpt>
      <trkpt lat="45.94941" lon="4.86673">
        <ele>276</ele>
        <time>2017-06-07T09:25:03Z</time>
      </trkpt>
      <trkpt lat="45.94941" lon="4.8668">
        <ele>276</ele>
        <time>2017-06-07T09:25:04Z</time>
      </trkpt>
      <trkpt lat="45.94942" lon="4.86687">
        <ele>276</ele>
        <time>2017-06-07T09:25:05Z</time>
      </trkpt>
      <trkpt lat="45.94943" lon="4.86694">
        <ele>276</ele>
        <time>2017-06-07T09:25:06Z</time>
      </trkpt>
      <trkpt lat="45.94944" lon="4.86701">
        <ele>276</ele>
        <time>2017-06-07T09:25:07Z</time>
      </trkpt>
      <trkpt lat="45.94945" lon="4.86708">
        <ele>275</ele>
        <time>2017-06-07T09:25:08Z</time>
      </trkpt>
      <trkpt lat="45.94946" lon="4.86714">
        <ele>275</ele>
        <time>2017-06-07T09:25:09Z</time>
      </trkpt>
      <trkpt lat="45.9495" lon="4.86725">
        <ele>275</ele>
        <time>2017-06-07T09:25:11Z</time>
      </trkpt>
      <trkpt lat="45.94952" lon="4.86731">
        <ele>275</ele>
        <time>2017-06-07T09:25:12Z</time>
      </trkpt>
      <trkpt lat="45.94956" lon="4.86741">
        <ele>275</ele>
        <time>2017-06-07T09:25:14Z</time>
      </trkpt>
      <trkpt lat="45.94958" lon="4.86747">
        <ele>275</ele>
        <time>2017-06-07T09:25:15Z</time>
      </trkpt>
      <trkpt lat="45.94963" lon="4.86756">
        <ele>275</ele>
        <time>2017-06-07T09:25:17Z</time>
      </trkpt>
      <trkpt lat="45.94965" lon="4.86762">
        <ele>275</ele>
        <time>2017-06-07T09:25:18Z</time>
      </trkpt>
      <trkpt lat="45.94968" lon="4.86767">
        <ele>275</ele>
        <time>2017-06-07T09:25:19Z</time>
      </trkpt>
      <trkpt lat="45.94971" lon="4.86772">
        <ele>275</ele>
        <time>2017-06-07T09:25:20Z</time>
      </trkpt>
      <trkpt lat="45.94974" lon="4.86778">
        <ele>275</ele>
        <time>2017-06-07T09:25:21Z</time>
      </trkpt>
      <trkpt lat="45.94977" lon="4.86783">
        <ele>275</ele>
        <time>2017-06-07T09:25:22Z</time>
      </trkpt>
      <trkpt lat="45.94982" lon="4.86794">
        <ele>276</ele>
        <time>2017-06-07T09:25:24Z</time>
      </trkpt>
      <trkpt lat="45.94984" lon="4.86799">
        <ele>276</ele>
        <time>2017-06-07T09:25:25Z</time>
      </trkpt>
      <trkpt lat="45.9499" lon="4.86808">
        <ele>276</ele>
        <time>2017-06-07T09:25:27Z</time>
      </trkpt>
      <trkpt lat="45.94992" lon="4.86813">
        <ele>276</ele>
        <time>2017-06-07T09:25:28Z</time>
      </trkpt>
      <trkpt lat="45.94994" lon="4.86818">
        <ele>276</ele>
        <time>2017-06-07T09:25:29Z</time>
      </trkpt>
      <trkpt lat="45.94997" lon="4.86825">
        <ele>276</ele>
        <time>2017-06-07T09:25:30Z</time>
      </trkpt>
      <trkpt lat="45.94999" lon="4.86831">
        <ele>276</ele>
        <time>2017-06-07T09:25:31Z</time>
      </trkpt>
      <trkpt lat="45.95002" lon="4.86838">
        <ele>276</ele>
        <time>2017-06-07T09:25:32Z</time>
      </trkpt>
      <trkpt lat="45.95005" lon="4.86845">
        <ele>276</ele>
        <time>2017-06-07T09:25:33Z</time>
      </trkpt>
      <trkpt lat="45.95008" lon="4.86851">
        <ele>275</ele>
        <time>2017-06-07T09:25:34Z</time>
      </trkpt>
      <trkpt lat="45.9501" lon="4.86858">
        <ele>275</ele>
        <time>2017-06-07T09:25:35Z</time>
      </trkpt>
      <trkpt lat="45.95012" lon="4.86864">
        <ele>275</ele>
        <time>2017-06-07T09:25:36Z</time>
      </trkpt>
      <trkpt lat="45.95014" lon="4.86871">
        <ele>275</ele>
        <time>2017-06-07T09:25:37Z</time>
      </trkpt>
      <trkpt lat="45.95016" lon="4.86878">
        <ele>275</ele>
        <time>2017-06-07T09:25:38Z</time>
      </trkpt>
      <trkpt lat="45.95018" lon="4.86884">
        <ele>275</ele>
        <time>2017-06-07T09:25:39Z</time>
      </trkpt>
      <trkpt lat="45.9502" lon="4.86891">
        <ele>275</ele>
        <time>2017-06-07T09:25:40Z</time>
      </trkpt>
      <trkpt lat="45.95022" lon="4.86897">
        <ele>275</ele>
        <time>2017-06-07T09:25:41Z</time>
      </trkpt>
      <trkpt lat="45.95024" lon="4.86904">
        <ele>275</ele>
        <time>2017-06-07T09:25:42Z</time>
      </trkpt>
      <trkpt lat="45.95026" lon="4.8691">
        <ele>275</ele>
        <time>2017-06-07T09:25:43Z</time>
      </trkpt>
      <trkpt lat="45.95028" lon="4.86916">
        <ele>275</ele>
        <time>2017-06-07T09:25:44Z</time>
      </trkpt>
      <trkpt lat="45.9503" lon="4.86923">
        <ele>276</ele>
        <time>2017-06-07T09:25:45Z</time>
      </trkpt>
      <trkpt lat="45.95032" lon="4.8693">
        <ele>276</ele>
        <time>2017-06-07T09:25:46Z</time>
      </trkpt>
      <trkpt lat="45.95035" lon="4.86937">
        <ele>276</ele>
        <time>2017-06-07T09:25:47Z</time>
      </trkpt>
      <trkpt lat="45.95037" lon="4.86945">
        <ele>276</ele>
        <time>2017-06-07T09:25:48Z</time>
      </trkpt>
      <trkpt lat="45.95039" lon="4.86952">
        <ele>276</ele>
        <time>2017-06-07T09:25:49Z</time>
      </trkpt>
      <trkpt lat="45.95042" lon="4.86959">
        <ele>276</ele>
        <time>2017-06-07T09:25:50Z</time>
      </trkpt>
      <trkpt lat="45.95044" lon="4.86967">
        <ele>276</ele>
        <time>2017-06-07T09:25:51Z</time>
      </trkpt>
      <trkpt lat="45.95046" lon="4.86974">
        <ele>276</ele>
        <time>2017-06-07T09:25:52Z</time>
      </trkpt>
      <trkpt lat="45.95049" lon="4.86981">
        <ele>276</ele>
        <time>2017-06-07T09:25:53Z</time>
      </trkpt>
      <trkpt lat="45.95052" lon="4.86987">
        <ele>276</ele>
        <time>2017-06-07T09:25:54Z</time>
      </trkpt>
      <trkpt lat="45.95055" lon="4.86993">
        <ele>276</ele>
        <time>2017-06-07T09:25:55Z</time>
      </trkpt>
      <trkpt lat="45.95059" lon="4.86999">
        <ele>276</ele>
        <time>2017-06-07T09:25:56Z</time>
      </trkpt>
      <trkpt lat="45.95061" lon="4.87005">
        <ele>277</ele>
        <time>2017-06-07T09:25:57Z</time>
      </trkpt>
      <trkpt lat="45.95064" lon="4.8701">
        <ele>277</ele>
        <time>2017-06-07T09:25:58Z</time>
      </trkpt>
      <trkpt lat="45.95069" lon="4.8702">
        <ele>277</ele>
        <time>2017-06-07T09:26:00Z</time>
      </trkpt>
      <trkpt lat="45.95072" lon="4.87026">
        <ele>277</ele>
        <time>2017-06-07T09:26:01Z</time>
      </trkpt>
      <trkpt lat="45.95075" lon="4.87032">
        <ele>277</ele>
        <time>2017-06-07T09:26:02Z</time>
      </trkpt>
      <trkpt lat="45.95078" lon="4.87038">
        <ele>277</ele>
        <time>2017-06-07T09:26:03Z</time>
      </trkpt>
      <trkpt lat="45.95081" lon="4.87044">
        <ele>277</ele>
        <time>2017-06-07T09:26:04Z</time>
      </trkpt>
      <trkpt lat="45.95084" lon="4.8705">
        <ele>277</ele>
        <time>2017-06-07T09:26:05Z</time>
      </trkpt>
      <trkpt lat="45.95087" lon="4.87056">
        <ele>277</ele>
        <time>2017-06-07T09:26:06Z</time>
      </trkpt>
      <trkpt lat="45.9509" lon="4.87061">
        <ele>277</ele>
        <time>2017-06-07T09:26:07Z</time>
      </trkpt>
      <trkpt lat="45.95093" lon="4.87067">
        <ele>277</ele>
        <time>2017-06-07T09:26:08Z</time>
      </trkpt>
      <trkpt lat="45.95095" lon="4.87073">
        <ele>277</ele>
        <time>2017-06-07T09:26:09Z</time>
      </trkpt>
      <trkpt lat="45.95098" lon="4.87079">
        <ele>277</ele>
        <time>2017-06-07T09:26:10Z</time>
      </trkpt>
      <trkpt lat="45.95101" lon="4.87085">
        <ele>277</ele>
        <time>2017-06-07T09:26:11Z</time>
      </trkpt>
      <trkpt lat="45.95104" lon="4.87092">
        <ele>277</ele>
        <time>2017-06-07T09:26:12Z</time>
      </trkpt>
      <trkpt lat="45.95105" lon="4.87099">
        <ele>277</ele>
        <time>2017-06-07T09:26:13Z</time>
      </trkpt>
      <trkpt lat="45.95107" lon="4.87106">
        <ele>277</ele>
        <time>2017-06-07T09:26:14Z</time>
      </trkpt>
      <trkpt lat="45.95109" lon="4.87113">
        <ele>277</ele>
        <time>2017-06-07T09:26:15Z</time>
      </trkpt>
      <trkpt lat="45.95111" lon="4.87119">
        <ele>277</ele>
        <time>2017-06-07T09:26:16Z</time>
      </trkpt>
      <trkpt lat="45.95112" lon="4.87126">
        <ele>277</ele>
        <time>2017-06-07T09:26:17Z</time>
      </trkpt>
      <trkpt lat="45.95114" lon="4.87133">
        <ele>277</ele>
        <time>2017-06-07T09:26:18Z</time>
      </trkpt>
      <trkpt lat="45.95115" lon="4.87139">
        <ele>277</ele>
        <time>2017-06-07T09:26:19Z</time>
      </trkpt>
      <trkpt lat="45.95116" lon="4.87146">
        <ele>277</ele>
        <time>2017-06-07T09:26:20Z</time>
      </trkpt>
      <trkpt lat="45.95117" lon="4.87152">
        <ele>277</ele>
        <time>2017-06-07T09:26:21Z</time>
      </trkpt>
      <trkpt lat="45.95119" lon="4.87159">
        <ele>277</ele>
        <time>2017-06-07T09:26:22Z</time>
      </trkpt>
      <trkpt lat="45.95121" lon="4.87168">
        <ele>277</ele>
        <time>2017-06-07T09:26:23Z</time>
      </trkpt>
      <trkpt lat="45.95122" lon="4.87176">
        <ele>276</ele>
        <time>2017-06-07T09:26:24Z</time>
      </trkpt>
      <trkpt lat="45.95124" lon="4.87183">
        <ele>276</ele>
        <time>2017-06-07T09:26:25Z</time>
      </trkpt>
      <trkpt lat="45.95126" lon="4.87192">
        <ele>276</ele>
        <time>2017-06-07T09:26:26Z</time>
      </trkpt>
      <trkpt lat="45.95128" lon="4.872">
        <ele>276</ele>
        <time>2017-06-07T09:26:27Z</time>
      </trkpt>
      <trkpt lat="45.9513" lon="4.87209">
        <ele>276</ele>
        <time>2017-06-07T09:26:28Z</time>
      </trkpt>
      <trkpt lat="45.95132" lon="4.87218">
        <ele>276</ele>
        <time>2017-06-07T09:26:29Z</time>
      </trkpt>
      <trkpt lat="45.95135" lon="4.87227">
        <ele>276</ele>
        <time>2017-06-07T09:26:30Z</time>
      </trkpt>
      <trkpt lat="45.95137" lon="4.87237">
        <ele>276</ele>
        <time>2017-06-07T09:26:31Z</time>
      </trkpt>
      <trkpt lat="45.95139" lon="4.87247">
        <ele>275</ele>
        <time>2017-06-07T09:26:32Z</time>
      </trkpt>
      <trkpt lat="45.95141" lon="4.87257">
        <ele>274</ele>
        <time>2017-06-07T09:26:33Z</time>
      </trkpt>
      <trkpt lat="45.95143" lon="4.87267">
        <ele>274</ele>
        <time>2017-06-07T09:26:34Z</time>
      </trkpt>
      <trkpt lat="45.95146" lon="4.87278">
        <ele>274</ele>
        <time>2017-06-07T09:26:35Z</time>
      </trkpt>
      <trkpt lat="45.95148" lon="4.87288">
        <ele>274</ele>
        <time>2017-06-07T09:26:36Z</time>
      </trkpt>
      <trkpt lat="45.95151" lon="4.87299">
        <ele>274</ele>
        <time>2017-06-07T09:26:37Z</time>
      </trkpt>
      <trkpt lat="45.95153" lon="4.8731">
        <ele>273</ele>
        <time>2017-06-07T09:26:38Z</time>
      </trkpt>
      <trkpt lat="45.95156" lon="4.87321">
        <ele>273</ele>
        <time>2017-06-07T09:26:39Z</time>
      </trkpt>
      <trkpt lat="45.95158" lon="4.87332">
        <ele>272</ele>
        <time>2017-06-07T09:26:40Z</time>
      </trkpt>
      <trkpt lat="45.9516" lon="4.87343">
        <ele>272</ele>
        <time>2017-06-07T09:26:41Z</time>
      </trkpt>
      <trkpt lat="45.95163" lon="4.87354">
        <ele>272</ele>
        <time>2017-06-07T09:26:42Z</time>
      </trkpt>
      <trkpt lat="45.95165" lon="4.87364">
        <ele>272</ele>
        <time>2017-06-07T09:26:43Z</time>
      </trkpt>
      <trkpt lat="45.95167" lon="4.87374">
        <ele>271</ele>
        <time>2017-06-07T09:26:44Z</time>
      </trkpt>
      <trkpt lat="45.95169" lon="4.87383">
        <ele>271</ele>
        <time>2017-06-07T09:26:45Z</time>
      </trkpt>
      <trkpt lat="45.95172" lon="4.87393">
        <ele>271</ele>
        <time>2017-06-07T09:26:46Z</time>
      </trkpt>
      <trkpt lat="45.95174" lon="4.87402">
        <ele>271</ele>
        <time>2017-06-07T09:26:47Z</time>
      </trkpt>
      <trkpt lat="45.95176" lon="4.8741">
        <ele>271</ele>
        <time>2017-06-07T09:26:48Z</time>
      </trkpt>
      <trkpt lat="45.95178" lon="4.87419">
        <ele>271</ele>
        <time>2017-06-07T09:26:49Z</time>
      </trkpt>
      <trkpt lat="45.95179" lon="4.87427">
        <ele>271</ele>
        <time>2017-06-07T09:26:50Z</time>
      </trkpt>
      <trkpt lat="45.95181" lon="4.87436">
        <ele>272</ele>
        <time>2017-06-07T09:26:51Z</time>
      </trkpt>
      <trkpt lat="45.95183" lon="4.87444">
        <ele>272</ele>
        <time>2017-06-07T09:26:52Z</time>
      </trkpt>
      <trkpt lat="45.95185" lon="4.87455">
        <ele>272</ele>
        <time>2017-06-07T09:26:53Z</time>
      </trkpt>
      <trkpt lat="45.95187" lon="4.87463">
        <ele>272</ele>
        <time>2017-06-07T09:26:54Z</time>
      </trkpt>
      <trkpt lat="45.95189" lon="4.8747">
        <ele>272</ele>
        <time>2017-06-07T09:26:55Z</time>
      </trkpt>
      <trkpt lat="45.9519" lon="4.87477">
        <ele>272</ele>
        <time>2017-06-07T09:26:56Z</time>
      </trkpt>
      <trkpt lat="45.95191" lon="4.87485">
        <ele>272</ele>
        <time>2017-06-07T09:26:57Z</time>
      </trkpt>
      <trkpt lat="45.95193" lon="4.87493">
        <ele>272</ele>
        <time>2017-06-07T09:26:58Z</time>
      </trkpt>
      <trkpt lat="45.95195" lon="4.875">
        <ele>272</ele>
        <time>2017-06-07T09:26:59Z</time>
      </trkpt>
      <trkpt lat="45.95196" lon="4.87507">
        <ele>273</ele>
        <time>2017-06-07T09:27:00Z</time>
      </trkpt>
      <trkpt lat="45.95198" lon="4.87513">
        <ele>273</ele>
        <time>2017-06-07T09:27:01Z</time>
      </trkpt>
      <trkpt lat="45.95199" lon="4.8752">
        <ele>274</ele>
        <time>2017-06-07T09:27:02Z</time>
      </trkpt>
      <trkpt lat="45.95201" lon="4.87527">
        <ele>274</ele>
        <time>2017-06-07T09:27:03Z</time>
      </trkpt>
      <trkpt lat="45.95202" lon="4.87535">
        <ele>274</ele>
        <time>2017-06-07T09:27:04Z</time>
      </trkpt>
      <trkpt lat="45.95204" lon="4.87543">
        <ele>274</ele>
        <time>2017-06-07T09:27:05Z</time>
      </trkpt>
      <trkpt lat="45.95205" lon="4.8755">
        <ele>274</ele>
        <time>2017-06-07T09:27:06Z</time>
      </trkpt>
      <trkpt lat="45.95206" lon="4.87557">
        <ele>274</ele>
        <time>2017-06-07T09:27:07Z</time>
      </trkpt>
      <trkpt lat="45.95206" lon="4.87565">
        <ele>274</ele>
        <time>2017-06-07T09:27:08Z</time>
      </trkpt>
      <trkpt lat="45.95207" lon="4.87573">
        <ele>274</ele>
        <time>2017-06-07T09:27:09Z</time>
      </trkpt>
      <trkpt lat="45.95207" lon="4.8758">
        <ele>274</ele>
        <time>2017-06-07T09:27:10Z</time>
      </trkpt>
      <trkpt lat="45.95208" lon="4.87587">
        <ele>276</ele>
        <time>2017-06-07T09:27:11Z</time>
      </trkpt>
      <trkpt lat="45.95209" lon="4.87594">
        <ele>276</ele>
        <time>2017-06-07T09:27:12Z</time>
      </trkpt>
      <trkpt lat="45.95209" lon="4.87601">
        <ele>276</ele>
        <time>2017-06-07T09:27:13Z</time>
      </trkpt>
      <trkpt lat="45.9521" lon="4.87608">
        <ele>276</ele>
        <time>2017-06-07T09:27:14Z</time>
      </trkpt>
      <trkpt lat="45.95211" lon="4.87614">
        <ele>276</ele>
        <time>2017-06-07T09:27:15Z</time>
      </trkpt>
      <trkpt lat="45.95211" lon="4.8762">
        <ele>276</ele>
        <time>2017-06-07T09:27:16Z</time>
      </trkpt>
      <trkpt lat="45.95212" lon="4.87627">
        <ele>276</ele>
        <time>2017-06-07T09:27:17Z</time>
      </trkpt>
      <trkpt lat="45.95212" lon="4.87634">
        <ele>276</ele>
        <time>2017-06-07T09:27:18Z</time>
      </trkpt>
      <trkpt lat="45.95213" lon="4.8764">
        <ele>276</ele>
        <time>2017-06-07T09:27:19Z</time>
      </trkpt>
      <trkpt lat="45.95214" lon="4.87647">
        <ele>276</ele>
        <time>2017-06-07T09:27:20Z</time>
      </trkpt>
      <trkpt lat="45.95215" lon="4.87654">
        <ele>276</ele>
        <time>2017-06-07T09:27:21Z</time>
      </trkpt>
      <trkpt lat="45.95216" lon="4.87662">
        <ele>277</ele>
        <time>2017-06-07T09:27:22Z</time>
      </trkpt>
      <trkpt lat="45.95217" lon="4.8767">
        <ele>279</ele>
        <time>2017-06-07T09:27:23Z</time>
      </trkpt>
      <trkpt lat="45.95218" lon="4.87678">
        <ele>279</ele>
        <time>2017-06-07T09:27:24Z</time>
      </trkpt>
      <trkpt lat="45.95219" lon="4.87686">
        <ele>279</ele>
        <time>2017-06-07T09:27:25Z</time>
      </trkpt>
      <trkpt lat="45.95221" lon="4.87693">
        <ele>279</ele>
        <time>2017-06-07T09:27:26Z</time>
      </trkpt>
      <trkpt lat="45.95222" lon="4.87701">
        <ele>279</ele>
        <time>2017-06-07T09:27:27Z</time>
      </trkpt>
      <trkpt lat="45.95222" lon="4.87709">
        <ele>279</ele>
        <time>2017-06-07T09:27:28Z</time>
      </trkpt>
      <trkpt lat="45.95223" lon="4.87716">
        <ele>279</ele>
        <time>2017-06-07T09:27:29Z</time>
      </trkpt>
      <trkpt lat="45.95225" lon="4.87727">
        <ele>280</ele>
        <time>2017-06-07T09:27:31Z</time>
      </trkpt>
      <trkpt lat="45.95227" lon="4.87733">
        <ele>280</ele>
        <time>2017-06-07T09:27:32Z</time>
      </trkpt>
      <trkpt lat="45.9523" lon="4.87744">
        <ele>280</ele>
        <time>2017-06-07T09:27:34Z</time>
      </trkpt>
      <trkpt lat="45.95231" lon="4.87751">
        <ele>281</ele>
        <time>2017-06-07T09:27:35Z</time>
      </trkpt>
      <trkpt lat="45.95234" lon="4.87763">
        <ele>282</ele>
        <time>2017-06-07T09:27:37Z</time>
      </trkpt>
      <trkpt lat="45.95235" lon="4.87768">
        <ele>282</ele>
        <time>2017-06-07T09:27:38Z</time>
      </trkpt>
      <trkpt lat="45.95237" lon="4.87778">
        <ele>282</ele>
        <time>2017-06-07T09:27:40Z</time>
      </trkpt>
      <trkpt lat="45.95238" lon="4.87783">
        <ele>282</ele>
        <time>2017-06-07T09:27:41Z</time>
      </trkpt>
      <trkpt lat="45.9524" lon="4.87794">
        <ele>282</ele>
        <time>2017-06-07T09:27:43Z</time>
      </trkpt>
      <trkpt lat="45.95242" lon="4.878">
        <ele>282</ele>
        <time>2017-06-07T09:27:44Z</time>
      </trkpt>
      <trkpt lat="45.95243" lon="4.87806">
        <ele>282</ele>
        <time>2017-06-07T09:27:45Z</time>
      </trkpt>
      <trkpt lat="45.95244" lon="4.87813">
        <ele>282</ele>
        <time>2017-06-07T09:27:46Z</time>
      </trkpt>
      <trkpt lat="45.95245" lon="4.87821">
        <ele>282</ele>
        <time>2017-06-07T09:27:47Z</time>
      </trkpt>
      <trkpt lat="45.95246" lon="4.87829">
        <ele>282</ele>
        <time>2017-06-07T09:27:48Z</time>
      </trkpt>
      <trkpt lat="45.95248" lon="4.87837">
        <ele>282</ele>
        <time>2017-06-07T09:27:49Z</time>
      </trkpt>
      <trkpt lat="45.95249" lon="4.87845">
        <ele>283</ele>
        <time>2017-06-07T09:27:50Z</time>
      </trkpt>
      <trkpt lat="45.9525" lon="4.87852">
        <ele>283</ele>
        <time>2017-06-07T09:27:51Z</time>
      </trkpt>
      <trkpt lat="45.95251" lon="4.87859">
        <ele>281</ele>
        <time>2017-06-07T09:27:52Z</time>
      </trkpt>
      <trkpt lat="45.95253" lon="4.8787">
        <ele>281</ele>
        <time>2017-06-07T09:27:54Z</time>
      </trkpt>
      <trkpt lat="45.95255" lon="4.87876">
        <ele>281</ele>
        <time>2017-06-07T09:27:55Z</time>
      </trkpt>
      <trkpt lat="45.95257" lon="4.87887">
        <ele>281</ele>
        <time>2017-06-07T09:27:57Z</time>
      </trkpt>
      <trkpt lat="45.95259" lon="4.87893">
        <ele>281</ele>
        <time>2017-06-07T09:27:58Z</time>
      </trkpt>
      <trkpt lat="45.9526" lon="4.87904">
        <ele>281</ele>
        <time>2017-06-07T09:28:00Z</time>
      </trkpt>
      <trkpt lat="45.95261" lon="4.8791">
        <ele>282</ele>
        <time>2017-06-07T09:28:01Z</time>
      </trkpt>
      <trkpt lat="45.9526" lon="4.87922">
        <ele>281</ele>
        <time>2017-06-07T09:28:03Z</time>
      </trkpt>
      <trkpt lat="45.9526" lon="4.87927">
        <ele>281</ele>
        <time>2017-06-07T09:28:04Z</time>
      </trkpt>
      <trkpt lat="45.95257" lon="4.87938">
        <ele>281</ele>
        <time>2017-06-07T09:28:06Z</time>
      </trkpt>
      <trkpt lat="45.95256" lon="4.87943">
        <ele>280</ele>
        <time>2017-06-07T09:28:07Z</time>
      </trkpt>
      <trkpt lat="45.95251" lon="4.87954">
        <ele>280</ele>
        <time>2017-06-07T09:28:09Z</time>
      </trkpt>
      <trkpt lat="45.95249" lon="4.87959">
        <ele>282</ele>
        <time>2017-06-07T09:28:10Z</time>
      </trkpt>
      <trkpt lat="45.95244" lon="4.87969">
        <ele>282</ele>
        <time>2017-06-07T09:28:12Z</time>
      </trkpt>
      <trkpt lat="45.95242" lon="4.87974">
        <ele>282</ele>
        <time>2017-06-07T09:28:13Z</time>
      </trkpt>
      <trkpt lat="45.95237" lon="4.87983">
        <ele>281</ele>
        <time>2017-06-07T09:28:15Z</time>
      </trkpt>
      <trkpt lat="45.95234" lon="4.87987">
        <ele>281</ele>
        <time>2017-06-07T09:28:16Z</time>
      </trkpt>
      <trkpt lat="45.95231" lon="4.87992">
        <ele>281</ele>
        <time>2017-06-07T09:28:17Z</time>
      </trkpt>
      <trkpt lat="45.95227" lon="4.87997">
        <ele>281</ele>
        <time>2017-06-07T09:28:18Z</time>
      </trkpt>
      <trkpt lat="45.95224" lon="4.88001">
        <ele>281</ele>
        <time>2017-06-07T09:28:19Z</time>
      </trkpt>
      <trkpt lat="45.95221" lon="4.88006">
        <ele>281</ele>
        <time>2017-06-07T09:28:20Z</time>
      </trkpt>
      <trkpt lat="45.95218" lon="4.88011">
        <ele>281</ele>
        <time>2017-06-07T09:28:21Z</time>
      </trkpt>
      <trkpt lat="45.95215" lon="4.88015">
        <ele>281</ele>
        <time>2017-06-07T09:28:22Z</time>
      </trkpt>
      <trkpt lat="45.95209" lon="4.88024">
        <ele>281</ele>
        <time>2017-06-07T09:28:24Z</time>
      </trkpt>
      <trkpt lat="45.95205" lon="4.88029">
        <ele>281</ele>
        <time>2017-06-07T09:28:25Z</time>
      </trkpt>
      <trkpt lat="45.95202" lon="4.88034">
        <ele>281</ele>
        <time>2017-06-07T09:28:26Z</time>
      </trkpt>
      <trkpt lat="45.95199" lon="4.8804">
        <ele>281</ele>
        <time>2017-06-07T09:28:27Z</time>
      </trkpt>
      <trkpt lat="45.95197" lon="4.88046">
        <ele>281</ele>
        <time>2017-06-07T09:28:28Z</time>
      </trkpt>
      <trkpt lat="45.95194" lon="4.88051">
        <ele>281</ele>
        <time>2017-06-07T09:28:29Z</time>
      </trkpt>
      <trkpt lat="45.95189" lon="4.88062">
        <ele>281</ele>
        <time>2017-06-07T09:28:31Z</time>
      </trkpt>
      <trkpt lat="45.95188" lon="4.88068">
        <ele>281</ele>
        <time>2017-06-07T09:28:32Z</time>
      </trkpt>
      <trkpt lat="45.95187" lon="4.88075">
        <ele>281</ele>
        <time>2017-06-07T09:28:33Z</time>
      </trkpt>
      <trkpt lat="45.95185" lon="4.88081">
        <ele>281</ele>
        <time>2017-06-07T09:28:34Z</time>
      </trkpt>
      <trkpt lat="45.95184" lon="4.88088">
        <ele>282</ele>
        <time>2017-06-07T09:28:35Z</time>
      </trkpt>
      <trkpt lat="45.95182" lon="4.88094">
        <ele>282</ele>
        <time>2017-06-07T09:28:36Z</time>
      </trkpt>
      <trkpt lat="45.95181" lon="4.88101">
        <ele>282</ele>
        <time>2017-06-07T09:28:37Z</time>
      </trkpt>
      <trkpt lat="45.9518" lon="4.88107">
        <ele>282</ele>
        <time>2017-06-07T09:28:38Z</time>
      </trkpt>
      <trkpt lat="45.95177" lon="4.88118">
        <ele>282</ele>
        <time>2017-06-07T09:28:40Z</time>
      </trkpt>
      <trkpt lat="45.95176" lon="4.88124">
        <ele>282</ele>
        <time>2017-06-07T09:28:41Z</time>
      </trkpt>
      <trkpt lat="45.95173" lon="4.88133">
        <ele>283</ele>
        <time>2017-06-07T09:28:43Z</time>
      </trkpt>
      <trkpt lat="45.95171" lon="4.88138">
        <ele>283</ele>
        <time>2017-06-07T09:28:44Z</time>
      </trkpt>
      <trkpt lat="45.95169" lon="4.88149">
        <ele>283</ele>
        <time>2017-06-07T09:28:46Z</time>
      </trkpt>
      <trkpt lat="45.95168" lon="4.88155">
        <ele>284</ele>
        <time>2017-06-07T09:28:47Z</time>
      </trkpt>
      <trkpt lat="45.9517" lon="4.88165">
        <ele>285</ele>
        <time>2017-06-07T09:28:49Z</time>
      </trkpt>
      <trkpt lat="45.95171" lon="4.8817">
        <ele>285</ele>
        <time>2017-06-07T09:28:50Z</time>
      </trkpt>
      <trkpt lat="45.95177" lon="4.88174">
        <ele>285</ele>
        <time>2017-06-07T09:28:52Z</time>
      </trkpt>
      <trkpt lat="45.9518" lon="4.88174">
        <ele>285</ele>
        <time>2017-06-07T09:28:53Z</time>
      </trkpt>
      <trkpt lat="45.95188" lon="4.88174">
        <ele>285</ele>
        <time>2017-06-07T09:28:55Z</time>
      </trkpt>
      <trkpt lat="45.95193" lon="4.88174">
        <ele>285</ele>
        <time>2017-06-07T09:28:56Z</time>
      </trkpt>
      <trkpt lat="45.95197" lon="4.88174">
        <ele>285</ele>
        <time>2017-06-07T09:28:57Z</time>
      </trkpt>
      <trkpt lat="45.95202" lon="4.88174">
        <ele>285</ele>
        <time>2017-06-07T09:28:58Z</time>
      </trkpt>
      <trkpt lat="45.95207" lon="4.88172">
        <ele>284</ele>
        <time>2017-06-07T09:28:59Z</time>
      </trkpt>
      <trkpt lat="45.95212" lon="4.88169">
        <ele>284</ele>
        <time>2017-06-07T09:29:00Z</time>
      </trkpt>
      <trkpt lat="45.95217" lon="4.88169">
        <ele>284</ele>
        <time>2017-06-07T09:29:01Z</time>
      </trkpt>
      <trkpt lat="45.95223" lon="4.88169">
        <ele>284</ele>
        <time>2017-06-07T09:29:02Z</time>
      </trkpt>
      <trkpt lat="45.95228" lon="4.8817">
        <ele>283</ele>
        <time>2017-06-07T09:29:03Z</time>
      </trkpt>
      <trkpt lat="45.95234" lon="4.88171">
        <ele>283</ele>
        <time>2017-06-07T09:29:04Z</time>
      </trkpt>
      <trkpt lat="45.9524" lon="4.88173">
        <ele>283</ele>
        <time>2017-06-07T09:29:05Z</time>
      </trkpt>
      <trkpt lat="45.95247" lon="4.88173">
        <ele>282</ele>
        <time>2017-06-07T09:29:06Z</time>
      </trkpt>
      <trkpt lat="45.95253" lon="4.88173">
        <ele>281</ele>
        <time>2017-06-07T09:29:07Z</time>
      </trkpt>
      <trkpt lat="45.9526" lon="4.88173">
        <ele>281</ele>
        <time>2017-06-07T09:29:08Z</time>
      </trkpt>
      <trkpt lat="45.95266" lon="4.88173">
        <ele>281</ele>
        <time>2017-06-07T09:29:09Z</time>
      </trkpt>
      <trkpt lat="45.95273" lon="4.88173">
        <ele>281</ele>
        <time>2017-06-07T09:29:10Z</time>
      </trkpt>
      <trkpt lat="45.9528" lon="4.88174">
        <ele>281</ele>
        <time>2017-06-07T09:29:11Z</time>
      </trkpt>
      <trkpt lat="45.95287" lon="4.88175">
        <ele>281</ele>
        <time>2017-06-07T09:29:12Z</time>
      </trkpt>
      <trkpt lat="45.95294" lon="4.88176">
        <ele>281</ele>
        <time>2017-06-07T09:29:13Z</time>
      </trkpt>
      <trkpt lat="45.95301" lon="4.88177">
        <ele>281</ele>
        <time>2017-06-07T09:29:14Z</time>
      </trkpt>
      <trkpt lat="45.95308" lon="4.88177">
        <ele>280</ele>
        <time>2017-06-07T09:29:15Z</time>
      </trkpt>
      <trkpt lat="45.95315" lon="4.88178">
        <ele>280</ele>
        <time>2017-06-07T09:29:16Z</time>
      </trkpt>
      <trkpt lat="45.95322" lon="4.88178">
        <ele>280</ele>
        <time>2017-06-07T09:29:17Z</time>
      </trkpt>
      <trkpt lat="45.95329" lon="4.88178">
        <ele>279</ele>
        <time>2017-06-07T09:29:18Z</time>
      </trkpt>
      <trkpt lat="45.95337" lon="4.88177">
        <ele>278</ele>
        <time>2017-06-07T09:29:19Z</time>
      </trkpt>
      <trkpt lat="45.95344" lon="4.88177">
        <ele>278</ele>
        <time>2017-06-07T09:29:20Z</time>
      </trkpt>
      <trkpt lat="45.95352" lon="4.88176">
        <ele>278</ele>
        <time>2017-06-07T09:29:21Z</time>
      </trkpt>
      <trkpt lat="45.9536" lon="4.88175">
        <ele>278</ele>
        <time>2017-06-07T09:29:22Z</time>
      </trkpt>
      <trkpt lat="45.95367" lon="4.88173">
        <ele>278</ele>
        <time>2017-06-07T09:29:23Z</time>
      </trkpt>
      <trkpt lat="45.95374" lon="4.88171">
        <ele>278</ele>
        <time>2017-06-07T09:29:24Z</time>
      </trkpt>
      <trkpt lat="45.95381" lon="4.88169">
        <ele>278</ele>
        <time>2017-06-07T09:29:25Z</time>
      </trkpt>
      <trkpt lat="45.95388" lon="4.88167">
        <ele>278</ele>
        <time>2017-06-07T09:29:26Z</time>
      </trkpt>
      <trkpt lat="45.95394" lon="4.88165">
        <ele>276</ele>
        <time>2017-06-07T09:29:27Z</time>
      </trkpt>
      <trkpt lat="45.95399" lon="4.88163">
        <ele>276</ele>
        <time>2017-06-07T09:29:28Z</time>
      </trkpt>
      <trkpt lat="45.95405" lon="4.8816">
        <ele>276</ele>
        <time>2017-06-07T09:29:29Z</time>
      </trkpt>
      <trkpt lat="45.95411" lon="4.88157">
        <ele>276</ele>
        <time>2017-06-07T09:29:30Z</time>
      </trkpt>
      <trkpt lat="45.95416" lon="4.88154">
        <ele>276</ele>
        <time>2017-06-07T09:29:31Z</time>
      </trkpt>
      <trkpt lat="45.95421" lon="4.88151">
        <ele>276</ele>
        <time>2017-06-07T09:29:32Z</time>
      </trkpt>
      <trkpt lat="45.95426" lon="4.88149">
        <ele>276</ele>
        <time>2017-06-07T09:29:33Z</time>
      </trkpt>
      <trkpt lat="45.95431" lon="4.88147">
        <ele>276</ele>
        <time>2017-06-07T09:29:34Z</time>
      </trkpt>
      <trkpt lat="45.95439" lon="4.88144">
        <ele>276</ele>
        <time>2017-06-07T09:29:36Z</time>
      </trkpt>
      <trkpt lat="45.95444" lon="4.88143">
        <ele>276</ele>
        <time>2017-06-07T09:29:37Z</time>
      </trkpt>
      <trkpt lat="45.95451" lon="4.88141">
        <ele>276</ele>
        <time>2017-06-07T09:29:39Z</time>
      </trkpt>
      <trkpt lat="45.95455" lon="4.88139">
        <ele>276</ele>
        <time>2017-06-07T09:29:40Z</time>
      </trkpt>
      <trkpt lat="45.9546" lon="4.88137">
        <ele>276</ele>
        <time>2017-06-07T09:29:41Z</time>
      </trkpt>
      <trkpt lat="45.95464" lon="4.88135">
        <ele>276</ele>
        <time>2017-06-07T09:29:42Z</time>
      </trkpt>
      <trkpt lat="45.95469" lon="4.88133">
        <ele>276</ele>
        <time>2017-06-07T09:29:43Z</time>
      </trkpt>
      <trkpt lat="45.95474" lon="4.88131">
        <ele>276</ele>
        <time>2017-06-07T09:29:44Z</time>
      </trkpt>
      <trkpt lat="45.9548" lon="4.8813">
        <ele>276</ele>
        <time>2017-06-07T09:29:45Z</time>
      </trkpt>
      <trkpt lat="45.95485" lon="4.88127">
        <ele>276</ele>
        <time>2017-06-07T09:29:46Z</time>
      </trkpt>
      <trkpt lat="45.9549" lon="4.88124">
        <ele>276</ele>
        <time>2017-06-07T09:29:47Z</time>
      </trkpt>
      <trkpt lat="45.95495" lon="4.88122">
        <ele>276</ele>
        <time>2017-06-07T09:29:48Z</time>
      </trkpt>
      <trkpt lat="45.95499" lon="4.8812">
        <ele>276</ele>
        <time>2017-06-07T09:29:49Z</time>
      </trkpt>
      <trkpt lat="45.95503" lon="4.88118">
        <ele>276</ele>
        <time>2017-06-07T09:29:50Z</time>
      </trkpt>
      <trkpt lat="45.95512" lon="4.88114">
        <ele>276</ele>
        <time>2017-06-07T09:29:52Z</time>
      </trkpt>
      <trkpt lat="45.95516" lon="4.88111">
        <ele>276</ele>
        <time>2017-06-07T09:29:53Z</time>
      </trkpt>
      <trkpt lat="45.9552" lon="4.88108">
        <ele>277</ele>
        <time>2017-06-07T09:29:54Z</time>
      </trkpt>
      <trkpt lat="45.95525" lon="4.88106">
        <ele>277</ele>
        <time>2017-06-07T09:29:55Z</time>
      </trkpt>
      <trkpt lat="45.9553" lon="4.88103">
        <ele>277</ele>
        <time>2017-06-07T09:29:56Z</time>
      </trkpt>
      <trkpt lat="45.95535" lon="4.88101">
        <ele>277</ele>
        <time>2017-06-07T09:29:57Z</time>
      </trkpt>
      <trkpt lat="45.95541" lon="4.88098">
        <ele>277</ele>
        <time>2017-06-07T09:29:58Z</time>
      </trkpt>
      <trkpt lat="45.95546" lon="4.88095">
        <ele>277</ele>
        <time>2017-06-07T09:29:59Z</time>
      </trkpt>
      <trkpt lat="45.95553" lon="4.88092">
        <ele>277</ele>
        <time>2017-06-07T09:30:00Z</time>
      </trkpt>
      <trkpt lat="45.95558" lon="4.8809">
        <ele>277</ele>
        <time>2017-06-07T09:30:01Z</time>
      </trkpt>
      <trkpt lat="45.95563" lon="4.88087">
        <ele>277</ele>
        <time>2017-06-07T09:30:02Z</time>
      </trkpt>
      <trkpt lat="45.95568" lon="4.88084">
        <ele>277</ele>
        <time>2017-06-07T09:30:03Z</time>
      </trkpt>
      <trkpt lat="45.95572" lon="4.88081">
        <ele>277</ele>
        <time>2017-06-07T09:30:04Z</time>
      </trkpt>
      <trkpt lat="45.95576" lon="4.88078">
        <ele>277</ele>
        <time>2017-06-07T09:30:05Z</time>
      </trkpt>
      <trkpt lat="45.95583" lon="4.88073">
        <ele>277</ele>
        <time>2017-06-07T09:30:07Z</time>
      </trkpt>
      <trkpt lat="45.95587" lon="4.88069">
        <ele>278</ele>
        <time>2017-06-07T09:30:08Z</time>
      </trkpt>
      <trkpt lat="45.95591" lon="4.88065">
        <ele>278</ele>
        <time>2017-06-07T09:30:09Z</time>
      </trkpt>
      <trkpt lat="45.95595" lon="4.88062">
        <ele>278</ele>
        <time>2017-06-07T09:30:10Z</time>
      </trkpt>
      <trkpt lat="45.956" lon="4.88058">
        <ele>278</ele>
        <time>2017-06-07T09:30:11Z</time>
      </trkpt>
      <trkpt lat="45.95605" lon="4.88053">
        <ele>278</ele>
        <time>2017-06-07T09:30:12Z</time>
      </trkpt>
      <trkpt lat="45.95609" lon="4.88049">
        <ele>278</ele>
        <time>2017-06-07T09:30:13Z</time>
      </trkpt>
      <trkpt lat="45.95614" lon="4.88045">
        <ele>278</ele>
        <time>2017-06-07T09:30:14Z</time>
      </trkpt>
      <trkpt lat="45.95619" lon="4.88041">
        <ele>278</ele>
        <time>2017-06-07T09:30:15Z</time>
      </trkpt>
      <trkpt lat="45.95624" lon="4.88036">
        <ele>278</ele>
        <time>2017-06-07T09:30:16Z</time>
      </trkpt>
      <trkpt lat="45.95631" lon="4.8803">
        <ele>279</ele>
        <time>2017-06-07T09:30:18Z</time>
      </trkpt>
      <trkpt lat="45.95634" lon="4.88027">
        <ele>279</ele>
        <time>2017-06-07T09:30:19Z</time>
      </trkpt>
      <trkpt lat="45.9564" lon="4.88021">
        <ele>279</ele>
        <time>2017-06-07T09:30:21Z</time>
      </trkpt>
      <trkpt lat="45.95643" lon="4.88018">
        <ele>279</ele>
        <time>2017-06-07T09:30:22Z</time>
      </trkpt>
      <trkpt lat="45.9565" lon="4.88011">
        <ele>280</ele>
        <time>2017-06-07T09:30:24Z</time>
      </trkpt>
      <trkpt lat="45.95654" lon="4.88008">
        <ele>280</ele>
        <time>2017-06-07T09:30:25Z</time>
      </trkpt>
      <trkpt lat="45.95661" lon="4.88001">
        <ele>280</ele>
        <time>2017-06-07T09:30:27Z</time>
      </trkpt>
      <trkpt lat="45.95664" lon="4.87997">
        <ele>281</ele>
        <time>2017-06-07T09:30:28Z</time>
      </trkpt>
      <trkpt lat="45.95668" lon="4.87994">
        <ele>281</ele>
        <time>2017-06-07T09:30:29Z</time>
      </trkpt>
      <trkpt lat="45.95672" lon="4.87991">
        <ele>282</ele>
        <time>2017-06-07T09:30:30Z</time>
      </trkpt>
      <trkpt lat="45.95678" lon="4.87985">
        <ele>282</ele>
        <time>2017-06-07T09:30:32Z</time>
      </trkpt>
      <trkpt lat="45.95682" lon="4.87983">
        <ele>282</ele>
        <time>2017-06-07T09:30:33Z</time>
      </trkpt>
      <trkpt lat="45.95687" lon="4.87978">
        <ele>282</ele>
        <time>2017-06-07T09:30:35Z</time>
      </trkpt>
      <trkpt lat="45.9569" lon="4.87975">
        <ele>282</ele>
        <time>2017-06-07T09:30:36Z</time>
      </trkpt>
      <trkpt lat="45.95695" lon="4.87969">
        <ele>282</ele>
        <time>2017-06-07T09:30:38Z</time>
      </trkpt>
      <trkpt lat="45.95698" lon="4.87966">
        <ele>282</ele>
        <time>2017-06-07T09:30:39Z</time>
      </trkpt>
      <trkpt lat="45.95705" lon="4.87962">
        <ele>283</ele>
        <time>2017-06-07T09:30:41Z</time>
      </trkpt>
      <trkpt lat="45.95708" lon="4.87959">
        <ele>283</ele>
        <time>2017-06-07T09:30:42Z</time>
      </trkpt>
      <trkpt lat="45.95715" lon="4.87956">
        <ele>283</ele>
        <time>2017-06-07T09:30:44Z</time>
      </trkpt>
      <trkpt lat="45.95718" lon="4.87953">
        <ele>283</ele>
        <time>2017-06-07T09:30:45Z</time>
      </trkpt>
      <trkpt lat="45.95725" lon="4.87947">
        <ele>283</ele>
        <time>2017-06-07T09:30:48Z</time>
      </trkpt>
      <trkpt lat="45.95727" lon="4.87946">
        <ele>283</ele>
        <time>2017-06-07T09:30:49Z</time>
      </trkpt>
      <trkpt lat="45.95733" lon="4.8794">
        <ele>284</ele>
        <time>2017-06-07T09:30:52Z</time>
      </trkpt>
      <trkpt lat="45.95735" lon="4.87938">
        <ele>284</ele>
        <time>2017-06-07T09:30:53Z</time>
      </trkpt>
      <trkpt lat="45.95741" lon="4.87934">
        <ele>284</ele>
        <time>2017-06-07T09:30:55Z</time>
      </trkpt>
      <trkpt lat="45.95743" lon="4.87932">
        <ele>284</ele>
        <time>2017-06-07T09:30:56Z</time>
      </trkpt>
      <trkpt lat="45.9575" lon="4.87926">
        <ele>286</ele>
        <time>2017-06-07T09:30:59Z</time>
      </trkpt>
      <trkpt lat="45.95754" lon="4.87925">
        <ele>286</ele>
        <time>2017-06-07T09:31:00Z</time>
      </trkpt>
      <trkpt lat="45.95759" lon="4.8792">
        <ele>286</ele>
        <time>2017-06-07T09:31:02Z</time>
      </trkpt>
      <trkpt lat="45.95762" lon="4.87918">
        <ele>286</ele>
        <time>2017-06-07T09:31:03Z</time>
      </trkpt>
      <trkpt lat="45.95769" lon="4.87913">
        <ele>286</ele>
        <time>2017-06-07T09:31:06Z</time>
      </trkpt>
      <trkpt lat="45.95771" lon="4.87911">
        <ele>286</ele>
        <time>2017-06-07T09:31:07Z</time>
      </trkpt>
      <trkpt lat="45.95778" lon="4.87907">
        <ele>286</ele>
        <time>2017-06-07T09:31:10Z</time>
      </trkpt>
      <trkpt lat="45.9578" lon="4.87906">
        <ele>286</ele>
        <time>2017-06-07T09:31:11Z</time>
      </trkpt>
      <trkpt lat="45.95788" lon="4.879">
        <ele>286</ele>
        <time>2017-06-07T09:31:15Z</time>
      </trkpt>
      <trkpt lat="45.9579" lon="4.87898">
        <ele>286</ele>
        <time>2017-06-07T09:31:16Z</time>
      </trkpt>
      <trkpt lat="45.95797" lon="4.87895">
        <ele>287</ele>
        <time>2017-06-07T09:31:19Z</time>
      </trkpt>
      <trkpt lat="45.95799" lon="4.87893">
        <ele>287</ele>
        <time>2017-06-07T09:31:20Z</time>
      </trkpt>
      <trkpt lat="45.95807" lon="4.8789">
        <ele>287</ele>
        <time>2017-06-07T09:31:23Z</time>
      </trkpt>
      <trkpt lat="45.9581" lon="4.87889">
        <ele>287</ele>
        <time>2017-06-07T09:31:24Z</time>
      </trkpt>
      <trkpt lat="45.95818" lon="4.87887">
        <ele>287</ele>
        <time>2017-06-07T09:31:27Z</time>
      </trkpt>
      <trkpt lat="45.95821" lon="4.87887">
        <ele>287</ele>
        <time>2017-06-07T09:31:28Z</time>
      </trkpt>
      <trkpt lat="45.95827" lon="4.87886">
        <ele>287</ele>
        <time>2017-06-07T09:31:30Z</time>
      </trkpt>
      <trkpt lat="45.95831" lon="4.87883">
        <ele>287</ele>
        <time>2017-06-07T09:31:31Z</time>
      </trkpt>
      <trkpt lat="45.95838" lon="4.87876">
        <ele>289</ele>
        <time>2017-06-07T09:31:33Z</time>
      </trkpt>
      <trkpt lat="45.9584" lon="4.87871">
        <ele>289</ele>
        <time>2017-06-07T09:31:34Z</time>
      </trkpt>
      <trkpt lat="45.95846" lon="4.87863">
        <ele>289</ele>
        <time>2017-06-07T09:31:36Z</time>
      </trkpt>
      <trkpt lat="45.95849" lon="4.8786">
        <ele>289</ele>
        <time>2017-06-07T09:31:37Z</time>
      </trkpt>
      <trkpt lat="45.95854" lon="4.87854">
        <ele>289</ele>
        <time>2017-06-07T09:31:39Z</time>
      </trkpt>
      <trkpt lat="45.95857" lon="4.87851">
        <ele>289</ele>
        <time>2017-06-07T09:31:40Z</time>
      </trkpt>
      <trkpt lat="45.95863" lon="4.87846">
        <ele>289</ele>
        <time>2017-06-07T09:31:42Z</time>
      </trkpt>
      <trkpt lat="45.95866" lon="4.87843">
        <ele>289</ele>
        <time>2017-06-07T09:31:43Z</time>
      </trkpt>
      <trkpt lat="45.95872" lon="4.87837">
        <ele>289</ele>
        <time>2017-06-07T09:31:45Z</time>
      </trkpt>
      <trkpt lat="45.95875" lon="4.87834">
        <ele>289</ele>
        <time>2017-06-07T09:31:46Z</time>
      </trkpt>
      <trkpt lat="45.95881" lon="4.87828">
        <ele>288</ele>
        <time>2017-06-07T09:31:48Z</time>
      </trkpt>
      <trkpt lat="45.95883" lon="4.87825">
        <ele>288</ele>
        <time>2017-06-07T09:31:49Z</time>
      </trkpt>
      <trkpt lat="45.95889" lon="4.8782">
        <ele>288</ele>
        <time>2017-06-07T09:31:51Z</time>
      </trkpt>
      <trkpt lat="45.95892" lon="4.87817">
        <ele>288</ele>
        <time>2017-06-07T09:31:52Z</time>
      </trkpt>
      <trkpt lat="45.95897" lon="4.8781">
        <ele>288</ele>
        <time>2017-06-07T09:31:54Z</time>
      </trkpt>
      <trkpt lat="45.95899" lon="4.87805">
        <ele>288</ele>
        <time>2017-06-07T09:31:55Z</time>
      </trkpt>
      <trkpt lat="45.95904" lon="4.87798">
        <ele>288</ele>
        <time>2017-06-07T09:31:57Z</time>
      </trkpt>
      <trkpt lat="45.95906" lon="4.87795">
        <ele>288</ele>
        <time>2017-06-07T09:31:58Z</time>
      </trkpt>
      <trkpt lat="45.95912" lon="4.87786">
        <ele>288</ele>
        <time>2017-06-07T09:32:01Z</time>
      </trkpt>
      <trkpt lat="45.95914" lon="4.87782">
        <ele>288</ele>
        <time>2017-06-07T09:32:02Z</time>
      </trkpt>
      <trkpt lat="45.95919" lon="4.87774">
        <ele>289</ele>
        <time>2017-06-07T09:32:04Z</time>
      </trkpt>
      <trkpt lat="45.95921" lon="4.8777">
        <ele>289</ele>
        <time>2017-06-07T09:32:05Z</time>
      </trkpt>
      <trkpt lat="45.95926" lon="4.87761">
        <ele>288</ele>
        <time>2017-06-07T09:32:07Z</time>
      </trkpt>
      <trkpt lat="45.95928" lon="4.87757">
        <ele>288</ele>
        <time>2017-06-07T09:32:08Z</time>
      </trkpt>
      <trkpt lat="45.95933" lon="4.87748">
        <ele>288</ele>
        <time>2017-06-07T09:32:10Z</time>
      </trkpt>
      <trkpt lat="45.95936" lon="4.87744">
        <ele>288</ele>
        <time>2017-06-07T09:32:11Z</time>
      </trkpt>
      <trkpt lat="45.95942" lon="4.87736">
        <ele>289</ele>
        <time>2017-06-07T09:32:13Z</time>
      </trkpt>
      <trkpt lat="45.95945" lon="4.87732">
        <ele>289</ele>
        <time>2017-06-07T09:32:14Z</time>
      </trkpt>
      <trkpt lat="45.9595" lon="4.87725">
        <ele>289</ele>
        <time>2017-06-07T09:32:16Z</time>
      </trkpt>
      <trkpt lat="45.95952" lon="4.87721">
        <ele>289</ele>
        <time>2017-06-07T09:32:17Z</time>
      </trkpt>
      <trkpt lat="45.95958" lon="4.87713">
        <ele>289</ele>
        <time>2017-06-07T09:32:19Z</time>
      </trkpt>
      <trkpt lat="45.95961" lon="4.87709">
        <ele>289</ele>
        <time>2017-06-07T09:32:20Z</time>
      </trkpt>
      <trkpt lat="45.95965" lon="4.87705">
        <ele>289</ele>
        <time>2017-06-07T09:32:21Z</time>
      </trkpt>
      <trkpt lat="45.95968" lon="4.87701">
        <ele>289</ele>
        <time>2017-06-07T09:32:22Z</time>
      </trkpt>
      <trkpt lat="45.95974" lon="4.87693">
        <ele>289</ele>
        <time>2017-06-07T09:32:24Z</time>
      </trkpt>
      <trkpt lat="45.95977" lon="4.87689">
        <ele>289</ele>
        <time>2017-06-07T09:32:25Z</time>
      </trkpt>
      <trkpt lat="45.95983" lon="4.87681">
        <ele>289</ele>
        <time>2017-06-07T09:32:27Z</time>
      </trkpt>
      <trkpt lat="45.95987" lon="4.87678">
        <ele>289</ele>
        <time>2017-06-07T09:32:28Z</time>
      </trkpt>
      <trkpt lat="45.95993" lon="4.87671">
        <ele>290</ele>
        <time>2017-06-07T09:32:30Z</time>
      </trkpt>
      <trkpt lat="45.95996" lon="4.87667">
        <ele>290</ele>
        <time>2017-06-07T09:32:31Z</time>
      </trkpt>
      <trkpt lat="45.96003" lon="4.8766">
        <ele>290</ele>
        <time>2017-06-07T09:32:33Z</time>
      </trkpt>
      <trkpt lat="45.96006" lon="4.87656">
        <ele>290</ele>
        <time>2017-06-07T09:32:34Z</time>
      </trkpt>
      <trkpt lat="45.9601" lon="4.87652">
        <ele>289</ele>
        <time>2017-06-07T09:32:35Z</time>
      </trkpt>
      <trkpt lat="45.96013" lon="4.87648">
        <ele>289</ele>
        <time>2017-06-07T09:32:36Z</time>
      </trkpt>
      <trkpt lat="45.96017" lon="4.87644">
        <ele>289</ele>
        <time>2017-06-07T09:32:37Z</time>
      </trkpt>
      <trkpt lat="45.9602" lon="4.8764">
        <ele>289</ele>
        <time>2017-06-07T09:32:38Z</time>
      </trkpt>
      <trkpt lat="45.96026" lon="4.87633">
        <ele>289</ele>
        <time>2017-06-07T09:32:40Z</time>
      </trkpt>
      <trkpt lat="45.96029" lon="4.8763">
        <ele>289</ele>
        <time>2017-06-07T09:32:41Z</time>
      </trkpt>
      <trkpt lat="45.96035" lon="4.87623">
        <ele>289</ele>
        <time>2017-06-07T09:32:43Z</time>
      </trkpt>
      <trkpt lat="45.96038" lon="4.8762">
        <ele>289</ele>
        <time>2017-06-07T09:32:44Z</time>
      </trkpt>
      <trkpt lat="45.96042" lon="4.87616">
        <ele>289</ele>
        <time>2017-06-07T09:32:45Z</time>
      </trkpt>
      <trkpt lat="45.96046" lon="4.87612">
        <ele>289</ele>
        <time>2017-06-07T09:32:46Z</time>
      </trkpt>
      <trkpt lat="45.9605" lon="4.87608">
        <ele>289</ele>
        <time>2017-06-07T09:32:47Z</time>
      </trkpt>
      <trkpt lat="45.96054" lon="4.87605">
        <ele>289</ele>
        <time>2017-06-07T09:32:48Z</time>
      </trkpt>
      <trkpt lat="45.96057" lon="4.876">
        <ele>288</ele>
        <time>2017-06-07T09:32:49Z</time>
      </trkpt>
      <trkpt lat="45.96061" lon="4.87597">
        <ele>288</ele>
        <time>2017-06-07T09:32:50Z</time>
      </trkpt>
      <trkpt lat="45.96064" lon="4.87593">
        <ele>288</ele>
        <time>2017-06-07T09:32:51Z</time>
      </trkpt>
      <trkpt lat="45.96068" lon="4.87589">
        <ele>288</ele>
        <time>2017-06-07T09:32:52Z</time>
      </trkpt>
      <trkpt lat="45.96071" lon="4.87585">
        <ele>288</ele>
        <time>2017-06-07T09:32:53Z</time>
      </trkpt>
      <trkpt lat="45.96075" lon="4.87581">
        <ele>288</ele>
        <time>2017-06-07T09:32:54Z</time>
      </trkpt>
      <trkpt lat="45.96079" lon="4.87576">
        <ele>288</ele>
        <time>2017-06-07T09:32:55Z</time>
      </trkpt>
      <trkpt lat="45.96082" lon="4.87572">
        <ele>288</ele>
        <time>2017-06-07T09:32:56Z</time>
      </trkpt>
      <trkpt lat="45.96086" lon="4.87568">
        <ele>287</ele>
        <time>2017-06-07T09:32:57Z</time>
      </trkpt>
      <trkpt lat="45.96089" lon="4.87564">
        <ele>287</ele>
        <time>2017-06-07T09:32:58Z</time>
      </trkpt>
      <trkpt lat="45.96093" lon="4.87559">
        <ele>287</ele>
        <time>2017-06-07T09:32:59Z</time>
      </trkpt>
      <trkpt lat="45.96097" lon="4.87555">
        <ele>287</ele>
        <time>2017-06-07T09:33:00Z</time>
      </trkpt>
      <trkpt lat="45.961" lon="4.8755">
        <ele>287</ele>
        <time>2017-06-07T09:33:01Z</time>
      </trkpt>
      <trkpt lat="45.96104" lon="4.87546">
        <ele>287</ele>
        <time>2017-06-07T09:33:02Z</time>
      </trkpt>
      <trkpt lat="45.96109" lon="4.8754">
        <ele>287</ele>
        <time>2017-06-07T09:33:03Z</time>
      </trkpt>
      <trkpt lat="45.96113" lon="4.87535">
        <ele>287</ele>
        <time>2017-06-07T09:33:04Z</time>
      </trkpt>
      <trkpt lat="45.96118" lon="4.8753">
        <ele>287</ele>
        <time>2017-06-07T09:33:05Z</time>
      </trkpt>
      <trkpt lat="45.96122" lon="4.87524">
        <ele>286</ele>
        <time>2017-06-07T09:33:06Z</time>
      </trkpt>
      <trkpt lat="45.96127" lon="4.87519">
        <ele>286</ele>
        <time>2017-06-07T09:33:07Z</time>
      </trkpt>
      <trkpt lat="45.96132" lon="4.87513">
        <ele>286</ele>
        <time>2017-06-07T09:33:08Z</time>
      </trkpt>
      <trkpt lat="45.96136" lon="4.87508">
        <ele>286</ele>
        <time>2017-06-07T09:33:09Z</time>
      </trkpt>
      <trkpt lat="45.96141" lon="4.87503">
        <ele>286</ele>
        <time>2017-06-07T09:33:10Z</time>
      </trkpt>
      <trkpt lat="45.96145" lon="4.87498">
        <ele>285</ele>
        <time>2017-06-07T09:33:11Z</time>
      </trkpt>
      <trkpt lat="45.9615" lon="4.87493">
        <ele>285</ele>
        <time>2017-06-07T09:33:12Z</time>
      </trkpt>
      <trkpt lat="45.96154" lon="4.87488">
        <ele>285</ele>
        <time>2017-06-07T09:33:13Z</time>
      </trkpt>
      <trkpt lat="45.96159" lon="4.87483">
        <ele>285</ele>
        <time>2017-06-07T09:33:14Z</time>
      </trkpt>
      <trkpt lat="45.96164" lon="4.87478">
        <ele>285</ele>
        <time>2017-06-07T09:33:15Z</time>
      </trkpt>
      <trkpt lat="45.96169" lon="4.87472">
        <ele>284</ele>
        <time>2017-06-07T09:33:16Z</time>
      </trkpt>
      <trkpt lat="45.96173" lon="4.87467">
        <ele>284</ele>
        <time>2017-06-07T09:33:17Z</time>
      </trkpt>
      <trkpt lat="45.96178" lon="4.87462">
        <ele>284</ele>
        <time>2017-06-07T09:33:18Z</time>
      </trkpt>
      <trkpt lat="45.96182" lon="4.87457">
        <ele>284</ele>
        <time>2017-06-07T09:33:19Z</time>
      </trkpt>
      <trkpt lat="45.96187" lon="4.87451">
        <ele>284</ele>
        <time>2017-06-07T09:33:20Z</time>
      </trkpt>
      <trkpt lat="45.96191" lon="4.87446">
        <ele>284</ele>
        <time>2017-06-07T09:33:21Z</time>
      </trkpt>
      <trkpt lat="45.96196" lon="4.87441">
        <ele>284</ele>
        <time>2017-06-07T09:33:22Z</time>
      </trkpt>
      <trkpt lat="45.962" lon="4.87437">
        <ele>284</ele>
        <time>2017-06-07T09:33:23Z</time>
      </trkpt>
      <trkpt lat="45.96204" lon="4.87432">
        <ele>284</ele>
        <time>2017-06-07T09:33:24Z</time>
      </trkpt>
      <trkpt lat="45.96208" lon="4.87427">
        <ele>284</ele>
        <time>2017-06-07T09:33:25Z</time>
      </trkpt>
      <trkpt lat="45.96212" lon="4.87422">
        <ele>284</ele>
        <time>2017-06-07T09:33:26Z</time>
      </trkpt>
      <trkpt lat="45.96216" lon="4.87418">
        <ele>284</ele>
        <time>2017-06-07T09:33:27Z</time>
      </trkpt>
      <trkpt lat="45.9622" lon="4.87413">
        <ele>283</ele>
        <time>2017-06-07T09:33:28Z</time>
      </trkpt>
      <trkpt lat="45.96224" lon="4.87409">
        <ele>283</ele>
        <time>2017-06-07T09:33:29Z</time>
      </trkpt>
      <trkpt lat="45.96227" lon="4.87405">
        <ele>283</ele>
        <time>2017-06-07T09:33:30Z</time>
      </trkpt>
      <trkpt lat="45.96231" lon="4.87401">
        <ele>283</ele>
        <time>2017-06-07T09:33:31Z</time>
      </trkpt>
      <trkpt lat="45.96235" lon="4.87396">
        <ele>283</ele>
        <time>2017-06-07T09:33:32Z</time>
      </trkpt>
      <trkpt lat="45.96239" lon="4.87391">
        <ele>283</ele>
        <time>2017-06-07T09:33:33Z</time>
      </trkpt>
      <trkpt lat="45.96243" lon="4.87386">
        <ele>283</ele>
        <time>2017-06-07T09:33:34Z</time>
      </trkpt>
      <trkpt lat="45.96246" lon="4.8738">
        <ele>283</ele>
        <time>2017-06-07T09:33:35Z</time>
      </trkpt>
      <trkpt lat="45.9625" lon="4.87375">
        <ele>283</ele>
        <time>2017-06-07T09:33:36Z</time>
      </trkpt>
      <trkpt lat="45.96254" lon="4.87369">
        <ele>283</ele>
        <time>2017-06-07T09:33:37Z</time>
      </trkpt>
      <trkpt lat="45.96258" lon="4.87363">
        <ele>283</ele>
        <time>2017-06-07T09:33:38Z</time>
      </trkpt>
      <trkpt lat="45.96262" lon="4.87358">
        <ele>283</ele>
        <time>2017-06-07T09:33:39Z</time>
      </trkpt>
      <trkpt lat="45.96266" lon="4.87353">
        <ele>283</ele>
        <time>2017-06-07T09:33:40Z</time>
      </trkpt>
      <trkpt lat="45.9627" lon="4.87349">
        <ele>283</ele>
        <time>2017-06-07T09:33:41Z</time>
      </trkpt>
      <trkpt lat="45.96274" lon="4.87344">
        <ele>283</ele>
        <time>2017-06-07T09:33:42Z</time>
      </trkpt>
      <trkpt lat="45.96278" lon="4.87339">
        <ele>284</ele>
        <time>2017-06-07T09:33:43Z</time>
      </trkpt>
      <trkpt lat="45.96282" lon="4.87335">
        <ele>284</ele>
        <time>2017-06-07T09:33:44Z</time>
      </trkpt>
      <trkpt lat="45.96288" lon="4.87326">
        <ele>283</ele>
        <time>2017-06-07T09:33:46Z</time>
      </trkpt>
      <trkpt lat="45.96291" lon="4.87321">
        <ele>283</ele>
        <time>2017-06-07T09:33:47Z</time>
      </trkpt>
      <trkpt lat="45.96296" lon="4.87315">
        <ele>283</ele>
        <time>2017-06-07T09:33:48Z</time>
      </trkpt>
      <trkpt lat="45.963" lon="4.87309">
        <ele>283</ele>
        <time>2017-06-07T09:33:49Z</time>
      </trkpt>
      <trkpt lat="45.96305" lon="4.87303">
        <ele>283</ele>
        <time>2017-06-07T09:33:50Z</time>
      </trkpt>
      <trkpt lat="45.96309" lon="4.87297">
        <ele>283</ele>
        <time>2017-06-07T09:33:51Z</time>
      </trkpt>
      <trkpt lat="45.96313" lon="4.87291">
        <ele>283</ele>
        <time>2017-06-07T09:33:52Z</time>
      </trkpt>
      <trkpt lat="45.96318" lon="4.87286">
        <ele>283</ele>
        <time>2017-06-07T09:33:53Z</time>
      </trkpt>
      <trkpt lat="45.96322" lon="4.8728">
        <ele>283</ele>
        <time>2017-06-07T09:33:54Z</time>
      </trkpt>
      <trkpt lat="45.96326" lon="4.87275">
        <ele>283</ele>
        <time>2017-06-07T09:33:55Z</time>
      </trkpt>
      <trkpt lat="45.9633" lon="4.8727">
        <ele>283</ele>
        <time>2017-06-07T09:33:56Z</time>
      </trkpt>
      <trkpt lat="45.96334" lon="4.87265">
        <ele>283</ele>
        <time>2017-06-07T09:33:57Z</time>
      </trkpt>
      <trkpt lat="45.96338" lon="4.8726">
        <ele>283</ele>
        <time>2017-06-07T09:33:58Z</time>
      </trkpt>
      <trkpt lat="45.96342" lon="4.87255">
        <ele>283</ele>
        <time>2017-06-07T09:33:59Z</time>
      </trkpt>
      <trkpt lat="45.96346" lon="4.8725">
        <ele>283</ele>
        <time>2017-06-07T09:34:00Z</time>
      </trkpt>
      <trkpt lat="45.96349" lon="4.87245">
        <ele>283</ele>
        <time>2017-06-07T09:34:01Z</time>
      </trkpt>
      <trkpt lat="45.96353" lon="4.8724">
        <ele>282</ele>
        <time>2017-06-07T09:34:02Z</time>
      </trkpt>
      <trkpt lat="45.96357" lon="4.87236">
        <ele>282</ele>
        <time>2017-06-07T09:34:03Z</time>
      </trkpt>
      <trkpt lat="45.96361" lon="4.87231">
        <ele>282</ele>
        <time>2017-06-07T09:34:04Z</time>
      </trkpt>
      <trkpt lat="45.96365" lon="4.87225">
        <ele>282</ele>
        <time>2017-06-07T09:34:05Z</time>
      </trkpt>
      <trkpt lat="45.96369" lon="4.8722">
        <ele>282</ele>
        <time>2017-06-07T09:34:06Z</time>
      </trkpt>
      <trkpt lat="45.96373" lon="4.87216">
        <ele>282</ele>
        <time>2017-06-07T09:34:07Z</time>
      </trkpt>
      <trkpt lat="45.96376" lon="4.87211">
        <ele>282</ele>
        <time>2017-06-07T09:34:08Z</time>
      </trkpt>
      <trkpt lat="45.9638" lon="4.87207">
        <ele>282</ele>
        <time>2017-06-07T09:34:09Z</time>
      </trkpt>
      <trkpt lat="45.96383" lon="4.87202">
        <ele>282</ele>
        <time>2017-06-07T09:34:10Z</time>
      </trkpt>
      <trkpt lat="45.96387" lon="4.87198">
        <ele>282</ele>
        <time>2017-06-07T09:34:11Z</time>
      </trkpt>
      <trkpt lat="45.9639" lon="4.87194">
        <ele>282</ele>
        <time>2017-06-07T09:34:12Z</time>
      </trkpt>
      <trkpt lat="45.96393" lon="4.87189">
        <ele>282</ele>
        <time>2017-06-07T09:34:13Z</time>
      </trkpt>
      <trkpt lat="45.96397" lon="4.87183">
        <ele>282</ele>
        <time>2017-06-07T09:34:14Z</time>
      </trkpt>
      <trkpt lat="45.96401" lon="4.87178">
        <ele>282</ele>
        <time>2017-06-07T09:34:15Z</time>
      </trkpt>
      <trkpt lat="45.96406" lon="4.87172">
        <ele>281</ele>
        <time>2017-06-07T09:34:16Z</time>
      </trkpt>
      <trkpt lat="45.9641" lon="4.87167">
        <ele>281</ele>
        <time>2017-06-07T09:34:17Z</time>
      </trkpt>
      <trkpt lat="45.96415" lon="4.8716">
        <ele>281</ele>
        <time>2017-06-07T09:34:18Z</time>
      </trkpt>
      <trkpt lat="45.96419" lon="4.87155">
        <ele>281</ele>
        <time>2017-06-07T09:34:19Z</time>
      </trkpt>
      <trkpt lat="45.96424" lon="4.87148">
        <ele>281</ele>
        <time>2017-06-07T09:34:20Z</time>
      </trkpt>
      <trkpt lat="45.96428" lon="4.87142">
        <ele>281</ele>
        <time>2017-06-07T09:34:21Z</time>
      </trkpt>
      <trkpt lat="45.96432" lon="4.87137">
        <ele>281</ele>
        <time>2017-06-07T09:34:22Z</time>
      </trkpt>
      <trkpt lat="45.96436" lon="4.87131">
        <ele>281</ele>
        <time>2017-06-07T09:34:23Z</time>
      </trkpt>
      <trkpt lat="45.9644" lon="4.87126">
        <ele>281</ele>
        <time>2017-06-07T09:34:24Z</time>
      </trkpt>
      <trkpt lat="45.96444" lon="4.87121">
        <ele>281</ele>
        <time>2017-06-07T09:34:25Z</time>
      </trkpt>
      <trkpt lat="45.9645" lon="4.87113">
        <ele>281</ele>
        <time>2017-06-07T09:34:27Z</time>
      </trkpt>
      <trkpt lat="45.96453" lon="4.87109">
        <ele>281</ele>
        <time>2017-06-07T09:34:28Z</time>
      </trkpt>
      <trkpt lat="45.96457" lon="4.87104">
        <ele>281</ele>
        <time>2017-06-07T09:34:29Z</time>
      </trkpt>
      <trkpt lat="45.9646" lon="4.871">
        <ele>282</ele>
        <time>2017-06-07T09:34:30Z</time>
      </trkpt>
      <trkpt lat="45.96464" lon="4.87096">
        <ele>282</ele>
        <time>2017-06-07T09:34:31Z</time>
      </trkpt>
      <trkpt lat="45.96467" lon="4.87092">
        <ele>282</ele>
        <time>2017-06-07T09:34:32Z</time>
      </trkpt>
      <trkpt lat="45.96471" lon="4.87087">
        <ele>282</ele>
        <time>2017-06-07T09:34:33Z</time>
      </trkpt>
      <trkpt lat="45.96474" lon="4.87082">
        <ele>281</ele>
        <time>2017-06-07T09:34:34Z</time>
      </trkpt>
      <trkpt lat="45.96478" lon="4.87078">
        <ele>282</ele>
        <time>2017-06-07T09:34:35Z</time>
      </trkpt>
      <trkpt lat="45.96481" lon="4.87073">
        <ele>282</ele>
        <time>2017-06-07T09:34:36Z</time>
      </trkpt>
      <trkpt lat="45.96488" lon="4.87066">
        <ele>282</ele>
        <time>2017-06-07T09:34:38Z</time>
      </trkpt>
      <trkpt lat="45.9649" lon="4.87062">
        <ele>282</ele>
        <time>2017-06-07T09:34:39Z</time>
      </trkpt>
      <trkpt lat="45.96496" lon="4.87055">
        <ele>281</ele>
        <time>2017-06-07T09:34:41Z</time>
      </trkpt>
      <trkpt lat="45.96498" lon="4.87051">
        <ele>281</ele>
        <time>2017-06-07T09:34:42Z</time>
      </trkpt>
      <trkpt lat="45.96504" lon="4.87045">
        <ele>282</ele>
        <time>2017-06-07T09:34:45Z</time>
      </trkpt>
      <trkpt lat="45.96506" lon="4.87045">
        <ele>282</ele>
        <time>2017-06-07T09:34:46Z</time>
      </trkpt>
      <trkpt lat="45.96511" lon="4.87051">
        <ele>283</ele>
        <time>2017-06-07T09:34:50Z</time>
      </trkpt>
      <trkpt lat="45.96513" lon="4.87055">
        <ele>283</ele>
        <time>2017-06-07T09:34:51Z</time>
      </trkpt>
      <trkpt lat="45.96517" lon="4.87062">
        <ele>283</ele>
        <time>2017-06-07T09:34:53Z</time>
      </trkpt>
      <trkpt lat="45.9652" lon="4.87065">
        <ele>283</ele>
        <time>2017-06-07T09:34:54Z</time>
      </trkpt>
      <trkpt lat="45.96529" lon="4.87067">
        <ele>283</ele>
        <time>2017-06-07T09:34:57Z</time>
      </trkpt>
      <trkpt lat="45.9653" lon="4.87066">
        <ele>283</ele>
        <time>2017-06-07T09:34:58Z</time>
      </trkpt>
      <trkpt lat="45.96537" lon="4.87073">
        <ele>283</ele>
        <time>2017-06-07T09:35:04Z</time>
      </trkpt>
      <trkpt lat="45.96538" lon="4.87076">
        <ele>283</ele>
        <time>2017-06-07T09:35:05Z</time>
      </trkpt>
      <trkpt lat="45.96545" lon="4.8708">
        <ele>283</ele>
        <time>2017-06-07T09:35:08Z</time>
      </trkpt>
      <trkpt lat="45.96548" lon="4.87081">
        <ele>283</ele>
        <time>2017-06-07T09:35:09Z</time>
      </trkpt>
      <trkpt lat="45.96555" lon="4.87078">
        <ele>283</ele>
        <time>2017-06-07T09:35:12Z</time>
      </trkpt>
      <trkpt lat="45.96557" lon="4.87076">
        <ele>283</ele>
        <time>2017-06-07T09:35:13Z</time>
      </trkpt>
      <trkpt lat="45.96559" lon="4.87066">
        <ele>283</ele>
        <time>2017-06-07T09:35:16Z</time>
      </trkpt>
      <trkpt lat="45.96559" lon="4.87062">
        <ele>283</ele>
        <time>2017-06-07T09:35:17Z</time>
      </trkpt>
      <trkpt lat="45.96559" lon="4.87051">
        <ele>283</ele>
        <time>2017-06-07T09:35:20Z</time>
      </trkpt>
      <trkpt lat="45.96559" lon="4.87047">
        <ele>283</ele>
        <time>2017-06-07T09:35:21Z</time>
      </trkpt>
      <trkpt lat="45.96559" lon="4.87035">
        <ele>283</ele>
        <time>2017-06-07T09:35:24Z</time>
      </trkpt>
      <trkpt lat="45.96559" lon="4.87031">
        <ele>283</ele>
        <time>2017-06-07T09:35:25Z</time>
      </trkpt>
      <trkpt lat="45.96552" lon="4.87023">
        <ele>283</ele>
        <time>2017-06-07T09:42:22Z</time>
      </trkpt>
      <trkpt lat="45.96552" lon="4.8702">
        <ele>283</ele>
        <time>2017-06-07T09:42:23Z</time>
      </trkpt>
      <trkpt lat="45.96549" lon="4.87012">
        <ele>283</ele>
        <time>2017-06-07T09:42:26Z</time>
      </trkpt>
      <trkpt lat="45.96548" lon="4.87009">
        <ele>283</ele>
        <time>2017-06-07T09:42:27Z</time>
      </trkpt>
      <trkpt lat="45.96547" lon="4.86998">
        <ele>283</ele>
        <time>2017-06-07T09:42:30Z</time>
      </trkpt>
      <trkpt lat="45.96547" lon="4.86995">
        <ele>283</ele>
        <time>2017-06-07T09:42:31Z</time>
      </trkpt>
      <trkpt lat="45.96552" lon="4.86985">
        <ele>283</ele>
        <time>2017-06-07T09:42:35Z</time>
      </trkpt>
      <trkpt lat="45.96553" lon="4.86982">
        <ele>283</ele>
        <time>2017-06-07T09:42:36Z</time>
      </trkpt>
      <trkpt lat="45.96558" lon="4.86973">
        <ele>283</ele>
        <time>2017-06-07T09:42:39Z</time>
      </trkpt>
      <trkpt lat="45.9656" lon="4.8697">
        <ele>283</ele>
        <time>2017-06-07T09:42:40Z</time>
      </trkpt>
      <trkpt lat="45.96566" lon="4.86961">
        <ele>284</ele>
        <time>2017-06-07T09:42:43Z</time>
      </trkpt>
      <trkpt lat="45.96568" lon="4.86957">
        <ele>284</ele>
        <time>2017-06-07T09:42:44Z</time>
      </trkpt>
      <trkpt lat="45.96572" lon="4.8695">
        <ele>284</ele>
        <time>2017-06-07T09:42:46Z</time>
      </trkpt>
      <trkpt lat="45.96574" lon="4.86947">
        <ele>284</ele>
        <time>2017-06-07T09:42:47Z</time>
      </trkpt>
      <trkpt lat="45.96579" lon="4.86939">
        <ele>284</ele>
        <time>2017-06-07T09:42:49Z</time>
      </trkpt>
      <trkpt lat="45.96581" lon="4.86936">
        <ele>284</ele>
        <time>2017-06-07T09:42:50Z</time>
      </trkpt>
      <trkpt lat="45.96586" lon="4.86927">
        <ele>285</ele>
        <time>2017-06-07T09:42:52Z</time>
      </trkpt>
      <trkpt lat="45.96588" lon="4.86921">
        <ele>285</ele>
        <time>2017-06-07T09:42:53Z</time>
      </trkpt>
      <trkpt lat="45.96593" lon="4.86912">
        <ele>286</ele>
        <time>2017-06-07T09:42:55Z</time>
      </trkpt>
      <trkpt lat="45.96596" lon="4.86908">
        <ele>286</ele>
        <time>2017-06-07T09:42:56Z</time>
      </trkpt>
      <trkpt lat="45.966" lon="4.869">
        <ele>286</ele>
        <time>2017-06-07T09:42:58Z</time>
      </trkpt>
      <trkpt lat="45.96602" lon="4.86897">
        <ele>286</ele>
        <time>2017-06-07T09:42:59Z</time>
      </trkpt>
      <trkpt lat="45.96607" lon="4.86888">
        <ele>287</ele>
        <time>2017-06-07T09:43:02Z</time>
      </trkpt>
      <trkpt lat="45.96608" lon="4.86885">
        <ele>287</ele>
        <time>2017-06-07T09:43:03Z</time>
      </trkpt>
      <trkpt lat="45.96612" lon="4.86878">
        <ele>287</ele>
        <time>2017-06-07T09:43:05Z</time>
      </trkpt>
      <trkpt lat="45.96614" lon="4.86875">
        <ele>287</ele>
        <time>2017-06-07T09:43:06Z</time>
      </trkpt>
      <trkpt lat="45.96619" lon="4.86865">
        <ele>287</ele>
        <time>2017-06-07T09:43:08Z</time>
      </trkpt>
      <trkpt lat="45.96622" lon="4.8686">
        <ele>287</ele>
        <time>2017-06-07T09:43:09Z</time>
      </trkpt>
      <trkpt lat="45.96627" lon="4.86851">
        <ele>287</ele>
        <time>2017-06-07T09:43:11Z</time>
      </trkpt>
      <trkpt lat="45.9663" lon="4.86847">
        <ele>287</ele>
        <time>2017-06-07T09:43:12Z</time>
      </trkpt>
      <trkpt lat="45.96636" lon="4.86838">
        <ele>287</ele>
        <time>2017-06-07T09:43:14Z</time>
      </trkpt>
      <trkpt lat="45.96639" lon="4.86834">
        <ele>287</ele>
        <time>2017-06-07T09:43:15Z</time>
      </trkpt>
      <trkpt lat="45.96645" lon="4.86826">
        <ele>288</ele>
        <time>2017-06-07T09:43:17Z</time>
      </trkpt>
      <trkpt lat="45.96648" lon="4.86821">
        <ele>288</ele>
        <time>2017-06-07T09:43:18Z</time>
      </trkpt>
      <trkpt lat="45.96653" lon="4.86812">
        <ele>288</ele>
        <time>2017-06-07T09:43:20Z</time>
      </trkpt>
      <trkpt lat="45.96656" lon="4.86808">
        <ele>288</ele>
        <time>2017-06-07T09:43:21Z</time>
      </trkpt>
      <trkpt lat="45.96662" lon="4.86799">
        <ele>288</ele>
        <time>2017-06-07T09:43:23Z</time>
      </trkpt>
      <trkpt lat="45.96665" lon="4.86794">
        <ele>288</ele>
        <time>2017-06-07T09:43:24Z</time>
      </trkpt>
      <trkpt lat="45.96669" lon="4.86789">
        <ele>289</ele>
        <time>2017-06-07T09:43:25Z</time>
      </trkpt>
      <trkpt lat="45.96671" lon="4.86785">
        <ele>289</ele>
        <time>2017-06-07T09:43:26Z</time>
      </trkpt>
      <trkpt lat="45.96677" lon="4.86776">
        <ele>289</ele>
        <time>2017-06-07T09:43:28Z</time>
      </trkpt>
      <trkpt lat="45.9668" lon="4.86771">
        <ele>289</ele>
        <time>2017-06-07T09:43:29Z</time>
      </trkpt>
      <trkpt lat="45.96685" lon="4.86762">
        <ele>289</ele>
        <time>2017-06-07T09:43:31Z</time>
      </trkpt>
      <trkpt lat="45.96688" lon="4.86758">
        <ele>289</ele>
        <time>2017-06-07T09:43:32Z</time>
      </trkpt>
      <trkpt lat="45.96692" lon="4.86749">
        <ele>289</ele>
        <time>2017-06-07T09:43:34Z</time>
      </trkpt>
      <trkpt lat="45.96695" lon="4.86745">
        <ele>289</ele>
        <time>2017-06-07T09:43:35Z</time>
      </trkpt>
      <trkpt lat="45.967" lon="4.86737">
        <ele>289</ele>
        <time>2017-06-07T09:43:37Z</time>
      </trkpt>
      <trkpt lat="45.96702" lon="4.86733">
        <ele>289</ele>
        <time>2017-06-07T09:43:38Z</time>
      </trkpt>
      <trkpt lat="45.96707" lon="4.86724">
        <ele>289</ele>
        <time>2017-06-07T09:43:40Z</time>
      </trkpt>
      <trkpt lat="45.9671" lon="4.86719">
        <ele>289</ele>
        <time>2017-06-07T09:43:41Z</time>
      </trkpt>
      <trkpt lat="45.96715" lon="4.86709">
        <ele>289</ele>
        <time>2017-06-07T09:43:43Z</time>
      </trkpt>
      <trkpt lat="45.96718" lon="4.86705">
        <ele>289</ele>
        <time>2017-06-07T09:43:44Z</time>
      </trkpt>
      <trkpt lat="45.96724" lon="4.86696">
        <ele>289</ele>
        <time>2017-06-07T09:43:46Z</time>
      </trkpt>
      <trkpt lat="45.96726" lon="4.86691">
        <ele>289</ele>
        <time>2017-06-07T09:43:47Z</time>
      </trkpt>
      <trkpt lat="45.96731" lon="4.86683">
        <ele>289</ele>
        <time>2017-06-07T09:43:49Z</time>
      </trkpt>
      <trkpt lat="45.96734" lon="4.86678">
        <ele>290</ele>
        <time>2017-06-07T09:43:50Z</time>
      </trkpt>
      <trkpt lat="45.9674" lon="4.86668">
        <ele>290</ele>
        <time>2017-06-07T09:43:52Z</time>
      </trkpt>
      <trkpt lat="45.96743" lon="4.86663">
        <ele>290</ele>
        <time>2017-06-07T09:43:53Z</time>
      </trkpt>
      <trkpt lat="45.96749" lon="4.86654">
        <ele>290</ele>
        <time>2017-06-07T09:43:55Z</time>
      </trkpt>
      <trkpt lat="45.96752" lon="4.86649">
        <ele>290</ele>
        <time>2017-06-07T09:43:56Z</time>
      </trkpt>
      <trkpt lat="45.96756" lon="4.86639">
        <ele>290</ele>
        <time>2017-06-07T09:43:58Z</time>
      </trkpt>
      <trkpt lat="45.96759" lon="4.86634">
        <ele>290</ele>
        <time>2017-06-07T09:43:59Z</time>
      </trkpt>
      <trkpt lat="45.96762" lon="4.86629">
        <ele>289</ele>
        <time>2017-06-07T09:44:00Z</time>
      </trkpt>
      <trkpt lat="45.96765" lon="4.86624">
        <ele>289</ele>
        <time>2017-06-07T09:44:01Z</time>
      </trkpt>
      <trkpt lat="45.9677" lon="4.86614">
        <ele>289</ele>
        <time>2017-06-07T09:44:03Z</time>
      </trkpt>
      <trkpt lat="45.96773" lon="4.86609">
        <ele>289</ele>
        <time>2017-06-07T09:44:04Z</time>
      </trkpt>
      <trkpt lat="45.96778" lon="4.866">
        <ele>289</ele>
        <time>2017-06-07T09:44:06Z</time>
      </trkpt>
      <trkpt lat="45.96781" lon="4.86596">
        <ele>289</ele>
        <time>2017-06-07T09:44:07Z</time>
      </trkpt>
      <trkpt lat="45.96786" lon="4.86587">
        <ele>289</ele>
        <time>2017-06-07T09:44:09Z</time>
      </trkpt>
      <trkpt lat="45.96789" lon="4.86583">
        <ele>290</ele>
        <time>2017-06-07T09:44:10Z</time>
      </trkpt>
      <trkpt lat="45.96792" lon="4.86578">
        <ele>290</ele>
        <time>2017-06-07T09:44:11Z</time>
      </trkpt>
      <trkpt lat="45.96795" lon="4.86573">
        <ele>290</ele>
        <time>2017-06-07T09:44:12Z</time>
      </trkpt>
      <trkpt lat="45.96798" lon="4.86568">
        <ele>290</ele>
        <time>2017-06-07T09:44:13Z</time>
      </trkpt>
      <trkpt lat="45.96801" lon="4.86563">
        <ele>290</ele>
        <time>2017-06-07T09:44:14Z</time>
      </trkpt>
      <trkpt lat="45.96805" lon="4.86558">
        <ele>290</ele>
        <time>2017-06-07T09:44:15Z</time>
      </trkpt>
      <trkpt lat="45.96808" lon="4.86553">
        <ele>290</ele>
        <time>2017-06-07T09:44:16Z</time>
      </trkpt>
      <trkpt lat="45.96813" lon="4.86545">
        <ele>290</ele>
        <time>2017-06-07T09:44:18Z</time>
      </trkpt>
      <trkpt lat="45.96816" lon="4.8654">
        <ele>290</ele>
        <time>2017-06-07T09:44:19Z</time>
      </trkpt>
      <trkpt lat="45.96821" lon="4.86532">
        <ele>290</ele>
        <time>2017-06-07T09:44:21Z</time>
      </trkpt>
      <trkpt lat="45.96824" lon="4.86526">
        <ele>289</ele>
        <time>2017-06-07T09:44:22Z</time>
      </trkpt>
      <trkpt lat="45.96827" lon="4.86521">
        <ele>289</ele>
        <time>2017-06-07T09:44:23Z</time>
      </trkpt>
      <trkpt lat="45.9683" lon="4.86516">
        <ele>289</ele>
        <time>2017-06-07T09:44:24Z</time>
      </trkpt>
      <trkpt lat="45.96832" lon="4.86511">
        <ele>289</ele>
        <time>2017-06-07T09:44:25Z</time>
      </trkpt>
      <trkpt lat="45.96835" lon="4.86506">
        <ele>289</ele>
        <time>2017-06-07T09:44:26Z</time>
      </trkpt>
      <trkpt lat="45.9684" lon="4.86495">
        <ele>289</ele>
        <time>2017-06-07T09:44:28Z</time>
      </trkpt>
      <trkpt lat="45.96842" lon="4.8649">
        <ele>289</ele>
        <time>2017-06-07T09:44:29Z</time>
      </trkpt>
      <trkpt lat="45.96846" lon="4.8648">
        <ele>289</ele>
        <time>2017-06-07T09:44:31Z</time>
      </trkpt>
      <trkpt lat="45.96848" lon="4.86474">
        <ele>289</ele>
        <time>2017-06-07T09:44:32Z</time>
      </trkpt>
      <trkpt lat="45.96851" lon="4.86463">
        <ele>289</ele>
        <time>2017-06-07T09:44:34Z</time>
      </trkpt>
      <trkpt lat="45.96852" lon="4.86457">
        <ele>289</ele>
        <time>2017-06-07T09:44:35Z</time>
      </trkpt>
      <trkpt lat="45.96854" lon="4.8645">
        <ele>289</ele>
        <time>2017-06-07T09:44:36Z</time>
      </trkpt>
      <trkpt lat="45.96855" lon="4.86444">
        <ele>289</ele>
        <time>2017-06-07T09:44:37Z</time>
      </trkpt>
      <trkpt lat="45.96857" lon="4.86438">
        <ele>290</ele>
        <time>2017-06-07T09:44:38Z</time>
      </trkpt>
      <trkpt lat="45.96858" lon="4.86431">
        <ele>290</ele>
        <time>2017-06-07T09:44:39Z</time>
      </trkpt>
      <trkpt lat="45.96859" lon="4.86424">
        <ele>290</ele>
        <time>2017-06-07T09:44:40Z</time>
      </trkpt>
      <trkpt lat="45.9686" lon="4.86417">
        <ele>290</ele>
        <time>2017-06-07T09:44:41Z</time>
      </trkpt>
      <trkpt lat="45.96861" lon="4.8641">
        <ele>290</ele>
        <time>2017-06-07T09:44:42Z</time>
      </trkpt>
      <trkpt lat="45.96862" lon="4.86403">
        <ele>290</ele>
        <time>2017-06-07T09:44:43Z</time>
      </trkpt>
      <trkpt lat="45.96864" lon="4.86391">
        <ele>290</ele>
        <time>2017-06-07T09:44:45Z</time>
      </trkpt>
      <trkpt lat="45.96865" lon="4.86385">
        <ele>290</ele>
        <time>2017-06-07T09:44:46Z</time>
      </trkpt>
      <trkpt lat="45.96866" lon="4.86373">
        <ele>290</ele>
        <time>2017-06-07T09:44:48Z</time>
      </trkpt>
      <trkpt lat="45.96867" lon="4.86367">
        <ele>290</ele>
        <time>2017-06-07T09:44:49Z</time>
      </trkpt>
      <trkpt lat="45.96868" lon="4.86361">
        <ele>290</ele>
        <time>2017-06-07T09:44:50Z</time>
      </trkpt>
      <trkpt lat="45.96869" lon="4.86354">
        <ele>290</ele>
        <time>2017-06-07T09:44:51Z</time>
      </trkpt>
      <trkpt lat="45.96869" lon="4.86348">
        <ele>290</ele>
        <time>2017-06-07T09:44:52Z</time>
      </trkpt>
      <trkpt lat="45.9687" lon="4.86341">
        <ele>290</ele>
        <time>2017-06-07T09:44:53Z</time>
      </trkpt>
      <trkpt lat="45.96871" lon="4.86334">
        <ele>290</ele>
        <time>2017-06-07T09:44:54Z</time>
      </trkpt>
      <trkpt lat="45.96872" lon="4.86327">
        <ele>289</ele>
        <time>2017-06-07T09:44:55Z</time>
      </trkpt>
      <trkpt lat="45.96874" lon="4.86315">
        <ele>289</ele>
        <time>2017-06-07T09:44:57Z</time>
      </trkpt>
      <trkpt lat="45.96875" lon="4.8631">
        <ele>289</ele>
        <time>2017-06-07T09:44:58Z</time>
      </trkpt>
      <trkpt lat="45.96877" lon="4.86299">
        <ele>289</ele>
        <time>2017-06-07T09:45:00Z</time>
      </trkpt>
      <trkpt lat="45.96878" lon="4.86293">
        <ele>289</ele>
        <time>2017-06-07T09:45:01Z</time>
      </trkpt>
      <trkpt lat="45.9688" lon="4.86281">
        <ele>289</ele>
        <time>2017-06-07T09:45:03Z</time>
      </trkpt>
      <trkpt lat="45.96881" lon="4.86274">
        <ele>289</ele>
        <time>2017-06-07T09:45:04Z</time>
      </trkpt>
      <trkpt lat="45.96882" lon="4.86268">
        <ele>288</ele>
        <time>2017-06-07T09:45:05Z</time>
      </trkpt>
      <trkpt lat="45.96882" lon="4.86261">
        <ele>288</ele>
        <time>2017-06-07T09:45:06Z</time>
      </trkpt>
      <trkpt lat="45.96884" lon="4.86249">
        <ele>288</ele>
        <time>2017-06-07T09:45:08Z</time>
      </trkpt>
      <trkpt lat="45.96885" lon="4.86243">
        <ele>288</ele>
        <time>2017-06-07T09:45:09Z</time>
      </trkpt>
      <trkpt lat="45.96887" lon="4.8623">
        <ele>288</ele>
        <time>2017-06-07T09:45:11Z</time>
      </trkpt>
      <trkpt lat="45.96888" lon="4.86225">
        <ele>289</ele>
        <time>2017-06-07T09:45:12Z</time>
      </trkpt>
      <trkpt lat="45.96889" lon="4.86212">
        <ele>289</ele>
        <time>2017-06-07T09:45:14Z</time>
      </trkpt>
      <trkpt lat="45.9689" lon="4.86206">
        <ele>289</ele>
        <time>2017-06-07T09:45:15Z</time>
      </trkpt>
      <trkpt lat="45.96892" lon="4.86194">
        <ele>289</ele>
        <time>2017-06-07T09:45:17Z</time>
      </trkpt>
      <trkpt lat="45.96893" lon="4.86187">
        <ele>289</ele>
        <time>2017-06-07T09:45:18Z</time>
      </trkpt>
      <trkpt lat="45.96894" lon="4.8618">
        <ele>289</ele>
        <time>2017-06-07T09:45:19Z</time>
      </trkpt>
      <trkpt lat="45.96895" lon="4.86174">
        <ele>288</ele>
        <time>2017-06-07T09:45:20Z</time>
      </trkpt>
      <trkpt lat="45.96896" lon="4.86167">
        <ele>288</ele>
        <time>2017-06-07T09:45:21Z</time>
      </trkpt>
      <trkpt lat="45.96897" lon="4.8616">
        <ele>289</ele>
        <time>2017-06-07T09:45:22Z</time>
      </trkpt>
      <trkpt lat="45.96898" lon="4.86153">
        <ele>289</ele>
        <time>2017-06-07T09:45:23Z</time>
      </trkpt>
      <trkpt lat="45.96899" lon="4.86146">
        <ele>289</ele>
        <time>2017-06-07T09:45:24Z</time>
      </trkpt>
      <trkpt lat="45.969" lon="4.86138">
        <ele>289</ele>
        <time>2017-06-07T09:45:25Z</time>
      </trkpt>
      <trkpt lat="45.96901" lon="4.86131">
        <ele>289</ele>
        <time>2017-06-07T09:45:26Z</time>
      </trkpt>
      <trkpt lat="45.96902" lon="4.86124">
        <ele>289</ele>
        <time>2017-06-07T09:45:27Z</time>
      </trkpt>
      <trkpt lat="45.96902" lon="4.86116">
        <ele>289</ele>
        <time>2017-06-07T09:45:28Z</time>
      </trkpt>
      <trkpt lat="45.96903" lon="4.86108">
        <ele>289</ele>
        <time>2017-06-07T09:45:29Z</time>
      </trkpt>
      <trkpt lat="45.96904" lon="4.861">
        <ele>288</ele>
        <time>2017-06-07T09:45:30Z</time>
      </trkpt>
      <trkpt lat="45.96905" lon="4.86092">
        <ele>288</ele>
        <time>2017-06-07T09:45:31Z</time>
      </trkpt>
      <trkpt lat="45.96906" lon="4.86084">
        <ele>288</ele>
        <time>2017-06-07T09:45:32Z</time>
      </trkpt>
      <trkpt lat="45.96906" lon="4.86076">
        <ele>288</ele>
        <time>2017-06-07T09:45:33Z</time>
      </trkpt>
      <trkpt lat="45.96907" lon="4.86068">
        <ele>288</ele>
        <time>2017-06-07T09:45:34Z</time>
      </trkpt>
      <trkpt lat="45.96908" lon="4.8606">
        <ele>288</ele>
        <time>2017-06-07T09:45:35Z</time>
      </trkpt>
      <trkpt lat="45.96909" lon="4.86053">
        <ele>289</ele>
        <time>2017-06-07T09:45:36Z</time>
      </trkpt>
      <trkpt lat="45.96909" lon="4.86045">
        <ele>289</ele>
        <time>2017-06-07T09:45:37Z</time>
      </trkpt>
      <trkpt lat="45.9691" lon="4.86037">
        <ele>289</ele>
        <time>2017-06-07T09:45:38Z</time>
      </trkpt>
      <trkpt lat="45.96911" lon="4.8603">
        <ele>289</ele>
        <time>2017-06-07T09:45:39Z</time>
      </trkpt>
      <trkpt lat="45.96912" lon="4.86022">
        <ele>289</ele>
        <time>2017-06-07T09:45:40Z</time>
      </trkpt>
      <trkpt lat="45.96913" lon="4.86013">
        <ele>288</ele>
        <time>2017-06-07T09:45:41Z</time>
      </trkpt>
      <trkpt lat="45.96915" lon="4.86005">
        <ele>288</ele>
        <time>2017-06-07T09:45:42Z</time>
      </trkpt>
      <trkpt lat="45.96917" lon="4.85996">
        <ele>288</ele>
        <time>2017-06-07T09:45:43Z</time>
      </trkpt>
      <trkpt lat="45.96919" lon="4.85987">
        <ele>287</ele>
        <time>2017-06-07T09:45:44Z</time>
      </trkpt>
      <trkpt lat="45.96921" lon="4.85978">
        <ele>287</ele>
        <time>2017-06-07T09:45:45Z</time>
      </trkpt>
      <trkpt lat="45.96923" lon="4.85969">
        <ele>287</ele>
        <time>2017-06-07T09:45:46Z</time>
      </trkpt>
      <trkpt lat="45.96925" lon="4.8596">
        <ele>287</ele>
        <time>2017-06-07T09:45:47Z</time>
      </trkpt>
      <trkpt lat="45.96927" lon="4.8595">
        <ele>287</ele>
        <time>2017-06-07T09:45:48Z</time>
      </trkpt>
      <trkpt lat="45.9693" lon="4.85941">
        <ele>286</ele>
        <time>2017-06-07T09:45:49Z</time>
      </trkpt>
      <trkpt lat="45.96932" lon="4.85932">
        <ele>286</ele>
        <time>2017-06-07T09:45:50Z</time>
      </trkpt>
      <trkpt lat="45.96934" lon="4.85924">
        <ele>286</ele>
        <time>2017-06-07T09:45:51Z</time>
      </trkpt>
      <trkpt lat="45.96936" lon="4.85915">
        <ele>286</ele>
        <time>2017-06-07T09:45:52Z</time>
      </trkpt>
      <trkpt lat="45.96939" lon="4.85906">
        <ele>286</ele>
        <time>2017-06-07T09:45:53Z</time>
      </trkpt>
      <trkpt lat="45.96941" lon="4.85897">
        <ele>285</ele>
        <time>2017-06-07T09:45:54Z</time>
      </trkpt>
      <trkpt lat="45.96943" lon="4.85888">
        <ele>285</ele>
        <time>2017-06-07T09:45:55Z</time>
      </trkpt>
      <trkpt lat="45.96946" lon="4.8588">
        <ele>285</ele>
        <time>2017-06-07T09:45:56Z</time>
      </trkpt>
      <trkpt lat="45.96948" lon="4.85871">
        <ele>285</ele>
        <time>2017-06-07T09:45:57Z</time>
      </trkpt>
      <trkpt lat="45.9695" lon="4.85863">
        <ele>285</ele>
        <time>2017-06-07T09:45:58Z</time>
      </trkpt>
      <trkpt lat="45.96953" lon="4.85854">
        <ele>285</ele>
        <time>2017-06-07T09:45:59Z</time>
      </trkpt>
      <trkpt lat="45.96955" lon="4.85845">
        <ele>285</ele>
        <time>2017-06-07T09:46:00Z</time>
      </trkpt>
      <trkpt lat="45.96958" lon="4.85836">
        <ele>285</ele>
        <time>2017-06-07T09:46:01Z</time>
      </trkpt>
      <trkpt lat="45.9696" lon="4.85827">
        <ele>285</ele>
        <time>2017-06-07T09:46:02Z</time>
      </trkpt>
      <trkpt lat="45.96963" lon="4.85818">
        <ele>285</ele>
        <time>2017-06-07T09:46:03Z</time>
      </trkpt>
      <trkpt lat="45.96965" lon="4.85809">
        <ele>285</ele>
        <time>2017-06-07T09:46:04Z</time>
      </trkpt>
      <trkpt lat="45.96968" lon="4.85799">
        <ele>285</ele>
        <time>2017-06-07T09:46:05Z</time>
      </trkpt>
      <trkpt lat="45.96971" lon="4.8579">
        <ele>285</ele>
        <time>2017-06-07T09:46:06Z</time>
      </trkpt>
      <trkpt lat="45.96973" lon="4.85781">
        <ele>285</ele>
        <time>2017-06-07T09:46:07Z</time>
      </trkpt>
      <trkpt lat="45.96976" lon="4.85772">
        <ele>285</ele>
        <time>2017-06-07T09:46:08Z</time>
      </trkpt>
      <trkpt lat="45.96978" lon="4.85763">
        <ele>285</ele>
        <time>2017-06-07T09:46:09Z</time>
      </trkpt>
      <trkpt lat="45.9698" lon="4.85755">
        <ele>285</ele>
        <time>2017-06-07T09:46:10Z</time>
      </trkpt>
      <trkpt lat="45.96982" lon="4.85746">
        <ele>285</ele>
        <time>2017-06-07T09:46:11Z</time>
      </trkpt>
      <trkpt lat="45.96984" lon="4.85738">
        <ele>285</ele>
        <time>2017-06-07T09:46:12Z</time>
      </trkpt>
      <trkpt lat="45.96987" lon="4.8573">
        <ele>285</ele>
        <time>2017-06-07T09:46:13Z</time>
      </trkpt>
      <trkpt lat="45.96989" lon="4.85723">
        <ele>285</ele>
        <time>2017-06-07T09:46:14Z</time>
      </trkpt>
      <trkpt lat="45.96991" lon="4.85716">
        <ele>285</ele>
        <time>2017-06-07T09:46:15Z</time>
      </trkpt>
      <trkpt lat="45.96992" lon="4.85709">
        <ele>285</ele>
        <time>2017-06-07T09:46:16Z</time>
      </trkpt>
      <trkpt lat="45.96994" lon="4.85702">
        <ele>285</ele>
        <time>2017-06-07T09:46:17Z</time>
      </trkpt>
      <trkpt lat="45.96996" lon="4.85694">
        <ele>285</ele>
        <time>2017-06-07T09:46:18Z</time>
      </trkpt>
      <trkpt lat="45.96998" lon="4.85686">
        <ele>285</ele>
        <time>2017-06-07T09:46:19Z</time>
      </trkpt>
      <trkpt lat="45.97001" lon="4.85677">
        <ele>285</ele>
        <time>2017-06-07T09:46:20Z</time>
      </trkpt>
      <trkpt lat="45.97003" lon="4.85668">
        <ele>286</ele>
        <time>2017-06-07T09:46:21Z</time>
      </trkpt>
      <trkpt lat="45.97005" lon="4.85658">
        <ele>285</ele>
        <time>2017-06-07T09:46:22Z</time>
      </trkpt>
      <trkpt lat="45.97007" lon="4.85648">
        <ele>285</ele>
        <time>2017-06-07T09:46:23Z</time>
      </trkpt>
      <trkpt lat="45.9701" lon="4.85638">
        <ele>284</ele>
        <time>2017-06-07T09:46:24Z</time>
      </trkpt>
      <trkpt lat="45.97012" lon="4.85628">
        <ele>284</ele>
        <time>2017-06-07T09:46:25Z</time>
      </trkpt>
      <trkpt lat="45.97015" lon="4.85618">
        <ele>284</ele>
        <time>2017-06-07T09:46:26Z</time>
      </trkpt>
      <trkpt lat="45.97017" lon="4.85609">
        <ele>284</ele>
        <time>2017-06-07T09:46:27Z</time>
      </trkpt>
      <trkpt lat="45.9702" lon="4.85599">
        <ele>284</ele>
        <time>2017-06-07T09:46:28Z</time>
      </trkpt>
      <trkpt lat="45.97023" lon="4.85589">
        <ele>284</ele>
        <time>2017-06-07T09:46:29Z</time>
      </trkpt>
      <trkpt lat="45.97025" lon="4.85579">
        <ele>283</ele>
        <time>2017-06-07T09:46:30Z</time>
      </trkpt>
      <trkpt lat="45.97028" lon="4.8557">
        <ele>283</ele>
        <time>2017-06-07T09:46:31Z</time>
      </trkpt>
      <trkpt lat="45.97031" lon="4.85561">
        <ele>283</ele>
        <time>2017-06-07T09:46:32Z</time>
      </trkpt>
      <trkpt lat="45.97034" lon="4.85551">
        <ele>283</ele>
        <time>2017-06-07T09:46:33Z</time>
      </trkpt>
      <trkpt lat="45.97036" lon="4.85541">
        <ele>282</ele>
        <time>2017-06-07T09:46:34Z</time>
      </trkpt>
      <trkpt lat="45.97039" lon="4.85532">
        <ele>282</ele>
        <time>2017-06-07T09:46:35Z</time>
      </trkpt>
      <trkpt lat="45.97042" lon="4.85523">
        <ele>282</ele>
        <time>2017-06-07T09:46:36Z</time>
      </trkpt>
      <trkpt lat="45.97045" lon="4.85513">
        <ele>282</ele>
        <time>2017-06-07T09:46:37Z</time>
      </trkpt>
      <trkpt lat="45.97048" lon="4.85504">
        <ele>282</ele>
        <time>2017-06-07T09:46:38Z</time>
      </trkpt>
      <trkpt lat="45.97051" lon="4.85495">
        <ele>281</ele>
        <time>2017-06-07T09:46:39Z</time>
      </trkpt>
      <trkpt lat="45.97054" lon="4.85485">
        <ele>281</ele>
        <time>2017-06-07T09:46:40Z</time>
      </trkpt>
      <trkpt lat="45.97057" lon="4.85476">
        <ele>281</ele>
        <time>2017-06-07T09:46:41Z</time>
      </trkpt>
      <trkpt lat="45.9706" lon="4.85467">
        <ele>281</ele>
        <time>2017-06-07T09:46:42Z</time>
      </trkpt>
      <trkpt lat="45.97062" lon="4.85458">
        <ele>281</ele>
        <time>2017-06-07T09:46:43Z</time>
      </trkpt>
      <trkpt lat="45.97065" lon="4.8545">
        <ele>281</ele>
        <time>2017-06-07T09:46:44Z</time>
      </trkpt>
      <trkpt lat="45.97069" lon="4.85441">
        <ele>281</ele>
        <time>2017-06-07T09:46:45Z</time>
      </trkpt>
      <trkpt lat="45.97071" lon="4.85433">
        <ele>281</ele>
        <time>2017-06-07T09:46:46Z</time>
      </trkpt>
      <trkpt lat="45.97074" lon="4.85424">
        <ele>281</ele>
        <time>2017-06-07T09:46:47Z</time>
      </trkpt>
      <trkpt lat="45.97077" lon="4.85416">
        <ele>280</ele>
        <time>2017-06-07T09:46:48Z</time>
      </trkpt>
      <trkpt lat="45.97079" lon="4.85409">
        <ele>280</ele>
        <time>2017-06-07T09:46:49Z</time>
      </trkpt>
      <trkpt lat="45.97082" lon="4.85401">
        <ele>281</ele>
        <time>2017-06-07T09:46:50Z</time>
      </trkpt>
      <trkpt lat="45.97085" lon="4.85393">
        <ele>280</ele>
        <time>2017-06-07T09:46:51Z</time>
      </trkpt>
      <trkpt lat="45.97087" lon="4.85385">
        <ele>280</ele>
        <time>2017-06-07T09:46:52Z</time>
      </trkpt>
      <trkpt lat="45.97089" lon="4.85378">
        <ele>280</ele>
        <time>2017-06-07T09:46:53Z</time>
      </trkpt>
      <trkpt lat="45.97092" lon="4.85371">
        <ele>280</ele>
        <time>2017-06-07T09:46:54Z</time>
      </trkpt>
      <trkpt lat="45.97094" lon="4.85363">
        <ele>280</ele>
        <time>2017-06-07T09:46:55Z</time>
      </trkpt>
      <trkpt lat="45.97096" lon="4.85356">
        <ele>280</ele>
        <time>2017-06-07T09:46:56Z</time>
      </trkpt>
      <trkpt lat="45.97099" lon="4.85348">
        <ele>280</ele>
        <time>2017-06-07T09:46:57Z</time>
      </trkpt>
      <trkpt lat="45.97101" lon="4.8534">
        <ele>280</ele>
        <time>2017-06-07T09:46:58Z</time>
      </trkpt>
      <trkpt lat="45.97104" lon="4.85331">
        <ele>280</ele>
        <time>2017-06-07T09:46:59Z</time>
      </trkpt>
      <trkpt lat="45.97107" lon="4.85323">
        <ele>280</ele>
        <time>2017-06-07T09:47:00Z</time>
      </trkpt>
      <trkpt lat="45.9711" lon="4.85314">
        <ele>280</ele>
        <time>2017-06-07T09:47:01Z</time>
      </trkpt>
      <trkpt lat="45.97114" lon="4.85305">
        <ele>280</ele>
        <time>2017-06-07T09:47:02Z</time>
      </trkpt>
      <trkpt lat="45.97118" lon="4.85297">
        <ele>280</ele>
        <time>2017-06-07T09:47:03Z</time>
      </trkpt>
      <trkpt lat="45.97122" lon="4.85289">
        <ele>280</ele>
        <time>2017-06-07T09:47:04Z</time>
      </trkpt>
      <trkpt lat="45.97125" lon="4.85281">
        <ele>279</ele>
        <time>2017-06-07T09:47:05Z</time>
      </trkpt>
      <trkpt lat="45.97129" lon="4.85274">
        <ele>279</ele>
        <time>2017-06-07T09:47:06Z</time>
      </trkpt>
      <trkpt lat="45.97132" lon="4.85267">
        <ele>279</ele>
        <time>2017-06-07T09:47:07Z</time>
      </trkpt>
      <trkpt lat="45.97136" lon="4.8526">
        <ele>279</ele>
        <time>2017-06-07T09:47:08Z</time>
      </trkpt>
      <trkpt lat="45.97139" lon="4.85253">
        <ele>279</ele>
        <time>2017-06-07T09:47:09Z</time>
      </trkpt>
      <trkpt lat="45.97143" lon="4.85246">
        <ele>279</ele>
        <time>2017-06-07T09:47:10Z</time>
      </trkpt>
      <trkpt lat="45.97146" lon="4.85239">
        <ele>279</ele>
        <time>2017-06-07T09:47:11Z</time>
      </trkpt>
      <trkpt lat="45.97149" lon="4.85233">
        <ele>279</ele>
        <time>2017-06-07T09:47:12Z</time>
      </trkpt>
      <trkpt lat="45.97153" lon="4.85226">
        <ele>279</ele>
        <time>2017-06-07T09:47:13Z</time>
      </trkpt>
      <trkpt lat="45.97156" lon="4.8522">
        <ele>279</ele>
        <time>2017-06-07T09:47:14Z</time>
      </trkpt>
      <trkpt lat="45.97159" lon="4.85213">
        <ele>279</ele>
        <time>2017-06-07T09:47:15Z</time>
      </trkpt>
      <trkpt lat="45.97163" lon="4.85206">
        <ele>279</ele>
        <time>2017-06-07T09:47:16Z</time>
      </trkpt>
      <trkpt lat="45.97166" lon="4.85199">
        <ele>279</ele>
        <time>2017-06-07T09:47:17Z</time>
      </trkpt>
      <trkpt lat="45.9717" lon="4.85191">
        <ele>278</ele>
        <time>2017-06-07T09:47:18Z</time>
      </trkpt>
      <trkpt lat="45.97174" lon="4.85183">
        <ele>278</ele>
        <time>2017-06-07T09:47:19Z</time>
      </trkpt>
      <trkpt lat="45.97178" lon="4.85175">
        <ele>278</ele>
        <time>2017-06-07T09:47:20Z</time>
      </trkpt>
      <trkpt lat="45.97182" lon="4.85166">
        <ele>278</ele>
        <time>2017-06-07T09:47:21Z</time>
      </trkpt>
      <trkpt lat="45.97186" lon="4.85157">
        <ele>278</ele>
        <time>2017-06-07T09:47:22Z</time>
      </trkpt>
      <trkpt lat="45.9719" lon="4.85148">
        <ele>278</ele>
        <time>2017-06-07T09:47:23Z</time>
      </trkpt>
      <trkpt lat="45.97195" lon="4.8514">
        <ele>278</ele>
        <time>2017-06-07T09:47:24Z</time>
      </trkpt>
      <trkpt lat="45.97198" lon="4.85131">
        <ele>278</ele>
        <time>2017-06-07T09:47:25Z</time>
      </trkpt>
      <trkpt lat="45.97202" lon="4.85123">
        <ele>278</ele>
        <time>2017-06-07T09:47:26Z</time>
      </trkpt>
      <trkpt lat="45.97206" lon="4.85115">
        <ele>278</ele>
        <time>2017-06-07T09:47:27Z</time>
      </trkpt>
      <trkpt lat="45.97211" lon="4.85107">
        <ele>278</ele>
        <time>2017-06-07T09:47:28Z</time>
      </trkpt>
      <trkpt lat="45.97214" lon="4.85099">
        <ele>278</ele>
        <time>2017-06-07T09:47:29Z</time>
      </trkpt>
      <trkpt lat="45.97217" lon="4.85091">
        <ele>278</ele>
        <time>2017-06-07T09:47:30Z</time>
      </trkpt>
      <trkpt lat="45.9722" lon="4.85083">
        <ele>278</ele>
        <time>2017-06-07T09:47:31Z</time>
      </trkpt>
      <trkpt lat="45.97223" lon="4.85077">
        <ele>278</ele>
        <time>2017-06-07T09:47:32Z</time>
      </trkpt>
      <trkpt lat="45.97226" lon="4.8507">
        <ele>278</ele>
        <time>2017-06-07T09:47:33Z</time>
      </trkpt>
      <trkpt lat="45.9723" lon="4.85064">
        <ele>278</ele>
        <time>2017-06-07T09:47:34Z</time>
      </trkpt>
      <trkpt lat="45.97233" lon="4.85057">
        <ele>279</ele>
        <time>2017-06-07T09:47:35Z</time>
      </trkpt>
      <trkpt lat="45.97235" lon="4.85051">
        <ele>279</ele>
        <time>2017-06-07T09:47:36Z</time>
      </trkpt>
      <trkpt lat="45.97238" lon="4.85044">
        <ele>279</ele>
        <time>2017-06-07T09:47:37Z</time>
      </trkpt>
      <trkpt lat="45.97242" lon="4.85037">
        <ele>279</ele>
        <time>2017-06-07T09:47:38Z</time>
      </trkpt>
      <trkpt lat="45.97245" lon="4.8503">
        <ele>279</ele>
        <time>2017-06-07T09:47:39Z</time>
      </trkpt>
      <trkpt lat="45.97249" lon="4.85023">
        <ele>279</ele>
        <time>2017-06-07T09:47:40Z</time>
      </trkpt>
      <trkpt lat="45.97253" lon="4.85015">
        <ele>279</ele>
        <time>2017-06-07T09:47:41Z</time>
      </trkpt>
      <trkpt lat="45.97256" lon="4.85007">
        <ele>279</ele>
        <time>2017-06-07T09:47:42Z</time>
      </trkpt>
      <trkpt lat="45.9726" lon="4.84999">
        <ele>279</ele>
        <time>2017-06-07T09:47:43Z</time>
      </trkpt>
      <trkpt lat="45.97264" lon="4.8499">
        <ele>279</ele>
        <time>2017-06-07T09:47:44Z</time>
      </trkpt>
      <trkpt lat="45.97268" lon="4.84982">
        <ele>279</ele>
        <time>2017-06-07T09:47:45Z</time>
      </trkpt>
      <trkpt lat="45.97272" lon="4.84974">
        <ele>278</ele>
        <time>2017-06-07T09:47:46Z</time>
      </trkpt>
      <trkpt lat="45.97276" lon="4.84967">
        <ele>278</ele>
        <time>2017-06-07T09:47:47Z</time>
      </trkpt>
      <trkpt lat="45.9728" lon="4.84959">
        <ele>278</ele>
        <time>2017-06-07T09:47:48Z</time>
      </trkpt>
      <trkpt lat="45.97283" lon="4.84952">
        <ele>278</ele>
        <time>2017-06-07T09:47:49Z</time>
      </trkpt>
      <trkpt lat="45.97287" lon="4.84945">
        <ele>278</ele>
        <time>2017-06-07T09:47:50Z</time>
      </trkpt>
      <trkpt lat="45.97291" lon="4.84938">
        <ele>278</ele>
        <time>2017-06-07T09:47:51Z</time>
      </trkpt>
      <trkpt lat="45.97295" lon="4.8493">
        <ele>278</ele>
        <time>2017-06-07T09:47:52Z</time>
      </trkpt>
      <trkpt lat="45.97298" lon="4.84924">
        <ele>278</ele>
        <time>2017-06-07T09:47:53Z</time>
      </trkpt>
      <trkpt lat="45.97303" lon="4.84917">
        <ele>278</ele>
        <time>2017-06-07T09:47:54Z</time>
      </trkpt>
      <trkpt lat="45.97307" lon="4.8491">
        <ele>278</ele>
        <time>2017-06-07T09:47:55Z</time>
      </trkpt>
      <trkpt lat="45.97311" lon="4.84903">
        <ele>278</ele>
        <time>2017-06-07T09:47:56Z</time>
      </trkpt>
      <trkpt lat="45.97316" lon="4.84896">
        <ele>278</ele>
        <time>2017-06-07T09:47:57Z</time>
      </trkpt>
      <trkpt lat="45.9732" lon="4.84889">
        <ele>278</ele>
        <time>2017-06-07T09:47:58Z</time>
      </trkpt>
      <trkpt lat="45.97323" lon="4.84883">
        <ele>278</ele>
        <time>2017-06-07T09:47:59Z</time>
      </trkpt>
      <trkpt lat="45.97327" lon="4.84877">
        <ele>278</ele>
        <time>2017-06-07T09:48:00Z</time>
      </trkpt>
      <trkpt lat="45.9733" lon="4.84871">
        <ele>278</ele>
        <time>2017-06-07T09:48:01Z</time>
      </trkpt>
      <trkpt lat="45.97334" lon="4.84864">
        <ele>277</ele>
        <time>2017-06-07T09:48:02Z</time>
      </trkpt>
      <trkpt lat="45.97337" lon="4.84859">
        <ele>277</ele>
        <time>2017-06-07T09:48:03Z</time>
      </trkpt>
      <trkpt lat="45.97341" lon="4.84853">
        <ele>277</ele>
        <time>2017-06-07T09:48:04Z</time>
      </trkpt>
      <trkpt lat="45.97344" lon="4.84846">
        <ele>277</ele>
        <time>2017-06-07T09:48:05Z</time>
      </trkpt>
      <trkpt lat="45.97347" lon="4.8484">
        <ele>277</ele>
        <time>2017-06-07T09:48:06Z</time>
      </trkpt>
      <trkpt lat="45.9735" lon="4.84833">
        <ele>278</ele>
        <time>2017-06-07T09:48:07Z</time>
      </trkpt>
      <trkpt lat="45.97353" lon="4.84827">
        <ele>278</ele>
        <time>2017-06-07T09:48:08Z</time>
      </trkpt>
      <trkpt lat="45.97356" lon="4.84819">
        <ele>278</ele>
        <time>2017-06-07T09:48:09Z</time>
      </trkpt>
      <trkpt lat="45.97359" lon="4.84811">
        <ele>278</ele>
        <time>2017-06-07T09:48:10Z</time>
      </trkpt>
      <trkpt lat="45.97362" lon="4.84803">
        <ele>278</ele>
        <time>2017-06-07T09:48:11Z</time>
      </trkpt>
      <trkpt lat="45.97366" lon="4.84795">
        <ele>278</ele>
        <time>2017-06-07T09:48:12Z</time>
      </trkpt>
      <trkpt lat="45.97369" lon="4.84787">
        <ele>278</ele>
        <time>2017-06-07T09:48:13Z</time>
      </trkpt>
      <trkpt lat="45.97372" lon="4.84779">
        <ele>278</ele>
        <time>2017-06-07T09:48:14Z</time>
      </trkpt>
      <trkpt lat="45.97375" lon="4.84771">
        <ele>278</ele>
        <time>2017-06-07T09:48:15Z</time>
      </trkpt>
      <trkpt lat="45.97378" lon="4.84763">
        <ele>278</ele>
        <time>2017-06-07T09:48:16Z</time>
      </trkpt>
      <trkpt lat="45.97381" lon="4.84756">
        <ele>278</ele>
        <time>2017-06-07T09:48:17Z</time>
      </trkpt>
      <trkpt lat="45.97384" lon="4.84749">
        <ele>278</ele>
        <time>2017-06-07T09:48:18Z</time>
      </trkpt>
      <trkpt lat="45.97387" lon="4.84743">
        <ele>278</ele>
        <time>2017-06-07T09:48:19Z</time>
      </trkpt>
      <trkpt lat="45.9739" lon="4.84737">
        <ele>278</ele>
        <time>2017-06-07T09:48:20Z</time>
      </trkpt>
      <trkpt lat="45.97394" lon="4.84731">
        <ele>278</ele>
        <time>2017-06-07T09:48:21Z</time>
      </trkpt>
      <trkpt lat="45.97399" lon="4.84727">
        <ele>278</ele>
        <time>2017-06-07T09:48:22Z</time>
      </trkpt>
      <trkpt lat="45.97403" lon="4.84724">
        <ele>278</ele>
        <time>2017-06-07T09:48:23Z</time>
      </trkpt>
      <trkpt lat="45.97408" lon="4.8472">
        <ele>278</ele>
        <time>2017-06-07T09:48:24Z</time>
      </trkpt>
      <trkpt lat="45.97413" lon="4.84716">
        <ele>278</ele>
        <time>2017-06-07T09:48:25Z</time>
      </trkpt>
      <trkpt lat="45.97418" lon="4.84713">
        <ele>276</ele>
        <time>2017-06-07T09:48:26Z</time>
      </trkpt>
      <trkpt lat="45.97423" lon="4.84709">
        <ele>276</ele>
        <time>2017-06-07T09:48:27Z</time>
      </trkpt>
      <trkpt lat="45.97427" lon="4.84706">
        <ele>276</ele>
        <time>2017-06-07T09:48:28Z</time>
      </trkpt>
      <trkpt lat="45.97433" lon="4.84702">
        <ele>276</ele>
        <time>2017-06-07T09:48:29Z</time>
      </trkpt>
      <trkpt lat="45.97438" lon="4.84699">
        <ele>276</ele>
        <time>2017-06-07T09:48:30Z</time>
      </trkpt>
      <trkpt lat="45.97444" lon="4.84694">
        <ele>276</ele>
        <time>2017-06-07T09:48:31Z</time>
      </trkpt>
      <trkpt lat="45.9745" lon="4.8469">
        <ele>276</ele>
        <time>2017-06-07T09:48:32Z</time>
      </trkpt>
      <trkpt lat="45.97456" lon="4.84686">
        <ele>276</ele>
        <time>2017-06-07T09:48:33Z</time>
      </trkpt>
      <trkpt lat="45.97463" lon="4.84681">
        <ele>276</ele>
        <time>2017-06-07T09:48:34Z</time>
      </trkpt>
      <trkpt lat="45.97469" lon="4.84677">
        <ele>276</ele>
        <time>2017-06-07T09:48:35Z</time>
      </trkpt>
      <trkpt lat="45.97476" lon="4.84672">
        <ele>276</ele>
        <time>2017-06-07T09:48:36Z</time>
      </trkpt>
      <trkpt lat="45.97482" lon="4.84668">
        <ele>276</ele>
        <time>2017-06-07T09:48:37Z</time>
      </trkpt>
      <trkpt lat="45.97487" lon="4.84664">
        <ele>275</ele>
        <time>2017-06-07T09:48:38Z</time>
      </trkpt>
      <trkpt lat="45.97493" lon="4.8466">
        <ele>275</ele>
        <time>2017-06-07T09:48:39Z</time>
      </trkpt>
      <trkpt lat="45.97498" lon="4.84657">
        <ele>275</ele>
        <time>2017-06-07T09:48:40Z</time>
      </trkpt>
      <trkpt lat="45.97504" lon="4.84653">
        <ele>275</ele>
        <time>2017-06-07T09:48:41Z</time>
      </trkpt>
      <trkpt lat="45.97509" lon="4.84649">
        <ele>275</ele>
        <time>2017-06-07T09:48:42Z</time>
      </trkpt>
      <trkpt lat="45.97514" lon="4.84646">
        <ele>275</ele>
        <time>2017-06-07T09:48:43Z</time>
      </trkpt>
      <trkpt lat="45.97519" lon="4.84642">
        <ele>275</ele>
        <time>2017-06-07T09:48:44Z</time>
      </trkpt>
      <trkpt lat="45.97523" lon="4.84638">
        <ele>275</ele>
        <time>2017-06-07T09:48:45Z</time>
      </trkpt>
      <trkpt lat="45.97528" lon="4.84635">
        <ele>275</ele>
        <time>2017-06-07T09:48:46Z</time>
      </trkpt>
      <trkpt lat="45.97532" lon="4.84631">
        <ele>275</ele>
        <time>2017-06-07T09:48:47Z</time>
      </trkpt>
      <trkpt lat="45.97537" lon="4.84626">
        <ele>275</ele>
        <time>2017-06-07T09:48:48Z</time>
      </trkpt>
      <trkpt lat="45.97541" lon="4.84622">
        <ele>275</ele>
        <time>2017-06-07T09:48:49Z</time>
      </trkpt>
      <trkpt lat="45.97546" lon="4.84617">
        <ele>274</ele>
        <time>2017-06-07T09:48:50Z</time>
      </trkpt>
      <trkpt lat="45.97552" lon="4.84613">
        <ele>274</ele>
        <time>2017-06-07T09:48:51Z</time>
      </trkpt>
      <trkpt lat="45.97557" lon="4.84607">
        <ele>274</ele>
        <time>2017-06-07T09:48:52Z</time>
      </trkpt>
      <trkpt lat="45.97563" lon="4.84602">
        <ele>274</ele>
        <time>2017-06-07T09:48:53Z</time>
      </trkpt>
      <trkpt lat="45.97569" lon="4.84596">
        <ele>274</ele>
        <time>2017-06-07T09:48:54Z</time>
      </trkpt>
      <trkpt lat="45.97575" lon="4.84589">
        <ele>274</ele>
        <time>2017-06-07T09:48:55Z</time>
      </trkpt>
      <trkpt lat="45.97581" lon="4.84583">
        <ele>274</ele>
        <time>2017-06-07T09:48:56Z</time>
      </trkpt>
      <trkpt lat="45.97586" lon="4.84576">
        <ele>274</ele>
        <time>2017-06-07T09:48:57Z</time>
      </trkpt>
      <trkpt lat="45.97591" lon="4.8457">
        <ele>274</ele>
        <time>2017-06-07T09:48:58Z</time>
      </trkpt>
      <trkpt lat="45.97596" lon="4.84563">
        <ele>274</ele>
        <time>2017-06-07T09:48:59Z</time>
      </trkpt>
      <trkpt lat="45.97601" lon="4.84557">
        <ele>275</ele>
        <time>2017-06-07T09:49:00Z</time>
      </trkpt>
      <trkpt lat="45.97606" lon="4.8455">
        <ele>275</ele>
        <time>2017-06-07T09:49:01Z</time>
      </trkpt>
      <trkpt lat="45.97611" lon="4.84544">
        <ele>275</ele>
        <time>2017-06-07T09:49:02Z</time>
      </trkpt>
      <trkpt lat="45.97615" lon="4.84538">
        <ele>275</ele>
        <time>2017-06-07T09:49:03Z</time>
      </trkpt>
      <trkpt lat="45.9762" lon="4.84533">
        <ele>275</ele>
        <time>2017-06-07T09:49:04Z</time>
      </trkpt>
      <trkpt lat="45.97624" lon="4.84528">
        <ele>275</ele>
        <time>2017-06-07T09:49:05Z</time>
      </trkpt>
      <trkpt lat="45.97629" lon="4.84523">
        <ele>275</ele>
        <time>2017-06-07T09:49:06Z</time>
      </trkpt>
      <trkpt lat="45.97632" lon="4.84518">
        <ele>275</ele>
        <time>2017-06-07T09:49:07Z</time>
      </trkpt>
      <trkpt lat="45.97636" lon="4.84513">
        <ele>275</ele>
        <time>2017-06-07T09:49:08Z</time>
      </trkpt>
      <trkpt lat="45.9764" lon="4.84509">
        <ele>275</ele>
        <time>2017-06-07T09:49:09Z</time>
      </trkpt>
      <trkpt lat="45.97644" lon="4.84504">
        <ele>275</ele>
        <time>2017-06-07T09:49:10Z</time>
      </trkpt>
      <trkpt lat="45.97647" lon="4.845">
        <ele>275</ele>
        <time>2017-06-07T09:49:11Z</time>
      </trkpt>
      <trkpt lat="45.97651" lon="4.84496">
        <ele>275</ele>
        <time>2017-06-07T09:49:12Z</time>
      </trkpt>
      <trkpt lat="45.97658" lon="4.84489">
        <ele>275</ele>
        <time>2017-06-07T09:49:14Z</time>
      </trkpt>
      <trkpt lat="45.97662" lon="4.84486">
        <ele>275</ele>
        <time>2017-06-07T09:49:15Z</time>
      </trkpt>
      <trkpt lat="45.97667" lon="4.84482">
        <ele>276</ele>
        <time>2017-06-07T09:49:16Z</time>
      </trkpt>
      <trkpt lat="45.97672" lon="4.84477">
        <ele>276</ele>
        <time>2017-06-07T09:49:17Z</time>
      </trkpt>
      <trkpt lat="45.97677" lon="4.84473">
        <ele>276</ele>
        <time>2017-06-07T09:49:18Z</time>
      </trkpt>
      <trkpt lat="45.97683" lon="4.84469">
        <ele>277</ele>
        <time>2017-06-07T09:49:19Z</time>
      </trkpt>
      <trkpt lat="45.9769" lon="4.84465">
        <ele>277</ele>
        <time>2017-06-07T09:49:20Z</time>
      </trkpt>
      <trkpt lat="45.97695" lon="4.84462">
        <ele>277</ele>
        <time>2017-06-07T09:49:21Z</time>
      </trkpt>
      <trkpt lat="45.97701" lon="4.84459">
        <ele>277</ele>
        <time>2017-06-07T09:49:22Z</time>
      </trkpt>
      <trkpt lat="45.97707" lon="4.84457">
        <ele>277</ele>
        <time>2017-06-07T09:49:23Z</time>
      </trkpt>
      <trkpt lat="45.97713" lon="4.84455">
        <ele>277</ele>
        <time>2017-06-07T09:49:24Z</time>
      </trkpt>
      <trkpt lat="45.97718" lon="4.84452">
        <ele>277</ele>
        <time>2017-06-07T09:49:25Z</time>
      </trkpt>
      <trkpt lat="45.97724" lon="4.8445">
        <ele>277</ele>
        <time>2017-06-07T09:49:26Z</time>
      </trkpt>
      <trkpt lat="45.97729" lon="4.84448">
        <ele>277</ele>
        <time>2017-06-07T09:49:27Z</time>
      </trkpt>
      <trkpt lat="45.97734" lon="4.84446">
        <ele>277</ele>
        <time>2017-06-07T09:49:28Z</time>
      </trkpt>
      <trkpt lat="45.97739" lon="4.84445">
        <ele>277</ele>
        <time>2017-06-07T09:49:29Z</time>
      </trkpt>
      <trkpt lat="45.97744" lon="4.84443">
        <ele>277</ele>
        <time>2017-06-07T09:49:30Z</time>
      </trkpt>
      <trkpt lat="45.97749" lon="4.84441">
        <ele>277</ele>
        <time>2017-06-07T09:49:31Z</time>
      </trkpt>
      <trkpt lat="45.97755" lon="4.8444">
        <ele>277</ele>
        <time>2017-06-07T09:49:32Z</time>
      </trkpt>
      <trkpt lat="45.97761" lon="4.84438">
        <ele>277</ele>
        <time>2017-06-07T09:49:33Z</time>
      </trkpt>
      <trkpt lat="45.97767" lon="4.84436">
        <ele>277</ele>
        <time>2017-06-07T09:49:34Z</time>
      </trkpt>
      <trkpt lat="45.97774" lon="4.84433">
        <ele>277</ele>
        <time>2017-06-07T09:49:35Z</time>
      </trkpt>
      <trkpt lat="45.9778" lon="4.8443">
        <ele>277</ele>
        <time>2017-06-07T09:49:36Z</time>
      </trkpt>
      <trkpt lat="45.97787" lon="4.84428">
        <ele>277</ele>
        <time>2017-06-07T09:49:37Z</time>
      </trkpt>
      <trkpt lat="45.97793" lon="4.84425">
        <ele>277</ele>
        <time>2017-06-07T09:49:38Z</time>
      </trkpt>
      <trkpt lat="45.97799" lon="4.84422">
        <ele>277</ele>
        <time>2017-06-07T09:49:39Z</time>
      </trkpt>
      <trkpt lat="45.97804" lon="4.84419">
        <ele>277</ele>
        <time>2017-06-07T09:49:40Z</time>
      </trkpt>
      <trkpt lat="45.97809" lon="4.84415">
        <ele>277</ele>
        <time>2017-06-07T09:49:41Z</time>
      </trkpt>
      <trkpt lat="45.97815" lon="4.84412">
        <ele>276</ele>
        <time>2017-06-07T09:49:42Z</time>
      </trkpt>
      <trkpt lat="45.97819" lon="4.84408">
        <ele>276</ele>
        <time>2017-06-07T09:49:43Z</time>
      </trkpt>
      <trkpt lat="45.97824" lon="4.84405">
        <ele>276</ele>
        <time>2017-06-07T09:49:44Z</time>
      </trkpt>
      <trkpt lat="45.97829" lon="4.84402">
        <ele>276</ele>
        <time>2017-06-07T09:49:45Z</time>
      </trkpt>
      <trkpt lat="45.97833" lon="4.84397">
        <ele>276</ele>
        <time>2017-06-07T09:49:46Z</time>
      </trkpt>
      <trkpt lat="45.97837" lon="4.84394">
        <ele>276</ele>
        <time>2017-06-07T09:49:47Z</time>
      </trkpt>
      <trkpt lat="45.97841" lon="4.8439">
        <ele>276</ele>
        <time>2017-06-07T09:49:48Z</time>
      </trkpt>
      <trkpt lat="45.97845" lon="4.84386">
        <ele>276</ele>
        <time>2017-06-07T09:49:49Z</time>
      </trkpt>
      <trkpt lat="45.97849" lon="4.84382">
        <ele>276</ele>
        <time>2017-06-07T09:49:50Z</time>
      </trkpt>
      <trkpt lat="45.97853" lon="4.84378">
        <ele>276</ele>
        <time>2017-06-07T09:49:51Z</time>
      </trkpt>
      <trkpt lat="45.97856" lon="4.84374">
        <ele>276</ele>
        <time>2017-06-07T09:49:52Z</time>
      </trkpt>
      <trkpt lat="45.9786" lon="4.8437">
        <ele>276</ele>
        <time>2017-06-07T09:49:53Z</time>
      </trkpt>
      <trkpt lat="45.97863" lon="4.84365">
        <ele>276</ele>
        <time>2017-06-07T09:49:54Z</time>
      </trkpt>
      <trkpt lat="45.97866" lon="4.8436">
        <ele>276</ele>
        <time>2017-06-07T09:49:55Z</time>
      </trkpt>
      <trkpt lat="45.97869" lon="4.84355">
        <ele>276</ele>
        <time>2017-06-07T09:49:56Z</time>
      </trkpt>
      <trkpt lat="45.97872" lon="4.8435">
        <ele>276</ele>
        <time>2017-06-07T09:49:57Z</time>
      </trkpt>
      <trkpt lat="45.97876" lon="4.84343">
        <ele>275</ele>
        <time>2017-06-07T09:49:58Z</time>
      </trkpt>
      <trkpt lat="45.9788" lon="4.84337">
        <ele>275</ele>
        <time>2017-06-07T09:49:59Z</time>
      </trkpt>
      <trkpt lat="45.97884" lon="4.84331">
        <ele>275</ele>
        <time>2017-06-07T09:50:00Z</time>
      </trkpt>
      <trkpt lat="45.97888" lon="4.84324">
        <ele>275</ele>
        <time>2017-06-07T09:50:01Z</time>
      </trkpt>
      <trkpt lat="45.97892" lon="4.84319">
        <ele>275</ele>
        <time>2017-06-07T09:50:02Z</time>
      </trkpt>
      <trkpt lat="45.97896" lon="4.84313">
        <ele>275</ele>
        <time>2017-06-07T09:50:03Z</time>
      </trkpt>
      <trkpt lat="45.97899" lon="4.84307">
        <ele>275</ele>
        <time>2017-06-07T09:50:04Z</time>
      </trkpt>
      <trkpt lat="45.97903" lon="4.84301">
        <ele>275</ele>
        <time>2017-06-07T09:50:05Z</time>
      </trkpt>
      <trkpt lat="45.97907" lon="4.84295">
        <ele>275</ele>
        <time>2017-06-07T09:50:06Z</time>
      </trkpt>
      <trkpt lat="45.97911" lon="4.8429">
        <ele>275</ele>
        <time>2017-06-07T09:50:07Z</time>
      </trkpt>
      <trkpt lat="45.97915" lon="4.84285">
        <ele>275</ele>
        <time>2017-06-07T09:50:08Z</time>
      </trkpt>
      <trkpt lat="45.97919" lon="4.84281">
        <ele>275</ele>
        <time>2017-06-07T09:50:09Z</time>
      </trkpt>
      <trkpt lat="45.97923" lon="4.84276">
        <ele>275</ele>
        <time>2017-06-07T09:50:10Z</time>
      </trkpt>
      <trkpt lat="45.97927" lon="4.84271">
        <ele>275</ele>
        <time>2017-06-07T09:50:11Z</time>
      </trkpt>
      <trkpt lat="45.9793" lon="4.84267">
        <ele>275</ele>
        <time>2017-06-07T09:50:12Z</time>
      </trkpt>
      <trkpt lat="45.97934" lon="4.84262">
        <ele>275</ele>
        <time>2017-06-07T09:50:13Z</time>
      </trkpt>
      <trkpt lat="45.97938" lon="4.84258">
        <ele>275</ele>
        <time>2017-06-07T09:50:14Z</time>
      </trkpt>
      <trkpt lat="45.97941" lon="4.84255">
        <ele>275</ele>
        <time>2017-06-07T09:50:15Z</time>
      </trkpt>
      <trkpt lat="45.97948" lon="4.84248">
        <ele>275</ele>
        <time>2017-06-07T09:50:17Z</time>
      </trkpt>
      <trkpt lat="45.97953" lon="4.84244">
        <ele>275</ele>
        <time>2017-06-07T09:50:18Z</time>
      </trkpt>
      <trkpt lat="45.97957" lon="4.8424">
        <ele>275</ele>
        <time>2017-06-07T09:50:19Z</time>
      </trkpt>
      <trkpt lat="45.97962" lon="4.84236">
        <ele>274</ele>
        <time>2017-06-07T09:50:20Z</time>
      </trkpt>
      <trkpt lat="45.97967" lon="4.84231">
        <ele>274</ele>
        <time>2017-06-07T09:50:21Z</time>
      </trkpt>
      <trkpt lat="45.97972" lon="4.84226">
        <ele>274</ele>
        <time>2017-06-07T09:50:22Z</time>
      </trkpt>
      <trkpt lat="45.97978" lon="4.8422">
        <ele>274</ele>
        <time>2017-06-07T09:50:23Z</time>
      </trkpt>
      <trkpt lat="45.97983" lon="4.84215">
        <ele>274</ele>
        <time>2017-06-07T09:50:24Z</time>
      </trkpt>
      <trkpt lat="45.97989" lon="4.84211">
        <ele>274</ele>
        <time>2017-06-07T09:50:25Z</time>
      </trkpt>
      <trkpt lat="45.97994" lon="4.84206">
        <ele>274</ele>
        <time>2017-06-07T09:50:26Z</time>
      </trkpt>
      <trkpt lat="45.97999" lon="4.84202">
        <ele>274</ele>
        <time>2017-06-07T09:50:27Z</time>
      </trkpt>
      <trkpt lat="45.98004" lon="4.84197">
        <ele>274</ele>
        <time>2017-06-07T09:50:28Z</time>
      </trkpt>
      <trkpt lat="45.98009" lon="4.84193">
        <ele>274</ele>
        <time>2017-06-07T09:50:29Z</time>
      </trkpt>
      <trkpt lat="45.98013" lon="4.84188">
        <ele>274</ele>
        <time>2017-06-07T09:50:30Z</time>
      </trkpt>
      <trkpt lat="45.98018" lon="4.84184">
        <ele>274</ele>
        <time>2017-06-07T09:50:31Z</time>
      </trkpt>
      <trkpt lat="45.98022" lon="4.84179">
        <ele>274</ele>
        <time>2017-06-07T09:50:32Z</time>
      </trkpt>
      <trkpt lat="45.98026" lon="4.84176">
        <ele>274</ele>
        <time>2017-06-07T09:50:33Z</time>
      </trkpt>
      <trkpt lat="45.98031" lon="4.84172">
        <ele>273</ele>
        <time>2017-06-07T09:50:34Z</time>
      </trkpt>
      <trkpt lat="45.98035" lon="4.84168">
        <ele>273</ele>
        <time>2017-06-07T09:50:35Z</time>
      </trkpt>
      <trkpt lat="45.98038" lon="4.84164">
        <ele>273</ele>
        <time>2017-06-07T09:50:36Z</time>
      </trkpt>
      <trkpt lat="45.98042" lon="4.8416">
        <ele>273</ele>
        <time>2017-06-07T09:50:37Z</time>
      </trkpt>
      <trkpt lat="45.98046" lon="4.84157">
        <ele>273</ele>
        <time>2017-06-07T09:50:38Z</time>
      </trkpt>
      <trkpt lat="45.98054" lon="4.8415">
        <ele>273</ele>
        <time>2017-06-07T09:50:40Z</time>
      </trkpt>
      <trkpt lat="45.98058" lon="4.84146">
        <ele>273</ele>
        <time>2017-06-07T09:50:41Z</time>
      </trkpt>
      <trkpt lat="45.98063" lon="4.84142">
        <ele>273</ele>
        <time>2017-06-07T09:50:42Z</time>
      </trkpt>
      <trkpt lat="45.98068" lon="4.84138">
        <ele>273</ele>
        <time>2017-06-07T09:50:43Z</time>
      </trkpt>
      <trkpt lat="45.98073" lon="4.84133">
        <ele>273</ele>
        <time>2017-06-07T09:50:44Z</time>
      </trkpt>
      <trkpt lat="45.98079" lon="4.84128">
        <ele>273</ele>
        <time>2017-06-07T09:50:45Z</time>
      </trkpt>
      <trkpt lat="45.98084" lon="4.84122">
        <ele>273</ele>
        <time>2017-06-07T09:50:46Z</time>
      </trkpt>
      <trkpt lat="45.98089" lon="4.84117">
        <ele>273</ele>
        <time>2017-06-07T09:50:47Z</time>
      </trkpt>
      <trkpt lat="45.98093" lon="4.84112">
        <ele>273</ele>
        <time>2017-06-07T09:50:48Z</time>
      </trkpt>
      <trkpt lat="45.98098" lon="4.84108">
        <ele>273</ele>
        <time>2017-06-07T09:50:49Z</time>
      </trkpt>
      <trkpt lat="45.98103" lon="4.84103">
        <ele>273</ele>
        <time>2017-06-07T09:50:50Z</time>
      </trkpt>
      <trkpt lat="45.98108" lon="4.84099">
        <ele>273</ele>
        <time>2017-06-07T09:50:51Z</time>
      </trkpt>
      <trkpt lat="45.98113" lon="4.84094">
        <ele>273</ele>
        <time>2017-06-07T09:50:52Z</time>
      </trkpt>
      <trkpt lat="45.98117" lon="4.8409">
        <ele>273</ele>
        <time>2017-06-07T09:50:53Z</time>
      </trkpt>
      <trkpt lat="45.98122" lon="4.84086">
        <ele>273</ele>
        <time>2017-06-07T09:50:54Z</time>
      </trkpt>
      <trkpt lat="45.98126" lon="4.84081">
        <ele>273</ele>
        <time>2017-06-07T09:50:55Z</time>
      </trkpt>
      <trkpt lat="45.9813" lon="4.84076">
        <ele>273</ele>
        <time>2017-06-07T09:50:56Z</time>
      </trkpt>
      <trkpt lat="45.98134" lon="4.84072">
        <ele>273</ele>
        <time>2017-06-07T09:50:57Z</time>
      </trkpt>
      <trkpt lat="45.98137" lon="4.84067">
        <ele>273</ele>
        <time>2017-06-07T09:50:58Z</time>
      </trkpt>
      <trkpt lat="45.98142" lon="4.84062">
        <ele>273</ele>
        <time>2017-06-07T09:50:59Z</time>
      </trkpt>
      <trkpt lat="45.98146" lon="4.84056">
        <ele>273</ele>
        <time>2017-06-07T09:51:00Z</time>
      </trkpt>
      <trkpt lat="45.9815" lon="4.84049">
        <ele>273</ele>
        <time>2017-06-07T09:51:01Z</time>
      </trkpt>
      <trkpt lat="45.98154" lon="4.84042">
        <ele>273</ele>
        <time>2017-06-07T09:51:02Z</time>
      </trkpt>
      <trkpt lat="45.98159" lon="4.84035">
        <ele>273</ele>
        <time>2017-06-07T09:51:03Z</time>
      </trkpt>
      <trkpt lat="45.98163" lon="4.84028">
        <ele>273</ele>
        <time>2017-06-07T09:51:04Z</time>
      </trkpt>
      <trkpt lat="45.98167" lon="4.8402">
        <ele>273</ele>
        <time>2017-06-07T09:51:05Z</time>
      </trkpt>
      <trkpt lat="45.98171" lon="4.84013">
        <ele>273</ele>
        <time>2017-06-07T09:51:06Z</time>
      </trkpt>
      <trkpt lat="45.98174" lon="4.84005">
        <ele>273</ele>
        <time>2017-06-07T09:51:07Z</time>
      </trkpt>
      <trkpt lat="45.98177" lon="4.83998">
        <ele>273</ele>
        <time>2017-06-07T09:51:08Z</time>
      </trkpt>
      <trkpt lat="45.98181" lon="4.8399">
        <ele>273</ele>
        <time>2017-06-07T09:51:09Z</time>
      </trkpt>
      <trkpt lat="45.98184" lon="4.83982">
        <ele>273</ele>
        <time>2017-06-07T09:51:10Z</time>
      </trkpt>
      <trkpt lat="45.98187" lon="4.83974">
        <ele>273</ele>
        <time>2017-06-07T09:51:11Z</time>
      </trkpt>
      <trkpt lat="45.9819" lon="4.83967">
        <ele>273</ele>
        <time>2017-06-07T09:51:12Z</time>
      </trkpt>
      <trkpt lat="45.98192" lon="4.8396">
        <ele>273</ele>
        <time>2017-06-07T09:51:13Z</time>
      </trkpt>
      <trkpt lat="45.98194" lon="4.83953">
        <ele>273</ele>
        <time>2017-06-07T09:51:14Z</time>
      </trkpt>
      <trkpt lat="45.98197" lon="4.83946">
        <ele>273</ele>
        <time>2017-06-07T09:51:15Z</time>
      </trkpt>
      <trkpt lat="45.98199" lon="4.8394">
        <ele>273</ele>
        <time>2017-06-07T09:51:16Z</time>
      </trkpt>
      <trkpt lat="45.98201" lon="4.83933">
        <ele>273</ele>
        <time>2017-06-07T09:51:17Z</time>
      </trkpt>
      <trkpt lat="45.98204" lon="4.83926">
        <ele>273</ele>
        <time>2017-06-07T09:51:18Z</time>
      </trkpt>
      <trkpt lat="45.98207" lon="4.83919">
        <ele>273</ele>
        <time>2017-06-07T09:51:19Z</time>
      </trkpt>
      <trkpt lat="45.98209" lon="4.83912">
        <ele>273</ele>
        <time>2017-06-07T09:51:20Z</time>
      </trkpt>
      <trkpt lat="45.98212" lon="4.83904">
        <ele>273</ele>
        <time>2017-06-07T09:51:21Z</time>
      </trkpt>
      <trkpt lat="45.98215" lon="4.83896">
        <ele>273</ele>
        <time>2017-06-07T09:51:22Z</time>
      </trkpt>
      <trkpt lat="45.98217" lon="4.83888">
        <ele>272</ele>
        <time>2017-06-07T09:51:23Z</time>
      </trkpt>
      <trkpt lat="45.9822" lon="4.8388">
        <ele>272</ele>
        <time>2017-06-07T09:51:24Z</time>
      </trkpt>
      <trkpt lat="45.98223" lon="4.83873">
        <ele>272</ele>
        <time>2017-06-07T09:51:25Z</time>
      </trkpt>
      <trkpt lat="45.98225" lon="4.83866">
        <ele>272</ele>
        <time>2017-06-07T09:51:26Z</time>
      </trkpt>
      <trkpt lat="45.98228" lon="4.8386">
        <ele>272</ele>
        <time>2017-06-07T09:51:27Z</time>
      </trkpt>
      <trkpt lat="45.9823" lon="4.83853">
        <ele>272</ele>
        <time>2017-06-07T09:51:28Z</time>
      </trkpt>
      <trkpt lat="45.98232" lon="4.83846">
        <ele>272</ele>
        <time>2017-06-07T09:51:29Z</time>
      </trkpt>
      <trkpt lat="45.98234" lon="4.8384">
        <ele>272</ele>
        <time>2017-06-07T09:51:30Z</time>
      </trkpt>
      <trkpt lat="45.98237" lon="4.83834">
        <ele>272</ele>
        <time>2017-06-07T09:51:31Z</time>
      </trkpt>
      <trkpt lat="45.98239" lon="4.83828">
        <ele>272</ele>
        <time>2017-06-07T09:51:32Z</time>
      </trkpt>
      <trkpt lat="45.98242" lon="4.83822">
        <ele>272</ele>
        <time>2017-06-07T09:51:33Z</time>
      </trkpt>
      <trkpt lat="45.98244" lon="4.83815">
        <ele>272</ele>
        <time>2017-06-07T09:51:34Z</time>
      </trkpt>
      <trkpt lat="45.98246" lon="4.83809">
        <ele>272</ele>
        <time>2017-06-07T09:51:35Z</time>
      </trkpt>
      <trkpt lat="45.98248" lon="4.83802">
        <ele>272</ele>
        <time>2017-06-07T09:51:36Z</time>
      </trkpt>
      <trkpt lat="45.98251" lon="4.83795">
        <ele>272</ele>
        <time>2017-06-07T09:51:37Z</time>
      </trkpt>
      <trkpt lat="45.98253" lon="4.83788">
        <ele>272</ele>
        <time>2017-06-07T09:51:38Z</time>
      </trkpt>
      <trkpt lat="45.98256" lon="4.83781">
        <ele>272</ele>
        <time>2017-06-07T09:51:39Z</time>
      </trkpt>
      <trkpt lat="45.98258" lon="4.83774">
        <ele>272</ele>
        <time>2017-06-07T09:51:40Z</time>
      </trkpt>
      <trkpt lat="45.98261" lon="4.83766">
        <ele>272</ele>
        <time>2017-06-07T09:51:41Z</time>
      </trkpt>
      <trkpt lat="45.98264" lon="4.83758">
        <ele>272</ele>
        <time>2017-06-07T09:51:42Z</time>
      </trkpt>
      <trkpt lat="45.98267" lon="4.8375">
        <ele>272</ele>
        <time>2017-06-07T09:51:43Z</time>
      </trkpt>
      <trkpt lat="45.98269" lon="4.83743">
        <ele>272</ele>
        <time>2017-06-07T09:51:44Z</time>
      </trkpt>
      <trkpt lat="45.98272" lon="4.83735">
        <ele>272</ele>
        <time>2017-06-07T09:51:45Z</time>
      </trkpt>
      <trkpt lat="45.98274" lon="4.83728">
        <ele>272</ele>
        <time>2017-06-07T09:51:46Z</time>
      </trkpt>
      <trkpt lat="45.98276" lon="4.83721">
        <ele>272</ele>
        <time>2017-06-07T09:51:47Z</time>
      </trkpt>
      <trkpt lat="45.98279" lon="4.83715">
        <ele>272</ele>
        <time>2017-06-07T09:51:48Z</time>
      </trkpt>
      <trkpt lat="45.98281" lon="4.83708">
        <ele>272</ele>
        <time>2017-06-07T09:51:49Z</time>
      </trkpt>
      <trkpt lat="45.98283" lon="4.83701">
        <ele>272</ele>
        <time>2017-06-07T09:51:50Z</time>
      </trkpt>
      <trkpt lat="45.98285" lon="4.83695">
        <ele>272</ele>
        <time>2017-06-07T09:51:51Z</time>
      </trkpt>
      <trkpt lat="45.98288" lon="4.83689">
        <ele>272</ele>
        <time>2017-06-07T09:51:52Z</time>
      </trkpt>
      <trkpt lat="45.9829" lon="4.83682">
        <ele>272</ele>
        <time>2017-06-07T09:51:53Z</time>
      </trkpt>
      <trkpt lat="45.98292" lon="4.83676">
        <ele>272</ele>
        <time>2017-06-07T09:51:54Z</time>
      </trkpt>
      <trkpt lat="45.98295" lon="4.83669">
        <ele>272</ele>
        <time>2017-06-07T09:51:55Z</time>
      </trkpt>
      <trkpt lat="45.98298" lon="4.83662">
        <ele>271</ele>
        <time>2017-06-07T09:51:56Z</time>
      </trkpt>
      <trkpt lat="45.98301" lon="4.83655">
        <ele>271</ele>
        <time>2017-06-07T09:51:57Z</time>
      </trkpt>
      <trkpt lat="45.98304" lon="4.83647">
        <ele>271</ele>
        <time>2017-06-07T09:51:58Z</time>
      </trkpt>
      <trkpt lat="45.98307" lon="4.8364">
        <ele>271</ele>
        <time>2017-06-07T09:51:59Z</time>
      </trkpt>
      <trkpt lat="45.9831" lon="4.83633">
        <ele>271</ele>
        <time>2017-06-07T09:52:00Z</time>
      </trkpt>
      <trkpt lat="45.98314" lon="4.83626">
        <ele>271</ele>
        <time>2017-06-07T09:52:01Z</time>
      </trkpt>
      <trkpt lat="45.98318" lon="4.83619">
        <ele>271</ele>
        <time>2017-06-07T09:52:02Z</time>
      </trkpt>
      <trkpt lat="45.98322" lon="4.83613">
        <ele>271</ele>
        <time>2017-06-07T09:52:03Z</time>
      </trkpt>
      <trkpt lat="45.98326" lon="4.83607">
        <ele>271</ele>
        <time>2017-06-07T09:52:04Z</time>
      </trkpt>
      <trkpt lat="45.9833" lon="4.83601">
        <ele>271</ele>
        <time>2017-06-07T09:52:05Z</time>
      </trkpt>
      <trkpt lat="45.98334" lon="4.83595">
        <ele>270</ele>
        <time>2017-06-07T09:52:06Z</time>
      </trkpt>
      <trkpt lat="45.98338" lon="4.83588">
        <ele>270</ele>
        <time>2017-06-07T09:52:07Z</time>
      </trkpt>
      <trkpt lat="45.98342" lon="4.83582">
        <ele>270</ele>
        <time>2017-06-07T09:52:08Z</time>
      </trkpt>
      <trkpt lat="45.98347" lon="4.83576">
        <ele>270</ele>
        <time>2017-06-07T09:52:09Z</time>
      </trkpt>
      <trkpt lat="45.98351" lon="4.83571">
        <ele>269</ele>
        <time>2017-06-07T09:52:10Z</time>
      </trkpt>
      <trkpt lat="45.98356" lon="4.83566">
        <ele>269</ele>
        <time>2017-06-07T09:52:11Z</time>
      </trkpt>
      <trkpt lat="45.98359" lon="4.83561">
        <ele>269</ele>
        <time>2017-06-07T09:52:12Z</time>
      </trkpt>
      <trkpt lat="45.98363" lon="4.83555">
        <ele>269</ele>
        <time>2017-06-07T09:52:13Z</time>
      </trkpt>
      <trkpt lat="45.98367" lon="4.83549">
        <ele>269</ele>
        <time>2017-06-07T09:52:14Z</time>
      </trkpt>
      <trkpt lat="45.98371" lon="4.83544">
        <ele>269</ele>
        <time>2017-06-07T09:52:15Z</time>
      </trkpt>
      <trkpt lat="45.98375" lon="4.83539">
        <ele>269</ele>
        <time>2017-06-07T09:52:16Z</time>
      </trkpt>
      <trkpt lat="45.98379" lon="4.83534">
        <ele>269</ele>
        <time>2017-06-07T09:52:17Z</time>
      </trkpt>
      <trkpt lat="45.98384" lon="4.83528">
        <ele>269</ele>
        <time>2017-06-07T09:52:18Z</time>
      </trkpt>
      <trkpt lat="45.98388" lon="4.83521">
        <ele>269</ele>
        <time>2017-06-07T09:52:19Z</time>
      </trkpt>
      <trkpt lat="45.98393" lon="4.83515">
        <ele>269</ele>
        <time>2017-06-07T09:52:20Z</time>
      </trkpt>
      <trkpt lat="45.98397" lon="4.83508">
        <ele>269</ele>
        <time>2017-06-07T09:52:21Z</time>
      </trkpt>
      <trkpt lat="45.98402" lon="4.83502">
        <ele>268</ele>
        <time>2017-06-07T09:52:22Z</time>
      </trkpt>
      <trkpt lat="45.98406" lon="4.83497">
        <ele>268</ele>
        <time>2017-06-07T09:52:23Z</time>
      </trkpt>
      <trkpt lat="45.98411" lon="4.83491">
        <ele>268</ele>
        <time>2017-06-07T09:52:24Z</time>
      </trkpt>
      <trkpt lat="45.98415" lon="4.83486">
        <ele>269</ele>
        <time>2017-06-07T09:52:25Z</time>
      </trkpt>
      <trkpt lat="45.98419" lon="4.83481">
        <ele>268</ele>
        <time>2017-06-07T09:52:26Z</time>
      </trkpt>
      <trkpt lat="45.98423" lon="4.83475">
        <ele>268</ele>
        <time>2017-06-07T09:52:27Z</time>
      </trkpt>
      <trkpt lat="45.98426" lon="4.8347">
        <ele>268</ele>
        <time>2017-06-07T09:52:28Z</time>
      </trkpt>
      <trkpt lat="45.9843" lon="4.83466">
        <ele>268</ele>
        <time>2017-06-07T09:52:29Z</time>
      </trkpt>
      <trkpt lat="45.98433" lon="4.83461">
        <ele>268</ele>
        <time>2017-06-07T09:52:30Z</time>
      </trkpt>
      <trkpt lat="45.98437" lon="4.83456">
        <ele>268</ele>
        <time>2017-06-07T09:52:31Z</time>
      </trkpt>
      <trkpt lat="45.98441" lon="4.8345">
        <ele>268</ele>
        <time>2017-06-07T09:52:32Z</time>
      </trkpt>
      <trkpt lat="45.98445" lon="4.83445">
        <ele>268</ele>
        <time>2017-06-07T09:52:33Z</time>
      </trkpt>
      <trkpt lat="45.98449" lon="4.83439">
        <ele>268</ele>
        <time>2017-06-07T09:52:34Z</time>
      </trkpt>
      <trkpt lat="45.98453" lon="4.83434">
        <ele>268</ele>
        <time>2017-06-07T09:52:35Z</time>
      </trkpt>
      <trkpt lat="45.98457" lon="4.83428">
        <ele>268</ele>
        <time>2017-06-07T09:52:36Z</time>
      </trkpt>
      <trkpt lat="45.98462" lon="4.83422">
        <ele>269</ele>
        <time>2017-06-07T09:52:37Z</time>
      </trkpt>
      <trkpt lat="45.98466" lon="4.83416">
        <ele>269</ele>
        <time>2017-06-07T09:52:38Z</time>
      </trkpt>
      <trkpt lat="45.98471" lon="4.83411">
        <ele>269</ele>
        <time>2017-06-07T09:52:39Z</time>
      </trkpt>
      <trkpt lat="45.98475" lon="4.83405">
        <ele>269</ele>
        <time>2017-06-07T09:52:40Z</time>
      </trkpt>
      <trkpt lat="45.98479" lon="4.834">
        <ele>269</ele>
        <time>2017-06-07T09:52:41Z</time>
      </trkpt>
      <trkpt lat="45.98483" lon="4.83395">
        <ele>269</ele>
        <time>2017-06-07T09:52:42Z</time>
      </trkpt>
      <trkpt lat="45.98486" lon="4.8339">
        <ele>269</ele>
        <time>2017-06-07T09:52:43Z</time>
      </trkpt>
      <trkpt lat="45.98493" lon="4.83382">
        <ele>269</ele>
        <time>2017-06-07T09:52:45Z</time>
      </trkpt>
      <trkpt lat="45.98496" lon="4.83378">
        <ele>269</ele>
        <time>2017-06-07T09:52:46Z</time>
      </trkpt>
      <trkpt lat="45.98499" lon="4.83373">
        <ele>270</ele>
        <time>2017-06-07T09:52:47Z</time>
      </trkpt>
      <trkpt lat="45.98502" lon="4.83368">
        <ele>269</ele>
        <time>2017-06-07T09:52:48Z</time>
      </trkpt>
      <trkpt lat="45.98506" lon="4.83363">
        <ele>269</ele>
        <time>2017-06-07T09:52:49Z</time>
      </trkpt>
      <trkpt lat="45.9851" lon="4.83357">
        <ele>269</ele>
        <time>2017-06-07T09:52:50Z</time>
      </trkpt>
      <trkpt lat="45.98514" lon="4.83352">
        <ele>270</ele>
        <time>2017-06-07T09:52:51Z</time>
      </trkpt>
      <trkpt lat="45.98519" lon="4.83346">
        <ele>270</ele>
        <time>2017-06-07T09:52:52Z</time>
      </trkpt>
      <trkpt lat="45.98523" lon="4.83339">
        <ele>270</ele>
        <time>2017-06-07T09:52:53Z</time>
      </trkpt>
      <trkpt lat="45.98527" lon="4.83333">
        <ele>270</ele>
        <time>2017-06-07T09:52:54Z</time>
      </trkpt>
      <trkpt lat="45.98532" lon="4.83327">
        <ele>269</ele>
        <time>2017-06-07T09:52:55Z</time>
      </trkpt>
      <trkpt lat="45.98536" lon="4.83322">
        <ele>269</ele>
        <time>2017-06-07T09:52:56Z</time>
      </trkpt>
      <trkpt lat="45.9854" lon="4.83317">
        <ele>269</ele>
        <time>2017-06-07T09:52:57Z</time>
      </trkpt>
      <trkpt lat="45.98544" lon="4.83312">
        <ele>269</ele>
        <time>2017-06-07T09:52:58Z</time>
      </trkpt>
      <trkpt lat="45.98548" lon="4.83307">
        <ele>269</ele>
        <time>2017-06-07T09:52:59Z</time>
      </trkpt>
      <trkpt lat="45.98552" lon="4.83301">
        <ele>269</ele>
        <time>2017-06-07T09:53:00Z</time>
      </trkpt>
      <trkpt lat="45.98555" lon="4.83296">
        <ele>269</ele>
        <time>2017-06-07T09:53:01Z</time>
      </trkpt>
      <trkpt lat="45.98559" lon="4.83291">
        <ele>269</ele>
        <time>2017-06-07T09:53:02Z</time>
      </trkpt>
      <trkpt lat="45.98562" lon="4.83287">
        <ele>269</ele>
        <time>2017-06-07T09:53:03Z</time>
      </trkpt>
      <trkpt lat="45.98566" lon="4.83282">
        <ele>269</ele>
        <time>2017-06-07T09:53:04Z</time>
      </trkpt>
      <trkpt lat="45.9857" lon="4.83277">
        <ele>269</ele>
        <time>2017-06-07T09:53:05Z</time>
      </trkpt>
      <trkpt lat="45.98573" lon="4.83271">
        <ele>269</ele>
        <time>2017-06-07T09:53:06Z</time>
      </trkpt>
      <trkpt lat="45.98577" lon="4.83266">
        <ele>269</ele>
        <time>2017-06-07T09:53:07Z</time>
      </trkpt>
      <trkpt lat="45.98581" lon="4.83261">
        <ele>268</ele>
        <time>2017-06-07T09:53:08Z</time>
      </trkpt>
      <trkpt lat="45.98585" lon="4.83256">
        <ele>268</ele>
        <time>2017-06-07T09:53:09Z</time>
      </trkpt>
      <trkpt lat="45.98588" lon="4.83251">
        <ele>268</ele>
        <time>2017-06-07T09:53:10Z</time>
      </trkpt>
      <trkpt lat="45.98592" lon="4.83246">
        <ele>268</ele>
        <time>2017-06-07T09:53:11Z</time>
      </trkpt>
      <trkpt lat="45.98596" lon="4.8324">
        <ele>268</ele>
        <time>2017-06-07T09:53:12Z</time>
      </trkpt>
      <trkpt lat="45.986" lon="4.83236">
        <ele>268</ele>
        <time>2017-06-07T09:53:13Z</time>
      </trkpt>
      <trkpt lat="45.98603" lon="4.83231">
        <ele>268</ele>
        <time>2017-06-07T09:53:14Z</time>
      </trkpt>
      <trkpt lat="45.98607" lon="4.83226">
        <ele>267</ele>
        <time>2017-06-07T09:53:15Z</time>
      </trkpt>
      <trkpt lat="45.98611" lon="4.83222">
        <ele>267</ele>
        <time>2017-06-07T09:53:16Z</time>
      </trkpt>
      <trkpt lat="45.98614" lon="4.83217">
        <ele>267</ele>
        <time>2017-06-07T09:53:17Z</time>
      </trkpt>
      <trkpt lat="45.98618" lon="4.83213">
        <ele>267</ele>
        <time>2017-06-07T09:53:18Z</time>
      </trkpt>
      <trkpt lat="45.98621" lon="4.83208">
        <ele>267</ele>
        <time>2017-06-07T09:53:19Z</time>
      </trkpt>
      <trkpt lat="45.98625" lon="4.83203">
        <ele>267</ele>
        <time>2017-06-07T09:53:20Z</time>
      </trkpt>
      <trkpt lat="45.98629" lon="4.83199">
        <ele>267</ele>
        <time>2017-06-07T09:53:21Z</time>
      </trkpt>
      <trkpt lat="45.98633" lon="4.83195">
        <ele>267</ele>
        <time>2017-06-07T09:53:22Z</time>
      </trkpt>
      <trkpt lat="45.98637" lon="4.8319">
        <ele>267</ele>
        <time>2017-06-07T09:53:23Z</time>
      </trkpt>
      <trkpt lat="45.98641" lon="4.83186">
        <ele>267</ele>
        <time>2017-06-07T09:53:24Z</time>
      </trkpt>
      <trkpt lat="45.98646" lon="4.83181">
        <ele>267</ele>
        <time>2017-06-07T09:53:25Z</time>
      </trkpt>
      <trkpt lat="45.9865" lon="4.83177">
        <ele>267</ele>
        <time>2017-06-07T09:53:26Z</time>
      </trkpt>
      <trkpt lat="45.98655" lon="4.83173">
        <ele>267</ele>
        <time>2017-06-07T09:53:27Z</time>
      </trkpt>
      <trkpt lat="45.98659" lon="4.8317">
        <ele>266</ele>
        <time>2017-06-07T09:53:28Z</time>
      </trkpt>
      <trkpt lat="45.98664" lon="4.83167">
        <ele>266</ele>
        <time>2017-06-07T09:53:29Z</time>
      </trkpt>
      <trkpt lat="45.98668" lon="4.83163">
        <ele>266</ele>
        <time>2017-06-07T09:53:30Z</time>
      </trkpt>
      <trkpt lat="45.98673" lon="4.8316">
        <ele>266</ele>
        <time>2017-06-07T09:53:31Z</time>
      </trkpt>
      <trkpt lat="45.98678" lon="4.83156">
        <ele>266</ele>
        <time>2017-06-07T09:53:32Z</time>
      </trkpt>
      <trkpt lat="45.98683" lon="4.83152">
        <ele>266</ele>
        <time>2017-06-07T09:53:33Z</time>
      </trkpt>
      <trkpt lat="45.98687" lon="4.83148">
        <ele>266</ele>
        <time>2017-06-07T09:53:34Z</time>
      </trkpt>
      <trkpt lat="45.98692" lon="4.83144">
        <ele>266</ele>
        <time>2017-06-07T09:53:35Z</time>
      </trkpt>
      <trkpt lat="45.98697" lon="4.83141">
        <ele>266</ele>
        <time>2017-06-07T09:53:36Z</time>
      </trkpt>
      <trkpt lat="45.98701" lon="4.83137">
        <ele>266</ele>
        <time>2017-06-07T09:53:37Z</time>
      </trkpt>
      <trkpt lat="45.98706" lon="4.83134">
        <ele>266</ele>
        <time>2017-06-07T09:53:38Z</time>
      </trkpt>
      <trkpt lat="45.9871" lon="4.8313">
        <ele>266</ele>
        <time>2017-06-07T09:53:39Z</time>
      </trkpt>
      <trkpt lat="45.98715" lon="4.83126">
        <ele>266</ele>
        <time>2017-06-07T09:53:40Z</time>
      </trkpt>
      <trkpt lat="45.98719" lon="4.83123">
        <ele>266</ele>
        <time>2017-06-07T09:53:41Z</time>
      </trkpt>
      <trkpt lat="45.98724" lon="4.83119">
        <ele>266</ele>
        <time>2017-06-07T09:53:42Z</time>
      </trkpt>
      <trkpt lat="45.98729" lon="4.83115">
        <ele>267</ele>
        <time>2017-06-07T09:53:43Z</time>
      </trkpt>
      <trkpt lat="45.98733" lon="4.83111">
        <ele>267</ele>
        <time>2017-06-07T09:53:44Z</time>
      </trkpt>
      <trkpt lat="45.98738" lon="4.83106">
        <ele>267</ele>
        <time>2017-06-07T09:53:45Z</time>
      </trkpt>
      <trkpt lat="45.98744" lon="4.83101">
        <ele>267</ele>
        <time>2017-06-07T09:53:46Z</time>
      </trkpt>
      <trkpt lat="45.98749" lon="4.83097">
        <ele>267</ele>
        <time>2017-06-07T09:53:47Z</time>
      </trkpt>
      <trkpt lat="45.98754" lon="4.83092">
        <ele>266</ele>
        <time>2017-06-07T09:53:48Z</time>
      </trkpt>
      <trkpt lat="45.98759" lon="4.83088">
        <ele>266</ele>
        <time>2017-06-07T09:53:49Z</time>
      </trkpt>
      <trkpt lat="45.98764" lon="4.83084">
        <ele>265</ele>
        <time>2017-06-07T09:53:50Z</time>
      </trkpt>
      <trkpt lat="45.9877" lon="4.83079">
        <ele>266</ele>
        <time>2017-06-07T09:53:51Z</time>
      </trkpt>
      <trkpt lat="45.98775" lon="4.83075">
        <ele>265</ele>
        <time>2017-06-07T09:53:52Z</time>
      </trkpt>
      <trkpt lat="45.98781" lon="4.8307">
        <ele>265</ele>
        <time>2017-06-07T09:53:53Z</time>
      </trkpt>
      <trkpt lat="45.98787" lon="4.83065">
        <ele>265</ele>
        <time>2017-06-07T09:53:54Z</time>
      </trkpt>
      <trkpt lat="45.98793" lon="4.83059">
        <ele>265</ele>
        <time>2017-06-07T09:53:55Z</time>
      </trkpt>
      <trkpt lat="45.98799" lon="4.83053">
        <ele>264</ele>
        <time>2017-06-07T09:53:56Z</time>
      </trkpt>
      <trkpt lat="45.98806" lon="4.83048">
        <ele>264</ele>
        <time>2017-06-07T09:53:57Z</time>
      </trkpt>
      <trkpt lat="45.98812" lon="4.83042">
        <ele>264</ele>
        <time>2017-06-07T09:53:58Z</time>
      </trkpt>
      <trkpt lat="45.98819" lon="4.83037">
        <ele>264</ele>
        <time>2017-06-07T09:53:59Z</time>
      </trkpt>
      <trkpt lat="45.98826" lon="4.83031">
        <ele>264</ele>
        <time>2017-06-07T09:54:00Z</time>
      </trkpt>
      <trkpt lat="45.98834" lon="4.83026">
        <ele>261</ele>
        <time>2017-06-07T09:54:01Z</time>
      </trkpt>
      <trkpt lat="45.98841" lon="4.83021">
        <ele>261</ele>
        <time>2017-06-07T09:54:02Z</time>
      </trkpt>
      <trkpt lat="45.98849" lon="4.83015">
        <ele>261</ele>
        <time>2017-06-07T09:54:03Z</time>
      </trkpt>
      <trkpt lat="45.98856" lon="4.8301">
        <ele>261</ele>
        <time>2017-06-07T09:54:04Z</time>
      </trkpt>
      <trkpt lat="45.98864" lon="4.83005">
        <ele>260</ele>
        <time>2017-06-07T09:54:05Z</time>
      </trkpt>
      <trkpt lat="45.98873" lon="4.82999">
        <ele>260</ele>
        <time>2017-06-07T09:54:06Z</time>
      </trkpt>
      <trkpt lat="45.98881" lon="4.82993">
        <ele>260</ele>
        <time>2017-06-07T09:54:07Z</time>
      </trkpt>
      <trkpt lat="45.9889" lon="4.82987">
        <ele>259</ele>
        <time>2017-06-07T09:54:08Z</time>
      </trkpt>
      <trkpt lat="45.98898" lon="4.82979">
        <ele>259</ele>
        <time>2017-06-07T09:54:09Z</time>
      </trkpt>
      <trkpt lat="45.98907" lon="4.82971">
        <ele>259</ele>
        <time>2017-06-07T09:54:10Z</time>
      </trkpt>
      <trkpt lat="45.98914" lon="4.82961">
        <ele>258</ele>
        <time>2017-06-07T09:54:11Z</time>
      </trkpt>
      <trkpt lat="45.98921" lon="4.8295">
        <ele>255</ele>
        <time>2017-06-07T09:54:12Z</time>
      </trkpt>
      <trkpt lat="45.98928" lon="4.82937">
        <ele>255</ele>
        <time>2017-06-07T09:54:13Z</time>
      </trkpt>
      <trkpt lat="45.98934" lon="4.82923">
        <ele>255</ele>
        <time>2017-06-07T09:54:14Z</time>
      </trkpt>
      <trkpt lat="45.9894" lon="4.82909">
        <ele>254</ele>
        <time>2017-06-07T09:54:15Z</time>
      </trkpt>
      <trkpt lat="45.98946" lon="4.82895">
        <ele>253</ele>
        <time>2017-06-07T09:54:16Z</time>
      </trkpt>
      <trkpt lat="45.98952" lon="4.8288">
        <ele>253</ele>
        <time>2017-06-07T09:54:17Z</time>
      </trkpt>
      <trkpt lat="45.98959" lon="4.82866">
        <ele>252</ele>
        <time>2017-06-07T09:54:18Z</time>
      </trkpt>
      <trkpt lat="45.98965" lon="4.82851">
        <ele>252</ele>
        <time>2017-06-07T09:54:19Z</time>
      </trkpt>
      <trkpt lat="45.98972" lon="4.82835">
        <ele>251</ele>
        <time>2017-06-07T09:54:20Z</time>
      </trkpt>
      <trkpt lat="45.98978" lon="4.82819">
        <ele>248</ele>
        <time>2017-06-07T09:54:21Z</time>
      </trkpt>
      <trkpt lat="45.98985" lon="4.82803">
        <ele>248</ele>
        <time>2017-06-07T09:54:22Z</time>
      </trkpt>
      <trkpt lat="45.98991" lon="4.82787">
        <ele>247</ele>
        <time>2017-06-07T09:54:23Z</time>
      </trkpt>
      <trkpt lat="45.98998" lon="4.82771">
        <ele>245</ele>
        <time>2017-06-07T09:54:24Z</time>
      </trkpt>
      <trkpt lat="45.99005" lon="4.82755">
        <ele>241</ele>
        <time>2017-06-07T09:54:25Z</time>
      </trkpt>
      <trkpt lat="45.99011" lon="4.8274">
        <ele>240</ele>
        <time>2017-06-07T09:54:26Z</time>
      </trkpt>
      <trkpt lat="45.99018" lon="4.82725">
        <ele>239</ele>
        <time>2017-06-07T09:54:27Z</time>
      </trkpt>
      <trkpt lat="45.99025" lon="4.8271">
        <ele>238</ele>
        <time>2017-06-07T09:54:28Z</time>
      </trkpt>
      <trkpt lat="45.99032" lon="4.82696">
        <ele>238</ele>
        <time>2017-06-07T09:54:29Z</time>
      </trkpt>
      <trkpt lat="45.99038" lon="4.82682">
        <ele>238</ele>
        <time>2017-06-07T09:54:30Z</time>
      </trkpt>
      <trkpt lat="45.99044" lon="4.82667">
        <ele>236</ele>
        <time>2017-06-07T09:54:31Z</time>
      </trkpt>
      <trkpt lat="45.99049" lon="4.82653">
        <ele>236</ele>
        <time>2017-06-07T09:54:32Z</time>
      </trkpt>
      <trkpt lat="45.99055" lon="4.8264">
        <ele>236</ele>
        <time>2017-06-07T09:54:33Z</time>
      </trkpt>
      <trkpt lat="45.9906" lon="4.82629">
        <ele>236</ele>
        <time>2017-06-07T09:54:34Z</time>
      </trkpt>
      <trkpt lat="45.99064" lon="4.82618">
        <ele>236</ele>
        <time>2017-06-07T09:54:35Z</time>
      </trkpt>
      <trkpt lat="45.99068" lon="4.82609">
        <ele>236</ele>
        <time>2017-06-07T09:54:36Z</time>
      </trkpt>
      <trkpt lat="45.99071" lon="4.82601">
        <ele>235</ele>
        <time>2017-06-07T09:54:37Z</time>
      </trkpt>
      <trkpt lat="45.99074" lon="4.82595">
        <ele>235</ele>
        <time>2017-06-07T09:54:38Z</time>
      </trkpt>
      <trkpt lat="45.99076" lon="4.82584">
        <ele>235</ele>
        <time>2017-06-07T09:54:40Z</time>
      </trkpt>
      <trkpt lat="45.99075" lon="4.82578">
        <ele>235</ele>
        <time>2017-06-07T09:54:41Z</time>
      </trkpt>
      <trkpt lat="45.99072" lon="4.82573">
        <ele>235</ele>
        <time>2017-06-07T09:54:42Z</time>
      </trkpt>
      <trkpt lat="45.99068" lon="4.82569">
        <ele>235</ele>
        <time>2017-06-07T09:54:43Z</time>
      </trkpt>
      <trkpt lat="45.99063" lon="4.82568">
        <ele>235</ele>
        <time>2017-06-07T09:54:44Z</time>
      </trkpt>
      <trkpt lat="45.99057" lon="4.82566">
        <ele>235</ele>
        <time>2017-06-07T09:54:45Z</time>
      </trkpt>
      <trkpt lat="45.99052" lon="4.82564">
        <ele>235</ele>
        <time>2017-06-07T09:54:46Z</time>
      </trkpt>
      <trkpt lat="45.99048" lon="4.82562">
        <ele>235</ele>
        <time>2017-06-07T09:54:47Z</time>
      </trkpt>
      <trkpt lat="45.9904" lon="4.82556">
        <ele>235</ele>
        <time>2017-06-07T09:54:49Z</time>
      </trkpt>
      <trkpt lat="45.99036" lon="4.82553">
        <ele>235</ele>
        <time>2017-06-07T09:54:50Z</time>
      </trkpt>
      <trkpt lat="45.9903" lon="4.82546">
        <ele>235</ele>
        <time>2017-06-07T09:54:52Z</time>
      </trkpt>
      <trkpt lat="45.99027" lon="4.82542">
        <ele>235</ele>
        <time>2017-06-07T09:54:53Z</time>
      </trkpt>
      <trkpt lat="45.99022" lon="4.82535">
        <ele>235</ele>
        <time>2017-06-07T09:54:55Z</time>
      </trkpt>
      <trkpt lat="45.9902" lon="4.82531">
        <ele>235</ele>
        <time>2017-06-07T09:54:56Z</time>
      </trkpt>
      <trkpt lat="45.99015" lon="4.82521">
        <ele>235</ele>
        <time>2017-06-07T09:54:58Z</time>
      </trkpt>
      <trkpt lat="45.99012" lon="4.82516">
        <ele>235</ele>
        <time>2017-06-07T09:54:59Z</time>
      </trkpt>
      <trkpt lat="45.99008" lon="4.82506">
        <ele>235</ele>
        <time>2017-06-07T09:55:01Z</time>
      </trkpt>
      <trkpt lat="45.99006" lon="4.82501">
        <ele>235</ele>
        <time>2017-06-07T09:55:02Z</time>
      </trkpt>
      <trkpt lat="45.99002" lon="4.82491">
        <ele>235</ele>
        <time>2017-06-07T09:55:04Z</time>
      </trkpt>
      <trkpt lat="45.99" lon="4.82486">
        <ele>236</ele>
        <time>2017-06-07T09:55:05Z</time>
      </trkpt>
      <trkpt lat="45.98996" lon="4.82475">
        <ele>236</ele>
        <time>2017-06-07T09:55:07Z</time>
      </trkpt>
      <trkpt lat="45.98994" lon="4.82469">
        <ele>236</ele>
        <time>2017-06-07T09:55:08Z</time>
      </trkpt>
      <trkpt lat="45.98992" lon="4.82461">
        <ele>236</ele>
        <time>2017-06-07T09:55:09Z</time>
      </trkpt>
      <trkpt lat="45.98991" lon="4.82455">
        <ele>236</ele>
        <time>2017-06-07T09:55:10Z</time>
      </trkpt>
      <trkpt lat="45.98989" lon="4.82448">
        <ele>236</ele>
        <time>2017-06-07T09:55:11Z</time>
      </trkpt>
      <trkpt lat="45.98987" lon="4.8244">
        <ele>236</ele>
        <time>2017-06-07T09:55:12Z</time>
      </trkpt>
      <trkpt lat="45.98986" lon="4.82433">
        <ele>236</ele>
        <time>2017-06-07T09:55:13Z</time>
      </trkpt>
      <trkpt lat="45.98984" lon="4.82425">
        <ele>235</ele>
        <time>2017-06-07T09:55:14Z</time>
      </trkpt>
      <trkpt lat="45.98981" lon="4.82418">
        <ele>235</ele>
        <time>2017-06-07T09:55:15Z</time>
      </trkpt>
      <trkpt lat="45.98979" lon="4.82411">
        <ele>235</ele>
        <time>2017-06-07T09:55:16Z</time>
      </trkpt>
      <trkpt lat="45.98977" lon="4.82405">
        <ele>235</ele>
        <time>2017-06-07T09:55:17Z</time>
      </trkpt>
      <trkpt lat="45.98975" lon="4.82398">
        <ele>235</ele>
        <time>2017-06-07T09:55:18Z</time>
      </trkpt>
      <trkpt lat="45.98974" lon="4.82392">
        <ele>235</ele>
        <time>2017-06-07T09:55:19Z</time>
      </trkpt>
      <trkpt lat="45.98972" lon="4.82386">
        <ele>235</ele>
        <time>2017-06-07T09:55:20Z</time>
      </trkpt>
      <trkpt lat="45.9897" lon="4.82379">
        <ele>235</ele>
        <time>2017-06-07T09:55:21Z</time>
      </trkpt>
      <trkpt lat="45.98967" lon="4.82372">
        <ele>235</ele>
        <time>2017-06-07T09:55:22Z</time>
      </trkpt>
      <trkpt lat="45.98965" lon="4.82366">
        <ele>235</ele>
        <time>2017-06-07T09:55:23Z</time>
      </trkpt>
      <trkpt lat="45.98962" lon="4.82359">
        <ele>235</ele>
        <time>2017-06-07T09:55:24Z</time>
      </trkpt>
      <trkpt lat="45.98959" lon="4.82352">
        <ele>235</ele>
        <time>2017-06-07T09:55:25Z</time>
      </trkpt>
      <trkpt lat="45.98957" lon="4.82345">
        <ele>235</ele>
        <time>2017-06-07T09:55:26Z</time>
      </trkpt>
      <trkpt lat="45.98954" lon="4.82339">
        <ele>235</ele>
        <time>2017-06-07T09:55:27Z</time>
      </trkpt>
      <trkpt lat="45.98951" lon="4.82334">
        <ele>235</ele>
        <time>2017-06-07T09:55:28Z</time>
      </trkpt>
      <trkpt lat="45.98945" lon="4.82324">
        <ele>234</ele>
        <time>2017-06-07T09:55:30Z</time>
      </trkpt>
      <trkpt lat="45.98941" lon="4.8232">
        <ele>234</ele>
        <time>2017-06-07T09:55:31Z</time>
      </trkpt>
      <trkpt lat="45.98936" lon="4.82311">
        <ele>234</ele>
        <time>2017-06-07T09:55:33Z</time>
      </trkpt>
      <trkpt lat="45.98933" lon="4.82307">
        <ele>234</ele>
        <time>2017-06-07T09:55:34Z</time>
      </trkpt>
      <trkpt lat="45.98926" lon="4.823">
        <ele>234</ele>
        <time>2017-06-07T09:55:36Z</time>
      </trkpt>
      <trkpt lat="45.98922" lon="4.82295">
        <ele>234</ele>
        <time>2017-06-07T09:55:37Z</time>
      </trkpt>
      <trkpt lat="45.98919" lon="4.82291">
        <ele>234</ele>
        <time>2017-06-07T09:55:38Z</time>
      </trkpt>
      <trkpt lat="45.98915" lon="4.82286">
        <ele>236</ele>
        <time>2017-06-07T09:55:39Z</time>
      </trkpt>
      <trkpt lat="45.98911" lon="4.8228">
        <ele>236</ele>
        <time>2017-06-07T09:55:40Z</time>
      </trkpt>
      <trkpt lat="45.98907" lon="4.82275">
        <ele>236</ele>
        <time>2017-06-07T09:55:41Z</time>
      </trkpt>
      <trkpt lat="45.98903" lon="4.8227">
        <ele>236</ele>
        <time>2017-06-07T09:55:42Z</time>
      </trkpt>
      <trkpt lat="45.989" lon="4.82264">
        <ele>236</ele>
        <time>2017-06-07T09:55:43Z</time>
      </trkpt>
      <trkpt lat="45.98897" lon="4.82259">
        <ele>236</ele>
        <time>2017-06-07T09:55:44Z</time>
      </trkpt>
      <trkpt lat="45.98895" lon="4.82254">
        <ele>236</ele>
        <time>2017-06-07T09:55:45Z</time>
      </trkpt>
      <trkpt lat="45.98889" lon="4.82245">
        <ele>235</ele>
        <time>2017-06-07T09:55:47Z</time>
      </trkpt>
      <trkpt lat="45.98887" lon="4.8224">
        <ele>235</ele>
        <time>2017-06-07T09:55:48Z</time>
      </trkpt>
      <trkpt lat="45.98884" lon="4.82234">
        <ele>236</ele>
        <time>2017-06-07T09:55:49Z</time>
      </trkpt>
      <trkpt lat="45.98882" lon="4.82229">
        <ele>236</ele>
        <time>2017-06-07T09:55:50Z</time>
      </trkpt>
      <trkpt lat="45.98879" lon="4.82223">
        <ele>236</ele>
        <time>2017-06-07T09:55:51Z</time>
      </trkpt>
      <trkpt lat="45.98876" lon="4.82217">
        <ele>236</ele>
        <time>2017-06-07T09:55:52Z</time>
      </trkpt>
      <trkpt lat="45.98874" lon="4.82211">
        <ele>236</ele>
        <time>2017-06-07T09:55:53Z</time>
      </trkpt>
      <trkpt lat="45.98871" lon="4.82205">
        <ele>236</ele>
        <time>2017-06-07T09:55:54Z</time>
      </trkpt>
      <trkpt lat="45.98869" lon="4.82199">
        <ele>236</ele>
        <time>2017-06-07T09:55:55Z</time>
      </trkpt>
      <trkpt lat="45.98866" lon="4.82193">
        <ele>236</ele>
        <time>2017-06-07T09:55:56Z</time>
      </trkpt>
      <trkpt lat="45.98862" lon="4.82183">
        <ele>236</ele>
        <time>2017-06-07T09:55:58Z</time>
      </trkpt>
      <trkpt lat="45.98861" lon="4.82177">
        <ele>236</ele>
        <time>2017-06-07T09:55:59Z</time>
      </trkpt>
      <trkpt lat="45.98858" lon="4.82167">
        <ele>236</ele>
        <time>2017-06-07T09:56:01Z</time>
      </trkpt>
      <trkpt lat="45.98856" lon="4.82161">
        <ele>236</ele>
        <time>2017-06-07T09:56:02Z</time>
      </trkpt>
      <trkpt lat="45.98854" lon="4.82156">
        <ele>236</ele>
        <time>2017-06-07T09:56:03Z</time>
      </trkpt>
      <trkpt lat="45.98851" lon="4.82149">
        <ele>236</ele>
        <time>2017-06-07T09:56:04Z</time>
      </trkpt>
      <trkpt lat="45.9885" lon="4.82142">
        <ele>236</ele>
        <time>2017-06-07T09:56:05Z</time>
      </trkpt>
      <trkpt lat="45.98848" lon="4.82134">
        <ele>236</ele>
        <time>2017-06-07T09:56:06Z</time>
      </trkpt>
      <trkpt lat="45.98845" lon="4.82126">
        <ele>235</ele>
        <time>2017-06-07T09:56:07Z</time>
      </trkpt>
      <trkpt lat="45.98843" lon="4.82119">
        <ele>235</ele>
        <time>2017-06-07T09:56:08Z</time>
      </trkpt>
      <trkpt lat="45.98842" lon="4.82112">
        <ele>235</ele>
        <time>2017-06-07T09:56:09Z</time>
      </trkpt>
      <trkpt lat="45.98841" lon="4.82106">
        <ele>235</ele>
        <time>2017-06-07T09:56:10Z</time>
      </trkpt>
      <trkpt lat="45.98838" lon="4.82094">
        <ele>236</ele>
        <time>2017-06-07T09:56:12Z</time>
      </trkpt>
      <trkpt lat="45.98837" lon="4.82089">
        <ele>236</ele>
        <time>2017-06-07T09:56:13Z</time>
      </trkpt>
      <trkpt lat="45.98835" lon="4.82078">
        <ele>236</ele>
        <time>2017-06-07T09:56:15Z</time>
      </trkpt>
      <trkpt lat="45.98834" lon="4.82072">
        <ele>236</ele>
        <time>2017-06-07T09:56:16Z</time>
      </trkpt>
      <trkpt lat="45.98833" lon="4.82066">
        <ele>237</ele>
        <time>2017-06-07T09:56:17Z</time>
      </trkpt>
      <trkpt lat="45.98832" lon="4.82059">
        <ele>237</ele>
        <time>2017-06-07T09:56:18Z</time>
      </trkpt>
      <trkpt lat="45.98831" lon="4.82052">
        <ele>237</ele>
        <time>2017-06-07T09:56:19Z</time>
      </trkpt>
      <trkpt lat="45.98829" lon="4.82044">
        <ele>238</ele>
        <time>2017-06-07T09:56:20Z</time>
      </trkpt>
      <trkpt lat="45.98827" lon="4.82035">
        <ele>238</ele>
        <time>2017-06-07T09:56:21Z</time>
      </trkpt>
      <trkpt lat="45.98826" lon="4.82027">
        <ele>238</ele>
        <time>2017-06-07T09:56:22Z</time>
      </trkpt>
      <trkpt lat="45.98824" lon="4.82018">
        <ele>238</ele>
        <time>2017-06-07T09:56:23Z</time>
      </trkpt>
      <trkpt lat="45.98824" lon="4.8201">
        <ele>238</ele>
        <time>2017-06-07T09:56:24Z</time>
      </trkpt>
      <trkpt lat="45.98823" lon="4.82003">
        <ele>238</ele>
        <time>2017-06-07T09:56:25Z</time>
      </trkpt>
      <trkpt lat="45.98822" lon="4.81996">
        <ele>238</ele>
        <time>2017-06-07T09:56:26Z</time>
      </trkpt>
      <trkpt lat="45.98821" lon="4.81989">
        <ele>238</ele>
        <time>2017-06-07T09:56:27Z</time>
      </trkpt>
      <trkpt lat="45.9882" lon="4.81982">
        <ele>238</ele>
        <time>2017-06-07T09:56:28Z</time>
      </trkpt>
      <trkpt lat="45.98818" lon="4.8197">
        <ele>239</ele>
        <time>2017-06-07T09:56:30Z</time>
      </trkpt>
      <trkpt lat="45.98818" lon="4.81964">
        <ele>239</ele>
        <time>2017-06-07T09:56:31Z</time>
      </trkpt>
      <trkpt lat="45.98817" lon="4.81953">
        <ele>239</ele>
        <time>2017-06-07T09:56:33Z</time>
      </trkpt>
      <trkpt lat="45.98816" lon="4.81947">
        <ele>239</ele>
        <time>2017-06-07T09:56:34Z</time>
      </trkpt>
      <trkpt lat="45.98814" lon="4.8194">
        <ele>239</ele>
        <time>2017-06-07T09:56:35Z</time>
      </trkpt>
      <trkpt lat="45.98813" lon="4.81932">
        <ele>239</ele>
        <time>2017-06-07T09:56:36Z</time>
      </trkpt>
      <trkpt lat="45.98811" lon="4.81924">
        <ele>239</ele>
        <time>2017-06-07T09:56:37Z</time>
      </trkpt>
      <trkpt lat="45.9881" lon="4.81916">
        <ele>239</ele>
        <time>2017-06-07T09:56:38Z</time>
      </trkpt>
      <trkpt lat="45.98808" lon="4.81908">
        <ele>239</ele>
        <time>2017-06-07T09:56:39Z</time>
      </trkpt>
      <trkpt lat="45.98806" lon="4.819">
        <ele>239</ele>
        <time>2017-06-07T09:56:40Z</time>
      </trkpt>
      <trkpt lat="45.98805" lon="4.81893">
        <ele>239</ele>
        <time>2017-06-07T09:56:41Z</time>
      </trkpt>
      <trkpt lat="45.98803" lon="4.81887">
        <ele>239</ele>
        <time>2017-06-07T09:56:42Z</time>
      </trkpt>
      <trkpt lat="45.988" lon="4.81875">
        <ele>239</ele>
        <time>2017-06-07T09:56:44Z</time>
      </trkpt>
      <trkpt lat="45.98798" lon="4.8187">
        <ele>239</ele>
        <time>2017-06-07T09:56:45Z</time>
      </trkpt>
      <trkpt lat="45.98795" lon="4.81861">
        <ele>239</ele>
        <time>2017-06-07T09:56:47Z</time>
      </trkpt>
      <trkpt lat="45.98793" lon="4.81858">
        <ele>239</ele>
        <time>2017-06-07T09:56:48Z</time>
      </trkpt>
      <trkpt lat="45.98789" lon="4.81847">
        <ele>239</ele>
        <time>2017-06-07T09:56:51Z</time>
      </trkpt>
      <trkpt lat="45.98787" lon="4.81843">
        <ele>239</ele>
        <time>2017-06-07T09:56:52Z</time>
      </trkpt>
      <trkpt lat="45.98784" lon="4.81834">
        <ele>239</ele>
        <time>2017-06-07T09:56:54Z</time>
      </trkpt>
      <trkpt lat="45.98783" lon="4.81829">
        <ele>240</ele>
        <time>2017-06-07T09:56:55Z</time>
      </trkpt>
      <trkpt lat="45.98779" lon="4.8182">
        <ele>240</ele>
        <time>2017-06-07T09:56:57Z</time>
      </trkpt>
      <trkpt lat="45.98778" lon="4.81816">
        <ele>240</ele>
        <time>2017-06-07T09:56:58Z</time>
      </trkpt>
      <trkpt lat="45.98773" lon="4.81808">
        <ele>240</ele>
        <time>2017-06-07T09:57:00Z</time>
      </trkpt>
      <trkpt lat="45.98771" lon="4.81802">
        <ele>240</ele>
        <time>2017-06-07T09:57:01Z</time>
      </trkpt>
      <trkpt lat="45.98768" lon="4.81793">
        <ele>241</ele>
        <time>2017-06-07T09:57:03Z</time>
      </trkpt>
      <trkpt lat="45.98768" lon="4.81789">
        <ele>241</ele>
        <time>2017-06-07T09:57:04Z</time>
      </trkpt>
      <trkpt lat="45.98762" lon="4.81779">
        <ele>241</ele>
        <time>2017-06-07T09:57:07Z</time>
      </trkpt>
      <trkpt lat="45.98759" lon="4.81774">
        <ele>241</ele>
        <time>2017-06-07T09:57:08Z</time>
      </trkpt>
      <trkpt lat="45.98755" lon="4.81765">
        <ele>241</ele>
        <time>2017-06-07T09:57:10Z</time>
      </trkpt>
      <trkpt lat="45.98753" lon="4.81761">
        <ele>241</ele>
        <time>2017-06-07T09:57:11Z</time>
      </trkpt>
      <trkpt lat="45.98752" lon="4.81757">
        <ele>241</ele>
        <time>2017-06-07T09:57:12Z</time>
      </trkpt>
      <trkpt lat="45.98748" lon="4.81749">
        <ele>241</ele>
        <time>2017-06-07T09:57:13Z</time>
      </trkpt>
      <trkpt lat="45.98743" lon="4.81739">
        <ele>240</ele>
        <time>2017-06-07T09:57:15Z</time>
      </trkpt>
      <trkpt lat="45.9874" lon="4.81736">
        <ele>240</ele>
        <time>2017-06-07T09:57:16Z</time>
      </trkpt>
      <trkpt lat="45.98733" lon="4.81733">
        <ele>239</ele>
        <time>2017-06-07T09:57:18Z</time>
      </trkpt>
      <trkpt lat="45.98729" lon="4.81733">
        <ele>239</ele>
        <time>2017-06-07T09:57:19Z</time>
      </trkpt>
      <trkpt lat="45.98723" lon="4.81734">
        <ele>239</ele>
        <time>2017-06-07T09:57:21Z</time>
      </trkpt>
      <trkpt lat="45.98719" lon="4.81736">
        <ele>239</ele>
        <time>2017-06-07T09:57:22Z</time>
      </trkpt>
      <trkpt lat="45.98711" lon="4.81737">
        <ele>239</ele>
        <time>2017-06-07T09:57:25Z</time>
      </trkpt>
      <trkpt lat="45.98707" lon="4.81737">
        <ele>239</ele>
        <time>2017-06-07T09:57:26Z</time>
      </trkpt>
      <trkpt lat="45.98699" lon="4.81739">
        <ele>239</ele>
        <time>2017-06-07T09:57:28Z</time>
      </trkpt>
      <trkpt lat="45.98695" lon="4.81739">
        <ele>239</ele>
        <time>2017-06-07T09:57:29Z</time>
      </trkpt>
      <trkpt lat="45.98687" lon="4.8174">
        <ele>238</ele>
        <time>2017-06-07T09:57:31Z</time>
      </trkpt>
      <trkpt lat="45.98682" lon="4.81741">
        <ele>238</ele>
        <time>2017-06-07T09:57:32Z</time>
      </trkpt>
      <trkpt lat="45.98679" lon="4.81742">
        <ele>238</ele>
        <time>2017-06-07T09:57:33Z</time>
      </trkpt>
      <trkpt lat="45.98671" lon="4.81743">
        <ele>238</ele>
        <time>2017-06-07T09:57:34Z</time>
      </trkpt>
      <trkpt lat="45.98663" lon="4.81743">
        <ele>238</ele>
        <time>2017-06-07T09:57:35Z</time>
      </trkpt>
      <trkpt lat="45.98659" lon="4.81744">
        <ele>238</ele>
        <time>2017-06-07T09:57:36Z</time>
      </trkpt>
      <trkpt lat="45.98651" lon="4.81746">
        <ele>237</ele>
        <time>2017-06-07T09:57:38Z</time>
      </trkpt>
      <trkpt lat="45.98647" lon="4.81748">
        <ele>237</ele>
        <time>2017-06-07T09:57:39Z</time>
      </trkpt>
      <trkpt lat="45.98641" lon="4.81752">
        <ele>238</ele>
        <time>2017-06-07T09:57:41Z</time>
      </trkpt>
      <trkpt lat="45.98637" lon="4.81753">
        <ele>238</ele>
        <time>2017-06-07T09:57:42Z</time>
      </trkpt>
      <trkpt lat="45.98633" lon="4.81755">
        <ele>238</ele>
        <time>2017-06-07T09:57:43Z</time>
      </trkpt>
      <trkpt lat="45.98628" lon="4.81757">
        <ele>238</ele>
        <time>2017-06-07T09:57:44Z</time>
      </trkpt>
      <trkpt lat="45.98623" lon="4.81759">
        <ele>238</ele>
        <time>2017-06-07T09:57:45Z</time>
      </trkpt>
      <trkpt lat="45.98617" lon="4.8176">
        <ele>238</ele>
        <time>2017-06-07T09:57:46Z</time>
      </trkpt>
      <trkpt lat="45.98607" lon="4.81762">
        <ele>238</ele>
        <time>2017-06-07T09:57:47Z</time>
      </trkpt>
      <trkpt lat="45.98599" lon="4.81764">
        <ele>238</ele>
        <time>2017-06-07T09:57:48Z</time>
      </trkpt>
      <trkpt lat="45.98592" lon="4.81769">
        <ele>238</ele>
        <time>2017-06-07T09:57:49Z</time>
      </trkpt>
      <trkpt lat="45.98586" lon="4.81774">
        <ele>238</ele>
        <time>2017-06-07T09:57:50Z</time>
      </trkpt>
      <trkpt lat="45.9858" lon="4.81779">
        <ele>238</ele>
        <time>2017-06-07T09:57:51Z</time>
      </trkpt>
      <trkpt lat="45.98574" lon="4.81784">
        <ele>238</ele>
        <time>2017-06-07T09:57:52Z</time>
      </trkpt>
      <trkpt lat="45.9857" lon="4.81791">
        <ele>238</ele>
        <time>2017-06-07T09:57:53Z</time>
      </trkpt>
      <trkpt lat="45.98565" lon="4.81797">
        <ele>238</ele>
        <time>2017-06-07T09:57:54Z</time>
      </trkpt>
      <trkpt lat="45.9856" lon="4.81803">
        <ele>238</ele>
        <time>2017-06-07T09:57:55Z</time>
      </trkpt>
      <trkpt lat="45.98555" lon="4.81807">
        <ele>238</ele>
        <time>2017-06-07T09:57:56Z</time>
      </trkpt>
      <trkpt lat="45.9855" lon="4.81808">
        <ele>238</ele>
        <time>2017-06-07T09:57:57Z</time>
      </trkpt>
      <trkpt lat="45.98545" lon="4.81806">
        <ele>238</ele>
        <time>2017-06-07T09:57:58Z</time>
      </trkpt>
      <trkpt lat="45.98541" lon="4.81803">
        <ele>238</ele>
        <time>2017-06-07T09:57:59Z</time>
      </trkpt>
      <trkpt lat="45.98535" lon="4.81795">
        <ele>238</ele>
        <time>2017-06-07T09:58:01Z</time>
      </trkpt>
      <trkpt lat="45.98532" lon="4.81791">
        <ele>238</ele>
        <time>2017-06-07T09:58:02Z</time>
      </trkpt>
      <trkpt lat="45.98526" lon="4.81782">
        <ele>238</ele>
        <time>2017-06-07T09:58:04Z</time>
      </trkpt>
      <trkpt lat="45.98524" lon="4.81778">
        <ele>238</ele>
        <time>2017-06-07T09:58:05Z</time>
      </trkpt>
      <trkpt lat="45.98517" lon="4.81769">
        <ele>238</ele>
        <time>2017-06-07T09:58:07Z</time>
      </trkpt>
      <trkpt lat="45.98514" lon="4.81765">
        <ele>237</ele>
        <time>2017-06-07T09:58:08Z</time>
      </trkpt>
      <trkpt lat="45.9851" lon="4.8176">
        <ele>237</ele>
        <time>2017-06-07T09:58:09Z</time>
      </trkpt>
      <trkpt lat="45.98507" lon="4.81755">
        <ele>237</ele>
        <time>2017-06-07T09:58:10Z</time>
      </trkpt>
      <trkpt lat="45.985" lon="4.81748">
        <ele>237</ele>
        <time>2017-06-07T09:58:12Z</time>
      </trkpt>
      <trkpt lat="45.98496" lon="4.81745">
        <ele>237</ele>
        <time>2017-06-07T09:58:13Z</time>
      </trkpt>
      <trkpt lat="45.9849" lon="4.81738">
        <ele>238</ele>
        <time>2017-06-07T09:58:15Z</time>
      </trkpt>
      <trkpt lat="45.98487" lon="4.81734">
        <ele>238</ele>
        <time>2017-06-07T09:58:16Z</time>
      </trkpt>
      <trkpt lat="45.98483" lon="4.8173">
        <ele>238</ele>
        <time>2017-06-07T09:58:17Z</time>
      </trkpt>
      <trkpt lat="45.98478" lon="4.81726">
        <ele>238</ele>
        <time>2017-06-07T09:58:18Z</time>
      </trkpt>
      <trkpt lat="45.98472" lon="4.81717">
        <ele>239</ele>
        <time>2017-06-07T09:58:20Z</time>
      </trkpt>
      <trkpt lat="45.98469" lon="4.81712">
        <ele>239</ele>
        <time>2017-06-07T09:58:21Z</time>
      </trkpt>
      <trkpt lat="45.98463" lon="4.81703">
        <ele>239</ele>
        <time>2017-06-07T09:58:23Z</time>
      </trkpt>
      <trkpt lat="45.9846" lon="4.81698">
        <ele>239</ele>
        <time>2017-06-07T09:58:24Z</time>
      </trkpt>
      <trkpt lat="45.98456" lon="4.81688">
        <ele>239</ele>
        <time>2017-06-07T09:58:26Z</time>
      </trkpt>
      <trkpt lat="45.98454" lon="4.81683">
        <ele>239</ele>
        <time>2017-06-07T09:58:27Z</time>
      </trkpt>
      <trkpt lat="45.98449" lon="4.81676">
        <ele>239</ele>
        <time>2017-06-07T09:58:29Z</time>
      </trkpt>
      <trkpt lat="45.98445" lon="4.81674">
        <ele>239</ele>
        <time>2017-06-07T09:58:30Z</time>
      </trkpt>
      <trkpt lat="45.98439" lon="4.8167">
        <ele>240</ele>
        <time>2017-06-07T09:58:32Z</time>
      </trkpt>
      <trkpt lat="45.98435" lon="4.81668">
        <ele>240</ele>
        <time>2017-06-07T09:58:33Z</time>
      </trkpt>
      <trkpt lat="45.98428" lon="4.81666">
        <ele>240</ele>
        <time>2017-06-07T09:58:35Z</time>
      </trkpt>
      <trkpt lat="45.98423" lon="4.81666">
        <ele>240</ele>
        <time>2017-06-07T09:58:36Z</time>
      </trkpt>
      <trkpt lat="45.98416" lon="4.81665">
        <ele>241</ele>
        <time>2017-06-07T09:58:38Z</time>
      </trkpt>
      <trkpt lat="45.98412" lon="4.81665">
        <ele>241</ele>
        <time>2017-06-07T09:58:39Z</time>
      </trkpt>
      <trkpt lat="45.98403" lon="4.81667">
        <ele>242</ele>
        <time>2017-06-07T09:58:41Z</time>
      </trkpt>
      <trkpt lat="45.98398" lon="4.81668">
        <ele>243</ele>
        <time>2017-06-07T09:58:42Z</time>
      </trkpt>
      <trkpt lat="45.98391" lon="4.8167">
        <ele>243</ele>
        <time>2017-06-07T09:58:44Z</time>
      </trkpt>
      <trkpt lat="45.98387" lon="4.81671">
        <ele>243</ele>
        <time>2017-06-07T09:58:45Z</time>
      </trkpt>
      <trkpt lat="45.98379" lon="4.81671">
        <ele>244</ele>
        <time>2017-06-07T09:58:47Z</time>
      </trkpt>
      <trkpt lat="45.98375" lon="4.81672">
        <ele>244</ele>
        <time>2017-06-07T09:58:48Z</time>
      </trkpt>
      <trkpt lat="45.9837" lon="4.81673">
        <ele>244</ele>
        <time>2017-06-07T09:58:49Z</time>
      </trkpt>
      <trkpt lat="45.98366" lon="4.81673">
        <ele>244</ele>
        <time>2017-06-07T09:58:50Z</time>
      </trkpt>
      <trkpt lat="45.98361" lon="4.81674">
        <ele>244</ele>
        <time>2017-06-07T09:58:51Z</time>
      </trkpt>
      <trkpt lat="45.98356" lon="4.81674">
        <ele>245</ele>
        <time>2017-06-07T09:58:52Z</time>
      </trkpt>
      <trkpt lat="45.98348" lon="4.81674">
        <ele>245</ele>
        <time>2017-06-07T09:58:54Z</time>
      </trkpt>
      <trkpt lat="45.98345" lon="4.81673">
        <ele>245</ele>
        <time>2017-06-07T09:58:55Z</time>
      </trkpt>
      <trkpt lat="45.98338" lon="4.8167">
        <ele>246</ele>
        <time>2017-06-07T09:58:57Z</time>
      </trkpt>
      <trkpt lat="45.98335" lon="4.81668">
        <ele>246</ele>
        <time>2017-06-07T09:58:58Z</time>
      </trkpt>
      <trkpt lat="45.98329" lon="4.81666">
        <ele>246</ele>
        <time>2017-06-07T09:59:00Z</time>
      </trkpt>
      <trkpt lat="45.98326" lon="4.81664">
        <ele>246</ele>
        <time>2017-06-07T09:59:01Z</time>
      </trkpt>
      <trkpt lat="45.9832" lon="4.81658">
        <ele>246</ele>
        <time>2017-06-07T09:59:03Z</time>
      </trkpt>
      <trkpt lat="45.98316" lon="4.81655">
        <ele>246</ele>
        <time>2017-06-07T09:59:04Z</time>
      </trkpt>
      <trkpt lat="45.9831" lon="4.81649">
        <ele>246</ele>
        <time>2017-06-07T09:59:06Z</time>
      </trkpt>
      <trkpt lat="45.98307" lon="4.81646">
        <ele>246</ele>
        <time>2017-06-07T09:59:07Z</time>
      </trkpt>
      <trkpt lat="45.98301" lon="4.8164">
        <ele>246</ele>
        <time>2017-06-07T09:59:09Z</time>
      </trkpt>
      <trkpt lat="45.98299" lon="4.81637">
        <ele>246</ele>
        <time>2017-06-07T09:59:10Z</time>
      </trkpt>
      <trkpt lat="45.98293" lon="4.81628">
        <ele>247</ele>
        <time>2017-06-07T09:59:12Z</time>
      </trkpt>
      <trkpt lat="45.98291" lon="4.81624">
        <ele>247</ele>
        <time>2017-06-07T09:59:13Z</time>
      </trkpt>
      <trkpt lat="45.98286" lon="4.81615">
        <ele>247</ele>
        <time>2017-06-07T09:59:15Z</time>
      </trkpt>
      <trkpt lat="45.98284" lon="4.81611">
        <ele>247</ele>
        <time>2017-06-07T09:59:16Z</time>
      </trkpt>
      <trkpt lat="45.9828" lon="4.816">
        <ele>247</ele>
        <time>2017-06-07T09:59:18Z</time>
      </trkpt>
      <trkpt lat="45.98278" lon="4.81595">
        <ele>247</ele>
        <time>2017-06-07T09:59:19Z</time>
      </trkpt>
      <trkpt lat="45.98274" lon="4.81583">
        <ele>246</ele>
        <time>2017-06-07T09:59:21Z</time>
      </trkpt>
      <trkpt lat="45.98273" lon="4.81578">
        <ele>247</ele>
        <time>2017-06-07T09:59:22Z</time>
      </trkpt>
      <trkpt lat="45.98269" lon="4.81566">
        <ele>247</ele>
        <time>2017-06-07T09:59:24Z</time>
      </trkpt>
      <trkpt lat="45.98267" lon="4.81561">
        <ele>247</ele>
        <time>2017-06-07T09:59:25Z</time>
      </trkpt>
      <trkpt lat="45.98263" lon="4.81551">
        <ele>247</ele>
        <time>2017-06-07T09:59:27Z</time>
      </trkpt>
      <trkpt lat="45.98261" lon="4.81546">
        <ele>247</ele>
        <time>2017-06-07T09:59:28Z</time>
      </trkpt>
      <trkpt lat="45.98258" lon="4.81536">
        <ele>247</ele>
        <time>2017-06-07T09:59:30Z</time>
      </trkpt>
      <trkpt lat="45.98257" lon="4.81531">
        <ele>247</ele>
        <time>2017-06-07T09:59:31Z</time>
      </trkpt>
      <trkpt lat="45.98253" lon="4.81522">
        <ele>247</ele>
        <time>2017-06-07T09:59:33Z</time>
      </trkpt>
      <trkpt lat="45.98252" lon="4.81517">
        <ele>248</ele>
        <time>2017-06-07T09:59:34Z</time>
      </trkpt>
      <trkpt lat="45.98249" lon="4.81507">
        <ele>249</ele>
        <time>2017-06-07T09:59:36Z</time>
      </trkpt>
      <trkpt lat="45.98248" lon="4.81502">
        <ele>249</ele>
        <time>2017-06-07T09:59:37Z</time>
      </trkpt>
      <trkpt lat="45.98244" lon="4.81491">
        <ele>249</ele>
        <time>2017-06-07T09:59:39Z</time>
      </trkpt>
      <trkpt lat="45.98242" lon="4.81486">
        <ele>249</ele>
        <time>2017-06-07T09:59:40Z</time>
      </trkpt>
      <trkpt lat="45.98239" lon="4.81476">
        <ele>249</ele>
        <time>2017-06-07T09:59:42Z</time>
      </trkpt>
      <trkpt lat="45.98237" lon="4.8147">
        <ele>249</ele>
        <time>2017-06-07T09:59:43Z</time>
      </trkpt>
      <trkpt lat="45.98236" lon="4.81464">
        <ele>249</ele>
        <time>2017-06-07T09:59:44Z</time>
      </trkpt>
      <trkpt lat="45.98234" lon="4.81458">
        <ele>249</ele>
        <time>2017-06-07T09:59:45Z</time>
      </trkpt>
      <trkpt lat="45.9823" lon="4.81447">
        <ele>249</ele>
        <time>2017-06-07T09:59:47Z</time>
      </trkpt>
      <trkpt lat="45.98228" lon="4.81442">
        <ele>249</ele>
        <time>2017-06-07T09:59:48Z</time>
      </trkpt>
      <trkpt lat="45.98224" lon="4.81432">
        <ele>249</ele>
        <time>2017-06-07T09:59:50Z</time>
      </trkpt>
      <trkpt lat="45.98222" lon="4.81428">
        <ele>249</ele>
        <time>2017-06-07T09:59:51Z</time>
      </trkpt>
      <trkpt lat="45.98219" lon="4.81418">
        <ele>249</ele>
        <time>2017-06-07T09:59:53Z</time>
      </trkpt>
      <trkpt lat="45.98217" lon="4.81414">
        <ele>248</ele>
        <time>2017-06-07T09:59:54Z</time>
      </trkpt>
      <trkpt lat="45.98214" lon="4.81404">
        <ele>248</ele>
        <time>2017-06-07T09:59:56Z</time>
      </trkpt>
      <trkpt lat="45.98213" lon="4.81399">
        <ele>248</ele>
        <time>2017-06-07T09:59:57Z</time>
      </trkpt>
      <trkpt lat="45.98211" lon="4.81388">
        <ele>248</ele>
        <time>2017-06-07T09:59:59Z</time>
      </trkpt>
      <trkpt lat="45.98209" lon="4.81383">
        <ele>248</ele>
        <time>2017-06-07T10:00:00Z</time>
      </trkpt>
      <trkpt lat="45.98207" lon="4.81377">
        <ele>248</ele>
        <time>2017-06-07T10:00:01Z</time>
      </trkpt>
      <trkpt lat="45.98205" lon="4.8137">
        <ele>248</ele>
        <time>2017-06-07T10:00:02Z</time>
      </trkpt>
      <trkpt lat="45.98203" lon="4.81363">
        <ele>248</ele>
        <time>2017-06-07T10:00:03Z</time>
      </trkpt>
      <trkpt lat="45.98201" lon="4.81356">
        <ele>248</ele>
        <time>2017-06-07T10:00:04Z</time>
      </trkpt>
      <trkpt lat="45.98199" lon="4.81348">
        <ele>248</ele>
        <time>2017-06-07T10:00:05Z</time>
      </trkpt>
      <trkpt lat="45.98197" lon="4.81341">
        <ele>248</ele>
        <time>2017-06-07T10:00:06Z</time>
      </trkpt>
      <trkpt lat="45.98196" lon="4.81334">
        <ele>248</ele>
        <time>2017-06-07T10:00:07Z</time>
      </trkpt>
      <trkpt lat="45.98194" lon="4.81327">
        <ele>247</ele>
        <time>2017-06-07T10:00:08Z</time>
      </trkpt>
      <trkpt lat="45.98193" lon="4.8132">
        <ele>247</ele>
        <time>2017-06-07T10:00:09Z</time>
      </trkpt>
      <trkpt lat="45.98191" lon="4.81312">
        <ele>247</ele>
        <time>2017-06-07T10:00:10Z</time>
      </trkpt>
      <trkpt lat="45.9819" lon="4.81305">
        <ele>247</ele>
        <time>2017-06-07T10:00:11Z</time>
      </trkpt>
      <trkpt lat="45.98189" lon="4.81298">
        <ele>247</ele>
        <time>2017-06-07T10:00:12Z</time>
      </trkpt>
      <trkpt lat="45.98188" lon="4.81291">
        <ele>247</ele>
        <time>2017-06-07T10:00:13Z</time>
      </trkpt>
      <trkpt lat="45.98187" lon="4.81285">
        <ele>247</ele>
        <time>2017-06-07T10:00:14Z</time>
      </trkpt>
      <trkpt lat="45.98186" lon="4.81278">
        <ele>247</ele>
        <time>2017-06-07T10:00:15Z</time>
      </trkpt>
      <trkpt lat="45.98185" lon="4.81271">
        <ele>247</ele>
        <time>2017-06-07T10:00:16Z</time>
      </trkpt>
      <trkpt lat="45.98184" lon="4.81264">
        <ele>247</ele>
        <time>2017-06-07T10:00:17Z</time>
      </trkpt>
      <trkpt lat="45.98183" lon="4.81257">
        <ele>247</ele>
        <time>2017-06-07T10:00:18Z</time>
      </trkpt>
      <trkpt lat="45.98182" lon="4.8125">
        <ele>247</ele>
        <time>2017-06-07T10:00:19Z</time>
      </trkpt>
      <trkpt lat="45.98182" lon="4.81243">
        <ele>246</ele>
        <time>2017-06-07T10:00:20Z</time>
      </trkpt>
      <trkpt lat="45.98181" lon="4.81237">
        <ele>246</ele>
        <time>2017-06-07T10:00:21Z</time>
      </trkpt>
      <trkpt lat="45.9818" lon="4.8123">
        <ele>246</ele>
        <time>2017-06-07T10:00:22Z</time>
      </trkpt>
      <trkpt lat="45.9818" lon="4.81223">
        <ele>246</ele>
        <time>2017-06-07T10:00:23Z</time>
      </trkpt>
      <trkpt lat="45.9818" lon="4.81216">
        <ele>246</ele>
        <time>2017-06-07T10:00:24Z</time>
      </trkpt>
      <trkpt lat="45.98179" lon="4.81209">
        <ele>245</ele>
        <time>2017-06-07T10:00:25Z</time>
      </trkpt>
      <trkpt lat="45.98179" lon="4.81202">
        <ele>245</ele>
        <time>2017-06-07T10:00:26Z</time>
      </trkpt>
      <trkpt lat="45.98178" lon="4.81195">
        <ele>245</ele>
        <time>2017-06-07T10:00:27Z</time>
      </trkpt>
      <trkpt lat="45.98177" lon="4.81188">
        <ele>245</ele>
        <time>2017-06-07T10:00:28Z</time>
      </trkpt>
      <trkpt lat="45.98176" lon="4.81181">
        <ele>245</ele>
        <time>2017-06-07T10:00:29Z</time>
      </trkpt>
      <trkpt lat="45.98175" lon="4.81174">
        <ele>245</ele>
        <time>2017-06-07T10:00:30Z</time>
      </trkpt>
      <trkpt lat="45.98174" lon="4.81166">
        <ele>245</ele>
        <time>2017-06-07T10:00:31Z</time>
      </trkpt>
      <trkpt lat="45.98172" lon="4.81159">
        <ele>244</ele>
        <time>2017-06-07T10:00:32Z</time>
      </trkpt>
      <trkpt lat="45.98171" lon="4.81153">
        <ele>244</ele>
        <time>2017-06-07T10:00:33Z</time>
      </trkpt>
      <trkpt lat="45.98168" lon="4.81146">
        <ele>244</ele>
        <time>2017-06-07T10:00:34Z</time>
      </trkpt>
      <trkpt lat="45.98165" lon="4.8114">
        <ele>245</ele>
        <time>2017-06-07T10:00:35Z</time>
      </trkpt>
      <trkpt lat="45.98161" lon="4.81134">
        <ele>245</ele>
        <time>2017-06-07T10:00:36Z</time>
      </trkpt>
      <trkpt lat="45.98158" lon="4.81127">
        <ele>245</ele>
        <time>2017-06-07T10:00:37Z</time>
      </trkpt>
      <trkpt lat="45.98155" lon="4.81121">
        <ele>245</ele>
        <time>2017-06-07T10:00:38Z</time>
      </trkpt>
      <trkpt lat="45.98153" lon="4.81114">
        <ele>245</ele>
        <time>2017-06-07T10:00:39Z</time>
      </trkpt>
      <trkpt lat="45.9815" lon="4.81107">
        <ele>245</ele>
        <time>2017-06-07T10:00:40Z</time>
      </trkpt>
      <trkpt lat="45.98148" lon="4.81101">
        <ele>245</ele>
        <time>2017-06-07T10:00:41Z</time>
      </trkpt>
      <trkpt lat="45.98145" lon="4.81094">
        <ele>245</ele>
        <time>2017-06-07T10:00:42Z</time>
      </trkpt>
      <trkpt lat="45.98142" lon="4.81088">
        <ele>245</ele>
        <time>2017-06-07T10:00:43Z</time>
      </trkpt>
      <trkpt lat="45.98139" lon="4.81081">
        <ele>243</ele>
        <time>2017-06-07T10:00:44Z</time>
      </trkpt>
      <trkpt lat="45.98136" lon="4.81074">
        <ele>243</ele>
        <time>2017-06-07T10:00:45Z</time>
      </trkpt>
      <trkpt lat="45.98133" lon="4.81068">
        <ele>243</ele>
        <time>2017-06-07T10:00:46Z</time>
      </trkpt>
      <trkpt lat="45.98132" lon="4.81061">
        <ele>243</ele>
        <time>2017-06-07T10:00:47Z</time>
      </trkpt>
      <trkpt lat="45.9813" lon="4.81054">
        <ele>243</ele>
        <time>2017-06-07T10:00:48Z</time>
      </trkpt>
      <trkpt lat="45.98128" lon="4.81042">
        <ele>242</ele>
        <time>2017-06-07T10:00:50Z</time>
      </trkpt>
      <trkpt lat="45.98126" lon="4.81034">
        <ele>242</ele>
        <time>2017-06-07T10:00:51Z</time>
      </trkpt>
      <trkpt lat="45.98123" lon="4.81027">
        <ele>242</ele>
        <time>2017-06-07T10:00:52Z</time>
      </trkpt>
      <trkpt lat="45.98121" lon="4.8102">
        <ele>242</ele>
        <time>2017-06-07T10:00:53Z</time>
      </trkpt>
      <trkpt lat="45.98119" lon="4.81014">
        <ele>242</ele>
        <time>2017-06-07T10:00:54Z</time>
      </trkpt>
      <trkpt lat="45.98117" lon="4.81007">
        <ele>242</ele>
        <time>2017-06-07T10:00:55Z</time>
      </trkpt>
      <trkpt lat="45.98115" lon="4.81002">
        <ele>242</ele>
        <time>2017-06-07T10:00:56Z</time>
      </trkpt>
      <trkpt lat="45.98113" lon="4.80996">
        <ele>239</ele>
        <time>2017-06-07T10:00:57Z</time>
      </trkpt>
      <trkpt lat="45.98109" lon="4.80991">
        <ele>239</ele>
        <time>2017-06-07T10:00:58Z</time>
      </trkpt>
      <trkpt lat="45.98107" lon="4.80985">
        <ele>239</ele>
        <time>2017-06-07T10:00:59Z</time>
      </trkpt>
      <trkpt lat="45.98105" lon="4.8098">
        <ele>239</ele>
        <time>2017-06-07T10:01:00Z</time>
      </trkpt>
      <trkpt lat="45.98102" lon="4.80973">
        <ele>239</ele>
        <time>2017-06-07T10:01:01Z</time>
      </trkpt>
      <trkpt lat="45.981" lon="4.80966">
        <ele>239</ele>
        <time>2017-06-07T10:01:02Z</time>
      </trkpt>
      <trkpt lat="45.98098" lon="4.80958">
        <ele>238</ele>
        <time>2017-06-07T10:01:03Z</time>
      </trkpt>
      <trkpt lat="45.98096" lon="4.80949">
        <ele>238</ele>
        <time>2017-06-07T10:01:04Z</time>
      </trkpt>
      <trkpt lat="45.98093" lon="4.80939">
        <ele>238</ele>
        <time>2017-06-07T10:01:05Z</time>
      </trkpt>
      <trkpt lat="45.9809" lon="4.80929">
        <ele>238</ele>
        <time>2017-06-07T10:01:06Z</time>
      </trkpt>
      <trkpt lat="45.98088" lon="4.80919">
        <ele>239</ele>
        <time>2017-06-07T10:01:07Z</time>
      </trkpt>
      <trkpt lat="45.98085" lon="4.80908">
        <ele>237</ele>
        <time>2017-06-07T10:01:08Z</time>
      </trkpt>
      <trkpt lat="45.98083" lon="4.80897">
        <ele>238</ele>
        <time>2017-06-07T10:01:09Z</time>
      </trkpt>
      <trkpt lat="45.9808" lon="4.80886">
        <ele>237</ele>
        <time>2017-06-07T10:01:10Z</time>
      </trkpt>
      <trkpt lat="45.98078" lon="4.80874">
        <ele>237</ele>
        <time>2017-06-07T10:01:11Z</time>
      </trkpt>
      <trkpt lat="45.98075" lon="4.80862">
        <ele>236</ele>
        <time>2017-06-07T10:01:12Z</time>
      </trkpt>
      <trkpt lat="45.98072" lon="4.8085">
        <ele>236</ele>
        <time>2017-06-07T10:01:13Z</time>
      </trkpt>
      <trkpt lat="45.9807" lon="4.80837">
        <ele>235</ele>
        <time>2017-06-07T10:01:14Z</time>
      </trkpt>
      <trkpt lat="45.98066" lon="4.80825">
        <ele>234</ele>
        <time>2017-06-07T10:01:15Z</time>
      </trkpt>
      <trkpt lat="45.98063" lon="4.80813">
        <ele>234</ele>
        <time>2017-06-07T10:01:16Z</time>
      </trkpt>
      <trkpt lat="45.9806" lon="4.80801">
        <ele>233</ele>
        <time>2017-06-07T10:01:17Z</time>
      </trkpt>
      <trkpt lat="45.98057" lon="4.8079">
        <ele>233</ele>
        <time>2017-06-07T10:01:18Z</time>
      </trkpt>
      <trkpt lat="45.98054" lon="4.80779">
        <ele>233</ele>
        <time>2017-06-07T10:01:19Z</time>
      </trkpt>
      <trkpt lat="45.98051" lon="4.80769">
        <ele>233</ele>
        <time>2017-06-07T10:01:20Z</time>
      </trkpt>
      <trkpt lat="45.98047" lon="4.8076">
        <ele>233</ele>
        <time>2017-06-07T10:01:21Z</time>
      </trkpt>
      <trkpt lat="45.98044" lon="4.80751">
        <ele>233</ele>
        <time>2017-06-07T10:01:22Z</time>
      </trkpt>
      <trkpt lat="45.98041" lon="4.80743">
        <ele>231</ele>
        <time>2017-06-07T10:01:23Z</time>
      </trkpt>
      <trkpt lat="45.9804" lon="4.80735">
        <ele>231</ele>
        <time>2017-06-07T10:01:24Z</time>
      </trkpt>
      <trkpt lat="45.98038" lon="4.80728">
        <ele>231</ele>
        <time>2017-06-07T10:01:25Z</time>
      </trkpt>
      <trkpt lat="45.98036" lon="4.80716">
        <ele>231</ele>
        <time>2017-06-07T10:01:27Z</time>
      </trkpt>
      <trkpt lat="45.98037" lon="4.8071">
        <ele>231</ele>
        <time>2017-06-07T10:01:28Z</time>
      </trkpt>
      <trkpt lat="45.98038" lon="4.807">
        <ele>230</ele>
        <time>2017-06-07T10:01:30Z</time>
      </trkpt>
      <trkpt lat="45.98043" lon="4.80698">
        <ele>230</ele>
        <time>2017-06-07T10:01:31Z</time>
      </trkpt>
      <trkpt lat="45.98049" lon="4.80697">
        <ele>230</ele>
        <time>2017-06-07T10:01:32Z</time>
      </trkpt>
      <trkpt lat="45.98054" lon="4.80697">
        <ele>230</ele>
        <time>2017-06-07T10:01:33Z</time>
      </trkpt>
      <trkpt lat="45.9806" lon="4.80696">
        <ele>230</ele>
        <time>2017-06-07T10:01:34Z</time>
      </trkpt>
      <trkpt lat="45.98066" lon="4.80695">
        <ele>230</ele>
        <time>2017-06-07T10:01:35Z</time>
      </trkpt>
      <trkpt lat="45.98073" lon="4.80694">
        <ele>230</ele>
        <time>2017-06-07T10:01:36Z</time>
      </trkpt>
      <trkpt lat="45.9808" lon="4.80694">
        <ele>230</ele>
        <time>2017-06-07T10:01:37Z</time>
      </trkpt>
      <trkpt lat="45.98087" lon="4.80693">
        <ele>228</ele>
        <time>2017-06-07T10:01:38Z</time>
      </trkpt>
      <trkpt lat="45.98094" lon="4.80693">
        <ele>228</ele>
        <time>2017-06-07T10:01:39Z</time>
      </trkpt>
      <trkpt lat="45.98101" lon="4.80692">
        <ele>228</ele>
        <time>2017-06-07T10:01:40Z</time>
      </trkpt>
      <trkpt lat="45.98108" lon="4.80691">
        <ele>228</ele>
        <time>2017-06-07T10:01:41Z</time>
      </trkpt>
      <trkpt lat="45.98115" lon="4.80691">
        <ele>228</ele>
        <time>2017-06-07T10:01:42Z</time>
      </trkpt>
      <trkpt lat="45.98122" lon="4.80691">
        <ele>228</ele>
        <time>2017-06-07T10:01:43Z</time>
      </trkpt>
      <trkpt lat="45.98129" lon="4.8069">
        <ele>228</ele>
        <time>2017-06-07T10:01:44Z</time>
      </trkpt>
      <trkpt lat="45.98136" lon="4.8069">
        <ele>228</ele>
        <time>2017-06-07T10:01:45Z</time>
      </trkpt>
      <trkpt lat="45.98144" lon="4.8069">
        <ele>228</ele>
        <time>2017-06-07T10:01:46Z</time>
      </trkpt>
      <trkpt lat="45.98151" lon="4.80689">
        <ele>227</ele>
        <time>2017-06-07T10:01:47Z</time>
      </trkpt>
      <trkpt lat="45.98158" lon="4.80689">
        <ele>227</ele>
        <time>2017-06-07T10:01:48Z</time>
      </trkpt>
      <trkpt lat="45.98166" lon="4.80688">
        <ele>227</ele>
        <time>2017-06-07T10:01:49Z</time>
      </trkpt>
      <trkpt lat="45.98173" lon="4.80688">
        <ele>225</ele>
        <time>2017-06-07T10:01:50Z</time>
      </trkpt>
      <trkpt lat="45.9818" lon="4.80686">
        <ele>225</ele>
        <time>2017-06-07T10:01:51Z</time>
      </trkpt>
      <trkpt lat="45.98188" lon="4.80686">
        <ele>225</ele>
        <time>2017-06-07T10:01:52Z</time>
      </trkpt>
      <trkpt lat="45.98195" lon="4.80683">
        <ele>225</ele>
        <time>2017-06-07T10:01:53Z</time>
      </trkpt>
      <trkpt lat="45.98202" lon="4.80681">
        <ele>225</ele>
        <time>2017-06-07T10:01:54Z</time>
      </trkpt>
      <trkpt lat="45.98209" lon="4.80677">
        <ele>224</ele>
        <time>2017-06-07T10:01:55Z</time>
      </trkpt>
      <trkpt lat="45.98216" lon="4.80672">
        <ele>224</ele>
        <time>2017-06-07T10:01:56Z</time>
      </trkpt>
      <trkpt lat="45.98223" lon="4.80667">
        <ele>224</ele>
        <time>2017-06-07T10:01:57Z</time>
      </trkpt>
      <trkpt lat="45.9823" lon="4.80661">
        <ele>223</ele>
        <time>2017-06-07T10:01:58Z</time>
      </trkpt>
      <trkpt lat="45.98236" lon="4.80654">
        <ele>223</ele>
        <time>2017-06-07T10:01:59Z</time>
      </trkpt>
      <trkpt lat="45.9824" lon="4.80644">
        <ele>223</ele>
        <time>2017-06-07T10:02:00Z</time>
      </trkpt>
      <trkpt lat="45.98242" lon="4.80634">
        <ele>224</ele>
        <time>2017-06-07T10:02:01Z</time>
      </trkpt>
      <trkpt lat="45.98245" lon="4.80623">
        <ele>224</ele>
        <time>2017-06-07T10:02:02Z</time>
      </trkpt>
      <trkpt lat="45.98248" lon="4.80613">
        <ele>224</ele>
        <time>2017-06-07T10:02:03Z</time>
      </trkpt>
      <trkpt lat="45.98251" lon="4.80603">
        <ele>224</ele>
        <time>2017-06-07T10:02:04Z</time>
      </trkpt>
      <trkpt lat="45.98253" lon="4.80593">
        <ele>224</ele>
        <time>2017-06-07T10:02:05Z</time>
      </trkpt>
      <trkpt lat="45.98256" lon="4.80584">
        <ele>224</ele>
        <time>2017-06-07T10:02:06Z</time>
      </trkpt>
      <trkpt lat="45.98258" lon="4.80575">
        <ele>224</ele>
        <time>2017-06-07T10:02:07Z</time>
      </trkpt>
      <trkpt lat="45.98261" lon="4.80566">
        <ele>224</ele>
        <time>2017-06-07T10:02:08Z</time>
      </trkpt>
      <trkpt lat="45.98263" lon="4.80557">
        <ele>224</ele>
        <time>2017-06-07T10:02:09Z</time>
      </trkpt>
      <trkpt lat="45.98265" lon="4.80548">
        <ele>224</ele>
        <time>2017-06-07T10:02:10Z</time>
      </trkpt>
      <trkpt lat="45.98267" lon="4.8054">
        <ele>224</ele>
        <time>2017-06-07T10:02:11Z</time>
      </trkpt>
      <trkpt lat="45.9827" lon="4.80533">
        <ele>224</ele>
        <time>2017-06-07T10:02:12Z</time>
      </trkpt>
      <trkpt lat="45.98272" lon="4.80526">
        <ele>224</ele>
        <time>2017-06-07T10:02:13Z</time>
      </trkpt>
      <trkpt lat="45.98275" lon="4.80518">
        <ele>224</ele>
        <time>2017-06-07T10:02:14Z</time>
      </trkpt>
      <trkpt lat="45.98277" lon="4.8051">
        <ele>224</ele>
        <time>2017-06-07T10:02:15Z</time>
      </trkpt>
      <trkpt lat="45.98278" lon="4.80503">
        <ele>224</ele>
        <time>2017-06-07T10:02:16Z</time>
      </trkpt>
      <trkpt lat="45.9828" lon="4.80496">
        <ele>223</ele>
        <time>2017-06-07T10:02:17Z</time>
      </trkpt>
      <trkpt lat="45.98282" lon="4.80489">
        <ele>223</ele>
        <time>2017-06-07T10:02:18Z</time>
      </trkpt>
      <trkpt lat="45.98285" lon="4.80483">
        <ele>223</ele>
        <time>2017-06-07T10:02:19Z</time>
      </trkpt>
      <trkpt lat="45.98287" lon="4.80476">
        <ele>224</ele>
        <time>2017-06-07T10:02:20Z</time>
      </trkpt>
      <trkpt lat="45.98288" lon="4.80469">
        <ele>224</ele>
        <time>2017-06-07T10:02:21Z</time>
      </trkpt>
      <trkpt lat="45.9829" lon="4.8046">
        <ele>224</ele>
        <time>2017-06-07T10:02:22Z</time>
      </trkpt>
      <trkpt lat="45.98291" lon="4.80452">
        <ele>224</ele>
        <time>2017-06-07T10:02:23Z</time>
      </trkpt>
      <trkpt lat="45.98292" lon="4.80444">
        <ele>224</ele>
        <time>2017-06-07T10:02:24Z</time>
      </trkpt>
      <trkpt lat="45.98294" lon="4.80436">
        <ele>224</ele>
        <time>2017-06-07T10:02:25Z</time>
      </trkpt>
      <trkpt lat="45.98295" lon="4.80429">
        <ele>224</ele>
        <time>2017-06-07T10:02:26Z</time>
      </trkpt>
      <trkpt lat="45.98296" lon="4.80422">
        <ele>224</ele>
        <time>2017-06-07T10:02:27Z</time>
      </trkpt>
      <trkpt lat="45.98298" lon="4.80409">
        <ele>225</ele>
        <time>2017-06-07T10:02:29Z</time>
      </trkpt>
      <trkpt lat="45.98299" lon="4.80403">
        <ele>225</ele>
        <time>2017-06-07T10:02:30Z</time>
      </trkpt>
      <trkpt lat="45.983" lon="4.80396">
        <ele>225</ele>
        <time>2017-06-07T10:02:31Z</time>
      </trkpt>
      <trkpt lat="45.98302" lon="4.80389">
        <ele>225</ele>
        <time>2017-06-07T10:02:32Z</time>
      </trkpt>
      <trkpt lat="45.98303" lon="4.80382">
        <ele>225</ele>
        <time>2017-06-07T10:02:33Z</time>
      </trkpt>
      <trkpt lat="45.98305" lon="4.80376">
        <ele>225</ele>
        <time>2017-06-07T10:02:34Z</time>
      </trkpt>
      <trkpt lat="45.98307" lon="4.8037">
        <ele>225</ele>
        <time>2017-06-07T10:02:35Z</time>
      </trkpt>
      <trkpt lat="45.98308" lon="4.80364">
        <ele>225</ele>
        <time>2017-06-07T10:02:36Z</time>
      </trkpt>
      <trkpt lat="45.98309" lon="4.80357">
        <ele>226</ele>
        <time>2017-06-07T10:02:37Z</time>
      </trkpt>
      <trkpt lat="45.98309" lon="4.80351">
        <ele>226</ele>
        <time>2017-06-07T10:02:38Z</time>
      </trkpt>
      <trkpt lat="45.98311" lon="4.80344">
        <ele>226</ele>
        <time>2017-06-07T10:02:39Z</time>
      </trkpt>
      <trkpt lat="45.98312" lon="4.80337">
        <ele>226</ele>
        <time>2017-06-07T10:02:40Z</time>
      </trkpt>
      <trkpt lat="45.98313" lon="4.80331">
        <ele>227</ele>
        <time>2017-06-07T10:02:41Z</time>
      </trkpt>
      <trkpt lat="45.98314" lon="4.80323">
        <ele>227</ele>
        <time>2017-06-07T10:02:42Z</time>
      </trkpt>
      <trkpt lat="45.98317" lon="4.80311">
        <ele>227</ele>
        <time>2017-06-07T10:02:44Z</time>
      </trkpt>
      <trkpt lat="45.98319" lon="4.80305">
        <ele>227</ele>
        <time>2017-06-07T10:02:45Z</time>
      </trkpt>
      <trkpt lat="45.98321" lon="4.80294">
        <ele>227</ele>
        <time>2017-06-07T10:02:47Z</time>
      </trkpt>
      <trkpt lat="45.98323" lon="4.80288">
        <ele>227</ele>
        <time>2017-06-07T10:02:48Z</time>
      </trkpt>
      <trkpt lat="45.98325" lon="4.80277">
        <ele>227</ele>
        <time>2017-06-07T10:02:50Z</time>
      </trkpt>
      <trkpt lat="45.98326" lon="4.80272">
        <ele>227</ele>
        <time>2017-06-07T10:02:51Z</time>
      </trkpt>
      <trkpt lat="45.98327" lon="4.80261">
        <ele>228</ele>
        <time>2017-06-07T10:02:53Z</time>
      </trkpt>
      <trkpt lat="45.98326" lon="4.80255">
        <ele>229</ele>
        <time>2017-06-07T10:02:54Z</time>
      </trkpt>
      <trkpt lat="45.98329" lon="4.80245">
        <ele>229</ele>
        <time>2017-06-07T10:02:56Z</time>
      </trkpt>
      <trkpt lat="45.98331" lon="4.8024">
        <ele>229</ele>
        <time>2017-06-07T10:02:57Z</time>
      </trkpt>
      <trkpt lat="45.98332" lon="4.80229">
        <ele>228</ele>
        <time>2017-06-07T10:02:59Z</time>
      </trkpt>
      <trkpt lat="45.98332" lon="4.80224">
        <ele>228</ele>
        <time>2017-06-07T10:03:00Z</time>
      </trkpt>
      <trkpt lat="45.9833" lon="4.80214">
        <ele>227</ele>
        <time>2017-06-07T10:03:02Z</time>
      </trkpt>
      <trkpt lat="45.98329" lon="4.80209">
        <ele>227</ele>
        <time>2017-06-07T10:03:03Z</time>
      </trkpt>
      <trkpt lat="45.98327" lon="4.80198">
        <ele>227</ele>
        <time>2017-06-07T10:03:05Z</time>
      </trkpt>
      <trkpt lat="45.98326" lon="4.80193">
        <ele>227</ele>
        <time>2017-06-07T10:03:06Z</time>
      </trkpt>
      <trkpt lat="45.98323" lon="4.80183">
        <ele>227</ele>
        <time>2017-06-07T10:03:08Z</time>
      </trkpt>
      <trkpt lat="45.98321" lon="4.80177">
        <ele>227</ele>
        <time>2017-06-07T10:03:09Z</time>
      </trkpt>
      <trkpt lat="45.9832" lon="4.80171">
        <ele>227</ele>
        <time>2017-06-07T10:03:10Z</time>
      </trkpt>
      <trkpt lat="45.98318" lon="4.80164">
        <ele>228</ele>
        <time>2017-06-07T10:03:11Z</time>
      </trkpt>
      <trkpt lat="45.98316" lon="4.80158">
        <ele>228</ele>
        <time>2017-06-07T10:03:12Z</time>
      </trkpt>
      <trkpt lat="45.98313" lon="4.80152">
        <ele>228</ele>
        <time>2017-06-07T10:03:13Z</time>
      </trkpt>
      <trkpt lat="45.98311" lon="4.80146">
        <ele>228</ele>
        <time>2017-06-07T10:03:14Z</time>
      </trkpt>
      <trkpt lat="45.98308" lon="4.80139">
        <ele>228</ele>
        <time>2017-06-07T10:03:15Z</time>
      </trkpt>
      <trkpt lat="45.98306" lon="4.80133">
        <ele>228</ele>
        <time>2017-06-07T10:03:16Z</time>
      </trkpt>
      <trkpt lat="45.98304" lon="4.80127">
        <ele>228</ele>
        <time>2017-06-07T10:03:17Z</time>
      </trkpt>
      <trkpt lat="45.98301" lon="4.80121">
        <ele>228</ele>
        <time>2017-06-07T10:03:18Z</time>
      </trkpt>
      <trkpt lat="45.98299" lon="4.80115">
        <ele>228</ele>
        <time>2017-06-07T10:03:19Z</time>
      </trkpt>
      <trkpt lat="45.98295" lon="4.80104">
        <ele>228</ele>
        <time>2017-06-07T10:03:21Z</time>
      </trkpt>
      <trkpt lat="45.98293" lon="4.80099">
        <ele>228</ele>
        <time>2017-06-07T10:03:22Z</time>
      </trkpt>
      <trkpt lat="45.9829" lon="4.80088">
        <ele>228</ele>
        <time>2017-06-07T10:03:24Z</time>
      </trkpt>
      <trkpt lat="45.98288" lon="4.80081">
        <ele>229</ele>
        <time>2017-06-07T10:03:25Z</time>
      </trkpt>
      <trkpt lat="45.98284" lon="4.8007">
        <ele>229</ele>
        <time>2017-06-07T10:03:27Z</time>
      </trkpt>
      <trkpt lat="45.98283" lon="4.80065">
        <ele>229</ele>
        <time>2017-06-07T10:03:28Z</time>
      </trkpt>
      <trkpt lat="45.98279" lon="4.80053">
        <ele>229</ele>
        <time>2017-06-07T10:03:30Z</time>
      </trkpt>
      <trkpt lat="45.98277" lon="4.80048">
        <ele>229</ele>
        <time>2017-06-07T10:03:31Z</time>
      </trkpt>
      <trkpt lat="45.98275" lon="4.80042">
        <ele>229</ele>
        <time>2017-06-07T10:03:32Z</time>
      </trkpt>
      <trkpt lat="45.98273" lon="4.80036">
        <ele>229</ele>
        <time>2017-06-07T10:03:33Z</time>
      </trkpt>
      <trkpt lat="45.98268" lon="4.80025">
        <ele>228</ele>
        <time>2017-06-07T10:03:35Z</time>
      </trkpt>
      <trkpt lat="45.98267" lon="4.80019">
        <ele>228</ele>
        <time>2017-06-07T10:03:36Z</time>
      </trkpt>
      <trkpt lat="45.98264" lon="4.80008">
        <ele>228</ele>
        <time>2017-06-07T10:03:38Z</time>
      </trkpt>
      <trkpt lat="45.98262" lon="4.80003">
        <ele>227</ele>
        <time>2017-06-07T10:03:39Z</time>
      </trkpt>
      <trkpt lat="45.98258" lon="4.79992">
        <ele>227</ele>
        <time>2017-06-07T10:03:41Z</time>
      </trkpt>
      <trkpt lat="45.98256" lon="4.79986">
        <ele>228</ele>
        <time>2017-06-07T10:03:42Z</time>
      </trkpt>
      <trkpt lat="45.98254" lon="4.79981">
        <ele>228</ele>
        <time>2017-06-07T10:03:43Z</time>
      </trkpt>
      <trkpt lat="45.98252" lon="4.79974">
        <ele>228</ele>
        <time>2017-06-07T10:03:44Z</time>
      </trkpt>
      <trkpt lat="45.98249" lon="4.79968">
        <ele>225</ele>
        <time>2017-06-07T10:03:45Z</time>
      </trkpt>
      <trkpt lat="45.98246" lon="4.79961">
        <ele>225</ele>
        <time>2017-06-07T10:03:46Z</time>
      </trkpt>
      <trkpt lat="45.98244" lon="4.79955">
        <ele>225</ele>
        <time>2017-06-07T10:03:47Z</time>
      </trkpt>
      <trkpt lat="45.98242" lon="4.79948">
        <ele>225</ele>
        <time>2017-06-07T10:03:48Z</time>
      </trkpt>
      <trkpt lat="45.9824" lon="4.79942">
        <ele>225</ele>
        <time>2017-06-07T10:03:49Z</time>
      </trkpt>
      <trkpt lat="45.98238" lon="4.79935">
        <ele>225</ele>
        <time>2017-06-07T10:03:50Z</time>
      </trkpt>
      <trkpt lat="45.98235" lon="4.79929">
        <ele>225</ele>
        <time>2017-06-07T10:03:51Z</time>
      </trkpt>
      <trkpt lat="45.98232" lon="4.79922">
        <ele>225</ele>
        <time>2017-06-07T10:03:52Z</time>
      </trkpt>
      <trkpt lat="45.9823" lon="4.79915">
        <ele>225</ele>
        <time>2017-06-07T10:03:53Z</time>
      </trkpt>
      <trkpt lat="45.98229" lon="4.7991">
        <ele>225</ele>
        <time>2017-06-07T10:03:54Z</time>
      </trkpt>
      <trkpt lat="45.98226" lon="4.799">
        <ele>225</ele>
        <time>2017-06-07T10:03:56Z</time>
      </trkpt>
      <trkpt lat="45.98225" lon="4.79893">
        <ele>225</ele>
        <time>2017-06-07T10:03:57Z</time>
      </trkpt>
      <trkpt lat="45.98223" lon="4.79882">
        <ele>225</ele>
        <time>2017-06-07T10:03:59Z</time>
      </trkpt>
      <trkpt lat="45.98221" lon="4.79877">
        <ele>225</ele>
        <time>2017-06-07T10:04:00Z</time>
      </trkpt>
      <trkpt lat="45.98219" lon="4.79869">
        <ele>225</ele>
        <time>2017-06-07T10:04:01Z</time>
      </trkpt>
      <trkpt lat="45.98217" lon="4.79862">
        <ele>225</ele>
        <time>2017-06-07T10:04:02Z</time>
      </trkpt>
      <trkpt lat="45.98215" lon="4.79855">
        <ele>225</ele>
        <time>2017-06-07T10:04:03Z</time>
      </trkpt>
      <trkpt lat="45.98212" lon="4.79847">
        <ele>225</ele>
        <time>2017-06-07T10:04:04Z</time>
      </trkpt>
      <trkpt lat="45.9821" lon="4.7984">
        <ele>225</ele>
        <time>2017-06-07T10:04:05Z</time>
      </trkpt>
      <trkpt lat="45.98208" lon="4.79834">
        <ele>225</ele>
        <time>2017-06-07T10:04:06Z</time>
      </trkpt>
      <trkpt lat="45.98206" lon="4.79828">
        <ele>226</ele>
        <time>2017-06-07T10:04:07Z</time>
      </trkpt>
      <trkpt lat="45.98203" lon="4.79822">
        <ele>226</ele>
        <time>2017-06-07T10:04:08Z</time>
      </trkpt>
      <trkpt lat="45.982" lon="4.79815">
        <ele>226</ele>
        <time>2017-06-07T10:04:09Z</time>
      </trkpt>
      <trkpt lat="45.98197" lon="4.79809">
        <ele>226</ele>
        <time>2017-06-07T10:04:10Z</time>
      </trkpt>
      <trkpt lat="45.98195" lon="4.79802">
        <ele>226</ele>
        <time>2017-06-07T10:04:11Z</time>
      </trkpt>
      <trkpt lat="45.98193" lon="4.79795">
        <ele>226</ele>
        <time>2017-06-07T10:04:12Z</time>
      </trkpt>
      <trkpt lat="45.98191" lon="4.79783">
        <ele>226</ele>
        <time>2017-06-07T10:04:14Z</time>
      </trkpt>
      <trkpt lat="45.98191" lon="4.79778">
        <ele>226</ele>
        <time>2017-06-07T10:04:15Z</time>
      </trkpt>
      <trkpt lat="45.98191" lon="4.79768">
        <ele>226</ele>
        <time>2017-06-07T10:04:17Z</time>
      </trkpt>
      <trkpt lat="45.9819" lon="4.79762">
        <ele>226</ele>
        <time>2017-06-07T10:04:18Z</time>
      </trkpt>
      <trkpt lat="45.98188" lon="4.7975">
        <ele>226</ele>
        <time>2017-06-07T10:04:20Z</time>
      </trkpt>
      <trkpt lat="45.98186" lon="4.79746">
        <ele>227</ele>
        <time>2017-06-07T10:04:21Z</time>
      </trkpt>
      <trkpt lat="45.98182" lon="4.79743">
        <ele>227</ele>
        <time>2017-06-07T10:04:22Z</time>
      </trkpt>
      <trkpt lat="45.98176" lon="4.79742">
        <ele>227</ele>
        <time>2017-06-07T10:04:23Z</time>
      </trkpt>
      <trkpt lat="45.98171" lon="4.79743">
        <ele>227</ele>
        <time>2017-06-07T10:04:24Z</time>
      </trkpt>
      <trkpt lat="45.98166" lon="4.79746">
        <ele>226</ele>
        <time>2017-06-07T10:04:25Z</time>
      </trkpt>
      <trkpt lat="45.98161" lon="4.7975">
        <ele>226</ele>
        <time>2017-06-07T10:04:26Z</time>
      </trkpt>
      <trkpt lat="45.98155" lon="4.79753">
        <ele>225</ele>
        <time>2017-06-07T10:04:27Z</time>
      </trkpt>
      <trkpt lat="45.98149" lon="4.79756">
        <ele>225</ele>
        <time>2017-06-07T10:04:28Z</time>
      </trkpt>
      <trkpt lat="45.98142" lon="4.79758">
        <ele>225</ele>
        <time>2017-06-07T10:04:29Z</time>
      </trkpt>
      <trkpt lat="45.98136" lon="4.79759">
        <ele>224</ele>
        <time>2017-06-07T10:04:30Z</time>
      </trkpt>
      <trkpt lat="45.9813" lon="4.7976">
        <ele>224</ele>
        <time>2017-06-07T10:04:31Z</time>
      </trkpt>
      <trkpt lat="45.98123" lon="4.79761">
        <ele>224</ele>
        <time>2017-06-07T10:04:32Z</time>
      </trkpt>
      <trkpt lat="45.98116" lon="4.79761">
        <ele>224</ele>
        <time>2017-06-07T10:04:33Z</time>
      </trkpt>
      <trkpt lat="45.98109" lon="4.79762">
        <ele>224</ele>
        <time>2017-06-07T10:04:34Z</time>
      </trkpt>
      <trkpt lat="45.98102" lon="4.79763">
        <ele>223</ele>
        <time>2017-06-07T10:04:35Z</time>
      </trkpt>
      <trkpt lat="45.98094" lon="4.79764">
        <ele>223</ele>
        <time>2017-06-07T10:04:36Z</time>
      </trkpt>
      <trkpt lat="45.98087" lon="4.79766">
        <ele>223</ele>
        <time>2017-06-07T10:04:37Z</time>
      </trkpt>
      <trkpt lat="45.98079" lon="4.79767">
        <ele>223</ele>
        <time>2017-06-07T10:04:38Z</time>
      </trkpt>
      <trkpt lat="45.98072" lon="4.79767">
        <ele>223</ele>
        <time>2017-06-07T10:04:39Z</time>
      </trkpt>
      <trkpt lat="45.98065" lon="4.79767">
        <ele>223</ele>
        <time>2017-06-07T10:04:40Z</time>
      </trkpt>
      <trkpt lat="45.98058" lon="4.79768">
        <ele>223</ele>
        <time>2017-06-07T10:04:41Z</time>
      </trkpt>
      <trkpt lat="45.98051" lon="4.79769">
        <ele>223</ele>
        <time>2017-06-07T10:04:42Z</time>
      </trkpt>
      <trkpt lat="45.98044" lon="4.7977">
        <ele>223</ele>
        <time>2017-06-07T10:04:43Z</time>
      </trkpt>
      <trkpt lat="45.98037" lon="4.79771">
        <ele>223</ele>
        <time>2017-06-07T10:04:44Z</time>
      </trkpt>
      <trkpt lat="45.98031" lon="4.79771">
        <ele>223</ele>
        <time>2017-06-07T10:04:45Z</time>
      </trkpt>
      <trkpt lat="45.98024" lon="4.79772">
        <ele>223</ele>
        <time>2017-06-07T10:04:46Z</time>
      </trkpt>
      <trkpt lat="45.98018" lon="4.79772">
        <ele>223</ele>
        <time>2017-06-07T10:04:47Z</time>
      </trkpt>
      <trkpt lat="45.98012" lon="4.79774">
        <ele>223</ele>
        <time>2017-06-07T10:04:48Z</time>
      </trkpt>
      <trkpt lat="45.98006" lon="4.79775">
        <ele>223</ele>
        <time>2017-06-07T10:04:49Z</time>
      </trkpt>
      <trkpt lat="45.98" lon="4.79776">
        <ele>224</ele>
        <time>2017-06-07T10:04:50Z</time>
      </trkpt>
      <trkpt lat="45.97994" lon="4.79776">
        <ele>224</ele>
        <time>2017-06-07T10:04:51Z</time>
      </trkpt>
      <trkpt lat="45.97988" lon="4.79777">
        <ele>224</ele>
        <time>2017-06-07T10:04:52Z</time>
      </trkpt>
      <trkpt lat="45.97982" lon="4.79778">
        <ele>224</ele>
        <time>2017-06-07T10:04:53Z</time>
      </trkpt>
      <trkpt lat="45.97977" lon="4.79779">
        <ele>224</ele>
        <time>2017-06-07T10:04:54Z</time>
      </trkpt>
      <trkpt lat="45.97971" lon="4.7978">
        <ele>224</ele>
        <time>2017-06-07T10:04:55Z</time>
      </trkpt>
      <trkpt lat="45.97967" lon="4.79781">
        <ele>224</ele>
        <time>2017-06-07T10:04:56Z</time>
      </trkpt>
      <trkpt lat="45.97962" lon="4.79782">
        <ele>224</ele>
        <time>2017-06-07T10:04:57Z</time>
      </trkpt>
      <trkpt lat="45.97957" lon="4.79783">
        <ele>224</ele>
        <time>2017-06-07T10:04:58Z</time>
      </trkpt>
      <trkpt lat="45.97952" lon="4.79783">
        <ele>224</ele>
        <time>2017-06-07T10:04:59Z</time>
      </trkpt>
      <trkpt lat="45.97948" lon="4.79784">
        <ele>224</ele>
        <time>2017-06-07T10:05:00Z</time>
      </trkpt>
      <trkpt lat="45.97943" lon="4.79784">
        <ele>224</ele>
        <time>2017-06-07T10:05:01Z</time>
      </trkpt>
      <trkpt lat="45.97938" lon="4.79784">
        <ele>224</ele>
        <time>2017-06-07T10:05:02Z</time>
      </trkpt>
      <trkpt lat="45.97933" lon="4.79785">
        <ele>224</ele>
        <time>2017-06-07T10:05:03Z</time>
      </trkpt>
      <trkpt lat="45.97928" lon="4.79786">
        <ele>224</ele>
        <time>2017-06-07T10:05:04Z</time>
      </trkpt>
      <trkpt lat="45.97922" lon="4.79788">
        <ele>224</ele>
        <time>2017-06-07T10:05:05Z</time>
      </trkpt>
      <trkpt lat="45.97916" lon="4.79789">
        <ele>225</ele>
        <time>2017-06-07T10:05:06Z</time>
      </trkpt>
      <trkpt lat="45.97909" lon="4.7979">
        <ele>225</ele>
        <time>2017-06-07T10:05:07Z</time>
      </trkpt>
      <trkpt lat="45.97903" lon="4.79791">
        <ele>225</ele>
        <time>2017-06-07T10:05:08Z</time>
      </trkpt>
      <trkpt lat="45.97896" lon="4.79792">
        <ele>224</ele>
        <time>2017-06-07T10:05:09Z</time>
      </trkpt>
      <trkpt lat="45.9789" lon="4.79794">
        <ele>224</ele>
        <time>2017-06-07T10:05:10Z</time>
      </trkpt>
      <trkpt lat="45.97884" lon="4.79795">
        <ele>224</ele>
        <time>2017-06-07T10:05:11Z</time>
      </trkpt>
      <trkpt lat="45.97877" lon="4.79795">
        <ele>224</ele>
        <time>2017-06-07T10:05:12Z</time>
      </trkpt>
      <trkpt lat="45.97871" lon="4.79795">
        <ele>224</ele>
        <time>2017-06-07T10:05:13Z</time>
      </trkpt>
      <trkpt lat="45.97866" lon="4.79796">
        <ele>224</ele>
        <time>2017-06-07T10:05:14Z</time>
      </trkpt>
      <trkpt lat="45.9786" lon="4.79797">
        <ele>224</ele>
        <time>2017-06-07T10:05:15Z</time>
      </trkpt>
      <trkpt lat="45.97855" lon="4.79798">
        <ele>224</ele>
        <time>2017-06-07T10:05:16Z</time>
      </trkpt>
      <trkpt lat="45.9785" lon="4.79799">
        <ele>224</ele>
        <time>2017-06-07T10:05:17Z</time>
      </trkpt>
      <trkpt lat="45.97844" lon="4.798">
        <ele>224</ele>
        <time>2017-06-07T10:05:18Z</time>
      </trkpt>
      <trkpt lat="45.97838" lon="4.79802">
        <ele>224</ele>
        <time>2017-06-07T10:05:19Z</time>
      </trkpt>
      <trkpt lat="45.97832" lon="4.79803">
        <ele>223</ele>
        <time>2017-06-07T10:05:20Z</time>
      </trkpt>
      <trkpt lat="45.97826" lon="4.79805">
        <ele>223</ele>
        <time>2017-06-07T10:05:21Z</time>
      </trkpt>
      <trkpt lat="45.9782" lon="4.79806">
        <ele>223</ele>
        <time>2017-06-07T10:05:22Z</time>
      </trkpt>
      <trkpt lat="45.97814" lon="4.79807">
        <ele>223</ele>
        <time>2017-06-07T10:05:23Z</time>
      </trkpt>
      <trkpt lat="45.97809" lon="4.79808">
        <ele>223</ele>
        <time>2017-06-07T10:05:24Z</time>
      </trkpt>
      <trkpt lat="45.97803" lon="4.79809">
        <ele>223</ele>
        <time>2017-06-07T10:05:25Z</time>
      </trkpt>
      <trkpt lat="45.97797" lon="4.7981">
        <ele>223</ele>
        <time>2017-06-07T10:05:26Z</time>
      </trkpt>
      <trkpt lat="45.97791" lon="4.79811">
        <ele>223</ele>
        <time>2017-06-07T10:05:27Z</time>
      </trkpt>
      <trkpt lat="45.97786" lon="4.79812">
        <ele>223</ele>
        <time>2017-06-07T10:05:28Z</time>
      </trkpt>
      <trkpt lat="45.9778" lon="4.79812">
        <ele>223</ele>
        <time>2017-06-07T10:05:29Z</time>
      </trkpt>
      <trkpt lat="45.97774" lon="4.79813">
        <ele>223</ele>
        <time>2017-06-07T10:05:30Z</time>
      </trkpt>
      <trkpt lat="45.97769" lon="4.79813">
        <ele>223</ele>
        <time>2017-06-07T10:05:31Z</time>
      </trkpt>
      <trkpt lat="45.97764" lon="4.79814">
        <ele>223</ele>
        <time>2017-06-07T10:05:32Z</time>
      </trkpt>
      <trkpt lat="45.97759" lon="4.79815">
        <ele>223</ele>
        <time>2017-06-07T10:05:33Z</time>
      </trkpt>
      <trkpt lat="45.97755" lon="4.79816">
        <ele>223</ele>
        <time>2017-06-07T10:05:34Z</time>
      </trkpt>
      <trkpt lat="45.9775" lon="4.79816">
        <ele>223</ele>
        <time>2017-06-07T10:05:35Z</time>
      </trkpt>
      <trkpt lat="45.97745" lon="4.79817">
        <ele>223</ele>
        <time>2017-06-07T10:05:36Z</time>
      </trkpt>
      <trkpt lat="45.97741" lon="4.79818">
        <ele>223</ele>
        <time>2017-06-07T10:05:37Z</time>
      </trkpt>
      <trkpt lat="45.97732" lon="4.79819">
        <ele>223</ele>
        <time>2017-06-07T10:05:39Z</time>
      </trkpt>
      <trkpt lat="45.97728" lon="4.7982">
        <ele>223</ele>
        <time>2017-06-07T10:05:40Z</time>
      </trkpt>
      <trkpt lat="45.97719" lon="4.79822">
        <ele>223</ele>
        <time>2017-06-07T10:05:42Z</time>
      </trkpt>
      <trkpt lat="45.97715" lon="4.79823">
        <ele>223</ele>
        <time>2017-06-07T10:05:43Z</time>
      </trkpt>
      <trkpt lat="45.97706" lon="4.79824">
        <ele>223</ele>
        <time>2017-06-07T10:05:45Z</time>
      </trkpt>
      <trkpt lat="45.97702" lon="4.79825">
        <ele>223</ele>
        <time>2017-06-07T10:05:46Z</time>
      </trkpt>
      <trkpt lat="45.97697" lon="4.79826">
        <ele>223</ele>
        <time>2017-06-07T10:05:47Z</time>
      </trkpt>
      <trkpt lat="45.97692" lon="4.79827">
        <ele>223</ele>
        <time>2017-06-07T10:05:48Z</time>
      </trkpt>
      <trkpt lat="45.97688" lon="4.79828">
        <ele>223</ele>
        <time>2017-06-07T10:05:49Z</time>
      </trkpt>
      <trkpt lat="45.97683" lon="4.7983">
        <ele>223</ele>
        <time>2017-06-07T10:05:50Z</time>
      </trkpt>
      <trkpt lat="45.97677" lon="4.79831">
        <ele>223</ele>
        <time>2017-06-07T10:05:51Z</time>
      </trkpt>
      <trkpt lat="45.97671" lon="4.79832">
        <ele>222</ele>
        <time>2017-06-07T10:05:52Z</time>
      </trkpt>
      <trkpt lat="45.97665" lon="4.79834">
        <ele>222</ele>
        <time>2017-06-07T10:05:53Z</time>
      </trkpt>
      <trkpt lat="45.97659" lon="4.79836">
        <ele>222</ele>
        <time>2017-06-07T10:05:54Z</time>
      </trkpt>
      <trkpt lat="45.97652" lon="4.79838">
        <ele>221</ele>
        <time>2017-06-07T10:05:55Z</time>
      </trkpt>
      <trkpt lat="45.97646" lon="4.79841">
        <ele>221</ele>
        <time>2017-06-07T10:05:56Z</time>
      </trkpt>
      <trkpt lat="45.9764" lon="4.79843">
        <ele>221</ele>
        <time>2017-06-07T10:05:57Z</time>
      </trkpt>
      <trkpt lat="45.97634" lon="4.79845">
        <ele>221</ele>
        <time>2017-06-07T10:05:58Z</time>
      </trkpt>
      <trkpt lat="45.97628" lon="4.79848">
        <ele>221</ele>
        <time>2017-06-07T10:05:59Z</time>
      </trkpt>
      <trkpt lat="45.97622" lon="4.79851">
        <ele>221</ele>
        <time>2017-06-07T10:06:00Z</time>
      </trkpt>
      <trkpt lat="45.97615" lon="4.79853">
        <ele>221</ele>
        <time>2017-06-07T10:06:01Z</time>
      </trkpt>
      <trkpt lat="45.97609" lon="4.79856">
        <ele>221</ele>
        <time>2017-06-07T10:06:02Z</time>
      </trkpt>
      <trkpt lat="45.97602" lon="4.79859">
        <ele>221</ele>
        <time>2017-06-07T10:06:03Z</time>
      </trkpt>
      <trkpt lat="45.97596" lon="4.79861">
        <ele>221</ele>
        <time>2017-06-07T10:06:04Z</time>
      </trkpt>
      <trkpt lat="45.97589" lon="4.79863">
        <ele>221</ele>
        <time>2017-06-07T10:06:05Z</time>
      </trkpt>
      <trkpt lat="45.97582" lon="4.79865">
        <ele>222</ele>
        <time>2017-06-07T10:06:06Z</time>
      </trkpt>
      <trkpt lat="45.97575" lon="4.79867">
        <ele>222</ele>
        <time>2017-06-07T10:06:07Z</time>
      </trkpt>
      <trkpt lat="45.97568" lon="4.79869">
        <ele>222</ele>
        <time>2017-06-07T10:06:08Z</time>
      </trkpt>
      <trkpt lat="45.9756" lon="4.79872">
        <ele>222</ele>
        <time>2017-06-07T10:06:09Z</time>
      </trkpt>
      <trkpt lat="45.97553" lon="4.79874">
        <ele>222</ele>
        <time>2017-06-07T10:06:10Z</time>
      </trkpt>
      <trkpt lat="45.97545" lon="4.79876">
        <ele>222</ele>
        <time>2017-06-07T10:06:11Z</time>
      </trkpt>
      <trkpt lat="45.97537" lon="4.79878">
        <ele>222</ele>
        <time>2017-06-07T10:06:12Z</time>
      </trkpt>
      <trkpt lat="45.97529" lon="4.79879">
        <ele>222</ele>
        <time>2017-06-07T10:06:13Z</time>
      </trkpt>
      <trkpt lat="45.9752" lon="4.7988">
        <ele>222</ele>
        <time>2017-06-07T10:06:14Z</time>
      </trkpt>
      <trkpt lat="45.97511" lon="4.79882">
        <ele>222</ele>
        <time>2017-06-07T10:06:15Z</time>
      </trkpt>
      <trkpt lat="45.97502" lon="4.79883">
        <ele>222</ele>
        <time>2017-06-07T10:06:16Z</time>
      </trkpt>
      <trkpt lat="45.97493" lon="4.79884">
        <ele>221</ele>
        <time>2017-06-07T10:06:17Z</time>
      </trkpt>
      <trkpt lat="45.97483" lon="4.79885">
        <ele>221</ele>
        <time>2017-06-07T10:06:18Z</time>
      </trkpt>
      <trkpt lat="45.97473" lon="4.79885">
        <ele>221</ele>
        <time>2017-06-07T10:06:19Z</time>
      </trkpt>
      <trkpt lat="45.97464" lon="4.79885">
        <ele>221</ele>
        <time>2017-06-07T10:06:20Z</time>
      </trkpt>
      <trkpt lat="45.97454" lon="4.79885">
        <ele>221</ele>
        <time>2017-06-07T10:06:21Z</time>
      </trkpt>
      <trkpt lat="45.97444" lon="4.79885">
        <ele>221</ele>
        <time>2017-06-07T10:06:22Z</time>
      </trkpt>
      <trkpt lat="45.97434" lon="4.79885">
        <ele>220</ele>
        <time>2017-06-07T10:06:23Z</time>
      </trkpt>
      <trkpt lat="45.97424" lon="4.79885">
        <ele>220</ele>
        <time>2017-06-07T10:06:24Z</time>
      </trkpt>
      <trkpt lat="45.97414" lon="4.79887">
        <ele>218</ele>
        <time>2017-06-07T10:06:25Z</time>
      </trkpt>
      <trkpt lat="45.97405" lon="4.79889">
        <ele>218</ele>
        <time>2017-06-07T10:06:26Z</time>
      </trkpt>
      <trkpt lat="45.97394" lon="4.79891">
        <ele>218</ele>
        <time>2017-06-07T10:06:27Z</time>
      </trkpt>
      <trkpt lat="45.97385" lon="4.79893">
        <ele>217</ele>
        <time>2017-06-07T10:06:28Z</time>
      </trkpt>
      <trkpt lat="45.97375" lon="4.79896">
        <ele>217</ele>
        <time>2017-06-07T10:06:29Z</time>
      </trkpt>
      <trkpt lat="45.97364" lon="4.79898">
        <ele>217</ele>
        <time>2017-06-07T10:06:30Z</time>
      </trkpt>
      <trkpt lat="45.97354" lon="4.799">
        <ele>216</ele>
        <time>2017-06-07T10:06:31Z</time>
      </trkpt>
      <trkpt lat="45.97344" lon="4.79901">
        <ele>215</ele>
        <time>2017-06-07T10:06:32Z</time>
      </trkpt>
      <trkpt lat="45.97335" lon="4.79902">
        <ele>215</ele>
        <time>2017-06-07T10:06:33Z</time>
      </trkpt>
      <trkpt lat="45.97325" lon="4.79903">
        <ele>213</ele>
        <time>2017-06-07T10:06:34Z</time>
      </trkpt>
      <trkpt lat="45.97315" lon="4.79904">
        <ele>214</ele>
        <time>2017-06-07T10:06:35Z</time>
      </trkpt>
      <trkpt lat="45.97306" lon="4.79906">
        <ele>213</ele>
        <time>2017-06-07T10:06:36Z</time>
      </trkpt>
      <trkpt lat="45.97297" lon="4.79907">
        <ele>213</ele>
        <time>2017-06-07T10:06:37Z</time>
      </trkpt>
      <trkpt lat="45.97289" lon="4.79908">
        <ele>213</ele>
        <time>2017-06-07T10:06:38Z</time>
      </trkpt>
      <trkpt lat="45.9728" lon="4.7991">
        <ele>213</ele>
        <time>2017-06-07T10:06:39Z</time>
      </trkpt>
      <trkpt lat="45.97273" lon="4.79911">
        <ele>213</ele>
        <time>2017-06-07T10:06:40Z</time>
      </trkpt>
      <trkpt lat="45.97267" lon="4.79913">
        <ele>213</ele>
        <time>2017-06-07T10:06:41Z</time>
      </trkpt>
      <trkpt lat="45.97263" lon="4.79914">
        <ele>213</ele>
        <time>2017-06-07T10:06:42Z</time>
      </trkpt>
      <trkpt lat="45.97258" lon="4.79909">
        <ele>213</ele>
        <time>2017-06-07T10:06:43Z</time>
      </trkpt>
      <trkpt lat="45.97255" lon="4.79904">
        <ele>213</ele>
        <time>2017-06-07T10:06:44Z</time>
      </trkpt>
      <trkpt lat="45.97252" lon="4.79897">
        <ele>213</ele>
        <time>2017-06-07T10:06:45Z</time>
      </trkpt>
      <trkpt lat="45.9725" lon="4.7989">
        <ele>213</ele>
        <time>2017-06-07T10:06:46Z</time>
      </trkpt>
      <trkpt lat="45.97248" lon="4.79883">
        <ele>211</ele>
        <time>2017-06-07T10:06:47Z</time>
      </trkpt>
      <trkpt lat="45.97246" lon="4.79875">
        <ele>211</ele>
        <time>2017-06-07T10:06:48Z</time>
      </trkpt>
      <trkpt lat="45.97243" lon="4.79866">
        <ele>211</ele>
        <time>2017-06-07T10:06:49Z</time>
      </trkpt>
      <trkpt lat="45.97241" lon="4.79858">
        <ele>211</ele>
        <time>2017-06-07T10:06:50Z</time>
      </trkpt>
      <trkpt lat="45.9724" lon="4.79849">
        <ele>211</ele>
        <time>2017-06-07T10:06:51Z</time>
      </trkpt>
      <trkpt lat="45.97239" lon="4.7984">
        <ele>211</ele>
        <time>2017-06-07T10:06:52Z</time>
      </trkpt>
      <trkpt lat="45.9724" lon="4.79832">
        <ele>211</ele>
        <time>2017-06-07T10:06:53Z</time>
      </trkpt>
      <trkpt lat="45.97241" lon="4.79824">
        <ele>211</ele>
        <time>2017-06-07T10:06:54Z</time>
      </trkpt>
      <trkpt lat="45.97242" lon="4.79816">
        <ele>211</ele>
        <time>2017-06-07T10:06:55Z</time>
      </trkpt>
      <trkpt lat="45.97243" lon="4.79808">
        <ele>210</ele>
        <time>2017-06-07T10:06:56Z</time>
      </trkpt>
      <trkpt lat="45.97244" lon="4.798">
        <ele>210</ele>
        <time>2017-06-07T10:06:57Z</time>
      </trkpt>
      <trkpt lat="45.97244" lon="4.79793">
        <ele>210</ele>
        <time>2017-06-07T10:06:58Z</time>
      </trkpt>
      <trkpt lat="45.97245" lon="4.79786">
        <ele>210</ele>
        <time>2017-06-07T10:06:59Z</time>
      </trkpt>
      <trkpt lat="45.97246" lon="4.79778">
        <ele>210</ele>
        <time>2017-06-07T10:07:00Z</time>
      </trkpt>
      <trkpt lat="45.97246" lon="4.79771">
        <ele>210</ele>
        <time>2017-06-07T10:07:01Z</time>
      </trkpt>
      <trkpt lat="45.97247" lon="4.79764">
        <ele>209</ele>
        <time>2017-06-07T10:07:02Z</time>
      </trkpt>
      <trkpt lat="45.97247" lon="4.79757">
        <ele>209</ele>
        <time>2017-06-07T10:07:03Z</time>
      </trkpt>
      <trkpt lat="45.97248" lon="4.7975">
        <ele>209</ele>
        <time>2017-06-07T10:07:04Z</time>
      </trkpt>
      <trkpt lat="45.97249" lon="4.79743">
        <ele>209</ele>
        <time>2017-06-07T10:07:05Z</time>
      </trkpt>
      <trkpt lat="45.97249" lon="4.79735">
        <ele>209</ele>
        <time>2017-06-07T10:07:06Z</time>
      </trkpt>
      <trkpt lat="45.9725" lon="4.79728">
        <ele>209</ele>
        <time>2017-06-07T10:07:07Z</time>
      </trkpt>
      <trkpt lat="45.9725" lon="4.79721">
        <ele>212</ele>
        <time>2017-06-07T10:07:08Z</time>
      </trkpt>
      <trkpt lat="45.97252" lon="4.79714">
        <ele>212</ele>
        <time>2017-06-07T10:07:09Z</time>
      </trkpt>
      <trkpt lat="45.97253" lon="4.79708">
        <ele>212</ele>
        <time>2017-06-07T10:07:10Z</time>
      </trkpt>
      <trkpt lat="45.97254" lon="4.79701">
        <ele>212</ele>
        <time>2017-06-07T10:07:11Z</time>
      </trkpt>
      <trkpt lat="45.97256" lon="4.79694">
        <ele>212</ele>
        <time>2017-06-07T10:07:12Z</time>
      </trkpt>
      <trkpt lat="45.97257" lon="4.79687">
        <ele>211</ele>
        <time>2017-06-07T10:07:13Z</time>
      </trkpt>
      <trkpt lat="45.97257" lon="4.79679">
        <ele>211</ele>
        <time>2017-06-07T10:07:14Z</time>
      </trkpt>
      <trkpt lat="45.97259" lon="4.79671">
        <ele>210</ele>
        <time>2017-06-07T10:07:15Z</time>
      </trkpt>
      <trkpt lat="45.9726" lon="4.79664">
        <ele>210</ele>
        <time>2017-06-07T10:07:16Z</time>
      </trkpt>
      <trkpt lat="45.97261" lon="4.79657">
        <ele>211</ele>
        <time>2017-06-07T10:07:17Z</time>
      </trkpt>
      <trkpt lat="45.97262" lon="4.7965">
        <ele>212</ele>
        <time>2017-06-07T10:07:18Z</time>
      </trkpt>
      <trkpt lat="45.97262" lon="4.79644">
        <ele>212</ele>
        <time>2017-06-07T10:07:19Z</time>
      </trkpt>
      <trkpt lat="45.97263" lon="4.79637">
        <ele>213</ele>
        <time>2017-06-07T10:07:20Z</time>
      </trkpt>
      <trkpt lat="45.97263" lon="4.7963">
        <ele>213</ele>
        <time>2017-06-07T10:07:21Z</time>
      </trkpt>
      <trkpt lat="45.97262" lon="4.79623">
        <ele>213</ele>
        <time>2017-06-07T10:07:22Z</time>
      </trkpt>
      <trkpt lat="45.97261" lon="4.79615">
        <ele>213</ele>
        <time>2017-06-07T10:07:23Z</time>
      </trkpt>
      <trkpt lat="45.97261" lon="4.79607">
        <ele>213</ele>
        <time>2017-06-07T10:07:24Z</time>
      </trkpt>
      <trkpt lat="45.97261" lon="4.79599">
        <ele>212</ele>
        <time>2017-06-07T10:07:25Z</time>
      </trkpt>
      <trkpt lat="45.9726" lon="4.79591">
        <ele>212</ele>
        <time>2017-06-07T10:07:26Z</time>
      </trkpt>
      <trkpt lat="45.9726" lon="4.79584">
        <ele>212</ele>
        <time>2017-06-07T10:07:27Z</time>
      </trkpt>
      <trkpt lat="45.97259" lon="4.79577">
        <ele>212</ele>
        <time>2017-06-07T10:07:28Z</time>
      </trkpt>
      <trkpt lat="45.97259" lon="4.79565">
        <ele>213</ele>
        <time>2017-06-07T10:07:30Z</time>
      </trkpt>
      <trkpt lat="45.97259" lon="4.79559">
        <ele>213</ele>
        <time>2017-06-07T10:07:31Z</time>
      </trkpt>
      <trkpt lat="45.97257" lon="4.79547">
        <ele>214</ele>
        <time>2017-06-07T10:07:33Z</time>
      </trkpt>
      <trkpt lat="45.97256" lon="4.7954">
        <ele>214</ele>
        <time>2017-06-07T10:07:34Z</time>
      </trkpt>
      <trkpt lat="45.97254" lon="4.79533">
        <ele>214</ele>
        <time>2017-06-07T10:07:35Z</time>
      </trkpt>
      <trkpt lat="45.97252" lon="4.79525">
        <ele>214</ele>
        <time>2017-06-07T10:07:36Z</time>
      </trkpt>
      <trkpt lat="45.97251" lon="4.79517">
        <ele>213</ele>
        <time>2017-06-07T10:07:37Z</time>
      </trkpt>
      <trkpt lat="45.9725" lon="4.79509">
        <ele>210</ele>
        <time>2017-06-07T10:07:38Z</time>
      </trkpt>
      <trkpt lat="45.97247" lon="4.79501">
        <ele>211</ele>
        <time>2017-06-07T10:07:39Z</time>
      </trkpt>
      <trkpt lat="45.97246" lon="4.79494">
        <ele>210</ele>
        <time>2017-06-07T10:07:40Z</time>
      </trkpt>
      <trkpt lat="45.97244" lon="4.79486">
        <ele>210</ele>
        <time>2017-06-07T10:07:41Z</time>
      </trkpt>
      <trkpt lat="45.97243" lon="4.79479">
        <ele>209</ele>
        <time>2017-06-07T10:07:42Z</time>
      </trkpt>
      <trkpt lat="45.97241" lon="4.79472">
        <ele>209</ele>
        <time>2017-06-07T10:07:43Z</time>
      </trkpt>
      <trkpt lat="45.9724" lon="4.79465">
        <ele>209</ele>
        <time>2017-06-07T10:07:44Z</time>
      </trkpt>
      <trkpt lat="45.97238" lon="4.79458">
        <ele>209</ele>
        <time>2017-06-07T10:07:45Z</time>
      </trkpt>
      <trkpt lat="45.97236" lon="4.79452">
        <ele>209</ele>
        <time>2017-06-07T10:07:46Z</time>
      </trkpt>
      <trkpt lat="45.97234" lon="4.79445">
        <ele>209</ele>
        <time>2017-06-07T10:07:47Z</time>
      </trkpt>
      <trkpt lat="45.97231" lon="4.79439">
        <ele>209</ele>
        <time>2017-06-07T10:07:48Z</time>
      </trkpt>
      <trkpt lat="45.97228" lon="4.79431">
        <ele>209</ele>
        <time>2017-06-07T10:07:50Z</time>
      </trkpt>
      <trkpt lat="45.97226" lon="4.79427">
        <ele>209</ele>
        <time>2017-06-07T10:07:51Z</time>
      </trkpt>
      <trkpt lat="45.97223" lon="4.79419">
        <ele>209</ele>
        <time>2017-06-07T10:07:53Z</time>
      </trkpt>
      <trkpt lat="45.97221" lon="4.79414">
        <ele>208</ele>
        <time>2017-06-07T10:07:54Z</time>
      </trkpt>
      <trkpt lat="45.97218" lon="4.79404">
        <ele>208</ele>
        <time>2017-06-07T10:07:56Z</time>
      </trkpt>
      <trkpt lat="45.97215" lon="4.79398">
        <ele>208</ele>
        <time>2017-06-07T10:07:57Z</time>
      </trkpt>
      <trkpt lat="45.97212" lon="4.79391">
        <ele>208</ele>
        <time>2017-06-07T10:07:58Z</time>
      </trkpt>
      <trkpt lat="45.97209" lon="4.79384">
        <ele>208</ele>
        <time>2017-06-07T10:07:59Z</time>
      </trkpt>
      <trkpt lat="45.97206" lon="4.79376">
        <ele>208</ele>
        <time>2017-06-07T10:08:00Z</time>
      </trkpt>
      <trkpt lat="45.97203" lon="4.79369">
        <ele>208</ele>
        <time>2017-06-07T10:08:01Z</time>
      </trkpt>
      <trkpt lat="45.972" lon="4.79362">
        <ele>207</ele>
        <time>2017-06-07T10:08:02Z</time>
      </trkpt>
      <trkpt lat="45.97196" lon="4.79356">
        <ele>207</ele>
        <time>2017-06-07T10:08:03Z</time>
      </trkpt>
      <trkpt lat="45.97192" lon="4.79351">
        <ele>207</ele>
        <time>2017-06-07T10:08:04Z</time>
      </trkpt>
      <trkpt lat="45.97189" lon="4.79345">
        <ele>207</ele>
        <time>2017-06-07T10:08:05Z</time>
      </trkpt>
      <trkpt lat="45.97188" lon="4.79339">
        <ele>207</ele>
        <time>2017-06-07T10:08:06Z</time>
      </trkpt>
      <trkpt lat="45.97185" lon="4.79332">
        <ele>207</ele>
        <time>2017-06-07T10:08:07Z</time>
      </trkpt>
      <trkpt lat="45.97182" lon="4.79325">
        <ele>207</ele>
        <time>2017-06-07T10:08:08Z</time>
      </trkpt>
      <trkpt lat="45.97179" lon="4.79319">
        <ele>207</ele>
        <time>2017-06-07T10:08:09Z</time>
      </trkpt>
      <trkpt lat="45.97176" lon="4.79311">
        <ele>207</ele>
        <time>2017-06-07T10:08:10Z</time>
      </trkpt>
      <trkpt lat="45.97174" lon="4.79304">
        <ele>207</ele>
        <time>2017-06-07T10:08:11Z</time>
      </trkpt>
      <trkpt lat="45.97171" lon="4.79297">
        <ele>207</ele>
        <time>2017-06-07T10:08:12Z</time>
      </trkpt>
      <trkpt lat="45.97168" lon="4.79289">
        <ele>207</ele>
        <time>2017-06-07T10:08:13Z</time>
      </trkpt>
      <trkpt lat="45.97166" lon="4.79282">
        <ele>204</ele>
        <time>2017-06-07T10:08:14Z</time>
      </trkpt>
      <trkpt lat="45.97165" lon="4.79276">
        <ele>204</ele>
        <time>2017-06-07T10:08:15Z</time>
      </trkpt>
      <trkpt lat="45.97162" lon="4.79269">
        <ele>205</ele>
        <time>2017-06-07T10:08:16Z</time>
      </trkpt>
      <trkpt lat="45.97159" lon="4.79261">
        <ele>205</ele>
        <time>2017-06-07T10:08:17Z</time>
      </trkpt>
      <trkpt lat="45.97156" lon="4.79254">
        <ele>205</ele>
        <time>2017-06-07T10:08:18Z</time>
      </trkpt>
      <trkpt lat="45.97152" lon="4.79246">
        <ele>205</ele>
        <time>2017-06-07T10:08:19Z</time>
      </trkpt>
      <trkpt lat="45.97149" lon="4.79239">
        <ele>205</ele>
        <time>2017-06-07T10:08:20Z</time>
      </trkpt>
      <trkpt lat="45.97147" lon="4.79231">
        <ele>205</ele>
        <time>2017-06-07T10:08:21Z</time>
      </trkpt>
      <trkpt lat="45.97144" lon="4.79224">
        <ele>206</ele>
        <time>2017-06-07T10:08:22Z</time>
      </trkpt>
      <trkpt lat="45.97141" lon="4.79217">
        <ele>206</ele>
        <time>2017-06-07T10:08:23Z</time>
      </trkpt>
      <trkpt lat="45.97138" lon="4.7921">
        <ele>206</ele>
        <time>2017-06-07T10:08:24Z</time>
      </trkpt>
      <trkpt lat="45.97135" lon="4.79203">
        <ele>206</ele>
        <time>2017-06-07T10:08:25Z</time>
      </trkpt>
      <trkpt lat="45.97132" lon="4.79196">
        <ele>206</ele>
        <time>2017-06-07T10:08:26Z</time>
      </trkpt>
      <trkpt lat="45.97129" lon="4.79189">
        <ele>206</ele>
        <time>2017-06-07T10:08:27Z</time>
      </trkpt>
      <trkpt lat="45.97125" lon="4.79182">
        <ele>206</ele>
        <time>2017-06-07T10:08:28Z</time>
      </trkpt>
      <trkpt lat="45.97122" lon="4.79175">
        <ele>206</ele>
        <time>2017-06-07T10:08:29Z</time>
      </trkpt>
      <trkpt lat="45.97118" lon="4.79168">
        <ele>206</ele>
        <time>2017-06-07T10:08:30Z</time>
      </trkpt>
      <trkpt lat="45.97113" lon="4.7916">
        <ele>207</ele>
        <time>2017-06-07T10:08:31Z</time>
      </trkpt>
      <trkpt lat="45.97109" lon="4.79153">
        <ele>206</ele>
        <time>2017-06-07T10:08:32Z</time>
      </trkpt>
      <trkpt lat="45.97105" lon="4.79145">
        <ele>206</ele>
        <time>2017-06-07T10:08:33Z</time>
      </trkpt>
      <trkpt lat="45.97101" lon="4.79137">
        <ele>206</ele>
        <time>2017-06-07T10:08:34Z</time>
      </trkpt>
      <trkpt lat="45.97097" lon="4.7913">
        <ele>206</ele>
        <time>2017-06-07T10:08:35Z</time>
      </trkpt>
      <trkpt lat="45.97093" lon="4.79122">
        <ele>206</ele>
        <time>2017-06-07T10:08:36Z</time>
      </trkpt>
      <trkpt lat="45.9709" lon="4.79114">
        <ele>206</ele>
        <time>2017-06-07T10:08:37Z</time>
      </trkpt>
      <trkpt lat="45.97087" lon="4.79106">
        <ele>206</ele>
        <time>2017-06-07T10:08:38Z</time>
      </trkpt>
      <trkpt lat="45.97085" lon="4.79098">
        <ele>205</ele>
        <time>2017-06-07T10:08:39Z</time>
      </trkpt>
      <trkpt lat="45.97083" lon="4.7909">
        <ele>204</ele>
        <time>2017-06-07T10:08:40Z</time>
      </trkpt>
      <trkpt lat="45.97081" lon="4.79082">
        <ele>204</ele>
        <time>2017-06-07T10:08:41Z</time>
      </trkpt>
      <trkpt lat="45.9708" lon="4.79075">
        <ele>204</ele>
        <time>2017-06-07T10:08:42Z</time>
      </trkpt>
      <trkpt lat="45.97078" lon="4.79068">
        <ele>204</ele>
        <time>2017-06-07T10:08:43Z</time>
      </trkpt>
      <trkpt lat="45.97076" lon="4.79061">
        <ele>204</ele>
        <time>2017-06-07T10:08:44Z</time>
      </trkpt>
      <trkpt lat="45.97074" lon="4.79054">
        <ele>203</ele>
        <time>2017-06-07T10:08:45Z</time>
      </trkpt>
      <trkpt lat="45.97071" lon="4.79047">
        <ele>203</ele>
        <time>2017-06-07T10:08:46Z</time>
      </trkpt>
      <trkpt lat="45.9707" lon="4.79039">
        <ele>203</ele>
        <time>2017-06-07T10:08:47Z</time>
      </trkpt>
      <trkpt lat="45.97067" lon="4.79031">
        <ele>204</ele>
        <time>2017-06-07T10:08:48Z</time>
      </trkpt>
      <trkpt lat="45.97065" lon="4.79022">
        <ele>204</ele>
        <time>2017-06-07T10:08:49Z</time>
      </trkpt>
      <trkpt lat="45.97063" lon="4.79014">
        <ele>204</ele>
        <time>2017-06-07T10:08:50Z</time>
      </trkpt>
      <trkpt lat="45.97061" lon="4.79006">
        <ele>204</ele>
        <time>2017-06-07T10:08:51Z</time>
      </trkpt>
      <trkpt lat="45.97058" lon="4.78998">
        <ele>205</ele>
        <time>2017-06-07T10:08:52Z</time>
      </trkpt>
      <trkpt lat="45.97057" lon="4.78991">
        <ele>205</ele>
        <time>2017-06-07T10:08:53Z</time>
      </trkpt>
      <trkpt lat="45.97054" lon="4.78984">
        <ele>205</ele>
        <time>2017-06-07T10:08:54Z</time>
      </trkpt>
      <trkpt lat="45.97052" lon="4.78978">
        <ele>205</ele>
        <time>2017-06-07T10:08:55Z</time>
      </trkpt>
      <trkpt lat="45.9705" lon="4.78971">
        <ele>205</ele>
        <time>2017-06-07T10:08:56Z</time>
      </trkpt>
      <trkpt lat="45.97047" lon="4.78965">
        <ele>205</ele>
        <time>2017-06-07T10:08:57Z</time>
      </trkpt>
      <trkpt lat="45.97044" lon="4.78958">
        <ele>205</ele>
        <time>2017-06-07T10:08:58Z</time>
      </trkpt>
      <trkpt lat="45.97041" lon="4.78952">
        <ele>205</ele>
        <time>2017-06-07T10:08:59Z</time>
      </trkpt>
      <trkpt lat="45.97038" lon="4.78946">
        <ele>205</ele>
        <time>2017-06-07T10:09:00Z</time>
      </trkpt>
      <trkpt lat="45.97033" lon="4.7894">
        <ele>205</ele>
        <time>2017-06-07T10:09:01Z</time>
      </trkpt>
      <trkpt lat="45.97029" lon="4.78934">
        <ele>205</ele>
        <time>2017-06-07T10:09:02Z</time>
      </trkpt>
      <trkpt lat="45.97025" lon="4.78929">
        <ele>205</ele>
        <time>2017-06-07T10:09:03Z</time>
      </trkpt>
      <trkpt lat="45.9702" lon="4.78923">
        <ele>205</ele>
        <time>2017-06-07T10:09:04Z</time>
      </trkpt>
      <trkpt lat="45.97016" lon="4.78917">
        <ele>205</ele>
        <time>2017-06-07T10:09:05Z</time>
      </trkpt>
      <trkpt lat="45.97012" lon="4.78911">
        <ele>206</ele>
        <time>2017-06-07T10:09:06Z</time>
      </trkpt>
      <trkpt lat="45.97007" lon="4.78905">
        <ele>206</ele>
        <time>2017-06-07T10:09:07Z</time>
      </trkpt>
      <trkpt lat="45.97003" lon="4.78899">
        <ele>206</ele>
        <time>2017-06-07T10:09:08Z</time>
      </trkpt>
      <trkpt lat="45.96999" lon="4.78894">
        <ele>203</ele>
        <time>2017-06-07T10:09:09Z</time>
      </trkpt>
      <trkpt lat="45.96994" lon="4.78889">
        <ele>203</ele>
        <time>2017-06-07T10:09:10Z</time>
      </trkpt>
      <trkpt lat="45.9699" lon="4.78884">
        <ele>203</ele>
        <time>2017-06-07T10:09:11Z</time>
      </trkpt>
      <trkpt lat="45.96986" lon="4.78878">
        <ele>203</ele>
        <time>2017-06-07T10:09:12Z</time>
      </trkpt>
      <trkpt lat="45.96982" lon="4.78873">
        <ele>203</ele>
        <time>2017-06-07T10:09:13Z</time>
      </trkpt>
      <trkpt lat="45.96978" lon="4.78868">
        <ele>203</ele>
        <time>2017-06-07T10:09:14Z</time>
      </trkpt>
      <trkpt lat="45.96973" lon="4.78863">
        <ele>203</ele>
        <time>2017-06-07T10:09:15Z</time>
      </trkpt>
      <trkpt lat="45.96968" lon="4.78858">
        <ele>203</ele>
        <time>2017-06-07T10:09:16Z</time>
      </trkpt>
      <trkpt lat="45.96963" lon="4.78853">
        <ele>203</ele>
        <time>2017-06-07T10:09:17Z</time>
      </trkpt>
      <trkpt lat="45.96957" lon="4.78848">
        <ele>203</ele>
        <time>2017-06-07T10:09:18Z</time>
      </trkpt>
      <trkpt lat="45.96952" lon="4.78841">
        <ele>202</ele>
        <time>2017-06-07T10:09:19Z</time>
      </trkpt>
      <trkpt lat="45.96946" lon="4.78834">
        <ele>202</ele>
        <time>2017-06-07T10:09:20Z</time>
      </trkpt>
      <trkpt lat="45.96942" lon="4.78827">
        <ele>203</ele>
        <time>2017-06-07T10:09:21Z</time>
      </trkpt>
      <trkpt lat="45.96936" lon="4.78821">
        <ele>203</ele>
        <time>2017-06-07T10:09:22Z</time>
      </trkpt>
      <trkpt lat="45.96931" lon="4.78814">
        <ele>203</ele>
        <time>2017-06-07T10:09:23Z</time>
      </trkpt>
      <trkpt lat="45.96927" lon="4.78807">
        <ele>203</ele>
        <time>2017-06-07T10:09:24Z</time>
      </trkpt>
      <trkpt lat="45.96923" lon="4.788">
        <ele>203</ele>
        <time>2017-06-07T10:09:25Z</time>
      </trkpt>
      <trkpt lat="45.96919" lon="4.78793">
        <ele>203</ele>
        <time>2017-06-07T10:09:26Z</time>
      </trkpt>
      <trkpt lat="45.96916" lon="4.78786">
        <ele>201</ele>
        <time>2017-06-07T10:09:27Z</time>
      </trkpt>
      <trkpt lat="45.96912" lon="4.7878">
        <ele>201</ele>
        <time>2017-06-07T10:09:28Z</time>
      </trkpt>
      <trkpt lat="45.96909" lon="4.78774">
        <ele>201</ele>
        <time>2017-06-07T10:09:29Z</time>
      </trkpt>
      <trkpt lat="45.96906" lon="4.78768">
        <ele>201</ele>
        <time>2017-06-07T10:09:30Z</time>
      </trkpt>
      <trkpt lat="45.96904" lon="4.78761">
        <ele>202</ele>
        <time>2017-06-07T10:09:31Z</time>
      </trkpt>
      <trkpt lat="45.96901" lon="4.78755">
        <ele>202</ele>
        <time>2017-06-07T10:09:32Z</time>
      </trkpt>
      <trkpt lat="45.96898" lon="4.78749">
        <ele>202</ele>
        <time>2017-06-07T10:09:33Z</time>
      </trkpt>
      <trkpt lat="45.96895" lon="4.78743">
        <ele>202</ele>
        <time>2017-06-07T10:09:34Z</time>
      </trkpt>
      <trkpt lat="45.96892" lon="4.78737">
        <ele>202</ele>
        <time>2017-06-07T10:09:35Z</time>
      </trkpt>
      <trkpt lat="45.9689" lon="4.78731">
        <ele>202</ele>
        <time>2017-06-07T10:09:36Z</time>
      </trkpt>
      <trkpt lat="45.96887" lon="4.78725">
        <ele>202</ele>
        <time>2017-06-07T10:09:37Z</time>
      </trkpt>
      <trkpt lat="45.96885" lon="4.78719">
        <ele>202</ele>
        <time>2017-06-07T10:09:38Z</time>
      </trkpt>
      <trkpt lat="45.96882" lon="4.78713">
        <ele>202</ele>
        <time>2017-06-07T10:09:39Z</time>
      </trkpt>
      <trkpt lat="45.96879" lon="4.78707">
        <ele>202</ele>
        <time>2017-06-07T10:09:40Z</time>
      </trkpt>
      <trkpt lat="45.96877" lon="4.787">
        <ele>202</ele>
        <time>2017-06-07T10:09:41Z</time>
      </trkpt>
      <trkpt lat="45.96873" lon="4.78693">
        <ele>202</ele>
        <time>2017-06-07T10:09:42Z</time>
      </trkpt>
      <trkpt lat="45.96869" lon="4.78687">
        <ele>202</ele>
        <time>2017-06-07T10:09:43Z</time>
      </trkpt>
      <trkpt lat="45.96866" lon="4.7868">
        <ele>202</ele>
        <time>2017-06-07T10:09:44Z</time>
      </trkpt>
      <trkpt lat="45.96863" lon="4.78674">
        <ele>202</ele>
        <time>2017-06-07T10:09:45Z</time>
      </trkpt>
      <trkpt lat="45.96861" lon="4.78667">
        <ele>202</ele>
        <time>2017-06-07T10:09:46Z</time>
      </trkpt>
      <trkpt lat="45.96858" lon="4.78661">
        <ele>203</ele>
        <time>2017-06-07T10:09:47Z</time>
      </trkpt>
      <trkpt lat="45.96857" lon="4.78654">
        <ele>203</ele>
        <time>2017-06-07T10:09:48Z</time>
      </trkpt>
      <trkpt lat="45.96854" lon="4.78647">
        <ele>203</ele>
        <time>2017-06-07T10:09:49Z</time>
      </trkpt>
      <trkpt lat="45.96852" lon="4.7864">
        <ele>203</ele>
        <time>2017-06-07T10:09:50Z</time>
      </trkpt>
      <trkpt lat="45.96849" lon="4.78633">
        <ele>203</ele>
        <time>2017-06-07T10:09:51Z</time>
      </trkpt>
      <trkpt lat="45.96847" lon="4.78626">
        <ele>203</ele>
        <time>2017-06-07T10:09:52Z</time>
      </trkpt>
      <trkpt lat="45.96845" lon="4.7862">
        <ele>203</ele>
        <time>2017-06-07T10:09:53Z</time>
      </trkpt>
      <trkpt lat="45.96842" lon="4.78613">
        <ele>203</ele>
        <time>2017-06-07T10:09:54Z</time>
      </trkpt>
      <trkpt lat="45.96839" lon="4.78607">
        <ele>203</ele>
        <time>2017-06-07T10:09:55Z</time>
      </trkpt>
      <trkpt lat="45.96836" lon="4.78601">
        <ele>203</ele>
        <time>2017-06-07T10:09:56Z</time>
      </trkpt>
      <trkpt lat="45.96833" lon="4.78595">
        <ele>202</ele>
        <time>2017-06-07T10:09:57Z</time>
      </trkpt>
      <trkpt lat="45.9683" lon="4.78589">
        <ele>203</ele>
        <time>2017-06-07T10:09:58Z</time>
      </trkpt>
      <trkpt lat="45.96829" lon="4.78583">
        <ele>203</ele>
        <time>2017-06-07T10:09:59Z</time>
      </trkpt>
      <trkpt lat="45.96824" lon="4.78574">
        <ele>203</ele>
        <time>2017-06-07T10:10:01Z</time>
      </trkpt>
      <trkpt lat="45.96821" lon="4.7857">
        <ele>203</ele>
        <time>2017-06-07T10:10:02Z</time>
      </trkpt>
      <trkpt lat="45.96817" lon="4.78565">
        <ele>203</ele>
        <time>2017-06-07T10:10:03Z</time>
      </trkpt>
      <trkpt lat="45.96814" lon="4.7856">
        <ele>203</ele>
        <time>2017-06-07T10:10:04Z</time>
      </trkpt>
      <trkpt lat="45.96811" lon="4.78554">
        <ele>203</ele>
        <time>2017-06-07T10:10:05Z</time>
      </trkpt>
      <trkpt lat="45.96808" lon="4.78549">
        <ele>203</ele>
        <time>2017-06-07T10:10:06Z</time>
      </trkpt>
      <trkpt lat="45.96805" lon="4.78543">
        <ele>203</ele>
        <time>2017-06-07T10:10:07Z</time>
      </trkpt>
      <trkpt lat="45.96801" lon="4.78538">
        <ele>203</ele>
        <time>2017-06-07T10:10:08Z</time>
      </trkpt>
      <trkpt lat="45.96798" lon="4.78533">
        <ele>203</ele>
        <time>2017-06-07T10:10:09Z</time>
      </trkpt>
      <trkpt lat="45.96795" lon="4.78527">
        <ele>203</ele>
        <time>2017-06-07T10:10:10Z</time>
      </trkpt>
      <trkpt lat="45.96791" lon="4.78521">
        <ele>203</ele>
        <time>2017-06-07T10:10:11Z</time>
      </trkpt>
      <trkpt lat="45.96787" lon="4.78515">
        <ele>203</ele>
        <time>2017-06-07T10:10:12Z</time>
      </trkpt>
      <trkpt lat="45.96783" lon="4.78509">
        <ele>203</ele>
        <time>2017-06-07T10:10:13Z</time>
      </trkpt>
      <trkpt lat="45.9678" lon="4.78503">
        <ele>203</ele>
        <time>2017-06-07T10:10:14Z</time>
      </trkpt>
      <trkpt lat="45.96777" lon="4.78498">
        <ele>205</ele>
        <time>2017-06-07T10:10:15Z</time>
      </trkpt>
      <trkpt lat="45.96773" lon="4.78493">
        <ele>205</ele>
        <time>2017-06-07T10:10:16Z</time>
      </trkpt>
      <trkpt lat="45.96769" lon="4.78488">
        <ele>205</ele>
        <time>2017-06-07T10:10:17Z</time>
      </trkpt>
      <trkpt lat="45.96765" lon="4.78484">
        <ele>205</ele>
        <time>2017-06-07T10:10:18Z</time>
      </trkpt>
      <trkpt lat="45.96761" lon="4.7848">
        <ele>205</ele>
        <time>2017-06-07T10:10:19Z</time>
      </trkpt>
      <trkpt lat="45.96756" lon="4.78476">
        <ele>205</ele>
        <time>2017-06-07T10:10:20Z</time>
      </trkpt>
      <trkpt lat="45.96751" lon="4.78473">
        <ele>205</ele>
        <time>2017-06-07T10:10:21Z</time>
      </trkpt>
      <trkpt lat="45.96745" lon="4.78469">
        <ele>203</ele>
        <time>2017-06-07T10:10:22Z</time>
      </trkpt>
      <trkpt lat="45.9674" lon="4.78464">
        <ele>203</ele>
        <time>2017-06-07T10:10:23Z</time>
      </trkpt>
      <trkpt lat="45.96735" lon="4.7846">
        <ele>203</ele>
        <time>2017-06-07T10:10:24Z</time>
      </trkpt>
      <trkpt lat="45.9673" lon="4.78457">
        <ele>203</ele>
        <time>2017-06-07T10:10:25Z</time>
      </trkpt>
      <trkpt lat="45.96725" lon="4.78452">
        <ele>203</ele>
        <time>2017-06-07T10:10:26Z</time>
      </trkpt>
      <trkpt lat="45.96721" lon="4.78448">
        <ele>203</ele>
        <time>2017-06-07T10:10:27Z</time>
      </trkpt>
      <trkpt lat="45.96716" lon="4.78443">
        <ele>203</ele>
        <time>2017-06-07T10:10:28Z</time>
      </trkpt>
      <trkpt lat="45.96712" lon="4.78438">
        <ele>203</ele>
        <time>2017-06-07T10:10:29Z</time>
      </trkpt>
      <trkpt lat="45.96708" lon="4.78433">
        <ele>203</ele>
        <time>2017-06-07T10:10:30Z</time>
      </trkpt>
      <trkpt lat="45.96704" lon="4.78428">
        <ele>203</ele>
        <time>2017-06-07T10:10:31Z</time>
      </trkpt>
      <trkpt lat="45.96699" lon="4.78424">
        <ele>203</ele>
        <time>2017-06-07T10:10:32Z</time>
      </trkpt>
      <trkpt lat="45.96693" lon="4.78419">
        <ele>202</ele>
        <time>2017-06-07T10:10:33Z</time>
      </trkpt>
      <trkpt lat="45.96688" lon="4.78415">
        <ele>204</ele>
        <time>2017-06-07T10:10:34Z</time>
      </trkpt>
      <trkpt lat="45.96683" lon="4.78409">
        <ele>204</ele>
        <time>2017-06-07T10:10:35Z</time>
      </trkpt>
      <trkpt lat="45.96678" lon="4.78405">
        <ele>204</ele>
        <time>2017-06-07T10:10:36Z</time>
      </trkpt>
      <trkpt lat="45.96674" lon="4.784">
        <ele>204</ele>
        <time>2017-06-07T10:10:37Z</time>
      </trkpt>
      <trkpt lat="45.96669" lon="4.78395">
        <ele>204</ele>
        <time>2017-06-07T10:10:38Z</time>
      </trkpt>
      <trkpt lat="45.96664" lon="4.7839">
        <ele>201</ele>
        <time>2017-06-07T10:10:39Z</time>
      </trkpt>
      <trkpt lat="45.9666" lon="4.78386">
        <ele>201</ele>
        <time>2017-06-07T10:10:40Z</time>
      </trkpt>
      <trkpt lat="45.96655" lon="4.78381">
        <ele>201</ele>
        <time>2017-06-07T10:10:41Z</time>
      </trkpt>
      <trkpt lat="45.9665" lon="4.78377">
        <ele>201</ele>
        <time>2017-06-07T10:10:42Z</time>
      </trkpt>
      <trkpt lat="45.96646" lon="4.78373">
        <ele>201</ele>
        <time>2017-06-07T10:10:43Z</time>
      </trkpt>
      <trkpt lat="45.96641" lon="4.78368">
        <ele>201</ele>
        <time>2017-06-07T10:10:44Z</time>
      </trkpt>
      <trkpt lat="45.96636" lon="4.78364">
        <ele>201</ele>
        <time>2017-06-07T10:10:45Z</time>
      </trkpt>
      <trkpt lat="45.96631" lon="4.78359">
        <ele>201</ele>
        <time>2017-06-07T10:10:46Z</time>
      </trkpt>
      <trkpt lat="45.96627" lon="4.78355">
        <ele>201</ele>
        <time>2017-06-07T10:10:47Z</time>
      </trkpt>
      <trkpt lat="45.96623" lon="4.7835">
        <ele>201</ele>
        <time>2017-06-07T10:10:48Z</time>
      </trkpt>
      <trkpt lat="45.96618" lon="4.78346">
        <ele>201</ele>
        <time>2017-06-07T10:10:49Z</time>
      </trkpt>
      <trkpt lat="45.96613" lon="4.78343">
        <ele>200</ele>
        <time>2017-06-07T10:10:50Z</time>
      </trkpt>
      <trkpt lat="45.96609" lon="4.78338">
        <ele>200</ele>
        <time>2017-06-07T10:10:51Z</time>
      </trkpt>
      <trkpt lat="45.96603" lon="4.78334">
        <ele>200</ele>
        <time>2017-06-07T10:10:52Z</time>
      </trkpt>
      <trkpt lat="45.96599" lon="4.78329">
        <ele>202</ele>
        <time>2017-06-07T10:10:53Z</time>
      </trkpt>
      <trkpt lat="45.96594" lon="4.78324">
        <ele>202</ele>
        <time>2017-06-07T10:10:54Z</time>
      </trkpt>
      <trkpt lat="45.96589" lon="4.7832">
        <ele>202</ele>
        <time>2017-06-07T10:10:55Z</time>
      </trkpt>
      <trkpt lat="45.96585" lon="4.78316">
        <ele>202</ele>
        <time>2017-06-07T10:10:56Z</time>
      </trkpt>
      <trkpt lat="45.96581" lon="4.78312">
        <ele>199</ele>
        <time>2017-06-07T10:10:57Z</time>
      </trkpt>
      <trkpt lat="45.96577" lon="4.78307">
        <ele>200</ele>
        <time>2017-06-07T10:10:58Z</time>
      </trkpt>
      <trkpt lat="45.96573" lon="4.78304">
        <ele>200</ele>
        <time>2017-06-07T10:10:59Z</time>
      </trkpt>
      <trkpt lat="45.96569" lon="4.783">
        <ele>200</ele>
        <time>2017-06-07T10:11:00Z</time>
      </trkpt>
      <trkpt lat="45.96565" lon="4.78295">
        <ele>200</ele>
        <time>2017-06-07T10:11:01Z</time>
      </trkpt>
      <trkpt lat="45.9656" lon="4.7829">
        <ele>200</ele>
        <time>2017-06-07T10:11:02Z</time>
      </trkpt>
      <trkpt lat="45.96556" lon="4.78284">
        <ele>200</ele>
        <time>2017-06-07T10:11:03Z</time>
      </trkpt>
      <trkpt lat="45.96551" lon="4.78277">
        <ele>200</ele>
        <time>2017-06-07T10:11:04Z</time>
      </trkpt>
      <trkpt lat="45.96546" lon="4.7827">
        <ele>200</ele>
        <time>2017-06-07T10:11:05Z</time>
      </trkpt>
      <trkpt lat="45.96542" lon="4.78263">
        <ele>200</ele>
        <time>2017-06-07T10:11:06Z</time>
      </trkpt>
      <trkpt lat="45.96538" lon="4.78256">
        <ele>200</ele>
        <time>2017-06-07T10:11:07Z</time>
      </trkpt>
      <trkpt lat="45.96533" lon="4.78249">
        <ele>204</ele>
        <time>2017-06-07T10:11:08Z</time>
      </trkpt>
      <trkpt lat="45.96528" lon="4.78242">
        <ele>204</ele>
        <time>2017-06-07T10:11:09Z</time>
      </trkpt>
      <trkpt lat="45.96524" lon="4.78234">
        <ele>204</ele>
        <time>2017-06-07T10:11:10Z</time>
      </trkpt>
      <trkpt lat="45.9652" lon="4.78226">
        <ele>204</ele>
        <time>2017-06-07T10:11:11Z</time>
      </trkpt>
      <trkpt lat="45.96515" lon="4.78219">
        <ele>205</ele>
        <time>2017-06-07T10:11:12Z</time>
      </trkpt>
      <trkpt lat="45.96511" lon="4.78211">
        <ele>205</ele>
        <time>2017-06-07T10:11:13Z</time>
      </trkpt>
      <trkpt lat="45.96506" lon="4.78205">
        <ele>205</ele>
        <time>2017-06-07T10:11:14Z</time>
      </trkpt>
      <trkpt lat="45.96501" lon="4.782">
        <ele>205</ele>
        <time>2017-06-07T10:11:15Z</time>
      </trkpt>
      <trkpt lat="45.96495" lon="4.78195">
        <ele>201</ele>
        <time>2017-06-07T10:11:16Z</time>
      </trkpt>
      <trkpt lat="45.96489" lon="4.78192">
        <ele>201</ele>
        <time>2017-06-07T10:11:17Z</time>
      </trkpt>
      <trkpt lat="45.96483" lon="4.78189">
        <ele>201</ele>
        <time>2017-06-07T10:11:18Z</time>
      </trkpt>
      <trkpt lat="45.96477" lon="4.78186">
        <ele>201</ele>
        <time>2017-06-07T10:11:19Z</time>
      </trkpt>
      <trkpt lat="45.96472" lon="4.78182">
        <ele>200</ele>
        <time>2017-06-07T10:11:20Z</time>
      </trkpt>
      <trkpt lat="45.96465" lon="4.78175">
        <ele>200</ele>
        <time>2017-06-07T10:11:21Z</time>
      </trkpt>
      <trkpt lat="45.9646" lon="4.7817">
        <ele>200</ele>
        <time>2017-06-07T10:11:22Z</time>
      </trkpt>
      <trkpt lat="45.96455" lon="4.78166">
        <ele>204</ele>
        <time>2017-06-07T10:11:23Z</time>
      </trkpt>
      <trkpt lat="45.9645" lon="4.78162">
        <ele>204</ele>
        <time>2017-06-07T10:11:24Z</time>
      </trkpt>
      <trkpt lat="45.96445" lon="4.78157">
        <ele>203</ele>
        <time>2017-06-07T10:11:25Z</time>
      </trkpt>
      <trkpt lat="45.96441" lon="4.78152">
        <ele>203</ele>
        <time>2017-06-07T10:11:26Z</time>
      </trkpt>
      <trkpt lat="45.96436" lon="4.78148">
        <ele>203</ele>
        <time>2017-06-07T10:11:27Z</time>
      </trkpt>
      <trkpt lat="45.96431" lon="4.78144">
        <ele>203</ele>
        <time>2017-06-07T10:11:28Z</time>
      </trkpt>
      <trkpt lat="45.96426" lon="4.78139">
        <ele>203</ele>
        <time>2017-06-07T10:11:29Z</time>
      </trkpt>
      <trkpt lat="45.96421" lon="4.78135">
        <ele>203</ele>
        <time>2017-06-07T10:11:30Z</time>
      </trkpt>
      <trkpt lat="45.96417" lon="4.78131">
        <ele>199</ele>
        <time>2017-06-07T10:11:31Z</time>
      </trkpt>
      <trkpt lat="45.96412" lon="4.78127">
        <ele>200</ele>
        <time>2017-06-07T10:11:32Z</time>
      </trkpt>
      <trkpt lat="45.96408" lon="4.78123">
        <ele>200</ele>
        <time>2017-06-07T10:11:33Z</time>
      </trkpt>
      <trkpt lat="45.96404" lon="4.78119">
        <ele>200</ele>
        <time>2017-06-07T10:11:34Z</time>
      </trkpt>
      <trkpt lat="45.964" lon="4.78115">
        <ele>200</ele>
        <time>2017-06-07T10:11:35Z</time>
      </trkpt>
      <trkpt lat="45.96396" lon="4.78111">
        <ele>200</ele>
        <time>2017-06-07T10:11:36Z</time>
      </trkpt>
      <trkpt lat="45.96392" lon="4.78107">
        <ele>200</ele>
        <time>2017-06-07T10:11:37Z</time>
      </trkpt>
      <trkpt lat="45.96387" lon="4.78102">
        <ele>200</ele>
        <time>2017-06-07T10:11:38Z</time>
      </trkpt>
      <trkpt lat="45.96383" lon="4.78098">
        <ele>200</ele>
        <time>2017-06-07T10:11:39Z</time>
      </trkpt>
      <trkpt lat="45.96378" lon="4.78093">
        <ele>200</ele>
        <time>2017-06-07T10:11:40Z</time>
      </trkpt>
      <trkpt lat="45.96374" lon="4.78088">
        <ele>200</ele>
        <time>2017-06-07T10:11:41Z</time>
      </trkpt>
      <trkpt lat="45.96369" lon="4.78083">
        <ele>203</ele>
        <time>2017-06-07T10:11:42Z</time>
      </trkpt>
      <trkpt lat="45.96364" lon="4.78078">
        <ele>202</ele>
        <time>2017-06-07T10:11:43Z</time>
      </trkpt>
      <trkpt lat="45.9636" lon="4.78071">
        <ele>202</ele>
        <time>2017-06-07T10:11:44Z</time>
      </trkpt>
      <trkpt lat="45.96356" lon="4.78066">
        <ele>202</ele>
        <time>2017-06-07T10:11:45Z</time>
      </trkpt>
      <trkpt lat="45.96351" lon="4.7806">
        <ele>202</ele>
        <time>2017-06-07T10:11:46Z</time>
      </trkpt>
      <trkpt lat="45.96346" lon="4.78054">
        <ele>202</ele>
        <time>2017-06-07T10:11:47Z</time>
      </trkpt>
      <trkpt lat="45.96342" lon="4.78048">
        <ele>203</ele>
        <time>2017-06-07T10:11:48Z</time>
      </trkpt>
      <trkpt lat="45.96338" lon="4.78043">
        <ele>203</ele>
        <time>2017-06-07T10:11:49Z</time>
      </trkpt>
      <trkpt lat="45.96334" lon="4.78038">
        <ele>203</ele>
        <time>2017-06-07T10:11:50Z</time>
      </trkpt>
      <trkpt lat="45.96329" lon="4.78033">
        <ele>200</ele>
        <time>2017-06-07T10:11:51Z</time>
      </trkpt>
      <trkpt lat="45.96325" lon="4.78029">
        <ele>200</ele>
        <time>2017-06-07T10:11:52Z</time>
      </trkpt>
      <trkpt lat="45.9632" lon="4.78025">
        <ele>200</ele>
        <time>2017-06-07T10:11:53Z</time>
      </trkpt>
      <trkpt lat="45.96315" lon="4.7802">
        <ele>200</ele>
        <time>2017-06-07T10:11:54Z</time>
      </trkpt>
      <trkpt lat="45.96311" lon="4.78015">
        <ele>200</ele>
        <time>2017-06-07T10:11:55Z</time>
      </trkpt>
      <trkpt lat="45.96307" lon="4.78011">
        <ele>200</ele>
        <time>2017-06-07T10:11:56Z</time>
      </trkpt>
      <trkpt lat="45.96303" lon="4.78006">
        <ele>200</ele>
        <time>2017-06-07T10:11:57Z</time>
      </trkpt>
      <trkpt lat="45.96299" lon="4.78001">
        <ele>200</ele>
        <time>2017-06-07T10:11:58Z</time>
      </trkpt>
      <trkpt lat="45.96295" lon="4.77998">
        <ele>204</ele>
        <time>2017-06-07T10:11:59Z</time>
      </trkpt>
      <trkpt lat="45.96291" lon="4.77994">
        <ele>204</ele>
        <time>2017-06-07T10:12:00Z</time>
      </trkpt>
      <trkpt lat="45.96287" lon="4.7799">
        <ele>204</ele>
        <time>2017-06-07T10:12:01Z</time>
      </trkpt>
      <trkpt lat="45.96283" lon="4.77986">
        <ele>204</ele>
        <time>2017-06-07T10:12:02Z</time>
      </trkpt>
      <trkpt lat="45.96279" lon="4.77982">
        <ele>204</ele>
        <time>2017-06-07T10:12:03Z</time>
      </trkpt>
      <trkpt lat="45.96274" lon="4.77978">
        <ele>204</ele>
        <time>2017-06-07T10:12:04Z</time>
      </trkpt>
      <trkpt lat="45.9627" lon="4.77974">
        <ele>204</ele>
        <time>2017-06-07T10:12:05Z</time>
      </trkpt>
      <trkpt lat="45.96265" lon="4.7797">
        <ele>204</ele>
        <time>2017-06-07T10:12:06Z</time>
      </trkpt>
      <trkpt lat="45.96258" lon="4.77963">
        <ele>204</ele>
        <time>2017-06-07T10:12:08Z</time>
      </trkpt>
      <trkpt lat="45.96254" lon="4.77959">
        <ele>205</ele>
        <time>2017-06-07T10:12:09Z</time>
      </trkpt>
      <trkpt lat="45.9625" lon="4.77955">
        <ele>205</ele>
        <time>2017-06-07T10:12:10Z</time>
      </trkpt>
      <trkpt lat="45.96246" lon="4.7795">
        <ele>200</ele>
        <time>2017-06-07T10:12:11Z</time>
      </trkpt>
      <trkpt lat="45.96241" lon="4.77944">
        <ele>201</ele>
        <time>2017-06-07T10:12:12Z</time>
      </trkpt>
      <trkpt lat="45.96237" lon="4.77939">
        <ele>201</ele>
        <time>2017-06-07T10:12:13Z</time>
      </trkpt>
      <trkpt lat="45.96233" lon="4.77934">
        <ele>201</ele>
        <time>2017-06-07T10:12:14Z</time>
      </trkpt>
      <trkpt lat="45.96229" lon="4.77929">
        <ele>201</ele>
        <time>2017-06-07T10:12:15Z</time>
      </trkpt>
      <trkpt lat="45.96224" lon="4.77923">
        <ele>201</ele>
        <time>2017-06-07T10:12:16Z</time>
      </trkpt>
      <trkpt lat="45.9622" lon="4.77917">
        <ele>201</ele>
        <time>2017-06-07T10:12:17Z</time>
      </trkpt>
      <trkpt lat="45.96217" lon="4.77911">
        <ele>203</ele>
        <time>2017-06-07T10:12:18Z</time>
      </trkpt>
      <trkpt lat="45.96213" lon="4.77905">
        <ele>203</ele>
        <time>2017-06-07T10:12:19Z</time>
      </trkpt>
      <trkpt lat="45.96209" lon="4.77898">
        <ele>203</ele>
        <time>2017-06-07T10:12:20Z</time>
      </trkpt>
      <trkpt lat="45.96205" lon="4.77891">
        <ele>202</ele>
        <time>2017-06-07T10:12:21Z</time>
      </trkpt>
      <trkpt lat="45.962" lon="4.77884">
        <ele>202</ele>
        <time>2017-06-07T10:12:22Z</time>
      </trkpt>
      <trkpt lat="45.96195" lon="4.77878">
        <ele>202</ele>
        <time>2017-06-07T10:12:23Z</time>
      </trkpt>
      <trkpt lat="45.96191" lon="4.77872">
        <ele>202</ele>
        <time>2017-06-07T10:12:24Z</time>
      </trkpt>
      <trkpt lat="45.96187" lon="4.77866">
        <ele>202</ele>
        <time>2017-06-07T10:12:25Z</time>
      </trkpt>
      <trkpt lat="45.96183" lon="4.7786">
        <ele>201</ele>
        <time>2017-06-07T10:12:26Z</time>
      </trkpt>
      <trkpt lat="45.96179" lon="4.77853">
        <ele>201</ele>
        <time>2017-06-07T10:12:27Z</time>
      </trkpt>
      <trkpt lat="45.96175" lon="4.77848">
        <ele>201</ele>
        <time>2017-06-07T10:12:28Z</time>
      </trkpt>
      <trkpt lat="45.96171" lon="4.77842">
        <ele>200</ele>
        <time>2017-06-07T10:12:29Z</time>
      </trkpt>
      <trkpt lat="45.96167" lon="4.77837">
        <ele>200</ele>
        <time>2017-06-07T10:12:30Z</time>
      </trkpt>
      <trkpt lat="45.96164" lon="4.77831">
        <ele>199</ele>
        <time>2017-06-07T10:12:31Z</time>
      </trkpt>
      <trkpt lat="45.96161" lon="4.77826">
        <ele>198</ele>
        <time>2017-06-07T10:12:32Z</time>
      </trkpt>
      <trkpt lat="45.96158" lon="4.7782">
        <ele>198</ele>
        <time>2017-06-07T10:12:33Z</time>
      </trkpt>
      <trkpt lat="45.96154" lon="4.77815">
        <ele>198</ele>
        <time>2017-06-07T10:12:34Z</time>
      </trkpt>
      <trkpt lat="45.9615" lon="4.77809">
        <ele>198</ele>
        <time>2017-06-07T10:12:35Z</time>
      </trkpt>
      <trkpt lat="45.96146" lon="4.77802">
        <ele>198</ele>
        <time>2017-06-07T10:12:36Z</time>
      </trkpt>
      <trkpt lat="45.96142" lon="4.77796">
        <ele>198</ele>
        <time>2017-06-07T10:12:37Z</time>
      </trkpt>
      <trkpt lat="45.96138" lon="4.77789">
        <ele>198</ele>
        <time>2017-06-07T10:12:38Z</time>
      </trkpt>
      <trkpt lat="45.96134" lon="4.77782">
        <ele>198</ele>
        <time>2017-06-07T10:12:39Z</time>
      </trkpt>
      <trkpt lat="45.9613" lon="4.77775">
        <ele>198</ele>
        <time>2017-06-07T10:12:40Z</time>
      </trkpt>
      <trkpt lat="45.96126" lon="4.77768">
        <ele>198</ele>
        <time>2017-06-07T10:12:41Z</time>
      </trkpt>
      <trkpt lat="45.96123" lon="4.77761">
        <ele>198</ele>
        <time>2017-06-07T10:12:42Z</time>
      </trkpt>
      <trkpt lat="45.96119" lon="4.77755">
        <ele>197</ele>
        <time>2017-06-07T10:12:43Z</time>
      </trkpt>
      <trkpt lat="45.96116" lon="4.77749">
        <ele>199</ele>
        <time>2017-06-07T10:12:44Z</time>
      </trkpt>
      <trkpt lat="45.96112" lon="4.77742">
        <ele>199</ele>
        <time>2017-06-07T10:12:45Z</time>
      </trkpt>
      <trkpt lat="45.96108" lon="4.77735">
        <ele>199</ele>
        <time>2017-06-07T10:12:46Z</time>
      </trkpt>
      <trkpt lat="45.96104" lon="4.77728">
        <ele>199</ele>
        <time>2017-06-07T10:12:47Z</time>
      </trkpt>
      <trkpt lat="45.961" lon="4.77722">
        <ele>199</ele>
        <time>2017-06-07T10:12:48Z</time>
      </trkpt>
      <trkpt lat="45.96095" lon="4.77715">
        <ele>200</ele>
        <time>2017-06-07T10:12:49Z</time>
      </trkpt>
      <trkpt lat="45.96091" lon="4.77708">
        <ele>200</ele>
        <time>2017-06-07T10:12:50Z</time>
      </trkpt>
      <trkpt lat="45.96086" lon="4.77702">
        <ele>200</ele>
        <time>2017-06-07T10:12:51Z</time>
      </trkpt>
      <trkpt lat="45.96082" lon="4.77696">
        <ele>197</ele>
        <time>2017-06-07T10:12:52Z</time>
      </trkpt>
      <trkpt lat="45.96078" lon="4.77689">
        <ele>198</ele>
        <time>2017-06-07T10:12:53Z</time>
      </trkpt>
      <trkpt lat="45.96073" lon="4.77684">
        <ele>198</ele>
        <time>2017-06-07T10:12:54Z</time>
      </trkpt>
      <trkpt lat="45.96069" lon="4.77677">
        <ele>198</ele>
        <time>2017-06-07T10:12:55Z</time>
      </trkpt>
      <trkpt lat="45.96064" lon="4.77671">
        <ele>198</ele>
        <time>2017-06-07T10:12:56Z</time>
      </trkpt>
      <trkpt lat="45.96059" lon="4.77664">
        <ele>200</ele>
        <time>2017-06-07T10:12:57Z</time>
      </trkpt>
      <trkpt lat="45.96055" lon="4.77659">
        <ele>200</ele>
        <time>2017-06-07T10:12:58Z</time>
      </trkpt>
      <trkpt lat="45.96051" lon="4.77654">
        <ele>200</ele>
        <time>2017-06-07T10:12:59Z</time>
      </trkpt>
      <trkpt lat="45.96047" lon="4.77649">
        <ele>200</ele>
        <time>2017-06-07T10:13:00Z</time>
      </trkpt>
      <trkpt lat="45.96043" lon="4.77643">
        <ele>199</ele>
        <time>2017-06-07T10:13:01Z</time>
      </trkpt>
      <trkpt lat="45.96039" lon="4.77638">
        <ele>199</ele>
        <time>2017-06-07T10:13:02Z</time>
      </trkpt>
      <trkpt lat="45.96034" lon="4.77633">
        <ele>199</ele>
        <time>2017-06-07T10:13:03Z</time>
      </trkpt>
      <trkpt lat="45.9603" lon="4.77629">
        <ele>199</ele>
        <time>2017-06-07T10:13:04Z</time>
      </trkpt>
      <trkpt lat="45.96025" lon="4.77623">
        <ele>199</ele>
        <time>2017-06-07T10:13:05Z</time>
      </trkpt>
      <trkpt lat="45.96021" lon="4.77618">
        <ele>199</ele>
        <time>2017-06-07T10:13:06Z</time>
      </trkpt>
      <trkpt lat="45.96016" lon="4.77613">
        <ele>199</ele>
        <time>2017-06-07T10:13:07Z</time>
      </trkpt>
      <trkpt lat="45.96012" lon="4.77607">
        <ele>199</ele>
        <time>2017-06-07T10:13:08Z</time>
      </trkpt>
      <trkpt lat="45.96008" lon="4.77602">
        <ele>198</ele>
        <time>2017-06-07T10:13:09Z</time>
      </trkpt>
      <trkpt lat="45.96003" lon="4.77597">
        <ele>198</ele>
        <time>2017-06-07T10:13:10Z</time>
      </trkpt>
      <trkpt lat="45.96" lon="4.77593">
        <ele>196</ele>
        <time>2017-06-07T10:13:11Z</time>
      </trkpt>
      <trkpt lat="45.95997" lon="4.77588">
        <ele>196</ele>
        <time>2017-06-07T10:13:12Z</time>
      </trkpt>
      <trkpt lat="45.95994" lon="4.77582">
        <ele>196</ele>
        <time>2017-06-07T10:13:13Z</time>
      </trkpt>
      <trkpt lat="45.95991" lon="4.77575">
        <ele>196</ele>
        <time>2017-06-07T10:13:14Z</time>
      </trkpt>
      <trkpt lat="45.95989" lon="4.77569">
        <ele>196</ele>
        <time>2017-06-07T10:13:15Z</time>
      </trkpt>
      <trkpt lat="45.95987" lon="4.77562">
        <ele>196</ele>
        <time>2017-06-07T10:13:16Z</time>
      </trkpt>
      <trkpt lat="45.95985" lon="4.77555">
        <ele>196</ele>
        <time>2017-06-07T10:13:17Z</time>
      </trkpt>
      <trkpt lat="45.95981" lon="4.77544">
        <ele>196</ele>
        <time>2017-06-07T10:13:19Z</time>
      </trkpt>
      <trkpt lat="45.95979" lon="4.77539">
        <ele>196</ele>
        <time>2017-06-07T10:13:20Z</time>
      </trkpt>
      <trkpt lat="45.95977" lon="4.77534">
        <ele>196</ele>
        <time>2017-06-07T10:13:21Z</time>
      </trkpt>
      <trkpt lat="45.95975" lon="4.77528">
        <ele>196</ele>
        <time>2017-06-07T10:13:22Z</time>
      </trkpt>
      <trkpt lat="45.95972" lon="4.77521">
        <ele>196</ele>
        <time>2017-06-07T10:13:23Z</time>
      </trkpt>
      <trkpt lat="45.9597" lon="4.77515">
        <ele>196</ele>
        <time>2017-06-07T10:13:24Z</time>
      </trkpt>
      <trkpt lat="45.95967" lon="4.77508">
        <ele>196</ele>
        <time>2017-06-07T10:13:25Z</time>
      </trkpt>
      <trkpt lat="45.95963" lon="4.77501">
        <ele>195</ele>
        <time>2017-06-07T10:13:26Z</time>
      </trkpt>
      <trkpt lat="45.9596" lon="4.77493">
        <ele>196</ele>
        <time>2017-06-07T10:13:27Z</time>
      </trkpt>
      <trkpt lat="45.95958" lon="4.77486">
        <ele>196</ele>
        <time>2017-06-07T10:13:28Z</time>
      </trkpt>
      <trkpt lat="45.95955" lon="4.77479">
        <ele>196</ele>
        <time>2017-06-07T10:13:29Z</time>
      </trkpt>
      <trkpt lat="45.95952" lon="4.77473">
        <ele>196</ele>
        <time>2017-06-07T10:13:30Z</time>
      </trkpt>
      <trkpt lat="45.9595" lon="4.77466">
        <ele>196</ele>
        <time>2017-06-07T10:13:31Z</time>
      </trkpt>
      <trkpt lat="45.95948" lon="4.77459">
        <ele>196</ele>
        <time>2017-06-07T10:13:32Z</time>
      </trkpt>
      <trkpt lat="45.95945" lon="4.77452">
        <ele>196</ele>
        <time>2017-06-07T10:13:33Z</time>
      </trkpt>
      <trkpt lat="45.95943" lon="4.77446">
        <ele>196</ele>
        <time>2017-06-07T10:13:34Z</time>
      </trkpt>
      <trkpt lat="45.9594" lon="4.77439">
        <ele>196</ele>
        <time>2017-06-07T10:13:35Z</time>
      </trkpt>
      <trkpt lat="45.95937" lon="4.77432">
        <ele>195</ele>
        <time>2017-06-07T10:13:36Z</time>
      </trkpt>
      <trkpt lat="45.95934" lon="4.77425">
        <ele>195</ele>
        <time>2017-06-07T10:13:37Z</time>
      </trkpt>
      <trkpt lat="45.95932" lon="4.77417">
        <ele>195</ele>
        <time>2017-06-07T10:13:38Z</time>
      </trkpt>
      <trkpt lat="45.9593" lon="4.7741">
        <ele>195</ele>
        <time>2017-06-07T10:13:39Z</time>
      </trkpt>
      <trkpt lat="45.95927" lon="4.77402">
        <ele>196</ele>
        <time>2017-06-07T10:13:40Z</time>
      </trkpt>
      <trkpt lat="45.95925" lon="4.77395">
        <ele>196</ele>
        <time>2017-06-07T10:13:41Z</time>
      </trkpt>
      <trkpt lat="45.95922" lon="4.77388">
        <ele>196</ele>
        <time>2017-06-07T10:13:42Z</time>
      </trkpt>
      <trkpt lat="45.9592" lon="4.7738">
        <ele>196</ele>
        <time>2017-06-07T10:13:43Z</time>
      </trkpt>
      <trkpt lat="45.95918" lon="4.77373">
        <ele>196</ele>
        <time>2017-06-07T10:13:44Z</time>
      </trkpt>
      <trkpt lat="45.95916" lon="4.77365">
        <ele>193</ele>
        <time>2017-06-07T10:13:45Z</time>
      </trkpt>
      <trkpt lat="45.95913" lon="4.77356">
        <ele>193</ele>
        <time>2017-06-07T10:13:46Z</time>
      </trkpt>
      <trkpt lat="45.95911" lon="4.77348">
        <ele>194</ele>
        <time>2017-06-07T10:13:47Z</time>
      </trkpt>
      <trkpt lat="45.95909" lon="4.77339">
        <ele>194</ele>
        <time>2017-06-07T10:13:48Z</time>
      </trkpt>
      <trkpt lat="45.95907" lon="4.7733">
        <ele>194</ele>
        <time>2017-06-07T10:13:49Z</time>
      </trkpt>
      <trkpt lat="45.95905" lon="4.77322">
        <ele>194</ele>
        <time>2017-06-07T10:13:50Z</time>
      </trkpt>
      <trkpt lat="45.95904" lon="4.77313">
        <ele>194</ele>
        <time>2017-06-07T10:13:51Z</time>
      </trkpt>
      <trkpt lat="45.95902" lon="4.77304">
        <ele>193</ele>
        <time>2017-06-07T10:13:52Z</time>
      </trkpt>
      <trkpt lat="45.95901" lon="4.77296">
        <ele>193</ele>
        <time>2017-06-07T10:13:53Z</time>
      </trkpt>
      <trkpt lat="45.95899" lon="4.77288">
        <ele>193</ele>
        <time>2017-06-07T10:13:54Z</time>
      </trkpt>
      <trkpt lat="45.95898" lon="4.77279">
        <ele>194</ele>
        <time>2017-06-07T10:13:55Z</time>
      </trkpt>
      <trkpt lat="45.95897" lon="4.77271">
        <ele>194</ele>
        <time>2017-06-07T10:13:56Z</time>
      </trkpt>
      <trkpt lat="45.95895" lon="4.77263">
        <ele>194</ele>
        <time>2017-06-07T10:13:57Z</time>
      </trkpt>
      <trkpt lat="45.95893" lon="4.77253">
        <ele>194</ele>
        <time>2017-06-07T10:13:58Z</time>
      </trkpt>
      <trkpt lat="45.95889" lon="4.77247">
        <ele>194</ele>
        <time>2017-06-07T10:13:59Z</time>
      </trkpt>
      <trkpt lat="45.95887" lon="4.77239">
        <ele>194</ele>
        <time>2017-06-07T10:14:00Z</time>
      </trkpt>
      <trkpt lat="45.95883" lon="4.77231">
        <ele>193</ele>
        <time>2017-06-07T10:14:01Z</time>
      </trkpt>
      <trkpt lat="45.95881" lon="4.77222">
        <ele>193</ele>
        <time>2017-06-07T10:14:02Z</time>
      </trkpt>
      <trkpt lat="45.95878" lon="4.77213">
        <ele>193</ele>
        <time>2017-06-07T10:14:03Z</time>
      </trkpt>
      <trkpt lat="45.95876" lon="4.77205">
        <ele>193</ele>
        <time>2017-06-07T10:14:04Z</time>
      </trkpt>
      <trkpt lat="45.95873" lon="4.77196">
        <ele>193</ele>
        <time>2017-06-07T10:14:05Z</time>
      </trkpt>
      <trkpt lat="45.95871" lon="4.77188">
        <ele>193</ele>
        <time>2017-06-07T10:14:06Z</time>
      </trkpt>
      <trkpt lat="45.95869" lon="4.77179">
        <ele>193</ele>
        <time>2017-06-07T10:14:07Z</time>
      </trkpt>
      <trkpt lat="45.95867" lon="4.77169">
        <ele>193</ele>
        <time>2017-06-07T10:14:08Z</time>
      </trkpt>
      <trkpt lat="45.95865" lon="4.77161">
        <ele>193</ele>
        <time>2017-06-07T10:14:09Z</time>
      </trkpt>
      <trkpt lat="45.95863" lon="4.77152">
        <ele>193</ele>
        <time>2017-06-07T10:14:10Z</time>
      </trkpt>
      <trkpt lat="45.95861" lon="4.77143">
        <ele>193</ele>
        <time>2017-06-07T10:14:11Z</time>
      </trkpt>
      <trkpt lat="45.95859" lon="4.77135">
        <ele>193</ele>
        <time>2017-06-07T10:14:12Z</time>
      </trkpt>
      <trkpt lat="45.95857" lon="4.77126">
        <ele>193</ele>
        <time>2017-06-07T10:14:13Z</time>
      </trkpt>
      <trkpt lat="45.95855" lon="4.77118">
        <ele>193</ele>
        <time>2017-06-07T10:14:14Z</time>
      </trkpt>
      <trkpt lat="45.95853" lon="4.7711">
        <ele>193</ele>
        <time>2017-06-07T10:14:15Z</time>
      </trkpt>
      <trkpt lat="45.95851" lon="4.77102">
        <ele>193</ele>
        <time>2017-06-07T10:14:16Z</time>
      </trkpt>
      <trkpt lat="45.95848" lon="4.77095">
        <ele>193</ele>
        <time>2017-06-07T10:14:17Z</time>
      </trkpt>
      <trkpt lat="45.95845" lon="4.77087">
        <ele>193</ele>
        <time>2017-06-07T10:14:18Z</time>
      </trkpt>
      <trkpt lat="45.95842" lon="4.77079">
        <ele>193</ele>
        <time>2017-06-07T10:14:19Z</time>
      </trkpt>
      <trkpt lat="45.9584" lon="4.77073">
        <ele>193</ele>
        <time>2017-06-07T10:14:20Z</time>
      </trkpt>
      <trkpt lat="45.95837" lon="4.77067">
        <ele>193</ele>
        <time>2017-06-07T10:14:21Z</time>
      </trkpt>
      <trkpt lat="45.95834" lon="4.77061">
        <ele>193</ele>
        <time>2017-06-07T10:14:22Z</time>
      </trkpt>
      <trkpt lat="45.95831" lon="4.77055">
        <ele>190</ele>
        <time>2017-06-07T10:14:23Z</time>
      </trkpt>
      <trkpt lat="45.95828" lon="4.77048">
        <ele>190</ele>
        <time>2017-06-07T10:14:24Z</time>
      </trkpt>
      <trkpt lat="45.95825" lon="4.77042">
        <ele>190</ele>
        <time>2017-06-07T10:14:25Z</time>
      </trkpt>
      <trkpt lat="45.95822" lon="4.77035">
        <ele>190</ele>
        <time>2017-06-07T10:14:26Z</time>
      </trkpt>
      <trkpt lat="45.95819" lon="4.77027">
        <ele>190</ele>
        <time>2017-06-07T10:14:27Z</time>
      </trkpt>
      <trkpt lat="45.95817" lon="4.77019">
        <ele>190</ele>
        <time>2017-06-07T10:14:28Z</time>
      </trkpt>
      <trkpt lat="45.95814" lon="4.77011">
        <ele>190</ele>
        <time>2017-06-07T10:14:29Z</time>
      </trkpt>
      <trkpt lat="45.95811" lon="4.77002">
        <ele>190</ele>
        <time>2017-06-07T10:14:30Z</time>
      </trkpt>
      <trkpt lat="45.9581" lon="4.76994">
        <ele>190</ele>
        <time>2017-06-07T10:14:31Z</time>
      </trkpt>
      <trkpt lat="45.9581" lon="4.76987">
        <ele>190</ele>
        <time>2017-06-07T10:14:32Z</time>
      </trkpt>
      <trkpt lat="45.95809" lon="4.76979">
        <ele>190</ele>
        <time>2017-06-07T10:14:33Z</time>
      </trkpt>
      <trkpt lat="45.95809" lon="4.76972">
        <ele>189</ele>
        <time>2017-06-07T10:14:34Z</time>
      </trkpt>
      <trkpt lat="45.9581" lon="4.76965">
        <ele>189</ele>
        <time>2017-06-07T10:14:35Z</time>
      </trkpt>
      <trkpt lat="45.95811" lon="4.76957">
        <ele>189</ele>
        <time>2017-06-07T10:14:36Z</time>
      </trkpt>
      <trkpt lat="45.95812" lon="4.76949">
        <ele>189</ele>
        <time>2017-06-07T10:14:37Z</time>
      </trkpt>
      <trkpt lat="45.95813" lon="4.76941">
        <ele>189</ele>
        <time>2017-06-07T10:14:38Z</time>
      </trkpt>
      <trkpt lat="45.95814" lon="4.76933">
        <ele>189</ele>
        <time>2017-06-07T10:14:39Z</time>
      </trkpt>
      <trkpt lat="45.95816" lon="4.76924">
        <ele>189</ele>
        <time>2017-06-07T10:14:40Z</time>
      </trkpt>
      <trkpt lat="45.95817" lon="4.76916">
        <ele>189</ele>
        <time>2017-06-07T10:14:41Z</time>
      </trkpt>
      <trkpt lat="45.95819" lon="4.76909">
        <ele>189</ele>
        <time>2017-06-07T10:14:42Z</time>
      </trkpt>
      <trkpt lat="45.9582" lon="4.76902">
        <ele>189</ele>
        <time>2017-06-07T10:14:43Z</time>
      </trkpt>
      <trkpt lat="45.95821" lon="4.76895">
        <ele>189</ele>
        <time>2017-06-07T10:14:44Z</time>
      </trkpt>
      <trkpt lat="45.95822" lon="4.76888">
        <ele>189</ele>
        <time>2017-06-07T10:14:45Z</time>
      </trkpt>
      <trkpt lat="45.95823" lon="4.7688">
        <ele>189</ele>
        <time>2017-06-07T10:14:46Z</time>
      </trkpt>
      <trkpt lat="45.95825" lon="4.76873">
        <ele>189</ele>
        <time>2017-06-07T10:14:47Z</time>
      </trkpt>
      <trkpt lat="45.95827" lon="4.76865">
        <ele>189</ele>
        <time>2017-06-07T10:14:48Z</time>
      </trkpt>
      <trkpt lat="45.95828" lon="4.76858">
        <ele>189</ele>
        <time>2017-06-07T10:14:49Z</time>
      </trkpt>
      <trkpt lat="45.95829" lon="4.76851">
        <ele>190</ele>
        <time>2017-06-07T10:14:50Z</time>
      </trkpt>
      <trkpt lat="45.9583" lon="4.76844">
        <ele>190</ele>
        <time>2017-06-07T10:14:51Z</time>
      </trkpt>
      <trkpt lat="45.95831" lon="4.76837">
        <ele>190</ele>
        <time>2017-06-07T10:14:52Z</time>
      </trkpt>
      <trkpt lat="45.95833" lon="4.76825">
        <ele>190</ele>
        <time>2017-06-07T10:14:54Z</time>
      </trkpt>
      <trkpt lat="45.95834" lon="4.76819">
        <ele>190</ele>
        <time>2017-06-07T10:14:55Z</time>
      </trkpt>
      <trkpt lat="45.95837" lon="4.76808">
        <ele>190</ele>
        <time>2017-06-07T10:14:58Z</time>
      </trkpt>
      <trkpt lat="45.95838" lon="4.76806">
        <ele>191</ele>
        <time>2017-06-07T10:14:59Z</time>
      </trkpt>
      <trkpt lat="45.95838" lon="4.76801">
        <ele>191</ele>
        <time>2017-06-07T10:15:08Z</time>
      </trkpt>
      <trkpt lat="45.95838" lon="4.768">
        <ele>191</ele>
        <time>2017-06-07T10:15:09Z</time>
      </trkpt>
      <trkpt lat="45.95839" lon="4.76797">
        <ele>191</ele>
        <time>2017-06-07T10:15:11Z</time>
      </trkpt>
      <trkpt lat="45.95839" lon="4.76795">
        <ele>191</ele>
        <time>2017-06-07T10:15:12Z</time>
      </trkpt>
      <trkpt lat="45.95837" lon="4.76784">
        <ele>191</ele>
        <time>2017-06-07T10:15:16Z</time>
      </trkpt>
      <trkpt lat="45.95836" lon="4.7678">
        <ele>191</ele>
        <time>2017-06-07T10:15:17Z</time>
      </trkpt>
      <trkpt lat="45.95833" lon="4.76772">
        <ele>190</ele>
        <time>2017-06-07T10:15:19Z</time>
      </trkpt>
      <trkpt lat="45.95832" lon="4.76765">
        <ele>190</ele>
        <time>2017-06-07T10:15:20Z</time>
      </trkpt>
      <trkpt lat="45.9583" lon="4.76758">
        <ele>191</ele>
        <time>2017-06-07T10:15:21Z</time>
      </trkpt>
      <trkpt lat="45.95829" lon="4.7675">
        <ele>191</ele>
        <time>2017-06-07T10:15:22Z</time>
      </trkpt>
      <trkpt lat="45.95828" lon="4.76741">
        <ele>190</ele>
        <time>2017-06-07T10:15:23Z</time>
      </trkpt>
      <trkpt lat="45.95826" lon="4.76733">
        <ele>190</ele>
        <time>2017-06-07T10:15:24Z</time>
      </trkpt>
      <trkpt lat="45.95825" lon="4.76725">
        <ele>190</ele>
        <time>2017-06-07T10:15:25Z</time>
      </trkpt>
      <trkpt lat="45.95824" lon="4.76717">
        <ele>189</ele>
        <time>2017-06-07T10:15:26Z</time>
      </trkpt>
      <trkpt lat="45.95823" lon="4.76709">
        <ele>189</ele>
        <time>2017-06-07T10:15:27Z</time>
      </trkpt>
      <trkpt lat="45.95823" lon="4.76702">
        <ele>189</ele>
        <time>2017-06-07T10:15:28Z</time>
      </trkpt>
      <trkpt lat="45.95821" lon="4.76695">
        <ele>189</ele>
        <time>2017-06-07T10:15:29Z</time>
      </trkpt>
      <trkpt lat="45.95819" lon="4.76688">
        <ele>189</ele>
        <time>2017-06-07T10:15:30Z</time>
      </trkpt>
      <trkpt lat="45.95817" lon="4.76681">
        <ele>189</ele>
        <time>2017-06-07T10:15:31Z</time>
      </trkpt>
      <trkpt lat="45.95816" lon="4.76673">
        <ele>189</ele>
        <time>2017-06-07T10:15:32Z</time>
      </trkpt>
      <trkpt lat="45.95815" lon="4.76667">
        <ele>188</ele>
        <time>2017-06-07T10:15:33Z</time>
      </trkpt>
      <trkpt lat="45.95814" lon="4.7666">
        <ele>188</ele>
        <time>2017-06-07T10:15:34Z</time>
      </trkpt>
      <trkpt lat="45.95814" lon="4.76652">
        <ele>188</ele>
        <time>2017-06-07T10:15:35Z</time>
      </trkpt>
      <trkpt lat="45.95814" lon="4.76645">
        <ele>188</ele>
        <time>2017-06-07T10:15:36Z</time>
      </trkpt>
      <trkpt lat="45.95813" lon="4.76638">
        <ele>188</ele>
        <time>2017-06-07T10:15:37Z</time>
      </trkpt>
      <trkpt lat="45.95813" lon="4.7663">
        <ele>188</ele>
        <time>2017-06-07T10:15:38Z</time>
      </trkpt>
      <trkpt lat="45.95812" lon="4.76622">
        <ele>188</ele>
        <time>2017-06-07T10:15:39Z</time>
      </trkpt>
      <trkpt lat="45.9581" lon="4.76614">
        <ele>188</ele>
        <time>2017-06-07T10:15:40Z</time>
      </trkpt>
      <trkpt lat="45.95809" lon="4.76605">
        <ele>188</ele>
        <time>2017-06-07T10:15:41Z</time>
      </trkpt>
      <trkpt lat="45.95808" lon="4.76597">
        <ele>188</ele>
        <time>2017-06-07T10:15:42Z</time>
      </trkpt>
      <trkpt lat="45.95807" lon="4.76588">
        <ele>188</ele>
        <time>2017-06-07T10:15:43Z</time>
      </trkpt>
      <trkpt lat="45.95805" lon="4.7658">
        <ele>187</ele>
        <time>2017-06-07T10:15:44Z</time>
      </trkpt>
      <trkpt lat="45.95804" lon="4.76572">
        <ele>187</ele>
        <time>2017-06-07T10:15:45Z</time>
      </trkpt>
      <trkpt lat="45.95803" lon="4.76564">
        <ele>187</ele>
        <time>2017-06-07T10:15:46Z</time>
      </trkpt>
      <trkpt lat="45.95802" lon="4.76557">
        <ele>187</ele>
        <time>2017-06-07T10:15:47Z</time>
      </trkpt>
      <trkpt lat="45.95801" lon="4.76549">
        <ele>187</ele>
        <time>2017-06-07T10:15:48Z</time>
      </trkpt>
      <trkpt lat="45.958" lon="4.76541">
        <ele>187</ele>
        <time>2017-06-07T10:15:49Z</time>
      </trkpt>
      <trkpt lat="45.95798" lon="4.76534">
        <ele>187</ele>
        <time>2017-06-07T10:15:50Z</time>
      </trkpt>
      <trkpt lat="45.95797" lon="4.76526">
        <ele>187</ele>
        <time>2017-06-07T10:15:51Z</time>
      </trkpt>
      <trkpt lat="45.95796" lon="4.76518">
        <ele>187</ele>
        <time>2017-06-07T10:15:52Z</time>
      </trkpt>
      <trkpt lat="45.95794" lon="4.76511">
        <ele>187</ele>
        <time>2017-06-07T10:15:53Z</time>
      </trkpt>
      <trkpt lat="45.95793" lon="4.76503">
        <ele>187</ele>
        <time>2017-06-07T10:15:54Z</time>
      </trkpt>
      <trkpt lat="45.95791" lon="4.76495">
        <ele>186</ele>
        <time>2017-06-07T10:15:55Z</time>
      </trkpt>
      <trkpt lat="45.9579" lon="4.76487">
        <ele>186</ele>
        <time>2017-06-07T10:15:56Z</time>
      </trkpt>
      <trkpt lat="45.95789" lon="4.7648">
        <ele>186</ele>
        <time>2017-06-07T10:15:57Z</time>
      </trkpt>
      <trkpt lat="45.95787" lon="4.76472">
        <ele>186</ele>
        <time>2017-06-07T10:15:58Z</time>
      </trkpt>
      <trkpt lat="45.95786" lon="4.76465">
        <ele>186</ele>
        <time>2017-06-07T10:15:59Z</time>
      </trkpt>
      <trkpt lat="45.95785" lon="4.76457">
        <ele>186</ele>
        <time>2017-06-07T10:16:00Z</time>
      </trkpt>
      <trkpt lat="45.95784" lon="4.7645">
        <ele>186</ele>
        <time>2017-06-07T10:16:01Z</time>
      </trkpt>
      <trkpt lat="45.95784" lon="4.76442">
        <ele>186</ele>
        <time>2017-06-07T10:16:02Z</time>
      </trkpt>
      <trkpt lat="45.95782" lon="4.76435">
        <ele>186</ele>
        <time>2017-06-07T10:16:03Z</time>
      </trkpt>
      <trkpt lat="45.95781" lon="4.76427">
        <ele>186</ele>
        <time>2017-06-07T10:16:04Z</time>
      </trkpt>
      <trkpt lat="45.95781" lon="4.7642">
        <ele>186</ele>
        <time>2017-06-07T10:16:05Z</time>
      </trkpt>
      <trkpt lat="45.9578" lon="4.76413">
        <ele>186</ele>
        <time>2017-06-07T10:16:06Z</time>
      </trkpt>
      <trkpt lat="45.95779" lon="4.76405">
        <ele>186</ele>
        <time>2017-06-07T10:16:07Z</time>
      </trkpt>
      <trkpt lat="45.95778" lon="4.76398">
        <ele>186</ele>
        <time>2017-06-07T10:16:08Z</time>
      </trkpt>
      <trkpt lat="45.95778" lon="4.7639">
        <ele>186</ele>
        <time>2017-06-07T10:16:09Z</time>
      </trkpt>
      <trkpt lat="45.95777" lon="4.76383">
        <ele>186</ele>
        <time>2017-06-07T10:16:10Z</time>
      </trkpt>
      <trkpt lat="45.95777" lon="4.76375">
        <ele>186</ele>
        <time>2017-06-07T10:16:11Z</time>
      </trkpt>
      <trkpt lat="45.95776" lon="4.76367">
        <ele>186</ele>
        <time>2017-06-07T10:16:12Z</time>
      </trkpt>
      <trkpt lat="45.95776" lon="4.7636">
        <ele>186</ele>
        <time>2017-06-07T10:16:13Z</time>
      </trkpt>
      <trkpt lat="45.95775" lon="4.76352">
        <ele>186</ele>
        <time>2017-06-07T10:16:14Z</time>
      </trkpt>
      <trkpt lat="45.95775" lon="4.76344">
        <ele>186</ele>
        <time>2017-06-07T10:16:15Z</time>
      </trkpt>
      <trkpt lat="45.95774" lon="4.76335">
        <ele>186</ele>
        <time>2017-06-07T10:16:16Z</time>
      </trkpt>
      <trkpt lat="45.95774" lon="4.76327">
        <ele>185</ele>
        <time>2017-06-07T10:16:17Z</time>
      </trkpt>
      <trkpt lat="45.95774" lon="4.76319">
        <ele>185</ele>
        <time>2017-06-07T10:16:18Z</time>
      </trkpt>
      <trkpt lat="45.95773" lon="4.76311">
        <ele>186</ele>
        <time>2017-06-07T10:16:19Z</time>
      </trkpt>
      <trkpt lat="45.95773" lon="4.76303">
        <ele>186</ele>
        <time>2017-06-07T10:16:20Z</time>
      </trkpt>
      <trkpt lat="45.95772" lon="4.76296">
        <ele>186</ele>
        <time>2017-06-07T10:16:21Z</time>
      </trkpt>
      <trkpt lat="45.95772" lon="4.76288">
        <ele>186</ele>
        <time>2017-06-07T10:16:22Z</time>
      </trkpt>
      <trkpt lat="45.95771" lon="4.76281">
        <ele>186</ele>
        <time>2017-06-07T10:16:23Z</time>
      </trkpt>
      <trkpt lat="45.9577" lon="4.76273">
        <ele>186</ele>
        <time>2017-06-07T10:16:24Z</time>
      </trkpt>
      <trkpt lat="45.9577" lon="4.76265">
        <ele>186</ele>
        <time>2017-06-07T10:16:25Z</time>
      </trkpt>
      <trkpt lat="45.95769" lon="4.76258">
        <ele>185</ele>
        <time>2017-06-07T10:16:26Z</time>
      </trkpt>
      <trkpt lat="45.95769" lon="4.7625">
        <ele>186</ele>
        <time>2017-06-07T10:16:27Z</time>
      </trkpt>
      <trkpt lat="45.95768" lon="4.76242">
        <ele>186</ele>
        <time>2017-06-07T10:16:28Z</time>
      </trkpt>
      <trkpt lat="45.95768" lon="4.76234">
        <ele>186</ele>
        <time>2017-06-07T10:16:29Z</time>
      </trkpt>
      <trkpt lat="45.95768" lon="4.76226">
        <ele>186</ele>
        <time>2017-06-07T10:16:30Z</time>
      </trkpt>
      <trkpt lat="45.95767" lon="4.76218">
        <ele>186</ele>
        <time>2017-06-07T10:16:31Z</time>
      </trkpt>
      <trkpt lat="45.95766" lon="4.76209">
        <ele>186</ele>
        <time>2017-06-07T10:16:32Z</time>
      </trkpt>
      <trkpt lat="45.95766" lon="4.762">
        <ele>186</ele>
        <time>2017-06-07T10:16:33Z</time>
      </trkpt>
      <trkpt lat="45.95765" lon="4.7619">
        <ele>186</ele>
        <time>2017-06-07T10:16:34Z</time>
      </trkpt>
      <trkpt lat="45.95765" lon="4.76181">
        <ele>186</ele>
        <time>2017-06-07T10:16:35Z</time>
      </trkpt>
      <trkpt lat="45.95764" lon="4.76172">
        <ele>185</ele>
        <time>2017-06-07T10:16:36Z</time>
      </trkpt>
      <trkpt lat="45.95763" lon="4.76163">
        <ele>186</ele>
        <time>2017-06-07T10:16:37Z</time>
      </trkpt>
      <trkpt lat="45.95763" lon="4.76154">
        <ele>186</ele>
        <time>2017-06-07T10:16:38Z</time>
      </trkpt>
      <trkpt lat="45.95762" lon="4.76144">
        <ele>186</ele>
        <time>2017-06-07T10:16:39Z</time>
      </trkpt>
      <trkpt lat="45.95761" lon="4.76135">
        <ele>186</ele>
        <time>2017-06-07T10:16:40Z</time>
      </trkpt>
      <trkpt lat="45.9576" lon="4.76125">
        <ele>186</ele>
        <time>2017-06-07T10:16:41Z</time>
      </trkpt>
      <trkpt lat="45.95759" lon="4.76116">
        <ele>186</ele>
        <time>2017-06-07T10:16:42Z</time>
      </trkpt>
      <trkpt lat="45.95758" lon="4.76106">
        <ele>186</ele>
        <time>2017-06-07T10:16:43Z</time>
      </trkpt>
      <trkpt lat="45.95756" lon="4.76098">
        <ele>186</ele>
        <time>2017-06-07T10:16:44Z</time>
      </trkpt>
      <trkpt lat="45.95754" lon="4.76089">
        <ele>185</ele>
        <time>2017-06-07T10:16:45Z</time>
      </trkpt>
      <trkpt lat="45.95752" lon="4.76081">
        <ele>185</ele>
        <time>2017-06-07T10:16:46Z</time>
      </trkpt>
      <trkpt lat="45.9575" lon="4.76073">
        <ele>185</ele>
        <time>2017-06-07T10:16:47Z</time>
      </trkpt>
      <trkpt lat="45.95747" lon="4.76066">
        <ele>185</ele>
        <time>2017-06-07T10:16:48Z</time>
      </trkpt>
      <trkpt lat="45.95744" lon="4.76059">
        <ele>184</ele>
        <time>2017-06-07T10:16:49Z</time>
      </trkpt>
      <trkpt lat="45.95741" lon="4.76052">
        <ele>184</ele>
        <time>2017-06-07T10:16:50Z</time>
      </trkpt>
      <trkpt lat="45.95738" lon="4.76045">
        <ele>184</ele>
        <time>2017-06-07T10:16:51Z</time>
      </trkpt>
      <trkpt lat="45.95734" lon="4.76039">
        <ele>184</ele>
        <time>2017-06-07T10:16:52Z</time>
      </trkpt>
      <trkpt lat="45.95731" lon="4.76033">
        <ele>184</ele>
        <time>2017-06-07T10:16:53Z</time>
      </trkpt>
      <trkpt lat="45.95728" lon="4.76026">
        <ele>184</ele>
        <time>2017-06-07T10:16:54Z</time>
      </trkpt>
      <trkpt lat="45.95725" lon="4.7602">
        <ele>185</ele>
        <time>2017-06-07T10:16:55Z</time>
      </trkpt>
      <trkpt lat="45.95722" lon="4.76013">
        <ele>185</ele>
        <time>2017-06-07T10:16:56Z</time>
      </trkpt>
      <trkpt lat="45.95719" lon="4.76007">
        <ele>184</ele>
        <time>2017-06-07T10:16:57Z</time>
      </trkpt>
      <trkpt lat="45.95715" lon="4.76">
        <ele>185</ele>
        <time>2017-06-07T10:16:58Z</time>
      </trkpt>
      <trkpt lat="45.95712" lon="4.75993">
        <ele>185</ele>
        <time>2017-06-07T10:16:59Z</time>
      </trkpt>
      <trkpt lat="45.95708" lon="4.75986">
        <ele>185</ele>
        <time>2017-06-07T10:17:00Z</time>
      </trkpt>
      <trkpt lat="45.95705" lon="4.75979">
        <ele>185</ele>
        <time>2017-06-07T10:17:01Z</time>
      </trkpt>
      <trkpt lat="45.95703" lon="4.75973">
        <ele>185</ele>
        <time>2017-06-07T10:17:02Z</time>
      </trkpt>
      <trkpt lat="45.957" lon="4.75966">
        <ele>185</ele>
        <time>2017-06-07T10:17:03Z</time>
      </trkpt>
      <trkpt lat="45.95697" lon="4.7596">
        <ele>185</ele>
        <time>2017-06-07T10:17:04Z</time>
      </trkpt>
      <trkpt lat="45.95695" lon="4.75954">
        <ele>185</ele>
        <time>2017-06-07T10:17:05Z</time>
      </trkpt>
      <trkpt lat="45.95692" lon="4.75948">
        <ele>185</ele>
        <time>2017-06-07T10:17:06Z</time>
      </trkpt>
      <trkpt lat="45.9569" lon="4.75942">
        <ele>185</ele>
        <time>2017-06-07T10:17:07Z</time>
      </trkpt>
      <trkpt lat="45.95687" lon="4.75936">
        <ele>185</ele>
        <time>2017-06-07T10:17:08Z</time>
      </trkpt>
      <trkpt lat="45.95684" lon="4.75929">
        <ele>185</ele>
        <time>2017-06-07T10:17:09Z</time>
      </trkpt>
      <trkpt lat="45.95681" lon="4.75922">
        <ele>185</ele>
        <time>2017-06-07T10:17:10Z</time>
      </trkpt>
      <trkpt lat="45.95678" lon="4.75914">
        <ele>185</ele>
        <time>2017-06-07T10:17:11Z</time>
      </trkpt>
      <trkpt lat="45.95674" lon="4.75905">
        <ele>185</ele>
        <time>2017-06-07T10:17:12Z</time>
      </trkpt>
      <trkpt lat="45.95672" lon="4.75897">
        <ele>185</ele>
        <time>2017-06-07T10:17:13Z</time>
      </trkpt>
      <trkpt lat="45.95668" lon="4.7589">
        <ele>186</ele>
        <time>2017-06-07T10:17:14Z</time>
      </trkpt>
      <trkpt lat="45.95665" lon="4.75883">
        <ele>184</ele>
        <time>2017-06-07T10:17:15Z</time>
      </trkpt>
      <trkpt lat="45.95663" lon="4.75875">
        <ele>184</ele>
        <time>2017-06-07T10:17:16Z</time>
      </trkpt>
      <trkpt lat="45.95661" lon="4.75869">
        <ele>184</ele>
        <time>2017-06-07T10:17:17Z</time>
      </trkpt>
      <trkpt lat="45.95659" lon="4.75862">
        <ele>184</ele>
        <time>2017-06-07T10:17:18Z</time>
      </trkpt>
      <trkpt lat="45.95657" lon="4.75856">
        <ele>184</ele>
        <time>2017-06-07T10:17:19Z</time>
      </trkpt>
      <trkpt lat="45.95655" lon="4.7585">
        <ele>185</ele>
        <time>2017-06-07T10:17:20Z</time>
      </trkpt>
      <trkpt lat="45.95653" lon="4.75843">
        <ele>185</ele>
        <time>2017-06-07T10:17:21Z</time>
      </trkpt>
      <trkpt lat="45.95651" lon="4.75837">
        <ele>185</ele>
        <time>2017-06-07T10:17:22Z</time>
      </trkpt>
      <trkpt lat="45.9565" lon="4.75831">
        <ele>185</ele>
        <time>2017-06-07T10:17:23Z</time>
      </trkpt>
      <trkpt lat="45.95648" lon="4.75824">
        <ele>185</ele>
        <time>2017-06-07T10:17:24Z</time>
      </trkpt>
      <trkpt lat="45.95646" lon="4.75817">
        <ele>185</ele>
        <time>2017-06-07T10:17:25Z</time>
      </trkpt>
      <trkpt lat="45.95646" lon="4.7581">
        <ele>185</ele>
        <time>2017-06-07T10:17:26Z</time>
      </trkpt>
      <trkpt lat="45.95645" lon="4.75804">
        <ele>185</ele>
        <time>2017-06-07T10:17:27Z</time>
      </trkpt>
      <trkpt lat="45.95643" lon="4.75797">
        <ele>185</ele>
        <time>2017-06-07T10:17:28Z</time>
      </trkpt>
      <trkpt lat="45.95642" lon="4.7579">
        <ele>185</ele>
        <time>2017-06-07T10:17:29Z</time>
      </trkpt>
      <trkpt lat="45.95642" lon="4.75783">
        <ele>186</ele>
        <time>2017-06-07T10:17:30Z</time>
      </trkpt>
      <trkpt lat="45.95641" lon="4.75776">
        <ele>186</ele>
        <time>2017-06-07T10:17:31Z</time>
      </trkpt>
      <trkpt lat="45.9564" lon="4.7577">
        <ele>186</ele>
        <time>2017-06-07T10:17:32Z</time>
      </trkpt>
      <trkpt lat="45.95639" lon="4.75758">
        <ele>186</ele>
        <time>2017-06-07T10:17:34Z</time>
      </trkpt>
      <trkpt lat="45.95638" lon="4.75752">
        <ele>186</ele>
        <time>2017-06-07T10:17:35Z</time>
      </trkpt>
      <trkpt lat="45.95637" lon="4.75746">
        <ele>187</ele>
        <time>2017-06-07T10:17:36Z</time>
      </trkpt>
      <trkpt lat="45.95636" lon="4.75739">
        <ele>187</ele>
        <time>2017-06-07T10:17:37Z</time>
      </trkpt>
      <trkpt lat="45.95635" lon="4.75733">
        <ele>187</ele>
        <time>2017-06-07T10:17:38Z</time>
      </trkpt>
      <trkpt lat="45.95634" lon="4.75726">
        <ele>187</ele>
        <time>2017-06-07T10:17:39Z</time>
      </trkpt>
      <trkpt lat="45.95633" lon="4.75718">
        <ele>187</ele>
        <time>2017-06-07T10:17:40Z</time>
      </trkpt>
      <trkpt lat="45.95631" lon="4.75711">
        <ele>187</ele>
        <time>2017-06-07T10:17:41Z</time>
      </trkpt>
      <trkpt lat="45.9563" lon="4.75703">
        <ele>187</ele>
        <time>2017-06-07T10:17:42Z</time>
      </trkpt>
      <trkpt lat="45.95629" lon="4.75695">
        <ele>187</ele>
        <time>2017-06-07T10:17:43Z</time>
      </trkpt>
      <trkpt lat="45.95628" lon="4.75688">
        <ele>187</ele>
        <time>2017-06-07T10:17:44Z</time>
      </trkpt>
      <trkpt lat="45.95627" lon="4.7568">
        <ele>187</ele>
        <time>2017-06-07T10:17:45Z</time>
      </trkpt>
      <trkpt lat="45.95625" lon="4.75672">
        <ele>187</ele>
        <time>2017-06-07T10:17:46Z</time>
      </trkpt>
      <trkpt lat="45.95624" lon="4.75664">
        <ele>188</ele>
        <time>2017-06-07T10:17:47Z</time>
      </trkpt>
      <trkpt lat="45.95622" lon="4.75656">
        <ele>188</ele>
        <time>2017-06-07T10:17:48Z</time>
      </trkpt>
      <trkpt lat="45.95621" lon="4.75649">
        <ele>188</ele>
        <time>2017-06-07T10:17:49Z</time>
      </trkpt>
      <trkpt lat="45.95619" lon="4.75641">
        <ele>188</ele>
        <time>2017-06-07T10:17:50Z</time>
      </trkpt>
      <trkpt lat="45.95617" lon="4.75634">
        <ele>188</ele>
        <time>2017-06-07T10:17:51Z</time>
      </trkpt>
      <trkpt lat="45.95615" lon="4.75627">
        <ele>188</ele>
        <time>2017-06-07T10:17:52Z</time>
      </trkpt>
      <trkpt lat="45.95613" lon="4.7562">
        <ele>188</ele>
        <time>2017-06-07T10:17:53Z</time>
      </trkpt>
      <trkpt lat="45.95611" lon="4.75613">
        <ele>188</ele>
        <time>2017-06-07T10:17:54Z</time>
      </trkpt>
      <trkpt lat="45.95609" lon="4.75607">
        <ele>188</ele>
        <time>2017-06-07T10:17:55Z</time>
      </trkpt>
      <trkpt lat="45.95606" lon="4.75601">
        <ele>187</ele>
        <time>2017-06-07T10:17:56Z</time>
      </trkpt>
      <trkpt lat="45.95604" lon="4.75595">
        <ele>187</ele>
        <time>2017-06-07T10:17:57Z</time>
      </trkpt>
      <trkpt lat="45.95601" lon="4.75589">
        <ele>187</ele>
        <time>2017-06-07T10:17:58Z</time>
      </trkpt>
      <trkpt lat="45.95599" lon="4.75583">
        <ele>188</ele>
        <time>2017-06-07T10:17:59Z</time>
      </trkpt>
      <trkpt lat="45.95596" lon="4.75577">
        <ele>188</ele>
        <time>2017-06-07T10:18:00Z</time>
      </trkpt>
      <trkpt lat="45.95593" lon="4.75572">
        <ele>188</ele>
        <time>2017-06-07T10:18:01Z</time>
      </trkpt>
      <trkpt lat="45.9559" lon="4.75566">
        <ele>188</ele>
        <time>2017-06-07T10:18:02Z</time>
      </trkpt>
      <trkpt lat="45.95587" lon="4.7556">
        <ele>188</ele>
        <time>2017-06-07T10:18:03Z</time>
      </trkpt>
      <trkpt lat="45.95584" lon="4.75555">
        <ele>188</ele>
        <time>2017-06-07T10:18:04Z</time>
      </trkpt>
      <trkpt lat="45.9558" lon="4.7555">
        <ele>186</ele>
        <time>2017-06-07T10:18:05Z</time>
      </trkpt>
      <trkpt lat="45.95575" lon="4.75546">
        <ele>186</ele>
        <time>2017-06-07T10:18:06Z</time>
      </trkpt>
      <trkpt lat="45.95571" lon="4.75541">
        <ele>186</ele>
        <time>2017-06-07T10:18:07Z</time>
      </trkpt>
      <trkpt lat="45.95566" lon="4.75537">
        <ele>186</ele>
        <time>2017-06-07T10:18:08Z</time>
      </trkpt>
      <trkpt lat="45.95562" lon="4.75532">
        <ele>186</ele>
        <time>2017-06-07T10:18:09Z</time>
      </trkpt>
      <trkpt lat="45.95558" lon="4.75527">
        <ele>186</ele>
        <time>2017-06-07T10:18:10Z</time>
      </trkpt>
      <trkpt lat="45.95554" lon="4.75521">
        <ele>186</ele>
        <time>2017-06-07T10:18:11Z</time>
      </trkpt>
      <trkpt lat="45.95551" lon="4.75515">
        <ele>186</ele>
        <time>2017-06-07T10:18:12Z</time>
      </trkpt>
      <trkpt lat="45.95547" lon="4.75509">
        <ele>186</ele>
        <time>2017-06-07T10:18:13Z</time>
      </trkpt>
      <trkpt lat="45.95544" lon="4.75503">
        <ele>186</ele>
        <time>2017-06-07T10:18:14Z</time>
      </trkpt>
      <trkpt lat="45.95541" lon="4.75496">
        <ele>187</ele>
        <time>2017-06-07T10:18:15Z</time>
      </trkpt>
      <trkpt lat="45.95541" lon="4.7549">
        <ele>187</ele>
        <time>2017-06-07T10:18:16Z</time>
      </trkpt>
      <trkpt lat="45.95541" lon="4.75483">
        <ele>187</ele>
        <time>2017-06-07T10:18:17Z</time>
      </trkpt>
      <trkpt lat="45.95541" lon="4.75477">
        <ele>187</ele>
        <time>2017-06-07T10:18:18Z</time>
      </trkpt>
      <trkpt lat="45.9554" lon="4.7547">
        <ele>187</ele>
        <time>2017-06-07T10:18:19Z</time>
      </trkpt>
      <trkpt lat="45.95539" lon="4.75463">
        <ele>187</ele>
        <time>2017-06-07T10:18:20Z</time>
      </trkpt>
      <trkpt lat="45.95536" lon="4.75457">
        <ele>187</ele>
        <time>2017-06-07T10:18:21Z</time>
      </trkpt>
      <trkpt lat="45.95532" lon="4.75452">
        <ele>187</ele>
        <time>2017-06-07T10:18:22Z</time>
      </trkpt>
      <trkpt lat="45.95527" lon="4.75447">
        <ele>187</ele>
        <time>2017-06-07T10:18:23Z</time>
      </trkpt>
      <trkpt lat="45.95523" lon="4.75442">
        <ele>187</ele>
        <time>2017-06-07T10:18:24Z</time>
      </trkpt>
      <trkpt lat="45.95519" lon="4.75435">
        <ele>187</ele>
        <time>2017-06-07T10:18:25Z</time>
      </trkpt>
      <trkpt lat="45.95516" lon="4.75429">
        <ele>186</ele>
        <time>2017-06-07T10:18:26Z</time>
      </trkpt>
      <trkpt lat="45.95514" lon="4.75422">
        <ele>186</ele>
        <time>2017-06-07T10:18:27Z</time>
      </trkpt>
      <trkpt lat="45.95512" lon="4.75415">
        <ele>187</ele>
        <time>2017-06-07T10:18:28Z</time>
      </trkpt>
      <trkpt lat="45.95509" lon="4.75409">
        <ele>187</ele>
        <time>2017-06-07T10:18:29Z</time>
      </trkpt>
      <trkpt lat="45.95507" lon="4.75403">
        <ele>187</ele>
        <time>2017-06-07T10:18:30Z</time>
      </trkpt>
      <trkpt lat="45.95505" lon="4.75396">
        <ele>188</ele>
        <time>2017-06-07T10:18:31Z</time>
      </trkpt>
      <trkpt lat="45.95502" lon="4.7539">
        <ele>188</ele>
        <time>2017-06-07T10:18:32Z</time>
      </trkpt>
      <trkpt lat="45.95499" lon="4.75383">
        <ele>185</ele>
        <time>2017-06-07T10:18:33Z</time>
      </trkpt>
      <trkpt lat="45.95496" lon="4.75377">
        <ele>185</ele>
        <time>2017-06-07T10:18:34Z</time>
      </trkpt>
      <trkpt lat="45.95494" lon="4.75371">
        <ele>186</ele>
        <time>2017-06-07T10:18:35Z</time>
      </trkpt>
      <trkpt lat="45.95492" lon="4.75364">
        <ele>186</ele>
        <time>2017-06-07T10:18:36Z</time>
      </trkpt>
      <trkpt lat="45.95488" lon="4.75359">
        <ele>186</ele>
        <time>2017-06-07T10:18:37Z</time>
      </trkpt>
      <trkpt lat="45.95486" lon="4.75353">
        <ele>186</ele>
        <time>2017-06-07T10:18:38Z</time>
      </trkpt>
      <trkpt lat="45.95483" lon="4.75347">
        <ele>186</ele>
        <time>2017-06-07T10:18:39Z</time>
      </trkpt>
      <trkpt lat="45.9548" lon="4.75342">
        <ele>186</ele>
        <time>2017-06-07T10:18:40Z</time>
      </trkpt>
      <trkpt lat="45.95477" lon="4.75336">
        <ele>186</ele>
        <time>2017-06-07T10:18:41Z</time>
      </trkpt>
      <trkpt lat="45.95474" lon="4.7533">
        <ele>188</ele>
        <time>2017-06-07T10:18:42Z</time>
      </trkpt>
      <trkpt lat="45.95471" lon="4.75324">
        <ele>188</ele>
        <time>2017-06-07T10:18:43Z</time>
      </trkpt>
      <trkpt lat="45.95468" lon="4.75317">
        <ele>188</ele>
        <time>2017-06-07T10:18:44Z</time>
      </trkpt>
      <trkpt lat="45.95465" lon="4.7531">
        <ele>188</ele>
        <time>2017-06-07T10:18:45Z</time>
      </trkpt>
      <trkpt lat="45.95461" lon="4.75303">
        <ele>188</ele>
        <time>2017-06-07T10:18:46Z</time>
      </trkpt>
      <trkpt lat="45.95458" lon="4.75296">
        <ele>188</ele>
        <time>2017-06-07T10:18:47Z</time>
      </trkpt>
      <trkpt lat="45.95455" lon="4.75289">
        <ele>188</ele>
        <time>2017-06-07T10:18:48Z</time>
      </trkpt>
      <trkpt lat="45.95451" lon="4.75283">
        <ele>189</ele>
        <time>2017-06-07T10:18:49Z</time>
      </trkpt>
      <trkpt lat="45.95449" lon="4.75277">
        <ele>189</ele>
        <time>2017-06-07T10:18:50Z</time>
      </trkpt>
      <trkpt lat="45.95446" lon="4.7527">
        <ele>189</ele>
        <time>2017-06-07T10:18:51Z</time>
      </trkpt>
      <trkpt lat="45.95444" lon="4.75265">
        <ele>189</ele>
        <time>2017-06-07T10:18:52Z</time>
      </trkpt>
      <trkpt lat="45.95441" lon="4.7526">
        <ele>189</ele>
        <time>2017-06-07T10:18:53Z</time>
      </trkpt>
      <trkpt lat="45.95436" lon="4.7525">
        <ele>191</ele>
        <time>2017-06-07T10:18:55Z</time>
      </trkpt>
      <trkpt lat="45.95433" lon="4.75244">
        <ele>190</ele>
        <time>2017-06-07T10:18:56Z</time>
      </trkpt>
      <trkpt lat="45.95431" lon="4.75238">
        <ele>190</ele>
        <time>2017-06-07T10:18:57Z</time>
      </trkpt>
      <trkpt lat="45.95428" lon="4.75231">
        <ele>191</ele>
        <time>2017-06-07T10:18:58Z</time>
      </trkpt>
      <trkpt lat="45.95425" lon="4.75224">
        <ele>191</ele>
        <time>2017-06-07T10:18:59Z</time>
      </trkpt>
      <trkpt lat="45.95421" lon="4.75218">
        <ele>191</ele>
        <time>2017-06-07T10:19:00Z</time>
      </trkpt>
      <trkpt lat="45.95417" lon="4.75212">
        <ele>191</ele>
        <time>2017-06-07T10:19:01Z</time>
      </trkpt>
      <trkpt lat="45.95413" lon="4.75206">
        <ele>189</ele>
        <time>2017-06-07T10:19:02Z</time>
      </trkpt>
      <trkpt lat="45.95409" lon="4.752">
        <ele>189</ele>
        <time>2017-06-07T10:19:03Z</time>
      </trkpt>
      <trkpt lat="45.95406" lon="4.75195">
        <ele>189</ele>
        <time>2017-06-07T10:19:04Z</time>
      </trkpt>
      <trkpt lat="45.95403" lon="4.7519">
        <ele>189</ele>
        <time>2017-06-07T10:19:05Z</time>
      </trkpt>
      <trkpt lat="45.95399" lon="4.75185">
        <ele>189</ele>
        <time>2017-06-07T10:19:06Z</time>
      </trkpt>
      <trkpt lat="45.95393" lon="4.75175">
        <ele>189</ele>
        <time>2017-06-07T10:19:08Z</time>
      </trkpt>
      <trkpt lat="45.9539" lon="4.75171">
        <ele>189</ele>
        <time>2017-06-07T10:19:09Z</time>
      </trkpt>
      <trkpt lat="45.95384" lon="4.75162">
        <ele>191</ele>
        <time>2017-06-07T10:19:11Z</time>
      </trkpt>
      <trkpt lat="45.95382" lon="4.75157">
        <ele>191</ele>
        <time>2017-06-07T10:19:12Z</time>
      </trkpt>
      <trkpt lat="45.95378" lon="4.75152">
        <ele>191</ele>
        <time>2017-06-07T10:19:13Z</time>
      </trkpt>
      <trkpt lat="45.95374" lon="4.75147">
        <ele>191</ele>
        <time>2017-06-07T10:19:14Z</time>
      </trkpt>
      <trkpt lat="45.95372" lon="4.75142">
        <ele>191</ele>
        <time>2017-06-07T10:19:15Z</time>
      </trkpt>
      <trkpt lat="45.95368" lon="4.75138">
        <ele>191</ele>
        <time>2017-06-07T10:19:16Z</time>
      </trkpt>
      <trkpt lat="45.95363" lon="4.75128">
        <ele>191</ele>
        <time>2017-06-07T10:19:18Z</time>
      </trkpt>
      <trkpt lat="45.9536" lon="4.75123">
        <ele>191</ele>
        <time>2017-06-07T10:19:19Z</time>
      </trkpt>
      <trkpt lat="45.95354" lon="4.75114">
        <ele>192</ele>
        <time>2017-06-07T10:19:21Z</time>
      </trkpt>
      <trkpt lat="45.95351" lon="4.75109">
        <ele>192</ele>
        <time>2017-06-07T10:19:22Z</time>
      </trkpt>
      <trkpt lat="45.95345" lon="4.751">
        <ele>192</ele>
        <time>2017-06-07T10:19:24Z</time>
      </trkpt>
      <trkpt lat="45.95342" lon="4.75095">
        <ele>192</ele>
        <time>2017-06-07T10:19:25Z</time>
      </trkpt>
      <trkpt lat="45.95339" lon="4.7509">
        <ele>193</ele>
        <time>2017-06-07T10:19:26Z</time>
      </trkpt>
      <trkpt lat="45.95336" lon="4.75085">
        <ele>193</ele>
        <time>2017-06-07T10:19:27Z</time>
      </trkpt>
      <trkpt lat="45.95332" lon="4.7508">
        <ele>193</ele>
        <time>2017-06-07T10:19:28Z</time>
      </trkpt>
      <trkpt lat="45.95329" lon="4.75075">
        <ele>192</ele>
        <time>2017-06-07T10:19:29Z</time>
      </trkpt>
      <trkpt lat="45.95326" lon="4.7507">
        <ele>192</ele>
        <time>2017-06-07T10:19:30Z</time>
      </trkpt>
      <trkpt lat="45.95323" lon="4.75065">
        <ele>192</ele>
        <time>2017-06-07T10:19:31Z</time>
      </trkpt>
      <trkpt lat="45.95319" lon="4.7506">
        <ele>192</ele>
        <time>2017-06-07T10:19:32Z</time>
      </trkpt>
      <trkpt lat="45.95316" lon="4.75056">
        <ele>192</ele>
        <time>2017-06-07T10:19:33Z</time>
      </trkpt>
      <trkpt lat="45.95313" lon="4.75051">
        <ele>192</ele>
        <time>2017-06-07T10:19:34Z</time>
      </trkpt>
      <trkpt lat="45.9531" lon="4.75046">
        <ele>192</ele>
        <time>2017-06-07T10:19:35Z</time>
      </trkpt>
      <trkpt lat="45.95307" lon="4.75041">
        <ele>192</ele>
        <time>2017-06-07T10:19:36Z</time>
      </trkpt>
      <trkpt lat="45.95303" lon="4.75036">
        <ele>192</ele>
        <time>2017-06-07T10:19:37Z</time>
      </trkpt>
      <trkpt lat="45.953" lon="4.7503">
        <ele>192</ele>
        <time>2017-06-07T10:19:38Z</time>
      </trkpt>
      <trkpt lat="45.95296" lon="4.75025">
        <ele>191</ele>
        <time>2017-06-07T10:19:39Z</time>
      </trkpt>
      <trkpt lat="45.9529" lon="4.75017">
        <ele>191</ele>
        <time>2017-06-07T10:19:41Z</time>
      </trkpt>
      <trkpt lat="45.95288" lon="4.75012">
        <ele>191</ele>
        <time>2017-06-07T10:19:42Z</time>
      </trkpt>
      <trkpt lat="45.95282" lon="4.75003">
        <ele>191</ele>
        <time>2017-06-07T10:19:44Z</time>
      </trkpt>
      <trkpt lat="45.95279" lon="4.74998">
        <ele>192</ele>
        <time>2017-06-07T10:19:45Z</time>
      </trkpt>
      <trkpt lat="45.95273" lon="4.74989">
        <ele>192</ele>
        <time>2017-06-07T10:19:47Z</time>
      </trkpt>
      <trkpt lat="45.9527" lon="4.74984">
        <ele>192</ele>
        <time>2017-06-07T10:19:48Z</time>
      </trkpt>
      <trkpt lat="45.95267" lon="4.74979">
        <ele>192</ele>
        <time>2017-06-07T10:19:49Z</time>
      </trkpt>
      <trkpt lat="45.95263" lon="4.74974">
        <ele>192</ele>
        <time>2017-06-07T10:19:50Z</time>
      </trkpt>
      <trkpt lat="45.95258" lon="4.74965">
        <ele>192</ele>
        <time>2017-06-07T10:19:52Z</time>
      </trkpt>
      <trkpt lat="45.95255" lon="4.74961">
        <ele>192</ele>
        <time>2017-06-07T10:19:53Z</time>
      </trkpt>
      <trkpt lat="45.95252" lon="4.74956">
        <ele>192</ele>
        <time>2017-06-07T10:19:54Z</time>
      </trkpt>
      <trkpt lat="45.95249" lon="4.74951">
        <ele>192</ele>
        <time>2017-06-07T10:19:55Z</time>
      </trkpt>
      <trkpt lat="45.95243" lon="4.74942">
        <ele>192</ele>
        <time>2017-06-07T10:19:57Z</time>
      </trkpt>
      <trkpt lat="45.95239" lon="4.74937">
        <ele>192</ele>
        <time>2017-06-07T10:19:58Z</time>
      </trkpt>
      <trkpt lat="45.95234" lon="4.74928">
        <ele>192</ele>
        <time>2017-06-07T10:20:00Z</time>
      </trkpt>
      <trkpt lat="45.95231" lon="4.74923">
        <ele>192</ele>
        <time>2017-06-07T10:20:01Z</time>
      </trkpt>
      <trkpt lat="45.95225" lon="4.74915">
        <ele>193</ele>
        <time>2017-06-07T10:20:03Z</time>
      </trkpt>
      <trkpt lat="45.95222" lon="4.74911">
        <ele>193</ele>
        <time>2017-06-07T10:20:04Z</time>
      </trkpt>
      <trkpt lat="45.95218" lon="4.74903">
        <ele>193</ele>
        <time>2017-06-07T10:20:06Z</time>
      </trkpt>
      <trkpt lat="45.95215" lon="4.74899">
        <ele>193</ele>
        <time>2017-06-07T10:20:07Z</time>
      </trkpt>
      <trkpt lat="45.95209" lon="4.74891">
        <ele>193</ele>
        <time>2017-06-07T10:20:09Z</time>
      </trkpt>
      <trkpt lat="45.95206" lon="4.74886">
        <ele>194</ele>
        <time>2017-06-07T10:20:10Z</time>
      </trkpt>
      <trkpt lat="45.95203" lon="4.74881">
        <ele>194</ele>
        <time>2017-06-07T10:20:11Z</time>
      </trkpt>
      <trkpt lat="45.952" lon="4.74876">
        <ele>194</ele>
        <time>2017-06-07T10:20:12Z</time>
      </trkpt>
      <trkpt lat="45.95197" lon="4.7487">
        <ele>194</ele>
        <time>2017-06-07T10:20:13Z</time>
      </trkpt>
      <trkpt lat="45.95194" lon="4.74865">
        <ele>194</ele>
        <time>2017-06-07T10:20:14Z</time>
      </trkpt>
      <trkpt lat="45.95191" lon="4.74859">
        <ele>194</ele>
        <time>2017-06-07T10:20:15Z</time>
      </trkpt>
      <trkpt lat="45.95188" lon="4.74853">
        <ele>194</ele>
        <time>2017-06-07T10:20:16Z</time>
      </trkpt>
      <trkpt lat="45.95184" lon="4.74847">
        <ele>194</ele>
        <time>2017-06-07T10:20:17Z</time>
      </trkpt>
      <trkpt lat="45.95181" lon="4.74842">
        <ele>194</ele>
        <time>2017-06-07T10:20:18Z</time>
      </trkpt>
      <trkpt lat="45.95176" lon="4.74836">
        <ele>194</ele>
        <time>2017-06-07T10:20:19Z</time>
      </trkpt>
      <trkpt lat="45.95173" lon="4.7483">
        <ele>194</ele>
        <time>2017-06-07T10:20:20Z</time>
      </trkpt>
      <trkpt lat="45.95169" lon="4.74825">
        <ele>194</ele>
        <time>2017-06-07T10:20:21Z</time>
      </trkpt>
      <trkpt lat="45.95166" lon="4.7482">
        <ele>194</ele>
        <time>2017-06-07T10:20:22Z</time>
      </trkpt>
      <trkpt lat="45.95163" lon="4.74814">
        <ele>194</ele>
        <time>2017-06-07T10:20:23Z</time>
      </trkpt>
      <trkpt lat="45.95159" lon="4.74808">
        <ele>194</ele>
        <time>2017-06-07T10:20:24Z</time>
      </trkpt>
      <trkpt lat="45.95155" lon="4.74803">
        <ele>194</ele>
        <time>2017-06-07T10:20:25Z</time>
      </trkpt>
      <trkpt lat="45.95152" lon="4.74798">
        <ele>194</ele>
        <time>2017-06-07T10:20:26Z</time>
      </trkpt>
      <trkpt lat="45.95149" lon="4.74793">
        <ele>194</ele>
        <time>2017-06-07T10:20:27Z</time>
      </trkpt>
      <trkpt lat="45.95145" lon="4.74788">
        <ele>194</ele>
        <time>2017-06-07T10:20:28Z</time>
      </trkpt>
      <trkpt lat="45.95142" lon="4.74783">
        <ele>194</ele>
        <time>2017-06-07T10:20:29Z</time>
      </trkpt>
      <trkpt lat="45.95139" lon="4.74778">
        <ele>194</ele>
        <time>2017-06-07T10:20:30Z</time>
      </trkpt>
      <trkpt lat="45.95136" lon="4.74772">
        <ele>194</ele>
        <time>2017-06-07T10:20:31Z</time>
      </trkpt>
      <trkpt lat="45.95134" lon="4.74767">
        <ele>194</ele>
        <time>2017-06-07T10:20:32Z</time>
      </trkpt>
      <trkpt lat="45.95131" lon="4.74762">
        <ele>194</ele>
        <time>2017-06-07T10:20:33Z</time>
      </trkpt>
      <trkpt lat="45.95127" lon="4.74757">
        <ele>194</ele>
        <time>2017-06-07T10:20:34Z</time>
      </trkpt>
      <trkpt lat="45.95124" lon="4.74752">
        <ele>194</ele>
        <time>2017-06-07T10:20:35Z</time>
      </trkpt>
      <trkpt lat="45.95121" lon="4.74747">
        <ele>194</ele>
        <time>2017-06-07T10:20:36Z</time>
      </trkpt>
      <trkpt lat="45.95117" lon="4.74741">
        <ele>194</ele>
        <time>2017-06-07T10:20:37Z</time>
      </trkpt>
      <trkpt lat="45.95115" lon="4.74734">
        <ele>194</ele>
        <time>2017-06-07T10:20:38Z</time>
      </trkpt>
      <trkpt lat="45.95111" lon="4.74727">
        <ele>194</ele>
        <time>2017-06-07T10:20:39Z</time>
      </trkpt>
      <trkpt lat="45.95108" lon="4.74721">
        <ele>194</ele>
        <time>2017-06-07T10:20:40Z</time>
      </trkpt>
      <trkpt lat="45.95104" lon="4.74715">
        <ele>194</ele>
        <time>2017-06-07T10:20:41Z</time>
      </trkpt>
      <trkpt lat="45.95101" lon="4.74709">
        <ele>194</ele>
        <time>2017-06-07T10:20:42Z</time>
      </trkpt>
      <trkpt lat="45.95097" lon="4.74703">
        <ele>194</ele>
        <time>2017-06-07T10:20:43Z</time>
      </trkpt>
      <trkpt lat="45.95094" lon="4.74698">
        <ele>194</ele>
        <time>2017-06-07T10:20:44Z</time>
      </trkpt>
      <trkpt lat="45.9509" lon="4.74693">
        <ele>194</ele>
        <time>2017-06-07T10:20:45Z</time>
      </trkpt>
      <trkpt lat="45.95087" lon="4.74687">
        <ele>195</ele>
        <time>2017-06-07T10:20:46Z</time>
      </trkpt>
      <trkpt lat="45.95084" lon="4.74681">
        <ele>195</ele>
        <time>2017-06-07T10:20:47Z</time>
      </trkpt>
      <trkpt lat="45.95081" lon="4.74675">
        <ele>195</ele>
        <time>2017-06-07T10:20:48Z</time>
      </trkpt>
      <trkpt lat="45.95077" lon="4.74669">
        <ele>195</ele>
        <time>2017-06-07T10:20:49Z</time>
      </trkpt>
      <trkpt lat="45.95073" lon="4.74663">
        <ele>195</ele>
        <time>2017-06-07T10:20:50Z</time>
      </trkpt>
      <trkpt lat="45.9507" lon="4.74658">
        <ele>195</ele>
        <time>2017-06-07T10:20:51Z</time>
      </trkpt>
      <trkpt lat="45.95067" lon="4.74652">
        <ele>195</ele>
        <time>2017-06-07T10:20:52Z</time>
      </trkpt>
      <trkpt lat="45.95063" lon="4.74646">
        <ele>195</ele>
        <time>2017-06-07T10:20:53Z</time>
      </trkpt>
      <trkpt lat="45.9506" lon="4.7464">
        <ele>194</ele>
        <time>2017-06-07T10:20:54Z</time>
      </trkpt>
      <trkpt lat="45.95056" lon="4.74634">
        <ele>194</ele>
        <time>2017-06-07T10:20:55Z</time>
      </trkpt>
      <trkpt lat="45.95053" lon="4.74629">
        <ele>194</ele>
        <time>2017-06-07T10:20:56Z</time>
      </trkpt>
      <trkpt lat="45.9505" lon="4.74623">
        <ele>194</ele>
        <time>2017-06-07T10:20:57Z</time>
      </trkpt>
      <trkpt lat="45.95047" lon="4.74618">
        <ele>194</ele>
        <time>2017-06-07T10:20:58Z</time>
      </trkpt>
      <trkpt lat="45.95044" lon="4.74612">
        <ele>194</ele>
        <time>2017-06-07T10:20:59Z</time>
      </trkpt>
      <trkpt lat="45.95041" lon="4.74607">
        <ele>194</ele>
        <time>2017-06-07T10:21:00Z</time>
      </trkpt>
      <trkpt lat="45.95038" lon="4.74602">
        <ele>194</ele>
        <time>2017-06-07T10:21:01Z</time>
      </trkpt>
      <trkpt lat="45.95035" lon="4.74596">
        <ele>194</ele>
        <time>2017-06-07T10:21:02Z</time>
      </trkpt>
      <trkpt lat="45.95032" lon="4.74591">
        <ele>194</ele>
        <time>2017-06-07T10:21:03Z</time>
      </trkpt>
      <trkpt lat="45.95029" lon="4.74585">
        <ele>194</ele>
        <time>2017-06-07T10:21:04Z</time>
      </trkpt>
      <trkpt lat="45.95026" lon="4.7458">
        <ele>194</ele>
        <time>2017-06-07T10:21:05Z</time>
      </trkpt>
      <trkpt lat="45.95024" lon="4.74574">
        <ele>194</ele>
        <time>2017-06-07T10:21:06Z</time>
      </trkpt>
      <trkpt lat="45.95021" lon="4.74568">
        <ele>194</ele>
        <time>2017-06-07T10:21:07Z</time>
      </trkpt>
      <trkpt lat="45.95018" lon="4.74562">
        <ele>194</ele>
        <time>2017-06-07T10:21:08Z</time>
      </trkpt>
      <trkpt lat="45.95015" lon="4.74555">
        <ele>194</ele>
        <time>2017-06-07T10:21:09Z</time>
      </trkpt>
      <trkpt lat="45.95011" lon="4.74549">
        <ele>194</ele>
        <time>2017-06-07T10:21:10Z</time>
      </trkpt>
      <trkpt lat="45.95007" lon="4.74543">
        <ele>194</ele>
        <time>2017-06-07T10:21:11Z</time>
      </trkpt>
      <trkpt lat="45.95004" lon="4.74537">
        <ele>194</ele>
        <time>2017-06-07T10:21:12Z</time>
      </trkpt>
      <trkpt lat="45.95" lon="4.7453">
        <ele>194</ele>
        <time>2017-06-07T10:21:13Z</time>
      </trkpt>
      <trkpt lat="45.94996" lon="4.74524">
        <ele>193</ele>
        <time>2017-06-07T10:21:14Z</time>
      </trkpt>
      <trkpt lat="45.94992" lon="4.74517">
        <ele>193</ele>
        <time>2017-06-07T10:21:15Z</time>
      </trkpt>
      <trkpt lat="45.94988" lon="4.7451">
        <ele>193</ele>
        <time>2017-06-07T10:21:16Z</time>
      </trkpt>
      <trkpt lat="45.94985" lon="4.74503">
        <ele>193</ele>
        <time>2017-06-07T10:21:17Z</time>
      </trkpt>
      <trkpt lat="45.94981" lon="4.74496">
        <ele>193</ele>
        <time>2017-06-07T10:21:18Z</time>
      </trkpt>
      <trkpt lat="45.94978" lon="4.7449">
        <ele>193</ele>
        <time>2017-06-07T10:21:19Z</time>
      </trkpt>
      <trkpt lat="45.94975" lon="4.74483">
        <ele>193</ele>
        <time>2017-06-07T10:21:20Z</time>
      </trkpt>
      <trkpt lat="45.94971" lon="4.74477">
        <ele>193</ele>
        <time>2017-06-07T10:21:21Z</time>
      </trkpt>
      <trkpt lat="45.94968" lon="4.74471">
        <ele>193</ele>
        <time>2017-06-07T10:21:22Z</time>
      </trkpt>
      <trkpt lat="45.94965" lon="4.74465">
        <ele>193</ele>
        <time>2017-06-07T10:21:23Z</time>
      </trkpt>
      <trkpt lat="45.94962" lon="4.74459">
        <ele>193</ele>
        <time>2017-06-07T10:21:24Z</time>
      </trkpt>
      <trkpt lat="45.94959" lon="4.74453">
        <ele>192</ele>
        <time>2017-06-07T10:21:25Z</time>
      </trkpt>
      <trkpt lat="45.94956" lon="4.74447">
        <ele>192</ele>
        <time>2017-06-07T10:21:26Z</time>
      </trkpt>
      <trkpt lat="45.94953" lon="4.74441">
        <ele>192</ele>
        <time>2017-06-07T10:21:27Z</time>
      </trkpt>
      <trkpt lat="45.9495" lon="4.74435">
        <ele>192</ele>
        <time>2017-06-07T10:21:28Z</time>
      </trkpt>
      <trkpt lat="45.94946" lon="4.74429">
        <ele>192</ele>
        <time>2017-06-07T10:21:29Z</time>
      </trkpt>
      <trkpt lat="45.94943" lon="4.74423">
        <ele>192</ele>
        <time>2017-06-07T10:21:30Z</time>
      </trkpt>
      <trkpt lat="45.94939" lon="4.74417">
        <ele>192</ele>
        <time>2017-06-07T10:21:31Z</time>
      </trkpt>
      <trkpt lat="45.94936" lon="4.7441">
        <ele>192</ele>
        <time>2017-06-07T10:21:32Z</time>
      </trkpt>
      <trkpt lat="45.94932" lon="4.74404">
        <ele>192</ele>
        <time>2017-06-07T10:21:33Z</time>
      </trkpt>
      <trkpt lat="45.94929" lon="4.74397">
        <ele>192</ele>
        <time>2017-06-07T10:21:34Z</time>
      </trkpt>
      <trkpt lat="45.94925" lon="4.74391">
        <ele>192</ele>
        <time>2017-06-07T10:21:35Z</time>
      </trkpt>
      <trkpt lat="45.94922" lon="4.74385">
        <ele>192</ele>
        <time>2017-06-07T10:21:36Z</time>
      </trkpt>
      <trkpt lat="45.94919" lon="4.74378">
        <ele>192</ele>
        <time>2017-06-07T10:21:37Z</time>
      </trkpt>
      <trkpt lat="45.94916" lon="4.74372">
        <ele>191</ele>
        <time>2017-06-07T10:21:38Z</time>
      </trkpt>
      <trkpt lat="45.94913" lon="4.74366">
        <ele>191</ele>
        <time>2017-06-07T10:21:39Z</time>
      </trkpt>
      <trkpt lat="45.94911" lon="4.7436">
        <ele>191</ele>
        <time>2017-06-07T10:21:40Z</time>
      </trkpt>
      <trkpt lat="45.94908" lon="4.74353">
        <ele>191</ele>
        <time>2017-06-07T10:21:41Z</time>
      </trkpt>
      <trkpt lat="45.94905" lon="4.74347">
        <ele>191</ele>
        <time>2017-06-07T10:21:42Z</time>
      </trkpt>
      <trkpt lat="45.94902" lon="4.7434">
        <ele>191</ele>
        <time>2017-06-07T10:21:43Z</time>
      </trkpt>
      <trkpt lat="45.94899" lon="4.74334">
        <ele>191</ele>
        <time>2017-06-07T10:21:44Z</time>
      </trkpt>
      <trkpt lat="45.94895" lon="4.74327">
        <ele>191</ele>
        <time>2017-06-07T10:21:45Z</time>
      </trkpt>
      <trkpt lat="45.94892" lon="4.74321">
        <ele>191</ele>
        <time>2017-06-07T10:21:46Z</time>
      </trkpt>
      <trkpt lat="45.94889" lon="4.74315">
        <ele>191</ele>
        <time>2017-06-07T10:21:47Z</time>
      </trkpt>
      <trkpt lat="45.94886" lon="4.74309">
        <ele>191</ele>
        <time>2017-06-07T10:21:48Z</time>
      </trkpt>
      <trkpt lat="45.94883" lon="4.74302">
        <ele>191</ele>
        <time>2017-06-07T10:21:49Z</time>
      </trkpt>
      <trkpt lat="45.94879" lon="4.74296">
        <ele>191</ele>
        <time>2017-06-07T10:21:50Z</time>
      </trkpt>
      <trkpt lat="45.94876" lon="4.74291">
        <ele>191</ele>
        <time>2017-06-07T10:21:51Z</time>
      </trkpt>
      <trkpt lat="45.94873" lon="4.74285">
        <ele>191</ele>
        <time>2017-06-07T10:21:52Z</time>
      </trkpt>
      <trkpt lat="45.9487" lon="4.74279">
        <ele>191</ele>
        <time>2017-06-07T10:21:53Z</time>
      </trkpt>
      <trkpt lat="45.94867" lon="4.74273">
        <ele>191</ele>
        <time>2017-06-07T10:21:54Z</time>
      </trkpt>
      <trkpt lat="45.94863" lon="4.74265">
        <ele>190</ele>
        <time>2017-06-07T10:21:55Z</time>
      </trkpt>
      <trkpt lat="45.9486" lon="4.74257">
        <ele>190</ele>
        <time>2017-06-07T10:21:56Z</time>
      </trkpt>
      <trkpt lat="45.94856" lon="4.74249">
        <ele>190</ele>
        <time>2017-06-07T10:21:57Z</time>
      </trkpt>
      <trkpt lat="45.94852" lon="4.74241">
        <ele>190</ele>
        <time>2017-06-07T10:21:58Z</time>
      </trkpt>
      <trkpt lat="45.94848" lon="4.74233">
        <ele>190</ele>
        <time>2017-06-07T10:21:59Z</time>
      </trkpt>
      <trkpt lat="45.94843" lon="4.74225">
        <ele>190</ele>
        <time>2017-06-07T10:22:00Z</time>
      </trkpt>
      <trkpt lat="45.94839" lon="4.74218">
        <ele>190</ele>
        <time>2017-06-07T10:22:01Z</time>
      </trkpt>
      <trkpt lat="45.94834" lon="4.74211">
        <ele>190</ele>
        <time>2017-06-07T10:22:02Z</time>
      </trkpt>
      <trkpt lat="45.9483" lon="4.74204">
        <ele>189</ele>
        <time>2017-06-07T10:22:03Z</time>
      </trkpt>
      <trkpt lat="45.94826" lon="4.74197">
        <ele>189</ele>
        <time>2017-06-07T10:22:04Z</time>
      </trkpt>
      <trkpt lat="45.94823" lon="4.74191">
        <ele>189</ele>
        <time>2017-06-07T10:22:05Z</time>
      </trkpt>
      <trkpt lat="45.94819" lon="4.74184">
        <ele>189</ele>
        <time>2017-06-07T10:22:06Z</time>
      </trkpt>
      <trkpt lat="45.94816" lon="4.74178">
        <ele>189</ele>
        <time>2017-06-07T10:22:07Z</time>
      </trkpt>
      <trkpt lat="45.94812" lon="4.74172">
        <ele>189</ele>
        <time>2017-06-07T10:22:08Z</time>
      </trkpt>
      <trkpt lat="45.94809" lon="4.74166">
        <ele>189</ele>
        <time>2017-06-07T10:22:09Z</time>
      </trkpt>
      <trkpt lat="45.94806" lon="4.7416">
        <ele>189</ele>
        <time>2017-06-07T10:22:10Z</time>
      </trkpt>
      <trkpt lat="45.94803" lon="4.74155">
        <ele>189</ele>
        <time>2017-06-07T10:22:11Z</time>
      </trkpt>
      <trkpt lat="45.948" lon="4.74149">
        <ele>189</ele>
        <time>2017-06-07T10:22:12Z</time>
      </trkpt>
      <trkpt lat="45.94796" lon="4.74144">
        <ele>189</ele>
        <time>2017-06-07T10:22:13Z</time>
      </trkpt>
      <trkpt lat="45.94792" lon="4.74138">
        <ele>189</ele>
        <time>2017-06-07T10:22:14Z</time>
      </trkpt>
      <trkpt lat="45.94788" lon="4.74132">
        <ele>189</ele>
        <time>2017-06-07T10:22:15Z</time>
      </trkpt>
      <trkpt lat="45.94784" lon="4.74126">
        <ele>189</ele>
        <time>2017-06-07T10:22:16Z</time>
      </trkpt>
      <trkpt lat="45.94779" lon="4.74119">
        <ele>189</ele>
        <time>2017-06-07T10:22:17Z</time>
      </trkpt>
      <trkpt lat="45.94775" lon="4.74112">
        <ele>189</ele>
        <time>2017-06-07T10:22:18Z</time>
      </trkpt>
      <trkpt lat="45.9477" lon="4.74106">
        <ele>189</ele>
        <time>2017-06-07T10:22:19Z</time>
      </trkpt>
      <trkpt lat="45.94765" lon="4.741">
        <ele>189</ele>
        <time>2017-06-07T10:22:20Z</time>
      </trkpt>
      <trkpt lat="45.94761" lon="4.74094">
        <ele>189</ele>
        <time>2017-06-07T10:22:21Z</time>
      </trkpt>
      <trkpt lat="45.94756" lon="4.74088">
        <ele>189</ele>
        <time>2017-06-07T10:22:22Z</time>
      </trkpt>
      <trkpt lat="45.94752" lon="4.74082">
        <ele>189</ele>
        <time>2017-06-07T10:22:23Z</time>
      </trkpt>
      <trkpt lat="45.94748" lon="4.74075">
        <ele>188</ele>
        <time>2017-06-07T10:22:24Z</time>
      </trkpt>
      <trkpt lat="45.94743" lon="4.74069">
        <ele>188</ele>
        <time>2017-06-07T10:22:25Z</time>
      </trkpt>
      <trkpt lat="45.94739" lon="4.74064">
        <ele>188</ele>
        <time>2017-06-07T10:22:26Z</time>
      </trkpt>
      <trkpt lat="45.94735" lon="4.74058">
        <ele>188</ele>
        <time>2017-06-07T10:22:27Z</time>
      </trkpt>
      <trkpt lat="45.9473" lon="4.74053">
        <ele>188</ele>
        <time>2017-06-07T10:22:28Z</time>
      </trkpt>
      <trkpt lat="45.94726" lon="4.74047">
        <ele>188</ele>
        <time>2017-06-07T10:22:29Z</time>
      </trkpt>
      <trkpt lat="45.94722" lon="4.74042">
        <ele>187</ele>
        <time>2017-06-07T10:22:30Z</time>
      </trkpt>
      <trkpt lat="45.94718" lon="4.74037">
        <ele>187</ele>
        <time>2017-06-07T10:22:31Z</time>
      </trkpt>
      <trkpt lat="45.94715" lon="4.74031">
        <ele>187</ele>
        <time>2017-06-07T10:22:32Z</time>
      </trkpt>
      <trkpt lat="45.94711" lon="4.74026">
        <ele>187</ele>
        <time>2017-06-07T10:22:33Z</time>
      </trkpt>
      <trkpt lat="45.94708" lon="4.74022">
        <ele>187</ele>
        <time>2017-06-07T10:22:34Z</time>
      </trkpt>
      <trkpt lat="45.94704" lon="4.74017">
        <ele>187</ele>
        <time>2017-06-07T10:22:35Z</time>
      </trkpt>
      <trkpt lat="45.947" lon="4.74012">
        <ele>187</ele>
        <time>2017-06-07T10:22:36Z</time>
      </trkpt>
      <trkpt lat="45.94696" lon="4.74007">
        <ele>187</ele>
        <time>2017-06-07T10:22:37Z</time>
      </trkpt>
      <trkpt lat="45.94692" lon="4.74002">
        <ele>187</ele>
        <time>2017-06-07T10:22:38Z</time>
      </trkpt>
      <trkpt lat="45.94688" lon="4.73997">
        <ele>187</ele>
        <time>2017-06-07T10:22:39Z</time>
      </trkpt>
      <trkpt lat="45.94684" lon="4.73992">
        <ele>187</ele>
        <time>2017-06-07T10:22:40Z</time>
      </trkpt>
      <trkpt lat="45.9468" lon="4.73987">
        <ele>187</ele>
        <time>2017-06-07T10:22:41Z</time>
      </trkpt>
      <trkpt lat="45.94677" lon="4.73981">
        <ele>187</ele>
        <time>2017-06-07T10:22:42Z</time>
      </trkpt>
      <trkpt lat="45.94673" lon="4.73976">
        <ele>187</ele>
        <time>2017-06-07T10:22:43Z</time>
      </trkpt>
      <trkpt lat="45.94669" lon="4.73971">
        <ele>187</ele>
        <time>2017-06-07T10:22:44Z</time>
      </trkpt>
      <trkpt lat="45.94666" lon="4.73966">
        <ele>187</ele>
        <time>2017-06-07T10:22:45Z</time>
      </trkpt>
      <trkpt lat="45.94663" lon="4.73961">
        <ele>187</ele>
        <time>2017-06-07T10:22:46Z</time>
      </trkpt>
      <trkpt lat="45.94659" lon="4.73956">
        <ele>187</ele>
        <time>2017-06-07T10:22:47Z</time>
      </trkpt>
      <trkpt lat="45.94655" lon="4.7395">
        <ele>187</ele>
        <time>2017-06-07T10:22:48Z</time>
      </trkpt>
      <trkpt lat="45.94651" lon="4.73945">
        <ele>187</ele>
        <time>2017-06-07T10:22:49Z</time>
      </trkpt>
      <trkpt lat="45.94647" lon="4.7394">
        <ele>187</ele>
        <time>2017-06-07T10:22:50Z</time>
      </trkpt>
      <trkpt lat="45.94644" lon="4.73935">
        <ele>187</ele>
        <time>2017-06-07T10:22:51Z</time>
      </trkpt>
      <trkpt lat="45.9464" lon="4.73929">
        <ele>187</ele>
        <time>2017-06-07T10:22:52Z</time>
      </trkpt>
      <trkpt lat="45.94636" lon="4.73924">
        <ele>187</ele>
        <time>2017-06-07T10:22:53Z</time>
      </trkpt>
      <trkpt lat="45.94632" lon="4.73919">
        <ele>187</ele>
        <time>2017-06-07T10:22:54Z</time>
      </trkpt>
      <trkpt lat="45.94629" lon="4.73914">
        <ele>187</ele>
        <time>2017-06-07T10:22:55Z</time>
      </trkpt>
      <trkpt lat="45.94625" lon="4.7391">
        <ele>187</ele>
        <time>2017-06-07T10:22:56Z</time>
      </trkpt>
      <trkpt lat="45.94621" lon="4.73904">
        <ele>187</ele>
        <time>2017-06-07T10:22:57Z</time>
      </trkpt>
      <trkpt lat="45.94618" lon="4.73899">
        <ele>187</ele>
        <time>2017-06-07T10:22:58Z</time>
      </trkpt>
      <trkpt lat="45.94614" lon="4.73894">
        <ele>187</ele>
        <time>2017-06-07T10:22:59Z</time>
      </trkpt>
      <trkpt lat="45.9461" lon="4.73889">
        <ele>187</ele>
        <time>2017-06-07T10:23:00Z</time>
      </trkpt>
      <trkpt lat="45.94606" lon="4.73884">
        <ele>187</ele>
        <time>2017-06-07T10:23:01Z</time>
      </trkpt>
      <trkpt lat="45.94602" lon="4.73879">
        <ele>187</ele>
        <time>2017-06-07T10:23:02Z</time>
      </trkpt>
      <trkpt lat="45.94597" lon="4.73874">
        <ele>187</ele>
        <time>2017-06-07T10:23:03Z</time>
      </trkpt>
      <trkpt lat="45.94594" lon="4.7387">
        <ele>187</ele>
        <time>2017-06-07T10:23:04Z</time>
      </trkpt>
      <trkpt lat="45.94589" lon="4.73866">
        <ele>187</ele>
        <time>2017-06-07T10:23:05Z</time>
      </trkpt>
      <trkpt lat="45.94585" lon="4.73861">
        <ele>187</ele>
        <time>2017-06-07T10:23:06Z</time>
      </trkpt>
      <trkpt lat="45.94581" lon="4.73856">
        <ele>186</ele>
        <time>2017-06-07T10:23:07Z</time>
      </trkpt>
      <trkpt lat="45.94576" lon="4.73852">
        <ele>186</ele>
        <time>2017-06-07T10:23:08Z</time>
      </trkpt>
      <trkpt lat="45.94571" lon="4.73847">
        <ele>186</ele>
        <time>2017-06-07T10:23:09Z</time>
      </trkpt>
      <trkpt lat="45.94566" lon="4.73842">
        <ele>186</ele>
        <time>2017-06-07T10:23:10Z</time>
      </trkpt>
      <trkpt lat="45.94561" lon="4.73838">
        <ele>186</ele>
        <time>2017-06-07T10:23:11Z</time>
      </trkpt>
      <trkpt lat="45.94557" lon="4.73833">
        <ele>186</ele>
        <time>2017-06-07T10:23:12Z</time>
      </trkpt>
      <trkpt lat="45.94552" lon="4.73828">
        <ele>186</ele>
        <time>2017-06-07T10:23:13Z</time>
      </trkpt>
      <trkpt lat="45.94547" lon="4.73824">
        <ele>186</ele>
        <time>2017-06-07T10:23:14Z</time>
      </trkpt>
      <trkpt lat="45.94542" lon="4.73819">
        <ele>186</ele>
        <time>2017-06-07T10:23:15Z</time>
      </trkpt>
      <trkpt lat="45.94538" lon="4.73814">
        <ele>186</ele>
        <time>2017-06-07T10:23:16Z</time>
      </trkpt>
      <trkpt lat="45.94533" lon="4.7381">
        <ele>186</ele>
        <time>2017-06-07T10:23:17Z</time>
      </trkpt>
      <trkpt lat="45.94529" lon="4.73805">
        <ele>186</ele>
        <time>2017-06-07T10:23:18Z</time>
      </trkpt>
      <trkpt lat="45.94524" lon="4.73801">
        <ele>186</ele>
        <time>2017-06-07T10:23:19Z</time>
      </trkpt>
      <trkpt lat="45.94521" lon="4.73797">
        <ele>186</ele>
        <time>2017-06-07T10:23:20Z</time>
      </trkpt>
      <trkpt lat="45.94517" lon="4.73793">
        <ele>186</ele>
        <time>2017-06-07T10:23:21Z</time>
      </trkpt>
      <trkpt lat="45.94514" lon="4.73788">
        <ele>186</ele>
        <time>2017-06-07T10:23:22Z</time>
      </trkpt>
      <trkpt lat="45.9451" lon="4.73783">
        <ele>186</ele>
        <time>2017-06-07T10:23:23Z</time>
      </trkpt>
      <trkpt lat="45.94506" lon="4.73778">
        <ele>186</ele>
        <time>2017-06-07T10:23:24Z</time>
      </trkpt>
      <trkpt lat="45.94502" lon="4.73774">
        <ele>186</ele>
        <time>2017-06-07T10:23:25Z</time>
      </trkpt>
      <trkpt lat="45.94499" lon="4.73769">
        <ele>186</ele>
        <time>2017-06-07T10:23:26Z</time>
      </trkpt>
      <trkpt lat="45.94496" lon="4.73764">
        <ele>186</ele>
        <time>2017-06-07T10:23:27Z</time>
      </trkpt>
      <trkpt lat="45.94493" lon="4.73759">
        <ele>186</ele>
        <time>2017-06-07T10:23:28Z</time>
      </trkpt>
      <trkpt lat="45.94491" lon="4.73747">
        <ele>186</ele>
        <time>2017-06-07T10:23:30Z</time>
      </trkpt>
      <trkpt lat="45.94491" lon="4.7374">
        <ele>186</ele>
        <time>2017-06-07T10:23:31Z</time>
      </trkpt>
      <trkpt lat="45.94491" lon="4.73733">
        <ele>186</ele>
        <time>2017-06-07T10:23:32Z</time>
      </trkpt>
      <trkpt lat="45.94492" lon="4.73725">
        <ele>186</ele>
        <time>2017-06-07T10:23:33Z</time>
      </trkpt>
      <trkpt lat="45.94493" lon="4.73717">
        <ele>186</ele>
        <time>2017-06-07T10:23:34Z</time>
      </trkpt>
      <trkpt lat="45.94494" lon="4.73709">
        <ele>186</ele>
        <time>2017-06-07T10:23:35Z</time>
      </trkpt>
      <trkpt lat="45.94495" lon="4.737">
        <ele>186</ele>
        <time>2017-06-07T10:23:36Z</time>
      </trkpt>
      <trkpt lat="45.94496" lon="4.73691">
        <ele>186</ele>
        <time>2017-06-07T10:23:37Z</time>
      </trkpt>
      <trkpt lat="45.94498" lon="4.73682">
        <ele>185</ele>
        <time>2017-06-07T10:23:38Z</time>
      </trkpt>
      <trkpt lat="45.94499" lon="4.73673">
        <ele>185</ele>
        <time>2017-06-07T10:23:39Z</time>
      </trkpt>
      <trkpt lat="45.945" lon="4.73664">
        <ele>185</ele>
        <time>2017-06-07T10:23:40Z</time>
      </trkpt>
      <trkpt lat="45.94502" lon="4.73655">
        <ele>184</ele>
        <time>2017-06-07T10:23:41Z</time>
      </trkpt>
      <trkpt lat="45.94503" lon="4.73646">
        <ele>184</ele>
        <time>2017-06-07T10:23:42Z</time>
      </trkpt>
      <trkpt lat="45.94503" lon="4.73638">
        <ele>184</ele>
        <time>2017-06-07T10:23:43Z</time>
      </trkpt>
      <trkpt lat="45.94504" lon="4.7363">
        <ele>184</ele>
        <time>2017-06-07T10:23:44Z</time>
      </trkpt>
      <trkpt lat="45.94505" lon="4.73621">
        <ele>184</ele>
        <time>2017-06-07T10:23:45Z</time>
      </trkpt>
      <trkpt lat="45.94505" lon="4.73613">
        <ele>184</ele>
        <time>2017-06-07T10:23:46Z</time>
      </trkpt>
      <trkpt lat="45.94506" lon="4.73605">
        <ele>184</ele>
        <time>2017-06-07T10:23:47Z</time>
      </trkpt>
      <trkpt lat="45.94507" lon="4.73597">
        <ele>184</ele>
        <time>2017-06-07T10:23:48Z</time>
      </trkpt>
      <trkpt lat="45.94508" lon="4.7359">
        <ele>184</ele>
        <time>2017-06-07T10:23:49Z</time>
      </trkpt>
      <trkpt lat="45.94509" lon="4.73582">
        <ele>184</ele>
        <time>2017-06-07T10:23:50Z</time>
      </trkpt>
      <trkpt lat="45.94509" lon="4.73573">
        <ele>184</ele>
        <time>2017-06-07T10:23:51Z</time>
      </trkpt>
      <trkpt lat="45.94509" lon="4.73564">
        <ele>184</ele>
        <time>2017-06-07T10:23:52Z</time>
      </trkpt>
      <trkpt lat="45.94509" lon="4.73554">
        <ele>183</ele>
        <time>2017-06-07T10:23:53Z</time>
      </trkpt>
      <trkpt lat="45.9451" lon="4.73545">
        <ele>183</ele>
        <time>2017-06-07T10:23:54Z</time>
      </trkpt>
      <trkpt lat="45.9451" lon="4.73536">
        <ele>183</ele>
        <time>2017-06-07T10:23:55Z</time>
      </trkpt>
      <trkpt lat="45.9451" lon="4.73527">
        <ele>183</ele>
        <time>2017-06-07T10:23:56Z</time>
      </trkpt>
      <trkpt lat="45.94509" lon="4.73517">
        <ele>183</ele>
        <time>2017-06-07T10:23:57Z</time>
      </trkpt>
      <trkpt lat="45.94509" lon="4.73508">
        <ele>183</ele>
        <time>2017-06-07T10:23:58Z</time>
      </trkpt>
      <trkpt lat="45.94509" lon="4.73498">
        <ele>182</ele>
        <time>2017-06-07T10:23:59Z</time>
      </trkpt>
      <trkpt lat="45.9451" lon="4.73489">
        <ele>182</ele>
        <time>2017-06-07T10:24:00Z</time>
      </trkpt>
      <trkpt lat="45.9451" lon="4.73479">
        <ele>182</ele>
        <time>2017-06-07T10:24:01Z</time>
      </trkpt>
      <trkpt lat="45.94511" lon="4.7347">
        <ele>181</ele>
        <time>2017-06-07T10:24:02Z</time>
      </trkpt>
      <trkpt lat="45.9451" lon="4.7346">
        <ele>181</ele>
        <time>2017-06-07T10:24:03Z</time>
      </trkpt>
      <trkpt lat="45.9451" lon="4.7345">
        <ele>181</ele>
        <time>2017-06-07T10:24:04Z</time>
      </trkpt>
      <trkpt lat="45.94509" lon="4.73439">
        <ele>181</ele>
        <time>2017-06-07T10:24:05Z</time>
      </trkpt>
      <trkpt lat="45.94509" lon="4.73428">
        <ele>180</ele>
        <time>2017-06-07T10:24:06Z</time>
      </trkpt>
      <trkpt lat="45.94509" lon="4.73417">
        <ele>180</ele>
        <time>2017-06-07T10:24:07Z</time>
      </trkpt>
      <trkpt lat="45.94508" lon="4.73407">
        <ele>179</ele>
        <time>2017-06-07T10:24:08Z</time>
      </trkpt>
      <trkpt lat="45.94508" lon="4.73396">
        <ele>179</ele>
        <time>2017-06-07T10:24:09Z</time>
      </trkpt>
      <trkpt lat="45.94507" lon="4.73385">
        <ele>179</ele>
        <time>2017-06-07T10:24:10Z</time>
      </trkpt>
      <trkpt lat="45.94506" lon="4.73373">
        <ele>178</ele>
        <time>2017-06-07T10:24:11Z</time>
      </trkpt>
      <trkpt lat="45.94504" lon="4.73361">
        <ele>178</ele>
        <time>2017-06-07T10:24:12Z</time>
      </trkpt>
      <trkpt lat="45.94503" lon="4.7335">
        <ele>178</ele>
        <time>2017-06-07T10:24:13Z</time>
      </trkpt>
      <trkpt lat="45.94502" lon="4.73339">
        <ele>177</ele>
        <time>2017-06-07T10:24:14Z</time>
      </trkpt>
      <trkpt lat="45.945" lon="4.73328">
        <ele>177</ele>
        <time>2017-06-07T10:24:15Z</time>
      </trkpt>
      <trkpt lat="45.94498" lon="4.73316">
        <ele>177</ele>
        <time>2017-06-07T10:24:16Z</time>
      </trkpt>
      <trkpt lat="45.94495" lon="4.73305">
        <ele>177</ele>
        <time>2017-06-07T10:24:17Z</time>
      </trkpt>
      <trkpt lat="45.94493" lon="4.73294">
        <ele>177</ele>
        <time>2017-06-07T10:24:18Z</time>
      </trkpt>
      <trkpt lat="45.94491" lon="4.73283">
        <ele>177</ele>
        <time>2017-06-07T10:24:19Z</time>
      </trkpt>
      <trkpt lat="45.94489" lon="4.73272">
        <ele>177</ele>
        <time>2017-06-07T10:24:20Z</time>
      </trkpt>
      <trkpt lat="45.94487" lon="4.73262">
        <ele>176</ele>
        <time>2017-06-07T10:24:21Z</time>
      </trkpt>
      <trkpt lat="45.94486" lon="4.73252">
        <ele>176</ele>
        <time>2017-06-07T10:24:22Z</time>
      </trkpt>
      <trkpt lat="45.94485" lon="4.73242">
        <ele>175</ele>
        <time>2017-06-07T10:24:23Z</time>
      </trkpt>
      <trkpt lat="45.94485" lon="4.73233">
        <ele>175</ele>
        <time>2017-06-07T10:24:24Z</time>
      </trkpt>
      <trkpt lat="45.94485" lon="4.73223">
        <ele>175</ele>
        <time>2017-06-07T10:24:25Z</time>
      </trkpt>
      <trkpt lat="45.94484" lon="4.73213">
        <ele>175</ele>
        <time>2017-06-07T10:24:26Z</time>
      </trkpt>
      <trkpt lat="45.94483" lon="4.73203">
        <ele>175</ele>
        <time>2017-06-07T10:24:27Z</time>
      </trkpt>
      <trkpt lat="45.94482" lon="4.73192">
        <ele>174</ele>
        <time>2017-06-07T10:24:28Z</time>
      </trkpt>
      <trkpt lat="45.9448" lon="4.73182">
        <ele>174</ele>
        <time>2017-06-07T10:24:29Z</time>
      </trkpt>
      <trkpt lat="45.94479" lon="4.73172">
        <ele>174</ele>
        <time>2017-06-07T10:24:30Z</time>
      </trkpt>
      <trkpt lat="45.94478" lon="4.73162">
        <ele>173</ele>
        <time>2017-06-07T10:24:31Z</time>
      </trkpt>
      <trkpt lat="45.94476" lon="4.73152">
        <ele>173</ele>
        <time>2017-06-07T10:24:32Z</time>
      </trkpt>
      <trkpt lat="45.94475" lon="4.73143">
        <ele>172</ele>
        <time>2017-06-07T10:24:33Z</time>
      </trkpt>
      <trkpt lat="45.94473" lon="4.73134">
        <ele>172</ele>
        <time>2017-06-07T10:24:34Z</time>
      </trkpt>
      <trkpt lat="45.94472" lon="4.73125">
        <ele>172</ele>
        <time>2017-06-07T10:24:35Z</time>
      </trkpt>
      <trkpt lat="45.94472" lon="4.73116">
        <ele>172</ele>
        <time>2017-06-07T10:24:36Z</time>
      </trkpt>
      <trkpt lat="45.94471" lon="4.73107">
        <ele>172</ele>
        <time>2017-06-07T10:24:37Z</time>
      </trkpt>
      <trkpt lat="45.9447" lon="4.73099">
        <ele>172</ele>
        <time>2017-06-07T10:24:38Z</time>
      </trkpt>
      <trkpt lat="45.94469" lon="4.73091">
        <ele>172</ele>
        <time>2017-06-07T10:24:39Z</time>
      </trkpt>
      <trkpt lat="45.94468" lon="4.73083">
        <ele>170</ele>
        <time>2017-06-07T10:24:40Z</time>
      </trkpt>
      <trkpt lat="45.94466" lon="4.73074">
        <ele>170</ele>
        <time>2017-06-07T10:24:41Z</time>
      </trkpt>
      <trkpt lat="45.94465" lon="4.73066">
        <ele>170</ele>
        <time>2017-06-07T10:24:42Z</time>
      </trkpt>
      <trkpt lat="45.94463" lon="4.73059">
        <ele>170</ele>
        <time>2017-06-07T10:24:43Z</time>
      </trkpt>
      <trkpt lat="45.94462" lon="4.73052">
        <ele>170</ele>
        <time>2017-06-07T10:24:44Z</time>
      </trkpt>
      <trkpt lat="45.94461" lon="4.73044">
        <ele>170</ele>
        <time>2017-06-07T10:24:45Z</time>
      </trkpt>
      <trkpt lat="45.9446" lon="4.73037">
        <ele>169</ele>
        <time>2017-06-07T10:24:46Z</time>
      </trkpt>
      <trkpt lat="45.94459" lon="4.73029">
        <ele>169</ele>
        <time>2017-06-07T10:24:47Z</time>
      </trkpt>
      <trkpt lat="45.94458" lon="4.73021">
        <ele>169</ele>
        <time>2017-06-07T10:24:48Z</time>
      </trkpt>
      <trkpt lat="45.94457" lon="4.73012">
        <ele>169</ele>
        <time>2017-06-07T10:24:49Z</time>
      </trkpt>
      <trkpt lat="45.94456" lon="4.73004">
        <ele>169</ele>
        <time>2017-06-07T10:24:50Z</time>
      </trkpt>
      <trkpt lat="45.94455" lon="4.72996">
        <ele>168</ele>
        <time>2017-06-07T10:24:51Z</time>
      </trkpt>
      <trkpt lat="45.94454" lon="4.72987">
        <ele>167</ele>
        <time>2017-06-07T10:24:52Z</time>
      </trkpt>
      <trkpt lat="45.94453" lon="4.72979">
        <ele>167</ele>
        <time>2017-06-07T10:24:53Z</time>
      </trkpt>
      <trkpt lat="45.94452" lon="4.7297">
        <ele>167</ele>
        <time>2017-06-07T10:24:54Z</time>
      </trkpt>
      <trkpt lat="45.94451" lon="4.72962">
        <ele>167</ele>
        <time>2017-06-07T10:24:55Z</time>
      </trkpt>
      <trkpt lat="45.9445" lon="4.72954">
        <ele>167</ele>
        <time>2017-06-07T10:24:56Z</time>
      </trkpt>
      <trkpt lat="45.94449" lon="4.72946">
        <ele>167</ele>
        <time>2017-06-07T10:24:57Z</time>
      </trkpt>
      <trkpt lat="45.94448" lon="4.7294">
        <ele>167</ele>
        <time>2017-06-07T10:24:58Z</time>
      </trkpt>
      <trkpt lat="45.94447" lon="4.72933">
        <ele>167</ele>
        <time>2017-06-07T10:24:59Z</time>
      </trkpt>
      <trkpt lat="45.94446" lon="4.72922">
        <ele>167</ele>
        <time>2017-06-07T10:25:01Z</time>
      </trkpt>
      <trkpt lat="45.94445" lon="4.72916">
        <ele>166</ele>
        <time>2017-06-07T10:25:02Z</time>
      </trkpt>
      <trkpt lat="45.94444" lon="4.72906">
        <ele>166</ele>
        <time>2017-06-07T10:25:04Z</time>
      </trkpt>
      <trkpt lat="45.94443" lon="4.72901">
        <ele>166</ele>
        <time>2017-06-07T10:25:05Z</time>
      </trkpt>
      <trkpt lat="45.94442" lon="4.72891">
        <ele>166</ele>
        <time>2017-06-07T10:25:07Z</time>
      </trkpt>
      <trkpt lat="45.94441" lon="4.72885">
        <ele>166</ele>
        <time>2017-06-07T10:25:08Z</time>
      </trkpt>
      <trkpt lat="45.94439" lon="4.72875">
        <ele>166</ele>
        <time>2017-06-07T10:25:10Z</time>
      </trkpt>
      <trkpt lat="45.94438" lon="4.72869">
        <ele>166</ele>
        <time>2017-06-07T10:25:11Z</time>
      </trkpt>
      <trkpt lat="45.94436" lon="4.72857">
        <ele>166</ele>
        <time>2017-06-07T10:25:13Z</time>
      </trkpt>
      <trkpt lat="45.94435" lon="4.7285">
        <ele>166</ele>
        <time>2017-06-07T10:25:14Z</time>
      </trkpt>
      <trkpt lat="45.94434" lon="4.72843">
        <ele>166</ele>
        <time>2017-06-07T10:25:15Z</time>
      </trkpt>
      <trkpt lat="45.94433" lon="4.72836">
        <ele>166</ele>
        <time>2017-06-07T10:25:16Z</time>
      </trkpt>
      <trkpt lat="45.94432" lon="4.72828">
        <ele>167</ele>
        <time>2017-06-07T10:25:17Z</time>
      </trkpt>
      <trkpt lat="45.9443" lon="4.7282">
        <ele>167</ele>
        <time>2017-06-07T10:25:18Z</time>
      </trkpt>
      <trkpt lat="45.94429" lon="4.72812">
        <ele>167</ele>
        <time>2017-06-07T10:25:19Z</time>
      </trkpt>
      <trkpt lat="45.94428" lon="4.72804">
        <ele>167</ele>
        <time>2017-06-07T10:25:20Z</time>
      </trkpt>
      <trkpt lat="45.94428" lon="4.72795">
        <ele>168</ele>
        <time>2017-06-07T10:25:21Z</time>
      </trkpt>
      <trkpt lat="45.94426" lon="4.72787">
        <ele>168</ele>
        <time>2017-06-07T10:25:22Z</time>
      </trkpt>
      <trkpt lat="45.94425" lon="4.72778">
        <ele>168</ele>
        <time>2017-06-07T10:25:23Z</time>
      </trkpt>
      <trkpt lat="45.94424" lon="4.72769">
        <ele>169</ele>
        <time>2017-06-07T10:25:24Z</time>
      </trkpt>
      <trkpt lat="45.94423" lon="4.7276">
        <ele>170</ele>
        <time>2017-06-07T10:25:25Z</time>
      </trkpt>
      <trkpt lat="45.94421" lon="4.7275">
        <ele>171</ele>
        <time>2017-06-07T10:25:26Z</time>
      </trkpt>
      <trkpt lat="45.9442" lon="4.72741">
        <ele>171</ele>
        <time>2017-06-07T10:25:27Z</time>
      </trkpt>
      <trkpt lat="45.94419" lon="4.72731">
        <ele>171</ele>
        <time>2017-06-07T10:25:28Z</time>
      </trkpt>
      <trkpt lat="45.94417" lon="4.72721">
        <ele>171</ele>
        <time>2017-06-07T10:25:29Z</time>
      </trkpt>
      <trkpt lat="45.94416" lon="4.72712">
        <ele>172</ele>
        <time>2017-06-07T10:25:30Z</time>
      </trkpt>
      <trkpt lat="45.94415" lon="4.72703">
        <ele>172</ele>
        <time>2017-06-07T10:25:31Z</time>
      </trkpt>
      <trkpt lat="45.94415" lon="4.72694">
        <ele>173</ele>
        <time>2017-06-07T10:25:32Z</time>
      </trkpt>
      <trkpt lat="45.94413" lon="4.72685">
        <ele>173</ele>
        <time>2017-06-07T10:25:33Z</time>
      </trkpt>
      <trkpt lat="45.94413" lon="4.72676">
        <ele>173</ele>
        <time>2017-06-07T10:25:34Z</time>
      </trkpt>
      <trkpt lat="45.94413" lon="4.72667">
        <ele>174</ele>
        <time>2017-06-07T10:25:35Z</time>
      </trkpt>
      <trkpt lat="45.94413" lon="4.72658">
        <ele>174</ele>
        <time>2017-06-07T10:25:36Z</time>
      </trkpt>
      <trkpt lat="45.94411" lon="4.72649">
        <ele>174</ele>
        <time>2017-06-07T10:25:37Z</time>
      </trkpt>
      <trkpt lat="45.9441" lon="4.7264">
        <ele>174</ele>
        <time>2017-06-07T10:25:38Z</time>
      </trkpt>
      <trkpt lat="45.94409" lon="4.72631">
        <ele>174</ele>
        <time>2017-06-07T10:25:39Z</time>
      </trkpt>
      <trkpt lat="45.94408" lon="4.72623">
        <ele>173</ele>
        <time>2017-06-07T10:25:40Z</time>
      </trkpt>
      <trkpt lat="45.94407" lon="4.72615">
        <ele>173</ele>
        <time>2017-06-07T10:25:41Z</time>
      </trkpt>
      <trkpt lat="45.94407" lon="4.72607">
        <ele>173</ele>
        <time>2017-06-07T10:25:42Z</time>
      </trkpt>
      <trkpt lat="45.94405" lon="4.726">
        <ele>173</ele>
        <time>2017-06-07T10:25:43Z</time>
      </trkpt>
      <trkpt lat="45.94404" lon="4.72592">
        <ele>173</ele>
        <time>2017-06-07T10:25:44Z</time>
      </trkpt>
      <trkpt lat="45.94401" lon="4.72583">
        <ele>173</ele>
        <time>2017-06-07T10:25:45Z</time>
      </trkpt>
      <trkpt lat="45.944" lon="4.72576">
        <ele>173</ele>
        <time>2017-06-07T10:25:46Z</time>
      </trkpt>
      <trkpt lat="45.94399" lon="4.72569">
        <ele>173</ele>
        <time>2017-06-07T10:25:47Z</time>
      </trkpt>
      <trkpt lat="45.94398" lon="4.72562">
        <ele>173</ele>
        <time>2017-06-07T10:25:48Z</time>
      </trkpt>
      <trkpt lat="45.94396" lon="4.72553">
        <ele>173</ele>
        <time>2017-06-07T10:25:49Z</time>
      </trkpt>
      <trkpt lat="45.94396" lon="4.72546">
        <ele>173</ele>
        <time>2017-06-07T10:25:50Z</time>
      </trkpt>
      <trkpt lat="45.94393" lon="4.72534">
        <ele>174</ele>
        <time>2017-06-07T10:25:52Z</time>
      </trkpt>
      <trkpt lat="45.94393" lon="4.72528">
        <ele>174</ele>
        <time>2017-06-07T10:25:53Z</time>
      </trkpt>
      <trkpt lat="45.94391" lon="4.72521">
        <ele>174</ele>
        <time>2017-06-07T10:25:54Z</time>
      </trkpt>
      <trkpt lat="45.94389" lon="4.72514">
        <ele>174</ele>
        <time>2017-06-07T10:25:55Z</time>
      </trkpt>
      <trkpt lat="45.94387" lon="4.72508">
        <ele>174</ele>
        <time>2017-06-07T10:25:56Z</time>
      </trkpt>
      <trkpt lat="45.94385" lon="4.72501">
        <ele>174</ele>
        <time>2017-06-07T10:25:57Z</time>
      </trkpt>
      <trkpt lat="45.94381" lon="4.72489">
        <ele>173</ele>
        <time>2017-06-07T10:25:59Z</time>
      </trkpt>
      <trkpt lat="45.94378" lon="4.72483">
        <ele>173</ele>
        <time>2017-06-07T10:26:00Z</time>
      </trkpt>
      <trkpt lat="45.94376" lon="4.72476">
        <ele>173</ele>
        <time>2017-06-07T10:26:01Z</time>
      </trkpt>
      <trkpt lat="45.94374" lon="4.7247">
        <ele>173</ele>
        <time>2017-06-07T10:26:02Z</time>
      </trkpt>
      <trkpt lat="45.94369" lon="4.7246">
        <ele>173</ele>
        <time>2017-06-07T10:26:04Z</time>
      </trkpt>
      <trkpt lat="45.94369" lon="4.72454">
        <ele>173</ele>
        <time>2017-06-07T10:26:05Z</time>
      </trkpt>
      <trkpt lat="45.94365" lon="4.72443">
        <ele>173</ele>
        <time>2017-06-07T10:26:07Z</time>
      </trkpt>
      <trkpt lat="45.94363" lon="4.72437">
        <ele>173</ele>
        <time>2017-06-07T10:26:08Z</time>
      </trkpt>
      <trkpt lat="45.94359" lon="4.72427">
        <ele>173</ele>
        <time>2017-06-07T10:26:10Z</time>
      </trkpt>
      <trkpt lat="45.94357" lon="4.72423">
        <ele>173</ele>
        <time>2017-06-07T10:26:11Z</time>
      </trkpt>
      <trkpt lat="45.94353" lon="4.72414">
        <ele>172</ele>
        <time>2017-06-07T10:26:13Z</time>
      </trkpt>
      <trkpt lat="45.94351" lon="4.72409">
        <ele>172</ele>
        <time>2017-06-07T10:26:14Z</time>
      </trkpt>
      <trkpt lat="45.94347" lon="4.72399">
        <ele>172</ele>
        <time>2017-06-07T10:26:16Z</time>
      </trkpt>
      <trkpt lat="45.94345" lon="4.72394">
        <ele>172</ele>
        <time>2017-06-07T10:26:17Z</time>
      </trkpt>
      <trkpt lat="45.94342" lon="4.72389">
        <ele>172</ele>
        <time>2017-06-07T10:26:18Z</time>
      </trkpt>
      <trkpt lat="45.94339" lon="4.72382">
        <ele>172</ele>
        <time>2017-06-07T10:26:19Z</time>
      </trkpt>
      <trkpt lat="45.94334" lon="4.72375">
        <ele>172</ele>
        <time>2017-06-07T10:26:20Z</time>
      </trkpt>
      <trkpt lat="45.9433" lon="4.72368">
        <ele>172</ele>
        <time>2017-06-07T10:26:21Z</time>
      </trkpt>
      <trkpt lat="45.94326" lon="4.7236">
        <ele>172</ele>
        <time>2017-06-07T10:26:22Z</time>
      </trkpt>
      <trkpt lat="45.94323" lon="4.72354">
        <ele>172</ele>
        <time>2017-06-07T10:26:23Z</time>
      </trkpt>
      <trkpt lat="45.9432" lon="4.72347">
        <ele>172</ele>
        <time>2017-06-07T10:26:24Z</time>
      </trkpt>
      <trkpt lat="45.94317" lon="4.72341">
        <ele>172</ele>
        <time>2017-06-07T10:26:25Z</time>
      </trkpt>
      <trkpt lat="45.94315" lon="4.72334">
        <ele>172</ele>
        <time>2017-06-07T10:26:26Z</time>
      </trkpt>
      <trkpt lat="45.94311" lon="4.72327">
        <ele>172</ele>
        <time>2017-06-07T10:26:27Z</time>
      </trkpt>
      <trkpt lat="45.94308" lon="4.72321">
        <ele>171</ele>
        <time>2017-06-07T10:26:28Z</time>
      </trkpt>
      <trkpt lat="45.94305" lon="4.72314">
        <ele>171</ele>
        <time>2017-06-07T10:26:29Z</time>
      </trkpt>
      <trkpt lat="45.94302" lon="4.72307">
        <ele>171</ele>
        <time>2017-06-07T10:26:30Z</time>
      </trkpt>
      <trkpt lat="45.94299" lon="4.72301">
        <ele>171</ele>
        <time>2017-06-07T10:26:31Z</time>
      </trkpt>
      <trkpt lat="45.94296" lon="4.72294">
        <ele>171</ele>
        <time>2017-06-07T10:26:32Z</time>
      </trkpt>
      <trkpt lat="45.94293" lon="4.72288">
        <ele>171</ele>
        <time>2017-06-07T10:26:33Z</time>
      </trkpt>
      <trkpt lat="45.9429" lon="4.72282">
        <ele>171</ele>
        <time>2017-06-07T10:26:34Z</time>
      </trkpt>
      <trkpt lat="45.94287" lon="4.72278">
        <ele>171</ele>
        <time>2017-06-07T10:26:35Z</time>
      </trkpt>
      <trkpt lat="45.94282" lon="4.72275">
        <ele>171</ele>
        <time>2017-06-07T10:26:36Z</time>
      </trkpt>
      <trkpt lat="45.94276" lon="4.72273">
        <ele>171</ele>
        <time>2017-06-07T10:26:37Z</time>
      </trkpt>
      <trkpt lat="45.94271" lon="4.72273">
        <ele>171</ele>
        <time>2017-06-07T10:26:38Z</time>
      </trkpt>
      <trkpt lat="45.94265" lon="4.72275">
        <ele>171</ele>
        <time>2017-06-07T10:26:39Z</time>
      </trkpt>
      <trkpt lat="45.9426" lon="4.72276">
        <ele>171</ele>
        <time>2017-06-07T10:26:40Z</time>
      </trkpt>
      <trkpt lat="45.94255" lon="4.72277">
        <ele>171</ele>
        <time>2017-06-07T10:26:41Z</time>
      </trkpt>
      <trkpt lat="45.9425" lon="4.72278">
        <ele>171</ele>
        <time>2017-06-07T10:26:42Z</time>
      </trkpt>
      <trkpt lat="45.94245" lon="4.7228">
        <ele>171</ele>
        <time>2017-06-07T10:26:43Z</time>
      </trkpt>
      <trkpt lat="45.9424" lon="4.72282">
        <ele>171</ele>
        <time>2017-06-07T10:26:44Z</time>
      </trkpt>
      <trkpt lat="45.94234" lon="4.72283">
        <ele>171</ele>
        <time>2017-06-07T10:26:45Z</time>
      </trkpt>
      <trkpt lat="45.94228" lon="4.72284">
        <ele>171</ele>
        <time>2017-06-07T10:26:46Z</time>
      </trkpt>
      <trkpt lat="45.94222" lon="4.72284">
        <ele>171</ele>
        <time>2017-06-07T10:26:47Z</time>
      </trkpt>
      <trkpt lat="45.94216" lon="4.72285">
        <ele>171</ele>
        <time>2017-06-07T10:26:48Z</time>
      </trkpt>
      <trkpt lat="45.94209" lon="4.72285">
        <ele>171</ele>
        <time>2017-06-07T10:26:49Z</time>
      </trkpt>
      <trkpt lat="45.94203" lon="4.72285">
        <ele>171</ele>
        <time>2017-06-07T10:26:50Z</time>
      </trkpt>
      <trkpt lat="45.94196" lon="4.72285">
        <ele>171</ele>
        <time>2017-06-07T10:26:51Z</time>
      </trkpt>
      <trkpt lat="45.9419" lon="4.72286">
        <ele>171</ele>
        <time>2017-06-07T10:26:52Z</time>
      </trkpt>
      <trkpt lat="45.94184" lon="4.72285">
        <ele>171</ele>
        <time>2017-06-07T10:26:53Z</time>
      </trkpt>
      <trkpt lat="45.94178" lon="4.72284">
        <ele>171</ele>
        <time>2017-06-07T10:26:54Z</time>
      </trkpt>
      <trkpt lat="45.94172" lon="4.72284">
        <ele>171</ele>
        <time>2017-06-07T10:26:55Z</time>
      </trkpt>
      <trkpt lat="45.94167" lon="4.72282">
        <ele>171</ele>
        <time>2017-06-07T10:26:56Z</time>
      </trkpt>
      <trkpt lat="45.94161" lon="4.7228">
        <ele>171</ele>
        <time>2017-06-07T10:26:57Z</time>
      </trkpt>
      <trkpt lat="45.94156" lon="4.72278">
        <ele>171</ele>
        <time>2017-06-07T10:26:58Z</time>
      </trkpt>
      <trkpt lat="45.94151" lon="4.72276">
        <ele>171</ele>
        <time>2017-06-07T10:26:59Z</time>
      </trkpt>
      <trkpt lat="45.94147" lon="4.72274">
        <ele>171</ele>
        <time>2017-06-07T10:27:00Z</time>
      </trkpt>
      <trkpt lat="45.94142" lon="4.72273">
        <ele>171</ele>
        <time>2017-06-07T10:27:01Z</time>
      </trkpt>
      <trkpt lat="45.94138" lon="4.72271">
        <ele>171</ele>
        <time>2017-06-07T10:27:02Z</time>
      </trkpt>
      <trkpt lat="45.94133" lon="4.72268">
        <ele>171</ele>
        <time>2017-06-07T10:27:03Z</time>
      </trkpt>
      <trkpt lat="45.94128" lon="4.72265">
        <ele>171</ele>
        <time>2017-06-07T10:27:04Z</time>
      </trkpt>
      <trkpt lat="45.94123" lon="4.72262">
        <ele>171</ele>
        <time>2017-06-07T10:27:05Z</time>
      </trkpt>
      <trkpt lat="45.94118" lon="4.7226">
        <ele>171</ele>
        <time>2017-06-07T10:27:06Z</time>
      </trkpt>
      <trkpt lat="45.94113" lon="4.72258">
        <ele>171</ele>
        <time>2017-06-07T10:27:07Z</time>
      </trkpt>
      <trkpt lat="45.94108" lon="4.72257">
        <ele>171</ele>
        <time>2017-06-07T10:27:08Z</time>
      </trkpt>
      <trkpt lat="45.94102" lon="4.72256">
        <ele>171</ele>
        <time>2017-06-07T10:27:09Z</time>
      </trkpt>
      <trkpt lat="45.94096" lon="4.72256">
        <ele>171</ele>
        <time>2017-06-07T10:27:10Z</time>
      </trkpt>
      <trkpt lat="45.9409" lon="4.72256">
        <ele>171</ele>
        <time>2017-06-07T10:27:11Z</time>
      </trkpt>
      <trkpt lat="45.94085" lon="4.72257">
        <ele>171</ele>
        <time>2017-06-07T10:27:12Z</time>
      </trkpt>
      <trkpt lat="45.94079" lon="4.72259">
        <ele>171</ele>
        <time>2017-06-07T10:27:13Z</time>
      </trkpt>
      <trkpt lat="45.94073" lon="4.72263">
        <ele>171</ele>
        <time>2017-06-07T10:27:14Z</time>
      </trkpt>
      <trkpt lat="45.94068" lon="4.72267">
        <ele>171</ele>
        <time>2017-06-07T10:27:15Z</time>
      </trkpt>
      <trkpt lat="45.94063" lon="4.72273">
        <ele>171</ele>
        <time>2017-06-07T10:27:16Z</time>
      </trkpt>
      <trkpt lat="45.94059" lon="4.72278">
        <ele>171</ele>
        <time>2017-06-07T10:27:17Z</time>
      </trkpt>
      <trkpt lat="45.94054" lon="4.72284">
        <ele>171</ele>
        <time>2017-06-07T10:27:18Z</time>
      </trkpt>
      <trkpt lat="45.9405" lon="4.7229">
        <ele>171</ele>
        <time>2017-06-07T10:27:19Z</time>
      </trkpt>
      <trkpt lat="45.94045" lon="4.72296">
        <ele>171</ele>
        <time>2017-06-07T10:27:20Z</time>
      </trkpt>
      <trkpt lat="45.94041" lon="4.72301">
        <ele>171</ele>
        <time>2017-06-07T10:27:21Z</time>
      </trkpt>
      <trkpt lat="45.94037" lon="4.72309">
        <ele>171</ele>
        <time>2017-06-07T10:27:22Z</time>
      </trkpt>
      <trkpt lat="45.94033" lon="4.72315">
        <ele>171</ele>
        <time>2017-06-07T10:27:23Z</time>
      </trkpt>
      <trkpt lat="45.94029" lon="4.72322">
        <ele>171</ele>
        <time>2017-06-07T10:27:24Z</time>
      </trkpt>
      <trkpt lat="45.94024" lon="4.72327">
        <ele>171</ele>
        <time>2017-06-07T10:27:25Z</time>
      </trkpt>
      <trkpt lat="45.9402" lon="4.72333">
        <ele>171</ele>
        <time>2017-06-07T10:27:26Z</time>
      </trkpt>
      <trkpt lat="45.94016" lon="4.72338">
        <ele>171</ele>
        <time>2017-06-07T10:27:27Z</time>
      </trkpt>
      <trkpt lat="45.94012" lon="4.72344">
        <ele>171</ele>
        <time>2017-06-07T10:27:28Z</time>
      </trkpt>
      <trkpt lat="45.94008" lon="4.72349">
        <ele>171</ele>
        <time>2017-06-07T10:27:29Z</time>
      </trkpt>
      <trkpt lat="45.94004" lon="4.72354">
        <ele>171</ele>
        <time>2017-06-07T10:27:30Z</time>
      </trkpt>
      <trkpt lat="45.94" lon="4.7236">
        <ele>171</ele>
        <time>2017-06-07T10:27:31Z</time>
      </trkpt>
      <trkpt lat="45.93997" lon="4.72365">
        <ele>171</ele>
        <time>2017-06-07T10:27:32Z</time>
      </trkpt>
      <trkpt lat="45.93993" lon="4.72371">
        <ele>171</ele>
        <time>2017-06-07T10:27:33Z</time>
      </trkpt>
      <trkpt lat="45.93988" lon="4.72376">
        <ele>171</ele>
        <time>2017-06-07T10:27:34Z</time>
      </trkpt>
      <trkpt lat="45.93984" lon="4.72381">
        <ele>171</ele>
        <time>2017-06-07T10:27:35Z</time>
      </trkpt>
      <trkpt lat="45.93979" lon="4.72388">
        <ele>171</ele>
        <time>2017-06-07T10:27:36Z</time>
      </trkpt>
      <trkpt lat="45.93975" lon="4.72393">
        <ele>171</ele>
        <time>2017-06-07T10:27:37Z</time>
      </trkpt>
      <trkpt lat="45.9397" lon="4.72399">
        <ele>171</ele>
        <time>2017-06-07T10:27:38Z</time>
      </trkpt>
      <trkpt lat="45.93965" lon="4.72404">
        <ele>171</ele>
        <time>2017-06-07T10:27:39Z</time>
      </trkpt>
      <trkpt lat="45.9396" lon="4.72409">
        <ele>171</ele>
        <time>2017-06-07T10:27:40Z</time>
      </trkpt>
      <trkpt lat="45.93956" lon="4.72414">
        <ele>171</ele>
        <time>2017-06-07T10:27:41Z</time>
      </trkpt>
      <trkpt lat="45.93951" lon="4.72419">
        <ele>171</ele>
        <time>2017-06-07T10:27:42Z</time>
      </trkpt>
      <trkpt lat="45.93948" lon="4.72424">
        <ele>171</ele>
        <time>2017-06-07T10:27:43Z</time>
      </trkpt>
      <trkpt lat="45.93944" lon="4.72428">
        <ele>171</ele>
        <time>2017-06-07T10:27:44Z</time>
      </trkpt>
      <trkpt lat="45.9394" lon="4.72433">
        <ele>171</ele>
        <time>2017-06-07T10:27:45Z</time>
      </trkpt>
      <trkpt lat="45.93936" lon="4.72438">
        <ele>171</ele>
        <time>2017-06-07T10:27:46Z</time>
      </trkpt>
      <trkpt lat="45.93932" lon="4.72442">
        <ele>171</ele>
        <time>2017-06-07T10:27:47Z</time>
      </trkpt>
      <trkpt lat="45.93927" lon="4.72447">
        <ele>171</ele>
        <time>2017-06-07T10:27:48Z</time>
      </trkpt>
      <trkpt lat="45.93923" lon="4.72453">
        <ele>171</ele>
        <time>2017-06-07T10:27:49Z</time>
      </trkpt>
      <trkpt lat="45.93919" lon="4.72458">
        <ele>171</ele>
        <time>2017-06-07T10:27:50Z</time>
      </trkpt>
      <trkpt lat="45.93914" lon="4.72464">
        <ele>172</ele>
        <time>2017-06-07T10:27:51Z</time>
      </trkpt>
      <trkpt lat="45.9391" lon="4.72469">
        <ele>172</ele>
        <time>2017-06-07T10:27:52Z</time>
      </trkpt>
      <trkpt lat="45.93906" lon="4.72474">
        <ele>172</ele>
        <time>2017-06-07T10:27:53Z</time>
      </trkpt>
      <trkpt lat="45.93902" lon="4.72479">
        <ele>172</ele>
        <time>2017-06-07T10:27:54Z</time>
      </trkpt>
      <trkpt lat="45.93898" lon="4.72484">
        <ele>172</ele>
        <time>2017-06-07T10:27:55Z</time>
      </trkpt>
      <trkpt lat="45.93894" lon="4.72488">
        <ele>172</ele>
        <time>2017-06-07T10:27:56Z</time>
      </trkpt>
      <trkpt lat="45.9389" lon="4.72492">
        <ele>172</ele>
        <time>2017-06-07T10:27:57Z</time>
      </trkpt>
      <trkpt lat="45.93887" lon="4.72497">
        <ele>172</ele>
        <time>2017-06-07T10:27:58Z</time>
      </trkpt>
      <trkpt lat="45.93884" lon="4.72501">
        <ele>173</ele>
        <time>2017-06-07T10:27:59Z</time>
      </trkpt>
      <trkpt lat="45.93876" lon="4.72508">
        <ele>173</ele>
        <time>2017-06-07T10:28:01Z</time>
      </trkpt>
      <trkpt lat="45.93872" lon="4.7251">
        <ele>173</ele>
        <time>2017-06-07T10:28:02Z</time>
      </trkpt>
      <trkpt lat="45.93865" lon="4.72511">
        <ele>173</ele>
        <time>2017-06-07T10:28:04Z</time>
      </trkpt>
      <trkpt lat="45.93862" lon="4.7251">
        <ele>173</ele>
        <time>2017-06-07T10:28:05Z</time>
      </trkpt>
      <trkpt lat="45.93854" lon="4.72505">
        <ele>173</ele>
        <time>2017-06-07T10:28:07Z</time>
      </trkpt>
      <trkpt lat="45.9385" lon="4.72501">
        <ele>174</ele>
        <time>2017-06-07T10:28:08Z</time>
      </trkpt>
      <trkpt lat="45.93846" lon="4.72498">
        <ele>173</ele>
        <time>2017-06-07T10:28:09Z</time>
      </trkpt>
      <trkpt lat="45.93842" lon="4.72494">
        <ele>173</ele>
        <time>2017-06-07T10:28:10Z</time>
      </trkpt>
      <trkpt lat="45.93837" lon="4.7249">
        <ele>173</ele>
        <time>2017-06-07T10:28:11Z</time>
      </trkpt>
      <trkpt lat="45.93833" lon="4.72487">
        <ele>173</ele>
        <time>2017-06-07T10:28:12Z</time>
      </trkpt>
      <trkpt lat="45.9383" lon="4.72477">
        <ele>173</ele>
        <time>2017-06-07T10:28:13Z</time>
      </trkpt>
      <trkpt lat="45.93825" lon="4.7247">
        <ele>172</ele>
        <time>2017-06-07T10:28:14Z</time>
      </trkpt>
      <trkpt lat="45.93821" lon="4.72466">
        <ele>172</ele>
        <time>2017-06-07T10:28:15Z</time>
      </trkpt>
      <trkpt lat="45.93817" lon="4.72462">
        <ele>172</ele>
        <time>2017-06-07T10:28:16Z</time>
      </trkpt>
      <trkpt lat="45.93813" lon="4.72459">
        <ele>172</ele>
        <time>2017-06-07T10:28:17Z</time>
      </trkpt>
      <trkpt lat="45.93809" lon="4.72455">
        <ele>172</ele>
        <time>2017-06-07T10:28:18Z</time>
      </trkpt>
      <trkpt lat="45.93805" lon="4.7245">
        <ele>172</ele>
        <time>2017-06-07T10:28:19Z</time>
      </trkpt>
      <trkpt lat="45.93801" lon="4.72446">
        <ele>172</ele>
        <time>2017-06-07T10:28:20Z</time>
      </trkpt>
      <trkpt lat="45.93798" lon="4.72443">
        <ele>172</ele>
        <time>2017-06-07T10:28:21Z</time>
      </trkpt>
      <trkpt lat="45.93793" lon="4.7244">
        <ele>172</ele>
        <time>2017-06-07T10:28:22Z</time>
      </trkpt>
      <trkpt lat="45.93788" lon="4.72436">
        <ele>172</ele>
        <time>2017-06-07T10:28:23Z</time>
      </trkpt>
      <trkpt lat="45.93782" lon="4.72431">
        <ele>172</ele>
        <time>2017-06-07T10:28:24Z</time>
      </trkpt>
      <trkpt lat="45.93777" lon="4.72428">
        <ele>171</ele>
        <time>2017-06-07T10:28:25Z</time>
      </trkpt>
      <trkpt lat="45.93772" lon="4.72423">
        <ele>171</ele>
        <time>2017-06-07T10:28:26Z</time>
      </trkpt>
      <trkpt lat="45.93767" lon="4.72419">
        <ele>171</ele>
        <time>2017-06-07T10:28:27Z</time>
      </trkpt>
      <trkpt lat="45.93763" lon="4.72414">
        <ele>171</ele>
        <time>2017-06-07T10:28:28Z</time>
      </trkpt>
      <trkpt lat="45.93759" lon="4.72409">
        <ele>171</ele>
        <time>2017-06-07T10:28:29Z</time>
      </trkpt>
      <trkpt lat="45.93754" lon="4.72404">
        <ele>171</ele>
        <time>2017-06-07T10:28:30Z</time>
      </trkpt>
      <trkpt lat="45.93749" lon="4.72399">
        <ele>171</ele>
        <time>2017-06-07T10:28:31Z</time>
      </trkpt>
      <trkpt lat="45.93745" lon="4.72395">
        <ele>171</ele>
        <time>2017-06-07T10:28:32Z</time>
      </trkpt>
      <trkpt lat="45.93741" lon="4.72391">
        <ele>171</ele>
        <time>2017-06-07T10:28:33Z</time>
      </trkpt>
      <trkpt lat="45.93737" lon="4.72387">
        <ele>171</ele>
        <time>2017-06-07T10:28:34Z</time>
      </trkpt>
      <trkpt lat="45.93732" lon="4.72383">
        <ele>171</ele>
        <time>2017-06-07T10:28:35Z</time>
      </trkpt>
      <trkpt lat="45.93728" lon="4.72379">
        <ele>171</ele>
        <time>2017-06-07T10:28:36Z</time>
      </trkpt>
      <trkpt lat="45.93725" lon="4.72374">
        <ele>172</ele>
        <time>2017-06-07T10:28:37Z</time>
      </trkpt>
      <trkpt lat="45.93721" lon="4.7237">
        <ele>172</ele>
        <time>2017-06-07T10:28:38Z</time>
      </trkpt>
      <trkpt lat="45.93718" lon="4.72365">
        <ele>172</ele>
        <time>2017-06-07T10:28:39Z</time>
      </trkpt>
      <trkpt lat="45.93714" lon="4.72361">
        <ele>172</ele>
        <time>2017-06-07T10:28:40Z</time>
      </trkpt>
      <trkpt lat="45.93706" lon="4.72355">
        <ele>171</ele>
        <time>2017-06-07T10:28:42Z</time>
      </trkpt>
      <trkpt lat="45.93703" lon="4.72353">
        <ele>171</ele>
        <time>2017-06-07T10:28:43Z</time>
      </trkpt>
      <trkpt lat="45.93695" lon="4.72347">
        <ele>171</ele>
        <time>2017-06-07T10:28:45Z</time>
      </trkpt>
      <trkpt lat="45.93692" lon="4.72343">
        <ele>171</ele>
        <time>2017-06-07T10:28:46Z</time>
      </trkpt>
      <trkpt lat="45.93688" lon="4.7234">
        <ele>171</ele>
        <time>2017-06-07T10:28:47Z</time>
      </trkpt>
      <trkpt lat="45.93682" lon="4.72335">
        <ele>171</ele>
        <time>2017-06-07T10:28:48Z</time>
      </trkpt>
      <trkpt lat="45.93678" lon="4.72331">
        <ele>171</ele>
        <time>2017-06-07T10:28:49Z</time>
      </trkpt>
      <trkpt lat="45.93674" lon="4.72326">
        <ele>171</ele>
        <time>2017-06-07T10:28:50Z</time>
      </trkpt>
      <trkpt lat="45.93672" lon="4.72321">
        <ele>171</ele>
        <time>2017-06-07T10:28:51Z</time>
      </trkpt>
      <trkpt lat="45.93668" lon="4.72317">
        <ele>171</ele>
        <time>2017-06-07T10:28:52Z</time>
      </trkpt>
      <trkpt lat="45.93664" lon="4.72313">
        <ele>172</ele>
        <time>2017-06-07T10:28:53Z</time>
      </trkpt>
      <trkpt lat="45.9366" lon="4.72308">
        <ele>172</ele>
        <time>2017-06-07T10:28:54Z</time>
      </trkpt>
      <trkpt lat="45.93655" lon="4.72303">
        <ele>172</ele>
        <time>2017-06-07T10:28:55Z</time>
      </trkpt>
      <trkpt lat="45.93651" lon="4.72298">
        <ele>172</ele>
        <time>2017-06-07T10:28:56Z</time>
      </trkpt>
      <trkpt lat="45.93646" lon="4.72294">
        <ele>172</ele>
        <time>2017-06-07T10:28:57Z</time>
      </trkpt>
      <trkpt lat="45.93642" lon="4.7229">
        <ele>172</ele>
        <time>2017-06-07T10:28:58Z</time>
      </trkpt>
      <trkpt lat="45.93637" lon="4.72286">
        <ele>172</ele>
        <time>2017-06-07T10:28:59Z</time>
      </trkpt>
      <trkpt lat="45.93633" lon="4.72282">
        <ele>172</ele>
        <time>2017-06-07T10:29:00Z</time>
      </trkpt>
      <trkpt lat="45.93627" lon="4.72276">
        <ele>172</ele>
        <time>2017-06-07T10:29:02Z</time>
      </trkpt>
      <trkpt lat="45.93623" lon="4.72272">
        <ele>172</ele>
        <time>2017-06-07T10:29:03Z</time>
      </trkpt>
      <trkpt lat="45.93615" lon="4.72266">
        <ele>172</ele>
        <time>2017-06-07T10:29:05Z</time>
      </trkpt>
      <trkpt lat="45.93612" lon="4.72264">
        <ele>172</ele>
        <time>2017-06-07T10:29:06Z</time>
      </trkpt>
      <trkpt lat="45.93604" lon="4.72257">
        <ele>173</ele>
        <time>2017-06-07T10:29:08Z</time>
      </trkpt>
      <trkpt lat="45.936" lon="4.72254">
        <ele>173</ele>
        <time>2017-06-07T10:29:09Z</time>
      </trkpt>
      <trkpt lat="45.93596" lon="4.72251">
        <ele>173</ele>
        <time>2017-06-07T10:29:10Z</time>
      </trkpt>
      <trkpt lat="45.93592" lon="4.72248">
        <ele>173</ele>
        <time>2017-06-07T10:29:11Z</time>
      </trkpt>
      <trkpt lat="45.93586" lon="4.72242">
        <ele>173</ele>
        <time>2017-06-07T10:29:13Z</time>
      </trkpt>
      <trkpt lat="45.93584" lon="4.72237">
        <ele>173</ele>
        <time>2017-06-07T10:29:14Z</time>
      </trkpt>
      <trkpt lat="45.9358" lon="4.7223">
        <ele>173</ele>
        <time>2017-06-07T10:29:16Z</time>
      </trkpt>
      <trkpt lat="45.93578" lon="4.72227">
        <ele>173</ele>
        <time>2017-06-07T10:29:17Z</time>
      </trkpt>
      <trkpt lat="45.93571" lon="4.72222">
        <ele>173</ele>
        <time>2017-06-07T10:29:20Z</time>
      </trkpt>
      <trkpt lat="45.93569" lon="4.72221">
        <ele>173</ele>
        <time>2017-06-07T10:29:21Z</time>
      </trkpt>
      <trkpt lat="45.93567" lon="4.72222">
        <ele>173</ele>
        <time>2017-06-07T10:29:26Z</time>
      </trkpt>
      <trkpt lat="45.93566" lon="4.72221">
        <ele>173</ele>
        <time>2017-06-07T10:29:27Z</time>
      </trkpt>
      <trkpt lat="45.93564" lon="4.72218">
        <ele>173</ele>
        <time>2017-06-07T10:29:35Z</time>
      </trkpt>
      <trkpt lat="45.93563" lon="4.72217">
        <ele>173</ele>
        <time>2017-06-07T10:29:36Z</time>
      </trkpt>
      <trkpt lat="45.93555" lon="4.72215">
        <ele>173</ele>
        <time>2017-06-07T10:29:38Z</time>
      </trkpt>
      <trkpt lat="45.93553" lon="4.72216">
        <ele>173</ele>
        <time>2017-06-07T10:29:39Z</time>
      </trkpt>
      <trkpt lat="45.93548" lon="4.72223">
        <ele>172</ele>
        <time>2017-06-07T10:29:42Z</time>
      </trkpt>
      <trkpt lat="45.93546" lon="4.72226">
        <ele>172</ele>
        <time>2017-06-07T10:29:43Z</time>
      </trkpt>
      <trkpt lat="45.93541" lon="4.72235">
        <ele>172</ele>
        <time>2017-06-07T10:29:46Z</time>
      </trkpt>
      <trkpt lat="45.9354" lon="4.72238">
        <ele>172</ele>
        <time>2017-06-07T10:29:47Z</time>
      </trkpt>
      <trkpt lat="45.93535" lon="4.72248">
        <ele>172</ele>
        <time>2017-06-07T10:29:50Z</time>
      </trkpt>
      <trkpt lat="45.93534" lon="4.72252">
        <ele>172</ele>
        <time>2017-06-07T10:29:51Z</time>
      </trkpt>
      <trkpt lat="45.93529" lon="4.72263">
        <ele>172</ele>
        <time>2017-06-07T10:29:54Z</time>
      </trkpt>
      <trkpt lat="45.93528" lon="4.72267">
        <ele>172</ele>
        <time>2017-06-07T10:29:55Z</time>
      </trkpt>
      <trkpt lat="45.93524" lon="4.72276">
        <ele>172</ele>
        <time>2017-06-07T10:29:57Z</time>
      </trkpt>
      <trkpt lat="45.93522" lon="4.72281">
        <ele>172</ele>
        <time>2017-06-07T10:29:58Z</time>
      </trkpt>
      <trkpt lat="45.9352" lon="4.72286">
        <ele>172</ele>
        <time>2017-06-07T10:29:59Z</time>
      </trkpt>
      <trkpt lat="45.93517" lon="4.72292">
        <ele>172</ele>
        <time>2017-06-07T10:30:00Z</time>
      </trkpt>
      <trkpt lat="45.93514" lon="4.72297">
        <ele>172</ele>
        <time>2017-06-07T10:30:01Z</time>
      </trkpt>
      <trkpt lat="45.93511" lon="4.72302">
        <ele>172</ele>
        <time>2017-06-07T10:30:02Z</time>
      </trkpt>
      <trkpt lat="45.93508" lon="4.72308">
        <ele>173</ele>
        <time>2017-06-07T10:30:03Z</time>
      </trkpt>
      <trkpt lat="45.93504" lon="4.72313">
        <ele>173</ele>
        <time>2017-06-07T10:30:04Z</time>
      </trkpt>
      <trkpt lat="45.935" lon="4.72318">
        <ele>173</ele>
        <time>2017-06-07T10:30:05Z</time>
      </trkpt>
      <trkpt lat="45.93495" lon="4.72324">
        <ele>173</ele>
        <time>2017-06-07T10:30:06Z</time>
      </trkpt>
      <trkpt lat="45.93491" lon="4.7233">
        <ele>173</ele>
        <time>2017-06-07T10:30:07Z</time>
      </trkpt>
      <trkpt lat="45.93487" lon="4.72336">
        <ele>173</ele>
        <time>2017-06-07T10:30:08Z</time>
      </trkpt>
      <trkpt lat="45.93483" lon="4.72342">
        <ele>173</ele>
        <time>2017-06-07T10:30:09Z</time>
      </trkpt>
      <trkpt lat="45.93479" lon="4.72347">
        <ele>173</ele>
        <time>2017-06-07T10:30:10Z</time>
      </trkpt>
      <trkpt lat="45.93474" lon="4.72352">
        <ele>173</ele>
        <time>2017-06-07T10:30:11Z</time>
      </trkpt>
      <trkpt lat="45.9347" lon="4.72357">
        <ele>173</ele>
        <time>2017-06-07T10:30:12Z</time>
      </trkpt>
      <trkpt lat="45.93467" lon="4.72363">
        <ele>173</ele>
        <time>2017-06-07T10:30:13Z</time>
      </trkpt>
      <trkpt lat="45.93462" lon="4.72368">
        <ele>173</ele>
        <time>2017-06-07T10:30:14Z</time>
      </trkpt>
      <trkpt lat="45.93458" lon="4.72372">
        <ele>173</ele>
        <time>2017-06-07T10:30:15Z</time>
      </trkpt>
      <trkpt lat="45.93454" lon="4.72377">
        <ele>173</ele>
        <time>2017-06-07T10:30:16Z</time>
      </trkpt>
      <trkpt lat="45.93449" lon="4.72381">
        <ele>173</ele>
        <time>2017-06-07T10:30:17Z</time>
      </trkpt>
      <trkpt lat="45.93444" lon="4.72385">
        <ele>173</ele>
        <time>2017-06-07T10:30:18Z</time>
      </trkpt>
      <trkpt lat="45.93439" lon="4.72388">
        <ele>173</ele>
        <time>2017-06-07T10:30:19Z</time>
      </trkpt>
      <trkpt lat="45.93435" lon="4.72391">
        <ele>173</ele>
        <time>2017-06-07T10:30:20Z</time>
      </trkpt>
      <trkpt lat="45.9343" lon="4.72394">
        <ele>173</ele>
        <time>2017-06-07T10:30:21Z</time>
      </trkpt>
      <trkpt lat="45.93426" lon="4.72396">
        <ele>174</ele>
        <time>2017-06-07T10:30:22Z</time>
      </trkpt>
      <trkpt lat="45.93421" lon="4.72398">
        <ele>174</ele>
        <time>2017-06-07T10:30:23Z</time>
      </trkpt>
      <trkpt lat="45.93416" lon="4.724">
        <ele>174</ele>
        <time>2017-06-07T10:30:24Z</time>
      </trkpt>
      <trkpt lat="45.93411" lon="4.72402">
        <ele>174</ele>
        <time>2017-06-07T10:30:25Z</time>
      </trkpt>
      <trkpt lat="45.93407" lon="4.72403">
        <ele>174</ele>
        <time>2017-06-07T10:30:26Z</time>
      </trkpt>
      <trkpt lat="45.93402" lon="4.72403">
        <ele>174</ele>
        <time>2017-06-07T10:30:27Z</time>
      </trkpt>
      <trkpt lat="45.93397" lon="4.72403">
        <ele>174</ele>
        <time>2017-06-07T10:30:28Z</time>
      </trkpt>
      <trkpt lat="45.93392" lon="4.72402">
        <ele>174</ele>
        <time>2017-06-07T10:30:29Z</time>
      </trkpt>
      <trkpt lat="45.93387" lon="4.72403">
        <ele>174</ele>
        <time>2017-06-07T10:30:30Z</time>
      </trkpt>
      <trkpt lat="45.93384" lon="4.72407">
        <ele>174</ele>
        <time>2017-06-07T10:30:31Z</time>
      </trkpt>
      <trkpt lat="45.93381" lon="4.72413">
        <ele>174</ele>
        <time>2017-06-07T10:30:32Z</time>
      </trkpt>
      <trkpt lat="45.93382" lon="4.72421">
        <ele>173</ele>
        <time>2017-06-07T10:30:33Z</time>
      </trkpt>
      <trkpt lat="45.93384" lon="4.72428">
        <ele>173</ele>
        <time>2017-06-07T10:30:34Z</time>
      </trkpt>
      <trkpt lat="45.93386" lon="4.72434">
        <ele>173</ele>
        <time>2017-06-07T10:30:35Z</time>
      </trkpt>
      <trkpt lat="45.93388" lon="4.7244">
        <ele>173</ele>
        <time>2017-06-07T10:30:36Z</time>
      </trkpt>
      <trkpt lat="45.9339" lon="4.72446">
        <ele>173</ele>
        <time>2017-06-07T10:30:37Z</time>
      </trkpt>
      <trkpt lat="45.9339" lon="4.72453">
        <ele>173</ele>
        <time>2017-06-07T10:30:38Z</time>
      </trkpt>
      <trkpt lat="45.93389" lon="4.7246">
        <ele>173</ele>
        <time>2017-06-07T10:30:39Z</time>
      </trkpt>
      <trkpt lat="45.93387" lon="4.72467">
        <ele>173</ele>
        <time>2017-06-07T10:30:40Z</time>
      </trkpt>
      <trkpt lat="45.93384" lon="4.72472">
        <ele>173</ele>
        <time>2017-06-07T10:30:41Z</time>
      </trkpt>
      <trkpt lat="45.93379" lon="4.72477">
        <ele>173</ele>
        <time>2017-06-07T10:30:42Z</time>
      </trkpt>
      <trkpt lat="45.93374" lon="4.72481">
        <ele>173</ele>
        <time>2017-06-07T10:30:43Z</time>
      </trkpt>
      <trkpt lat="45.9337" lon="4.72486">
        <ele>173</ele>
        <time>2017-06-07T10:30:44Z</time>
      </trkpt>
      <trkpt lat="45.93366" lon="4.7249">
        <ele>173</ele>
        <time>2017-06-07T10:30:45Z</time>
      </trkpt>
      <trkpt lat="45.93362" lon="4.72494">
        <ele>173</ele>
        <time>2017-06-07T10:30:46Z</time>
      </trkpt>
      <trkpt lat="45.93359" lon="4.72499">
        <ele>173</ele>
        <time>2017-06-07T10:30:47Z</time>
      </trkpt>
      <trkpt lat="45.93356" lon="4.72503">
        <ele>172</ele>
        <time>2017-06-07T10:30:48Z</time>
      </trkpt>
      <trkpt lat="45.93352" lon="4.72507">
        <ele>172</ele>
        <time>2017-06-07T10:30:49Z</time>
      </trkpt>
      <trkpt lat="45.93348" lon="4.72512">
        <ele>172</ele>
        <time>2017-06-07T10:30:50Z</time>
      </trkpt>
      <trkpt lat="45.93344" lon="4.72517">
        <ele>172</ele>
        <time>2017-06-07T10:30:51Z</time>
      </trkpt>
      <trkpt lat="45.9334" lon="4.72521">
        <ele>172</ele>
        <time>2017-06-07T10:30:52Z</time>
      </trkpt>
      <trkpt lat="45.93336" lon="4.72526">
        <ele>172</ele>
        <time>2017-06-07T10:30:53Z</time>
      </trkpt>
      <trkpt lat="45.93332" lon="4.72531">
        <ele>172</ele>
        <time>2017-06-07T10:30:54Z</time>
      </trkpt>
      <trkpt lat="45.93328" lon="4.72535">
        <ele>172</ele>
        <time>2017-06-07T10:30:55Z</time>
      </trkpt>
      <trkpt lat="45.93324" lon="4.7254">
        <ele>172</ele>
        <time>2017-06-07T10:30:56Z</time>
      </trkpt>
      <trkpt lat="45.9332" lon="4.72545">
        <ele>172</ele>
        <time>2017-06-07T10:30:57Z</time>
      </trkpt>
      <trkpt lat="45.93315" lon="4.7255">
        <ele>172</ele>
        <time>2017-06-07T10:30:58Z</time>
      </trkpt>
      <trkpt lat="45.93312" lon="4.72554">
        <ele>172</ele>
        <time>2017-06-07T10:30:59Z</time>
      </trkpt>
      <trkpt lat="45.93308" lon="4.72559">
        <ele>172</ele>
        <time>2017-06-07T10:31:00Z</time>
      </trkpt>
      <trkpt lat="45.93304" lon="4.72563">
        <ele>172</ele>
        <time>2017-06-07T10:31:01Z</time>
      </trkpt>
      <trkpt lat="45.933" lon="4.72567">
        <ele>172</ele>
        <time>2017-06-07T10:31:02Z</time>
      </trkpt>
      <trkpt lat="45.93296" lon="4.72571">
        <ele>171</ele>
        <time>2017-06-07T10:31:03Z</time>
      </trkpt>
      <trkpt lat="45.93292" lon="4.72575">
        <ele>171</ele>
        <time>2017-06-07T10:31:04Z</time>
      </trkpt>
      <trkpt lat="45.93288" lon="4.72579">
        <ele>171</ele>
        <time>2017-06-07T10:31:05Z</time>
      </trkpt>
      <trkpt lat="45.93285" lon="4.72585">
        <ele>170</ele>
        <time>2017-06-07T10:31:06Z</time>
      </trkpt>
      <trkpt lat="45.93281" lon="4.72589">
        <ele>170</ele>
        <time>2017-06-07T10:31:07Z</time>
      </trkpt>
      <trkpt lat="45.93277" lon="4.72594">
        <ele>170</ele>
        <time>2017-06-07T10:31:08Z</time>
      </trkpt>
      <trkpt lat="45.93273" lon="4.72599">
        <ele>170</ele>
        <time>2017-06-07T10:31:09Z</time>
      </trkpt>
      <trkpt lat="45.93269" lon="4.72603">
        <ele>170</ele>
        <time>2017-06-07T10:31:10Z</time>
      </trkpt>
      <trkpt lat="45.93266" lon="4.72608">
        <ele>170</ele>
        <time>2017-06-07T10:31:11Z</time>
      </trkpt>
      <trkpt lat="45.93262" lon="4.72612">
        <ele>170</ele>
        <time>2017-06-07T10:31:12Z</time>
      </trkpt>
      <trkpt lat="45.93259" lon="4.72618">
        <ele>170</ele>
        <time>2017-06-07T10:31:13Z</time>
      </trkpt>
      <trkpt lat="45.93255" lon="4.72622">
        <ele>170</ele>
        <time>2017-06-07T10:31:14Z</time>
      </trkpt>
      <trkpt lat="45.93251" lon="4.72627">
        <ele>170</ele>
        <time>2017-06-07T10:31:15Z</time>
      </trkpt>
      <trkpt lat="45.93247" lon="4.72631">
        <ele>170</ele>
        <time>2017-06-07T10:31:16Z</time>
      </trkpt>
      <trkpt lat="45.93243" lon="4.72635">
        <ele>170</ele>
        <time>2017-06-07T10:31:17Z</time>
      </trkpt>
      <trkpt lat="45.93239" lon="4.72639">
        <ele>170</ele>
        <time>2017-06-07T10:31:18Z</time>
      </trkpt>
      <trkpt lat="45.93235" lon="4.72644">
        <ele>170</ele>
        <time>2017-06-07T10:31:19Z</time>
      </trkpt>
      <trkpt lat="45.93231" lon="4.72648">
        <ele>170</ele>
        <time>2017-06-07T10:31:20Z</time>
      </trkpt>
      <trkpt lat="45.93227" lon="4.72651">
        <ele>170</ele>
        <time>2017-06-07T10:31:21Z</time>
      </trkpt>
      <trkpt lat="45.93224" lon="4.72655">
        <ele>170</ele>
        <time>2017-06-07T10:31:22Z</time>
      </trkpt>
      <trkpt lat="45.9322" lon="4.72659">
        <ele>170</ele>
        <time>2017-06-07T10:31:23Z</time>
      </trkpt>
      <trkpt lat="45.93217" lon="4.72664">
        <ele>170</ele>
        <time>2017-06-07T10:31:24Z</time>
      </trkpt>
      <trkpt lat="45.93212" lon="4.72668">
        <ele>169</ele>
        <time>2017-06-07T10:31:25Z</time>
      </trkpt>
      <trkpt lat="45.93208" lon="4.72673">
        <ele>169</ele>
        <time>2017-06-07T10:31:26Z</time>
      </trkpt>
      <trkpt lat="45.93203" lon="4.72678">
        <ele>169</ele>
        <time>2017-06-07T10:31:27Z</time>
      </trkpt>
      <trkpt lat="45.93199" lon="4.72684">
        <ele>169</ele>
        <time>2017-06-07T10:31:28Z</time>
      </trkpt>
      <trkpt lat="45.93194" lon="4.72689">
        <ele>169</ele>
        <time>2017-06-07T10:31:29Z</time>
      </trkpt>
      <trkpt lat="45.9319" lon="4.72694">
        <ele>169</ele>
        <time>2017-06-07T10:31:30Z</time>
      </trkpt>
      <trkpt lat="45.93186" lon="4.72698">
        <ele>169</ele>
        <time>2017-06-07T10:31:31Z</time>
      </trkpt>
      <trkpt lat="45.93182" lon="4.72703">
        <ele>169</ele>
        <time>2017-06-07T10:31:32Z</time>
      </trkpt>
      <trkpt lat="45.93178" lon="4.72708">
        <ele>169</ele>
        <time>2017-06-07T10:31:33Z</time>
      </trkpt>
      <trkpt lat="45.93174" lon="4.72713">
        <ele>170</ele>
        <time>2017-06-07T10:31:34Z</time>
      </trkpt>
      <trkpt lat="45.93169" lon="4.72718">
        <ele>170</ele>
        <time>2017-06-07T10:31:35Z</time>
      </trkpt>
      <trkpt lat="45.93164" lon="4.72723">
        <ele>170</ele>
        <time>2017-06-07T10:31:36Z</time>
      </trkpt>
      <trkpt lat="45.9316" lon="4.72728">
        <ele>170</ele>
        <time>2017-06-07T10:31:37Z</time>
      </trkpt>
      <trkpt lat="45.93155" lon="4.72733">
        <ele>170</ele>
        <time>2017-06-07T10:31:38Z</time>
      </trkpt>
      <trkpt lat="45.93149" lon="4.72739">
        <ele>170</ele>
        <time>2017-06-07T10:31:39Z</time>
      </trkpt>
      <trkpt lat="45.93145" lon="4.72745">
        <ele>170</ele>
        <time>2017-06-07T10:31:40Z</time>
      </trkpt>
      <trkpt lat="45.9314" lon="4.7275">
        <ele>170</ele>
        <time>2017-06-07T10:31:41Z</time>
      </trkpt>
      <trkpt lat="45.93136" lon="4.72755">
        <ele>171</ele>
        <time>2017-06-07T10:31:42Z</time>
      </trkpt>
      <trkpt lat="45.93131" lon="4.72761">
        <ele>171</ele>
        <time>2017-06-07T10:31:43Z</time>
      </trkpt>
      <trkpt lat="45.93127" lon="4.72767">
        <ele>171</ele>
        <time>2017-06-07T10:31:44Z</time>
      </trkpt>
      <trkpt lat="45.93123" lon="4.72772">
        <ele>171</ele>
        <time>2017-06-07T10:31:45Z</time>
      </trkpt>
      <trkpt lat="45.93119" lon="4.72777">
        <ele>171</ele>
        <time>2017-06-07T10:31:46Z</time>
      </trkpt>
      <trkpt lat="45.93115" lon="4.72783">
        <ele>171</ele>
        <time>2017-06-07T10:31:47Z</time>
      </trkpt>
      <trkpt lat="45.93111" lon="4.72788">
        <ele>171</ele>
        <time>2017-06-07T10:31:48Z</time>
      </trkpt>
      <trkpt lat="45.93107" lon="4.72792">
        <ele>171</ele>
        <time>2017-06-07T10:31:49Z</time>
      </trkpt>
      <trkpt lat="45.93103" lon="4.72797">
        <ele>171</ele>
        <time>2017-06-07T10:31:50Z</time>
      </trkpt>
      <trkpt lat="45.93098" lon="4.72802">
        <ele>171</ele>
        <time>2017-06-07T10:31:51Z</time>
      </trkpt>
      <trkpt lat="45.93094" lon="4.72807">
        <ele>172</ele>
        <time>2017-06-07T10:31:52Z</time>
      </trkpt>
      <trkpt lat="45.93089" lon="4.72811">
        <ele>172</ele>
        <time>2017-06-07T10:31:53Z</time>
      </trkpt>
      <trkpt lat="45.93085" lon="4.72816">
        <ele>172</ele>
        <time>2017-06-07T10:31:54Z</time>
      </trkpt>
      <trkpt lat="45.93081" lon="4.7282">
        <ele>173</ele>
        <time>2017-06-07T10:31:55Z</time>
      </trkpt>
      <trkpt lat="45.93076" lon="4.72825">
        <ele>173</ele>
        <time>2017-06-07T10:31:56Z</time>
      </trkpt>
      <trkpt lat="45.93071" lon="4.72829">
        <ele>173</ele>
        <time>2017-06-07T10:31:57Z</time>
      </trkpt>
      <trkpt lat="45.93066" lon="4.72834">
        <ele>173</ele>
        <time>2017-06-07T10:31:58Z</time>
      </trkpt>
      <trkpt lat="45.9306" lon="4.72837">
        <ele>173</ele>
        <time>2017-06-07T10:31:59Z</time>
      </trkpt>
      <trkpt lat="45.93055" lon="4.7284">
        <ele>172</ele>
        <time>2017-06-07T10:32:00Z</time>
      </trkpt>
      <trkpt lat="45.93051" lon="4.72845">
        <ele>172</ele>
        <time>2017-06-07T10:32:01Z</time>
      </trkpt>
      <trkpt lat="45.9305" lon="4.72852">
        <ele>172</ele>
        <time>2017-06-07T10:32:02Z</time>
      </trkpt>
      <trkpt lat="45.93045" lon="4.7286">
        <ele>172</ele>
        <time>2017-06-07T10:32:04Z</time>
      </trkpt>
      <trkpt lat="45.93041" lon="4.72865">
        <ele>172</ele>
        <time>2017-06-07T10:32:05Z</time>
      </trkpt>
      <trkpt lat="45.93036" lon="4.7287">
        <ele>172</ele>
        <time>2017-06-07T10:32:06Z</time>
      </trkpt>
      <trkpt lat="45.93032" lon="4.72874">
        <ele>172</ele>
        <time>2017-06-07T10:32:07Z</time>
      </trkpt>
      <trkpt lat="45.93028" lon="4.72879">
        <ele>172</ele>
        <time>2017-06-07T10:32:08Z</time>
      </trkpt>
      <trkpt lat="45.93024" lon="4.72884">
        <ele>172</ele>
        <time>2017-06-07T10:32:09Z</time>
      </trkpt>
      <trkpt lat="45.93021" lon="4.72889">
        <ele>172</ele>
        <time>2017-06-07T10:32:10Z</time>
      </trkpt>
      <trkpt lat="45.93017" lon="4.72893">
        <ele>172</ele>
        <time>2017-06-07T10:32:11Z</time>
      </trkpt>
      <trkpt lat="45.93013" lon="4.72897">
        <ele>172</ele>
        <time>2017-06-07T10:32:12Z</time>
      </trkpt>
      <trkpt lat="45.93009" lon="4.72902">
        <ele>172</ele>
        <time>2017-06-07T10:32:13Z</time>
      </trkpt>
      <trkpt lat="45.93006" lon="4.72907">
        <ele>171</ele>
        <time>2017-06-07T10:32:14Z</time>
      </trkpt>
      <trkpt lat="45.93002" lon="4.72911">
        <ele>171</ele>
        <time>2017-06-07T10:32:15Z</time>
      </trkpt>
      <trkpt lat="45.92998" lon="4.72915">
        <ele>171</ele>
        <time>2017-06-07T10:32:16Z</time>
      </trkpt>
      <trkpt lat="45.92994" lon="4.7292">
        <ele>171</ele>
        <time>2017-06-07T10:32:17Z</time>
      </trkpt>
      <trkpt lat="45.9299" lon="4.72925">
        <ele>171</ele>
        <time>2017-06-07T10:32:18Z</time>
      </trkpt>
      <trkpt lat="45.92985" lon="4.7293">
        <ele>171</ele>
        <time>2017-06-07T10:32:19Z</time>
      </trkpt>
      <trkpt lat="45.92981" lon="4.72935">
        <ele>171</ele>
        <time>2017-06-07T10:32:20Z</time>
      </trkpt>
      <trkpt lat="45.92977" lon="4.7294">
        <ele>171</ele>
        <time>2017-06-07T10:32:21Z</time>
      </trkpt>
      <trkpt lat="45.92973" lon="4.72945">
        <ele>171</ele>
        <time>2017-06-07T10:32:22Z</time>
      </trkpt>
      <trkpt lat="45.92969" lon="4.72951">
        <ele>171</ele>
        <time>2017-06-07T10:32:23Z</time>
      </trkpt>
      <trkpt lat="45.92965" lon="4.72956">
        <ele>171</ele>
        <time>2017-06-07T10:32:24Z</time>
      </trkpt>
      <trkpt lat="45.92961" lon="4.72962">
        <ele>171</ele>
        <time>2017-06-07T10:32:25Z</time>
      </trkpt>
      <trkpt lat="45.92956" lon="4.72967">
        <ele>171</ele>
        <time>2017-06-07T10:32:26Z</time>
      </trkpt>
      <trkpt lat="45.92952" lon="4.72972">
        <ele>171</ele>
        <time>2017-06-07T10:32:27Z</time>
      </trkpt>
      <trkpt lat="45.92947" lon="4.72977">
        <ele>171</ele>
        <time>2017-06-07T10:32:28Z</time>
      </trkpt>
      <trkpt lat="45.92943" lon="4.72982">
        <ele>171</ele>
        <time>2017-06-07T10:32:29Z</time>
      </trkpt>
      <trkpt lat="45.92939" lon="4.72987">
        <ele>171</ele>
        <time>2017-06-07T10:32:30Z</time>
      </trkpt>
      <trkpt lat="45.92935" lon="4.72992">
        <ele>172</ele>
        <time>2017-06-07T10:32:31Z</time>
      </trkpt>
      <trkpt lat="45.92932" lon="4.72997">
        <ele>172</ele>
        <time>2017-06-07T10:32:32Z</time>
      </trkpt>
      <trkpt lat="45.92928" lon="4.73001">
        <ele>172</ele>
        <time>2017-06-07T10:32:33Z</time>
      </trkpt>
      <trkpt lat="45.92925" lon="4.73006">
        <ele>172</ele>
        <time>2017-06-07T10:32:34Z</time>
      </trkpt>
      <trkpt lat="45.92921" lon="4.7301">
        <ele>172</ele>
        <time>2017-06-07T10:32:35Z</time>
      </trkpt>
      <trkpt lat="45.92917" lon="4.73015">
        <ele>172</ele>
        <time>2017-06-07T10:32:36Z</time>
      </trkpt>
      <trkpt lat="45.92914" lon="4.73019">
        <ele>172</ele>
        <time>2017-06-07T10:32:37Z</time>
      </trkpt>
      <trkpt lat="45.9291" lon="4.73024">
        <ele>172</ele>
        <time>2017-06-07T10:32:38Z</time>
      </trkpt>
      <trkpt lat="45.92907" lon="4.73029">
        <ele>172</ele>
        <time>2017-06-07T10:32:39Z</time>
      </trkpt>
      <trkpt lat="45.92903" lon="4.73034">
        <ele>172</ele>
        <time>2017-06-07T10:32:40Z</time>
      </trkpt>
      <trkpt lat="45.929" lon="4.73039">
        <ele>172</ele>
        <time>2017-06-07T10:32:41Z</time>
      </trkpt>
      <trkpt lat="45.92897" lon="4.73044">
        <ele>172</ele>
        <time>2017-06-07T10:32:42Z</time>
      </trkpt>
      <trkpt lat="45.92894" lon="4.73049">
        <ele>172</ele>
        <time>2017-06-07T10:32:43Z</time>
      </trkpt>
      <trkpt lat="45.9289" lon="4.73055">
        <ele>172</ele>
        <time>2017-06-07T10:32:44Z</time>
      </trkpt>
      <trkpt lat="45.92887" lon="4.7306">
        <ele>172</ele>
        <time>2017-06-07T10:32:45Z</time>
      </trkpt>
      <trkpt lat="45.92883" lon="4.73066">
        <ele>172</ele>
        <time>2017-06-07T10:32:46Z</time>
      </trkpt>
      <trkpt lat="45.9288" lon="4.7307">
        <ele>172</ele>
        <time>2017-06-07T10:32:47Z</time>
      </trkpt>
      <trkpt lat="45.92876" lon="4.73074">
        <ele>172</ele>
        <time>2017-06-07T10:32:48Z</time>
      </trkpt>
      <trkpt lat="45.92873" lon="4.73079">
        <ele>172</ele>
        <time>2017-06-07T10:32:49Z</time>
      </trkpt>
      <trkpt lat="45.9287" lon="4.73084">
        <ele>172</ele>
        <time>2017-06-07T10:32:50Z</time>
      </trkpt>
      <trkpt lat="45.92867" lon="4.73089">
        <ele>172</ele>
        <time>2017-06-07T10:32:51Z</time>
      </trkpt>
      <trkpt lat="45.92863" lon="4.73094">
        <ele>171</ele>
        <time>2017-06-07T10:32:52Z</time>
      </trkpt>
      <trkpt lat="45.9286" lon="4.73098">
        <ele>171</ele>
        <time>2017-06-07T10:32:53Z</time>
      </trkpt>
      <trkpt lat="45.92852" lon="4.73101">
        <ele>171</ele>
        <time>2017-06-07T10:32:55Z</time>
      </trkpt>
      <trkpt lat="45.92849" lon="4.73099">
        <ele>171</ele>
        <time>2017-06-07T10:32:56Z</time>
      </trkpt>
      <trkpt lat="45.92846" lon="4.7309">
        <ele>171</ele>
        <time>2017-06-07T10:32:58Z</time>
      </trkpt>
      <trkpt lat="45.92846" lon="4.73085">
        <ele>171</ele>
        <time>2017-06-07T10:32:59Z</time>
      </trkpt>
      <trkpt lat="45.92845" lon="4.73073">
        <ele>171</ele>
        <time>2017-06-07T10:33:01Z</time>
      </trkpt>
      <trkpt lat="45.92844" lon="4.73067">
        <ele>171</ele>
        <time>2017-06-07T10:33:02Z</time>
      </trkpt>
      <trkpt lat="45.92843" lon="4.7306">
        <ele>171</ele>
        <time>2017-06-07T10:33:03Z</time>
      </trkpt>
      <trkpt lat="45.92842" lon="4.73053">
        <ele>171</ele>
        <time>2017-06-07T10:33:04Z</time>
      </trkpt>
      <trkpt lat="45.92841" lon="4.73047">
        <ele>171</ele>
        <time>2017-06-07T10:33:05Z</time>
      </trkpt>
      <trkpt lat="45.92839" lon="4.7304">
        <ele>171</ele>
        <time>2017-06-07T10:33:06Z</time>
      </trkpt>
      <trkpt lat="45.92838" lon="4.73033">
        <ele>171</ele>
        <time>2017-06-07T10:33:07Z</time>
      </trkpt>
      <trkpt lat="45.92837" lon="4.73026">
        <ele>171</ele>
        <time>2017-06-07T10:33:08Z</time>
      </trkpt>
      <trkpt lat="45.92835" lon="4.73019">
        <ele>171</ele>
        <time>2017-06-07T10:33:09Z</time>
      </trkpt>
      <trkpt lat="45.92834" lon="4.73012">
        <ele>171</ele>
        <time>2017-06-07T10:33:10Z</time>
      </trkpt>
      <trkpt lat="45.92832" lon="4.73006">
        <ele>170</ele>
        <time>2017-06-07T10:33:11Z</time>
      </trkpt>
      <trkpt lat="45.92831" lon="4.72999">
        <ele>170</ele>
        <time>2017-06-07T10:33:12Z</time>
      </trkpt>
      <trkpt lat="45.92831" lon="4.72986">
        <ele>170</ele>
        <time>2017-06-07T10:33:14Z</time>
      </trkpt>
      <trkpt lat="45.9283" lon="4.7298">
        <ele>170</ele>
        <time>2017-06-07T10:33:15Z</time>
      </trkpt>
      <trkpt lat="45.92828" lon="4.72973">
        <ele>170</ele>
        <time>2017-06-07T10:33:16Z</time>
      </trkpt>
      <trkpt lat="45.92827" lon="4.72965">
        <ele>170</ele>
        <time>2017-06-07T10:33:17Z</time>
      </trkpt>
      <trkpt lat="45.92826" lon="4.72957">
        <ele>170</ele>
        <time>2017-06-07T10:33:18Z</time>
      </trkpt>
      <trkpt lat="45.92825" lon="4.7295">
        <ele>170</ele>
        <time>2017-06-07T10:33:19Z</time>
      </trkpt>
      <trkpt lat="45.92824" lon="4.72942">
        <ele>170</ele>
        <time>2017-06-07T10:33:20Z</time>
      </trkpt>
      <trkpt lat="45.92825" lon="4.72934">
        <ele>170</ele>
        <time>2017-06-07T10:33:21Z</time>
      </trkpt>
      <trkpt lat="45.92824" lon="4.72926">
        <ele>170</ele>
        <time>2017-06-07T10:33:22Z</time>
      </trkpt>
      <trkpt lat="45.92823" lon="4.72919">
        <ele>170</ele>
        <time>2017-06-07T10:33:23Z</time>
      </trkpt>
      <trkpt lat="45.92823" lon="4.72912">
        <ele>170</ele>
        <time>2017-06-07T10:33:24Z</time>
      </trkpt>
      <trkpt lat="45.92822" lon="4.72905">
        <ele>170</ele>
        <time>2017-06-07T10:33:25Z</time>
      </trkpt>
      <trkpt lat="45.9282" lon="4.72893">
        <ele>170</ele>
        <time>2017-06-07T10:33:27Z</time>
      </trkpt>
      <trkpt lat="45.92819" lon="4.72887">
        <ele>170</ele>
        <time>2017-06-07T10:33:28Z</time>
      </trkpt>
      <trkpt lat="45.92818" lon="4.7288">
        <ele>170</ele>
        <time>2017-06-07T10:33:29Z</time>
      </trkpt>
      <trkpt lat="45.92817" lon="4.72873">
        <ele>170</ele>
        <time>2017-06-07T10:33:30Z</time>
      </trkpt>
      <trkpt lat="45.92816" lon="4.72867">
        <ele>170</ele>
        <time>2017-06-07T10:33:31Z</time>
      </trkpt>
      <trkpt lat="45.92814" lon="4.72861">
        <ele>170</ele>
        <time>2017-06-07T10:33:32Z</time>
      </trkpt>
      <trkpt lat="45.92813" lon="4.72854">
        <ele>170</ele>
        <time>2017-06-07T10:33:33Z</time>
      </trkpt>
      <trkpt lat="45.92811" lon="4.72847">
        <ele>170</ele>
        <time>2017-06-07T10:33:34Z</time>
      </trkpt>
      <trkpt lat="45.9281" lon="4.7284">
        <ele>170</ele>
        <time>2017-06-07T10:33:35Z</time>
      </trkpt>
      <trkpt lat="45.92809" lon="4.72833">
        <ele>171</ele>
        <time>2017-06-07T10:33:36Z</time>
      </trkpt>
      <trkpt lat="45.92808" lon="4.72826">
        <ele>171</ele>
        <time>2017-06-07T10:33:37Z</time>
      </trkpt>
      <trkpt lat="45.92806" lon="4.72818">
        <ele>171</ele>
        <time>2017-06-07T10:33:38Z</time>
      </trkpt>
      <trkpt lat="45.92805" lon="4.72811">
        <ele>171</ele>
        <time>2017-06-07T10:33:39Z</time>
      </trkpt>
      <trkpt lat="45.92804" lon="4.72804">
        <ele>171</ele>
        <time>2017-06-07T10:33:40Z</time>
      </trkpt>
      <trkpt lat="45.92802" lon="4.72797">
        <ele>171</ele>
        <time>2017-06-07T10:33:41Z</time>
      </trkpt>
      <trkpt lat="45.92802" lon="4.72791">
        <ele>171</ele>
        <time>2017-06-07T10:33:42Z</time>
      </trkpt>
      <trkpt lat="45.92794" lon="4.72786">
        <ele>171</ele>
        <time>2017-06-07T10:33:45Z</time>
      </trkpt>
      <trkpt lat="45.92789" lon="4.72788">
        <ele>171</ele>
        <time>2017-06-07T10:33:46Z</time>
      </trkpt>
      <trkpt lat="45.92784" lon="4.72791">
        <ele>170</ele>
        <time>2017-06-07T10:33:47Z</time>
      </trkpt>
      <trkpt lat="45.9278" lon="4.72793">
        <ele>170</ele>
        <time>2017-06-07T10:33:48Z</time>
      </trkpt>
      <trkpt lat="45.92776" lon="4.72796">
        <ele>170</ele>
        <time>2017-06-07T10:33:49Z</time>
      </trkpt>
      <trkpt lat="45.92773" lon="4.728">
        <ele>170</ele>
        <time>2017-06-07T10:33:50Z</time>
      </trkpt>
      <trkpt lat="45.92769" lon="4.72803">
        <ele>170</ele>
        <time>2017-06-07T10:33:51Z</time>
      </trkpt>
      <trkpt lat="45.92765" lon="4.72806">
        <ele>170</ele>
        <time>2017-06-07T10:33:52Z</time>
      </trkpt>
      <trkpt lat="45.9276" lon="4.72808">
        <ele>170</ele>
        <time>2017-06-07T10:33:53Z</time>
      </trkpt>
      <trkpt lat="45.92755" lon="4.72811">
        <ele>170</ele>
        <time>2017-06-07T10:33:54Z</time>
      </trkpt>
      <trkpt lat="45.92751" lon="4.72813">
        <ele>170</ele>
        <time>2017-06-07T10:33:55Z</time>
      </trkpt>
      <trkpt lat="45.92747" lon="4.72816">
        <ele>170</ele>
        <time>2017-06-07T10:33:56Z</time>
      </trkpt>
      <trkpt lat="45.92739" lon="4.72822">
        <ele>169</ele>
        <time>2017-06-07T10:33:58Z</time>
      </trkpt>
      <trkpt lat="45.92735" lon="4.72826">
        <ele>169</ele>
        <time>2017-06-07T10:33:59Z</time>
      </trkpt>
      <trkpt lat="45.92731" lon="4.72829">
        <ele>169</ele>
        <time>2017-06-07T10:34:00Z</time>
      </trkpt>
      <trkpt lat="45.92727" lon="4.72832">
        <ele>170</ele>
        <time>2017-06-07T10:34:01Z</time>
      </trkpt>
      <trkpt lat="45.92722" lon="4.72836">
        <ele>169</ele>
        <time>2017-06-07T10:34:02Z</time>
      </trkpt>
      <trkpt lat="45.92717" lon="4.7284">
        <ele>169</ele>
        <time>2017-06-07T10:34:03Z</time>
      </trkpt>
      <trkpt lat="45.92711" lon="4.72844">
        <ele>169</ele>
        <time>2017-06-07T10:34:04Z</time>
      </trkpt>
      <trkpt lat="45.92706" lon="4.72848">
        <ele>169</ele>
        <time>2017-06-07T10:34:05Z</time>
      </trkpt>
      <trkpt lat="45.92701" lon="4.72853">
        <ele>169</ele>
        <time>2017-06-07T10:34:06Z</time>
      </trkpt>
      <trkpt lat="45.92696" lon="4.72858">
        <ele>169</ele>
        <time>2017-06-07T10:34:07Z</time>
      </trkpt>
      <trkpt lat="45.92691" lon="4.72862">
        <ele>169</ele>
        <time>2017-06-07T10:34:08Z</time>
      </trkpt>
      <trkpt lat="45.92686" lon="4.72866">
        <ele>169</ele>
        <time>2017-06-07T10:34:09Z</time>
      </trkpt>
      <trkpt lat="45.92682" lon="4.72869">
        <ele>169</ele>
        <time>2017-06-07T10:34:10Z</time>
      </trkpt>
      <trkpt lat="45.92677" lon="4.72873">
        <ele>169</ele>
        <time>2017-06-07T10:34:11Z</time>
      </trkpt>
      <trkpt lat="45.92673" lon="4.72876">
        <ele>170</ele>
        <time>2017-06-07T10:34:12Z</time>
      </trkpt>
      <trkpt lat="45.92669" lon="4.7288">
        <ele>170</ele>
        <time>2017-06-07T10:34:13Z</time>
      </trkpt>
      <trkpt lat="45.92664" lon="4.72883">
        <ele>169</ele>
        <time>2017-06-07T10:34:14Z</time>
      </trkpt>
      <trkpt lat="45.92661" lon="4.72887">
        <ele>169</ele>
        <time>2017-06-07T10:34:15Z</time>
      </trkpt>
      <trkpt lat="45.92653" lon="4.72894">
        <ele>169</ele>
        <time>2017-06-07T10:34:17Z</time>
      </trkpt>
      <trkpt lat="45.92649" lon="4.72897">
        <ele>169</ele>
        <time>2017-06-07T10:34:18Z</time>
      </trkpt>
      <trkpt lat="45.92645" lon="4.729">
        <ele>169</ele>
        <time>2017-06-07T10:34:19Z</time>
      </trkpt>
      <trkpt lat="45.92641" lon="4.72904">
        <ele>169</ele>
        <time>2017-06-07T10:34:20Z</time>
      </trkpt>
      <trkpt lat="45.92633" lon="4.7291">
        <ele>169</ele>
        <time>2017-06-07T10:34:22Z</time>
      </trkpt>
      <trkpt lat="45.92629" lon="4.72913">
        <ele>169</ele>
        <time>2017-06-07T10:34:23Z</time>
      </trkpt>
      <trkpt lat="45.92621" lon="4.72919">
        <ele>169</ele>
        <time>2017-06-07T10:34:25Z</time>
      </trkpt>
      <trkpt lat="45.92617" lon="4.72922">
        <ele>169</ele>
        <time>2017-06-07T10:34:26Z</time>
      </trkpt>
      <trkpt lat="45.92613" lon="4.72926">
        <ele>169</ele>
        <time>2017-06-07T10:34:27Z</time>
      </trkpt>
      <trkpt lat="45.92609" lon="4.7293">
        <ele>169</ele>
        <time>2017-06-07T10:34:28Z</time>
      </trkpt>
      <trkpt lat="45.92605" lon="4.72935">
        <ele>169</ele>
        <time>2017-06-07T10:34:29Z</time>
      </trkpt>
      <trkpt lat="45.926" lon="4.7294">
        <ele>169</ele>
        <time>2017-06-07T10:34:30Z</time>
      </trkpt>
      <trkpt lat="45.92596" lon="4.72944">
        <ele>169</ele>
        <time>2017-06-07T10:34:31Z</time>
      </trkpt>
      <trkpt lat="45.92591" lon="4.72949">
        <ele>169</ele>
        <time>2017-06-07T10:34:32Z</time>
      </trkpt>
      <trkpt lat="45.92587" lon="4.72954">
        <ele>169</ele>
        <time>2017-06-07T10:34:33Z</time>
      </trkpt>
      <trkpt lat="45.92584" lon="4.7296">
        <ele>169</ele>
        <time>2017-06-07T10:34:34Z</time>
      </trkpt>
      <trkpt lat="45.9258" lon="4.72964">
        <ele>169</ele>
        <time>2017-06-07T10:34:35Z</time>
      </trkpt>
      <trkpt lat="45.92576" lon="4.72968">
        <ele>169</ele>
        <time>2017-06-07T10:34:36Z</time>
      </trkpt>
      <trkpt lat="45.92572" lon="4.72973">
        <ele>169</ele>
        <time>2017-06-07T10:34:37Z</time>
      </trkpt>
      <trkpt lat="45.92568" lon="4.72977">
        <ele>169</ele>
        <time>2017-06-07T10:34:38Z</time>
      </trkpt>
      <trkpt lat="45.92564" lon="4.72981">
        <ele>169</ele>
        <time>2017-06-07T10:34:39Z</time>
      </trkpt>
      <trkpt lat="45.9256" lon="4.72984">
        <ele>169</ele>
        <time>2017-06-07T10:34:40Z</time>
      </trkpt>
      <trkpt lat="45.92556" lon="4.72988">
        <ele>169</ele>
        <time>2017-06-07T10:34:41Z</time>
      </trkpt>
      <trkpt lat="45.92551" lon="4.72993">
        <ele>169</ele>
        <time>2017-06-07T10:34:42Z</time>
      </trkpt>
      <trkpt lat="45.92547" lon="4.72997">
        <ele>169</ele>
        <time>2017-06-07T10:34:43Z</time>
      </trkpt>
      <trkpt lat="45.92542" lon="4.73002">
        <ele>169</ele>
        <time>2017-06-07T10:34:44Z</time>
      </trkpt>
      <trkpt lat="45.92538" lon="4.73007">
        <ele>169</ele>
        <time>2017-06-07T10:34:45Z</time>
      </trkpt>
      <trkpt lat="45.92533" lon="4.73011">
        <ele>169</ele>
        <time>2017-06-07T10:34:46Z</time>
      </trkpt>
      <trkpt lat="45.92528" lon="4.73015">
        <ele>169</ele>
        <time>2017-06-07T10:34:47Z</time>
      </trkpt>
      <trkpt lat="45.92524" lon="4.73019">
        <ele>169</ele>
        <time>2017-06-07T10:34:48Z</time>
      </trkpt>
      <trkpt lat="45.9252" lon="4.73023">
        <ele>169</ele>
        <time>2017-06-07T10:34:49Z</time>
      </trkpt>
      <trkpt lat="45.92516" lon="4.73027">
        <ele>169</ele>
        <time>2017-06-07T10:34:50Z</time>
      </trkpt>
      <trkpt lat="45.92512" lon="4.7303">
        <ele>169</ele>
        <time>2017-06-07T10:34:51Z</time>
      </trkpt>
      <trkpt lat="45.92508" lon="4.73034">
        <ele>169</ele>
        <time>2017-06-07T10:34:52Z</time>
      </trkpt>
      <trkpt lat="45.92501" lon="4.7304">
        <ele>169</ele>
        <time>2017-06-07T10:34:54Z</time>
      </trkpt>
      <trkpt lat="45.92497" lon="4.73043">
        <ele>170</ele>
        <time>2017-06-07T10:34:55Z</time>
      </trkpt>
      <trkpt lat="45.92489" lon="4.73049">
        <ele>170</ele>
        <time>2017-06-07T10:34:57Z</time>
      </trkpt>
      <trkpt lat="45.92485" lon="4.73054">
        <ele>170</ele>
        <time>2017-06-07T10:34:58Z</time>
      </trkpt>
      <trkpt lat="45.9248" lon="4.73058">
        <ele>170</ele>
        <time>2017-06-07T10:34:59Z</time>
      </trkpt>
      <trkpt lat="45.92475" lon="4.73063">
        <ele>170</ele>
        <time>2017-06-07T10:35:00Z</time>
      </trkpt>
      <trkpt lat="45.9247" lon="4.73068">
        <ele>170</ele>
        <time>2017-06-07T10:35:01Z</time>
      </trkpt>
      <trkpt lat="45.92465" lon="4.73073">
        <ele>170</ele>
        <time>2017-06-07T10:35:02Z</time>
      </trkpt>
      <trkpt lat="45.9246" lon="4.73077">
        <ele>170</ele>
        <time>2017-06-07T10:35:03Z</time>
      </trkpt>
      <trkpt lat="45.92455" lon="4.73081">
        <ele>170</ele>
        <time>2017-06-07T10:35:04Z</time>
      </trkpt>
      <trkpt lat="45.9245" lon="4.73085">
        <ele>170</ele>
        <time>2017-06-07T10:35:05Z</time>
      </trkpt>
      <trkpt lat="45.92445" lon="4.73089">
        <ele>170</ele>
        <time>2017-06-07T10:35:06Z</time>
      </trkpt>
      <trkpt lat="45.9244" lon="4.73093">
        <ele>170</ele>
        <time>2017-06-07T10:35:07Z</time>
      </trkpt>
      <trkpt lat="45.92436" lon="4.73097">
        <ele>171</ele>
        <time>2017-06-07T10:35:08Z</time>
      </trkpt>
      <trkpt lat="45.92432" lon="4.73101">
        <ele>171</ele>
        <time>2017-06-07T10:35:09Z</time>
      </trkpt>
      <trkpt lat="45.92427" lon="4.73104">
        <ele>171</ele>
        <time>2017-06-07T10:35:10Z</time>
      </trkpt>
      <trkpt lat="45.92423" lon="4.73107">
        <ele>171</ele>
        <time>2017-06-07T10:35:11Z</time>
      </trkpt>
      <trkpt lat="45.92419" lon="4.73111">
        <ele>170</ele>
        <time>2017-06-07T10:35:12Z</time>
      </trkpt>
      <trkpt lat="45.92415" lon="4.73115">
        <ele>171</ele>
        <time>2017-06-07T10:35:13Z</time>
      </trkpt>
      <trkpt lat="45.92412" lon="4.73119">
        <ele>171</ele>
        <time>2017-06-07T10:35:14Z</time>
      </trkpt>
      <trkpt lat="45.92409" lon="4.73125">
        <ele>171</ele>
        <time>2017-06-07T10:35:15Z</time>
      </trkpt>
      <trkpt lat="45.92408" lon="4.73131">
        <ele>171</ele>
        <time>2017-06-07T10:35:16Z</time>
      </trkpt>
      <trkpt lat="45.92407" lon="4.73138">
        <ele>171</ele>
        <time>2017-06-07T10:35:17Z</time>
      </trkpt>
      <trkpt lat="45.92407" lon="4.73144">
        <ele>171</ele>
        <time>2017-06-07T10:35:18Z</time>
      </trkpt>
      <trkpt lat="45.92407" lon="4.73151">
        <ele>171</ele>
        <time>2017-06-07T10:35:19Z</time>
      </trkpt>
      <trkpt lat="45.92407" lon="4.73158">
        <ele>170</ele>
        <time>2017-06-07T10:35:20Z</time>
      </trkpt>
      <trkpt lat="45.92408" lon="4.7317">
        <ele>170</ele>
        <time>2017-06-07T10:35:22Z</time>
      </trkpt>
      <trkpt lat="45.92408" lon="4.73176">
        <ele>171</ele>
        <time>2017-06-07T10:35:23Z</time>
      </trkpt>
      <trkpt lat="45.92409" lon="4.73183">
        <ele>171</ele>
        <time>2017-06-07T10:35:24Z</time>
      </trkpt>
      <trkpt lat="45.92409" lon="4.73191">
        <ele>171</ele>
        <time>2017-06-07T10:35:25Z</time>
      </trkpt>
      <trkpt lat="45.92409" lon="4.73198">
        <ele>171</ele>
        <time>2017-06-07T10:35:26Z</time>
      </trkpt>
      <trkpt lat="45.92409" lon="4.73205">
        <ele>171</ele>
        <time>2017-06-07T10:35:27Z</time>
      </trkpt>
      <trkpt lat="45.92409" lon="4.73212">
        <ele>171</ele>
        <time>2017-06-07T10:35:28Z</time>
      </trkpt>
      <trkpt lat="45.9241" lon="4.7322">
        <ele>171</ele>
        <time>2017-06-07T10:35:29Z</time>
      </trkpt>
      <trkpt lat="45.9241" lon="4.73228">
        <ele>171</ele>
        <time>2017-06-07T10:35:30Z</time>
      </trkpt>
      <trkpt lat="45.9241" lon="4.73237">
        <ele>171</ele>
        <time>2017-06-07T10:35:31Z</time>
      </trkpt>
      <trkpt lat="45.92411" lon="4.73246">
        <ele>171</ele>
        <time>2017-06-07T10:35:32Z</time>
      </trkpt>
      <trkpt lat="45.92411" lon="4.73254">
        <ele>171</ele>
        <time>2017-06-07T10:35:33Z</time>
      </trkpt>
      <trkpt lat="45.92412" lon="4.73263">
        <ele>171</ele>
        <time>2017-06-07T10:35:34Z</time>
      </trkpt>
      <trkpt lat="45.92412" lon="4.73271">
        <ele>171</ele>
        <time>2017-06-07T10:35:35Z</time>
      </trkpt>
      <trkpt lat="45.92413" lon="4.73279">
        <ele>171</ele>
        <time>2017-06-07T10:35:36Z</time>
      </trkpt>
      <trkpt lat="45.92413" lon="4.73287">
        <ele>171</ele>
        <time>2017-06-07T10:35:37Z</time>
      </trkpt>
      <trkpt lat="45.92413" lon="4.73294">
        <ele>171</ele>
        <time>2017-06-07T10:35:38Z</time>
      </trkpt>
      <trkpt lat="45.92414" lon="4.73302">
        <ele>171</ele>
        <time>2017-06-07T10:35:39Z</time>
      </trkpt>
      <trkpt lat="45.92415" lon="4.73309">
        <ele>171</ele>
        <time>2017-06-07T10:35:40Z</time>
      </trkpt>
      <trkpt lat="45.92415" lon="4.73317">
        <ele>171</ele>
        <time>2017-06-07T10:35:41Z</time>
      </trkpt>
      <trkpt lat="45.92416" lon="4.73324">
        <ele>171</ele>
        <time>2017-06-07T10:35:42Z</time>
      </trkpt>
      <trkpt lat="45.92417" lon="4.73332">
        <ele>171</ele>
        <time>2017-06-07T10:35:43Z</time>
      </trkpt>
      <trkpt lat="45.92418" lon="4.73339">
        <ele>171</ele>
        <time>2017-06-07T10:35:44Z</time>
      </trkpt>
      <trkpt lat="45.92419" lon="4.73346">
        <ele>171</ele>
        <time>2017-06-07T10:35:45Z</time>
      </trkpt>
      <trkpt lat="45.92421" lon="4.73353">
        <ele>171</ele>
        <time>2017-06-07T10:35:46Z</time>
      </trkpt>
      <trkpt lat="45.92422" lon="4.7336">
        <ele>171</ele>
        <time>2017-06-07T10:35:47Z</time>
      </trkpt>
      <trkpt lat="45.92423" lon="4.73367">
        <ele>172</ele>
        <time>2017-06-07T10:35:48Z</time>
      </trkpt>
      <trkpt lat="45.92423" lon="4.73373">
        <ele>172</ele>
        <time>2017-06-07T10:35:49Z</time>
      </trkpt>
      <trkpt lat="45.92424" lon="4.7338">
        <ele>172</ele>
        <time>2017-06-07T10:35:50Z</time>
      </trkpt>
      <trkpt lat="45.92425" lon="4.73386">
        <ele>172</ele>
        <time>2017-06-07T10:35:51Z</time>
      </trkpt>
      <trkpt lat="45.92427" lon="4.73393">
        <ele>172</ele>
        <time>2017-06-07T10:35:52Z</time>
      </trkpt>
      <trkpt lat="45.92429" lon="4.73399">
        <ele>172</ele>
        <time>2017-06-07T10:35:53Z</time>
      </trkpt>
      <trkpt lat="45.92434" lon="4.73409">
        <ele>172</ele>
        <time>2017-06-07T10:35:55Z</time>
      </trkpt>
      <trkpt lat="45.92437" lon="4.73413">
        <ele>172</ele>
        <time>2017-06-07T10:35:56Z</time>
      </trkpt>
      <trkpt lat="45.92444" lon="4.73419">
        <ele>173</ele>
        <time>2017-06-07T10:35:58Z</time>
      </trkpt>
      <trkpt lat="45.92448" lon="4.73421">
        <ele>173</ele>
        <time>2017-06-07T10:35:59Z</time>
      </trkpt>
      <trkpt lat="45.92455" lon="4.73424">
        <ele>173</ele>
        <time>2017-06-07T10:36:01Z</time>
      </trkpt>
      <trkpt lat="45.92457" lon="4.73427">
        <ele>173</ele>
        <time>2017-06-07T10:36:02Z</time>
      </trkpt>
      <trkpt lat="45.92463" lon="4.73437">
        <ele>173</ele>
        <time>2017-06-07T10:36:04Z</time>
      </trkpt>
      <trkpt lat="45.92465" lon="4.73443">
        <ele>173</ele>
        <time>2017-06-07T10:36:05Z</time>
      </trkpt>
      <trkpt lat="45.92467" lon="4.73449">
        <ele>173</ele>
        <time>2017-06-07T10:36:06Z</time>
      </trkpt>
      <trkpt lat="45.92468" lon="4.73456">
        <ele>173</ele>
        <time>2017-06-07T10:36:07Z</time>
      </trkpt>
      <trkpt lat="45.92468" lon="4.73463">
        <ele>173</ele>
        <time>2017-06-07T10:36:08Z</time>
      </trkpt>
      <trkpt lat="45.92468" lon="4.73471">
        <ele>173</ele>
        <time>2017-06-07T10:36:09Z</time>
      </trkpt>
      <trkpt lat="45.92469" lon="4.73478">
        <ele>173</ele>
        <time>2017-06-07T10:36:10Z</time>
      </trkpt>
      <trkpt lat="45.92469" lon="4.73485">
        <ele>173</ele>
        <time>2017-06-07T10:36:11Z</time>
      </trkpt>
      <trkpt lat="45.92469" lon="4.73492">
        <ele>173</ele>
        <time>2017-06-07T10:36:12Z</time>
      </trkpt>
      <trkpt lat="45.92468" lon="4.73498">
        <ele>173</ele>
        <time>2017-06-07T10:36:13Z</time>
      </trkpt>
      <trkpt lat="45.92468" lon="4.73505">
        <ele>174</ele>
        <time>2017-06-07T10:36:14Z</time>
      </trkpt>
      <trkpt lat="45.92467" lon="4.73511">
        <ele>174</ele>
        <time>2017-06-07T10:36:15Z</time>
      </trkpt>
      <trkpt lat="45.92467" lon="4.73521">
        <ele>174</ele>
        <time>2017-06-07T10:36:17Z</time>
      </trkpt>
      <trkpt lat="45.92467" lon="4.73526">
        <ele>174</ele>
        <time>2017-06-07T10:36:18Z</time>
      </trkpt>
      <trkpt lat="45.92466" lon="4.73535">
        <ele>174</ele>
        <time>2017-06-07T10:36:20Z</time>
      </trkpt>
      <trkpt lat="45.92466" lon="4.73541">
        <ele>174</ele>
        <time>2017-06-07T10:36:21Z</time>
      </trkpt>
      <trkpt lat="45.92466" lon="4.73551">
        <ele>173</ele>
        <time>2017-06-07T10:36:23Z</time>
      </trkpt>
      <trkpt lat="45.92465" lon="4.73557">
        <ele>173</ele>
        <time>2017-06-07T10:36:24Z</time>
      </trkpt>
      <trkpt lat="45.92466" lon="4.73564">
        <ele>173</ele>
        <time>2017-06-07T10:36:25Z</time>
      </trkpt>
      <trkpt lat="45.92466" lon="4.73571">
        <ele>173</ele>
        <time>2017-06-07T10:36:26Z</time>
      </trkpt>
      <trkpt lat="45.92466" lon="4.73578">
        <ele>173</ele>
        <time>2017-06-07T10:36:27Z</time>
      </trkpt>
      <trkpt lat="45.92467" lon="4.73585">
        <ele>174</ele>
        <time>2017-06-07T10:36:28Z</time>
      </trkpt>
      <trkpt lat="45.92467" lon="4.73592">
        <ele>174</ele>
        <time>2017-06-07T10:36:29Z</time>
      </trkpt>
      <trkpt lat="45.92468" lon="4.736">
        <ele>174</ele>
        <time>2017-06-07T10:36:30Z</time>
      </trkpt>
      <trkpt lat="45.92468" lon="4.73608">
        <ele>174</ele>
        <time>2017-06-07T10:36:31Z</time>
      </trkpt>
      <trkpt lat="45.92468" lon="4.73616">
        <ele>174</ele>
        <time>2017-06-07T10:36:32Z</time>
      </trkpt>
      <trkpt lat="45.92469" lon="4.73624">
        <ele>174</ele>
        <time>2017-06-07T10:36:33Z</time>
      </trkpt>
      <trkpt lat="45.9247" lon="4.73632">
        <ele>174</ele>
        <time>2017-06-07T10:36:34Z</time>
      </trkpt>
      <trkpt lat="45.9247" lon="4.73639">
        <ele>174</ele>
        <time>2017-06-07T10:36:35Z</time>
      </trkpt>
      <trkpt lat="45.92469" lon="4.73646">
        <ele>174</ele>
        <time>2017-06-07T10:36:36Z</time>
      </trkpt>
      <trkpt lat="45.92469" lon="4.73653">
        <ele>174</ele>
        <time>2017-06-07T10:36:37Z</time>
      </trkpt>
      <trkpt lat="45.92469" lon="4.7366">
        <ele>174</ele>
        <time>2017-06-07T10:36:38Z</time>
      </trkpt>
      <trkpt lat="45.92469" lon="4.73666">
        <ele>174</ele>
        <time>2017-06-07T10:36:39Z</time>
      </trkpt>
      <trkpt lat="45.92469" lon="4.73673">
        <ele>174</ele>
        <time>2017-06-07T10:36:40Z</time>
      </trkpt>
      <trkpt lat="45.92469" lon="4.73679">
        <ele>174</ele>
        <time>2017-06-07T10:36:41Z</time>
      </trkpt>
      <trkpt lat="45.92468" lon="4.73686">
        <ele>174</ele>
        <time>2017-06-07T10:36:42Z</time>
      </trkpt>
      <trkpt lat="45.92468" lon="4.73692">
        <ele>174</ele>
        <time>2017-06-07T10:36:43Z</time>
      </trkpt>
      <trkpt lat="45.92468" lon="4.73699">
        <ele>174</ele>
        <time>2017-06-07T10:36:44Z</time>
      </trkpt>
      <trkpt lat="45.92467" lon="4.73708">
        <ele>174</ele>
        <time>2017-06-07T10:36:46Z</time>
      </trkpt>
      <trkpt lat="45.92467" lon="4.73712">
        <ele>174</ele>
        <time>2017-06-07T10:36:47Z</time>
      </trkpt>
      <trkpt lat="45.92466" lon="4.73708">
        <ele>174</ele>
        <time>2017-06-07T10:36:48Z</time>
      </trkpt>
      <trkpt lat="45.92465" lon="4.73709">
        <ele>174</ele>
        <time>2017-06-07T10:37:14.524Z</time>
      </trkpt>
    </trkseg>
  </trk>
</gpx>